
Distance (Route):
Temperature : 16.7°C
Humidity : 69.8%
Pressure : 0hPa| Receiver | Frames | First received | Last received |
|---|---|---|---|
| OE5MMP-10 | 398 | 2026-09-03 23:28:54 | 2026-09-04 01:08:57 |
| DO3MHA-11 | 383 | 2026-09-03 23:31:07 | 2026-09-04 01:06:53 |
| PETON7-10 | 221 | 2026-09-03 23:45:31 | 2026-09-04 01:08:29 |
| OE5DRO-10 | 188 | 2026-09-03 23:36:02 | 2026-09-04 01:11:45 |
| PG1ADW-2 | 159 | 2026-09-03 23:35:24 | 2026-09-04 01:11:11 |
| ANDY1245 | 129 | 2026-09-03 23:29:31 | 2026-09-04 00:58:39 |
| OE3JTB-15 | 126 | 2026-09-03 23:22:51 | 2026-09-04 01:15:48 |
| EDDB2-11 | 93 | 2026-09-03 23:39:37 | 2026-09-04 01:04:59 |
| SONDE2-11 | 89 | 2026-09-03 23:49:27 | 2026-09-04 01:05:01 |
| NBG1-10 | 82 | 2026-09-03 23:32:46 | 2026-09-04 01:05:08 |
| OE5DXL-15 | 79 | 2026-09-03 23:42:42 | 2026-09-04 01:10:23 |
| OK1ALN | 70 | 2026-09-03 23:18:38 | 2026-09-03 23:50:05 |
| HA6NAB-11 | 64 | 2026-09-04 00:05:20 | 2026-09-04 00:55:46 |
| OE3OSB-13 | 63 | 2026-09-04 00:12:44 | 2026-09-04 01:13:51 |
| S52SK | 50 | 2026-09-03 23:43:51 | 2026-09-04 01:04:44 |
| AA1-15 | 42 | 2026-09-04 00:39:23 | 2026-09-04 00:47:45 |
| DB0UT-7 | 37 | 2026-09-04 00:04:06 | 2026-09-04 00:55:07 |
| SP3BTT-10 | 29 | 2026-09-03 23:35:58 | 2026-09-04 00:59:46 |
| DL6DJ-15 | 27 | 2026-09-04 00:19:46 | 2026-09-04 00:50:50 |
| SP6BVK | 25 | 2026-09-04 00:48:36 | 2026-09-04 01:02:54 |
| OE5WHR-10 | 15 | 2026-09-03 23:46:35 | 2026-09-03 23:53:30 |
| OK1SLM-15 | 12 | 2026-09-04 00:22:59 | 2026-09-04 00:51:46 |
| DL1XH-west | 7 | 2026-09-04 00:44:00 | 2026-09-04 00:46:19 |
| DM0DOS-11 | 6 | 2026-09-04 00:44:31 | 2026-09-04 00:46:42 |
| SQ6EMJ | 5 | 2026-09-04 00:39:05 | 2026-09-04 00:45:15 |
| EDDB2-12 | 5 | 2026-09-04 01:01:09 | 2026-09-04 01:04:47 |
| Receiver | Date | Latitude | Longitude | Direction | Speed | Altitude | Climb | Temperature | Humidity | Pressure | Voltage | Killtimer | Uptime | BKT | XDATA |
|---|---|---|---|---|---|---|---|---|---|---|---|---|---|---|---|
| OE3JTB-15 | 2026-09-04 01:15:48 | 49.25126 | 15.60997 | 91° | 31km/h | 776m | -12.0m/s | 16.7°C | 69.8% | 0hPa | 2.6V | 00:00:00 | 02:29:01 | 00:00:00 | |
| OE3JTB-15 | 2026-09-04 01:15:46 | 49.25127 | 15.60974 | 95° | 29km/h | 798m | -11.2m/s | 16.4°C | 70.7% | 0hPa | 2.6V | 00:00:00 | 00:00:00 | 00:00:00 | |
| OE3JTB-15 | 2026-09-04 01:15:44 | 49.25128 | 15.60951 | 95° | 29km/h | 820m | -11.4m/s | 16.3°C | 71.2% | 0hPa | 2.5V | 00:00:00 | 00:00:00 | 00:00:00 | |
| OE3JTB-15 | 2026-09-04 01:15:42 | 49.25130 | 15.60928 | 100° | 31km/h | 843m | -11.2m/s | 16.1°C | 71.8% | 0hPa | 2.5V | 00:00:00 | 02:28:55 | 00:00:00 | |
| OE3JTB-15 | 2026-09-04 01:15:40 | 49.25134 | 15.60904 | 106° | 35km/h | 864m | -11.5m/s | 16.1°C | 71.1% | 0hPa | 2.5V | 08:00:00 | 00:00:00 | 00:00:00 | |
| OE3JTB-15 | 2026-09-04 01:15:38 | 49.25139 | 15.60877 | 107° | 37km/h | 885m | -10.1m/s | 16.2°C | 70.1% | 0hPa | 2.6V | 00:00:00 | 00:00:00 | 00:00:00 | |
| OE3JTB-15 | 2026-09-04 01:15:36 | 49.25144 | 15.60850 | 106° | 37km/h | 904m | -10.1m/s | 16.1°C | 70.7% | 0hPa | 2.6V | 00:00:00 | 02:28:49 | 00:00:00 | |
| OE3JTB-15 | 2026-09-04 01:15:32 | 49.25154 | 15.60789 | 108° | 44km/h | 944m | -11.2m/s | 15.6°C | 72.2% | 0hPa | 2.6V | 00:00:00 | 00:00:00 | 00:00:00 | |
| OE3JTB-15 | 2026-09-04 01:15:30 | 49.25161 | 15.60756 | 106° | 47km/h | 966m | -13.2m/s | 15.4°C | 73.1% | 0hPa | 2.6V | 00:00:00 | 02:28:43 | 00:00:00 | |
| OE3JTB-15 | 2026-09-04 01:15:28 | 49.25167 | 15.60719 | 108° | 51km/h | 990m | -12.9m/s | 15.5°C | 72.1% | 0hPa | 2.6V | 00:00:00 | 00:00:00 | 00:00:00 | |
| OE3JTB-15 | 2026-09-04 01:15:26 | 49.25175 | 15.60681 | 108° | 53km/h | 1015m | -12.7m/s | 15.4°C | 72.5% | 0hPa | 2.6V | 00:00:00 | 00:00:00 | 00:00:00 | |
| OE3JTB-15 | 2026-09-04 01:15:24 | 49.25183 | 15.60642 | 107° | 55km/h | 1039m | -11.8m/s | 15.2°C | 73.3% | 0hPa | 2.6V | 00:00:00 | 02:28:37 | 00:00:00 | |
| OE3JTB-15 | 2026-09-04 01:15:22 | 49.25192 | 15.60600 | 110° | 58km/h | 1061m | -11.9m/s | 15.0°C | 74.1% | 0hPa | 2.6V | 08:01:00 | 00:00:00 | 00:00:00 | |
| OE3JTB-15 | 2026-09-04 01:15:20 | 49.25202 | 15.60557 | 113° | 58km/h | 1086m | -13.1m/s | 14.9°C | 73.7% | 0hPa | 2.6V | 00:00:00 | 00:00:00 | 00:00:00 | |
| OE3JTB-15 | 2026-09-04 01:15:18 | 49.25214 | 15.60516 | 115° | 58km/h | 1111m | -12.4m/s | 14.8°C | 74.0% | 0hPa | 2.6V | 00:00:00 | 02:28:31 | 00:00:00 | |
| OE3JTB-15 | 2026-09-04 01:15:16 | 49.25227 | 15.60475 | 117° | 58km/h | 1135m | -13.0m/s | 14.6°C | 74.9% | 0hPa | 2.6V | 00:00:00 | 00:00:00 | 00:00:00 | |
| OE3JTB-15 | 2026-09-04 01:15:14 | 49.25239 | 15.60434 | 116° | 60km/h | 1161m | -12.8m/s | 14.6°C | 75.3% | 0hPa | 2.5V | 00:00:00 | 00:00:00 | 00:00:00 | |
| OE3JTB-15 | 2026-09-04 01:15:12 | 49.25253 | 15.60391 | 115° | 62km/h | 1185m | -11.6m/s | 14.6°C | 77.5% | 0hPa | 2.5V | 00:00:00 | 02:28:25 | 00:00:00 | |
| OE3JTB-15 | 2026-09-04 01:15:10 | 49.25268 | 15.60349 | 119° | 62km/h | 1208m | -12.3m/s | 14.4°C | 78.2% | 0hPa | 2.5V | 00:00:00 | 00:00:00 | 00:00:00 | |
| OE3JTB-15 | 2026-09-04 01:15:08 | 49.25283 | 15.60305 | 118° | 62km/h | 1233m | -13.0m/s | 14.2°C | 79.4% | 0hPa | 2.6V | 00:00:00 | 00:00:00 | 00:00:00 | |
| OE3JTB-15 | 2026-09-04 01:15:06 | 49.25297 | 15.60262 | 118° | 62km/h | 1258m | -12.7m/s | 14.1°C | 78.4% | 0hPa | 2.6V | 00:00:00 | 02:28:19 | 00:00:00 | |
| OE3JTB-15 | 2026-09-04 01:15:04 | 49.25313 | 15.60219 | 117° | 64km/h | 1283m | -12.8m/s | 14.0°C | 78.6% | 0hPa | 2.6V | 08:01:00 | 00:00:00 | 00:00:00 | |
| OE3JTB-15 | 2026-09-04 01:15:02 | 49.25329 | 15.60177 | 117° | 64km/h | 1307m | -12.6m/s | 13.8°C | 79.0% | 0hPa | 2.6V | 00:00:00 | 00:00:00 | 00:00:00 | |
| OE3JTB-15 | 2026-09-04 01:15:00 | 49.25344 | 15.60133 | 116° | 62km/h | 1332m | -12.8m/s | 13.6°C | 80.7% | 0hPa | 2.6V | 00:00:00 | 02:28:13 | 00:00:00 | |
| OE3JTB-15 | 2026-09-04 01:14:58 | 49.25360 | 15.60091 | 117° | 62km/h | 1356m | -12.0m/s | 13.4°C | 81.7% | 0hPa | 2.6V | 00:00:00 | 00:00:00 | 00:00:00 | |
| OE3JTB-15 | 2026-09-04 01:14:56 | 49.25375 | 15.60048 | 117° | 62km/h | 1381m | -12.8m/s | 13.2°C | 82.1% | 0hPa | 2.6V | 00:00:00 | 00:00:00 | 00:00:00 | |
| OE3JTB-15 | 2026-09-04 01:14:54 | 49.25390 | 15.60006 | 117° | 62km/h | 1405m | -13.3m/s | 13.0°C | 80.6% | 0hPa | 2.6V | 00:00:00 | 02:28:07 | 00:00:00 | |
| OE3JTB-15 | 2026-09-04 01:14:52 | 49.25406 | 15.59964 | 118° | 62km/h | 1430m | -11.6m/s | 12.8°C | 80.7% | 0hPa | 2.6V | 00:00:00 | 00:00:00 | 00:00:00 | |
| OE3JTB-15 | 2026-09-04 01:14:50 | 49.25422 | 15.59922 | 123° | 64km/h | 1454m | -11.8m/s | 12.6°C | 81.2% | 0hPa | 2.5V | 00:00:00 | 00:00:00 | 00:00:00 | |
| OE3JTB-15 | 2026-09-04 01:14:48 | 49.25439 | 15.59879 | 121° | 62km/h | 1477m | -12.8m/s | 12.4°C | 82.2% | 0hPa | 2.5V | 00:00:00 | 02:28:01 | 00:00:00 | |
| OE3JTB-15 | 2026-09-04 01:14:44 | 49.25471 | 15.59797 | 124° | 60km/h | 1528m | -12.1m/s | 12.1°C | 80.9% | 0hPa | 2.5V | 00:00:00 | 00:00:00 | 00:00:00 | |
| OE3JTB-15 | 2026-09-04 01:14:42 | 49.25487 | 15.59758 | 123° | 60km/h | 1553m | -14.2m/s | 12.0°C | 81.1% | 0hPa | 2.5V | 00:00:00 | 02:27:55 | 00:00:00 | |
| OE3JTB-15 | 2026-09-04 01:14:40 | 49.25503 | 15.59718 | 121° | 60km/h | 1579m | -13.9m/s | 11.8°C | 80.4% | 0hPa | 2.5V | 00:00:00 | 00:00:00 | 00:00:00 | |
| OE3JTB-15 | 2026-09-04 01:14:38 | 49.25519 | 15.59679 | 121° | 58km/h | 1605m | -13.2m/s | 11.6°C | 81.5% | 0hPa | 2.5V | 00:00:00 | 00:00:00 | 00:00:00 | |
| OE3JTB-15 | 2026-09-04 01:14:36 | 49.25536 | 15.59640 | 120° | 60km/h | 1630m | -13.0m/s | 11.3°C | 83.0% | 0hPa | 2.5V | 00:00:00 | 02:27:49 | 00:00:00 | |
| OE3JTB-15 | 2026-09-04 01:14:34 | 49.25552 | 15.59600 | 121° | 60km/h | 1657m | -13.4m/s | 11.1°C | 84.1% | 0hPa | 2.5V | 00:00:00 | 00:00:00 | 00:00:00 | |
| OE3JTB-15 | 2026-09-04 01:14:32 | 49.25568 | 15.59561 | 121° | 60km/h | 1682m | -12.7m/s | 10.9°C | 85.1% | 0hPa | 2.5V | 00:00:00 | 00:00:00 | 00:00:00 | |
| OE3JTB-15 | 2026-09-04 01:14:30 | 49.25585 | 15.59521 | 122° | 62km/h | 1708m | -13.4m/s | 10.7°C | 84.4% | 0hPa | 2.5V | 00:00:00 | 02:27:43 | 00:00:00 | |
| OE3JTB-15 | 2026-09-04 01:14:28 | 49.25602 | 15.59481 | 123° | 60km/h | 1733m | -14.3m/s | 10.4°C | 85.6% | 0hPa | 2.5V | 08:02:00 | 00:00:00 | 00:00:00 | |
| OE3JTB-15 | 2026-09-04 01:14:26 | 49.25619 | 15.59441 | 122° | 60km/h | 1759m | -14.0m/s | 10.2°C | 86.8% | 0hPa | 2.6V | 00:00:00 | 00:00:00 | 00:00:00 | |
| OE3JTB-15 | 2026-09-04 01:14:24 | 49.25635 | 15.59401 | 120° | 60km/h | 1785m | -14.4m/s | 10.0°C | 89.4% | 0hPa | 2.6V | 00:00:00 | 02:27:37 | 00:00:00 | |
| OE3JTB-15 | 2026-09-04 01:14:22 | 49.25651 | 15.59361 | 120° | 58km/h | 1812m | -13.4m/s | 9.8°C | 91.7% | 0hPa | 2.6V | 00:00:00 | 00:00:00 | 00:00:00 | |
| OE3JTB-15 | 2026-09-04 01:14:20 | 49.25667 | 15.59322 | 120° | 58km/h | 1838m | -14.2m/s | 9.6°C | 91.8% | 0hPa | 2.6V | 00:00:00 | 00:00:00 | 00:00:00 | |
| OE3JTB-15 | 2026-09-04 01:14:18 | 49.25682 | 15.59283 | 119° | 60km/h | 1864m | -14.3m/s | 9.4°C | 91.6% | 0hPa | 2.6V | 00:00:00 | 02:27:31 | 00:00:00 | |
| OE3JTB-15 | 2026-09-04 01:14:16 | 49.25697 | 15.59243 | 118° | 60km/h | 1891m | -14.8m/s | 9.2°C | 93.0% | 0hPa | 2.6V | 00:00:00 | 00:00:00 | 00:00:00 | |
| OE3JTB-15 | 2026-09-04 01:14:14 | 49.25712 | 15.59202 | 117° | 60km/h | 1919m | -14.4m/s | 9.2°C | 90.8% | 0hPa | 2.6V | 00:00:00 | 00:00:00 | 00:00:00 | |
| OE3JTB-15 | 2026-09-04 01:14:12 | 49.25726 | 15.59160 | 116° | 60km/h | 1945m | -13.9m/s | 9.1°C | 89.9% | 0hPa | 2.6V | 00:00:00 | 02:27:25 | 00:00:00 | |
| OE3JTB-15 | 2026-09-04 01:14:10 | 49.25740 | 15.59118 | 115° | 62km/h | 1971m | -13.0m/s | 8.9°C | 89.6% | 0hPa | 2.6V | 08:02:00 | 00:00:00 | 00:00:00 | |
| OE3JTB-15 | 2026-09-04 01:14:08 | 49.25755 | 15.59076 | 116° | 60km/h | 1996m | -13.6m/s | 8.8°C | 89.2% | 0hPa | 2.6V | 00:00:00 | 00:00:00 | 00:00:00 | |
| OE3JTB-15 | 2026-09-04 01:14:06 | 49.25768 | 15.59034 | 116° | 60km/h | 2022m | -13.5m/s | 8.6°C | 90.2% | 0hPa | 2.6V | 00:00:00 | 02:27:19 | 00:00:00 | |
| OE3JTB-15 | 2026-09-04 01:14:04 | 49.25782 | 15.58992 | 118° | 60km/h | 2047m | -13.1m/s | 8.4°C | 89.9% | 0hPa | 2.6V | 00:00:00 | 00:00:00 | 00:00:00 | |
| OE3JTB-15 | 2026-09-04 01:14:02 | 49.25795 | 15.58949 | 117° | 64km/h | 2071m | -13.4m/s | 8.3°C | 88.8% | 0hPa | 2.6V | 00:00:00 | 00:00:00 | 00:00:00 | |
| OE3OSB-13 | 2026-09-04 01:13:51 | 49.25875 | 15.58671 | 110° | 69km/h | 2226m | -13.3m/s | 7.5°C | 85.5% | -1.0hPa | 2.6V | 00:00:00 | 00:00:00 | 00:00:00 | |
| OE3JTB-15 | 2026-09-04 01:13:43 | 49.25921 | 15.58497 | 111° | 69km/h | 2319m | -12.9m/s | 6.8°C | 91.7% | 0hPa | 2.6V | 00:00:00 | 00:00:00 | 00:00:00 | |
| OE3JTB-15 | 2026-09-04 01:13:34 | 49.25978 | 15.58268 | 110° | 75km/h | 2436m | -13.3m/s | 6.1°C | 92.9% | 0hPa | 2.6V | 00:00:00 | 02:26:47 | 00:00:00 | |
| OE3JTB-15 | 2026-09-04 01:13:25 | 49.26036 | 15.58023 | 109° | 75km/h | 2554m | -13.4m/s | 5.5°C | 91.6% | 0hPa | 2.6V | 00:00:00 | 00:00:00 | 00:00:00 | |
| OE3OSB-13 | 2026-09-04 01:13:20 | 49.26074 | 15.57858 | 109° | 71km/h | 2631m | -14.1m/s | 4.9°C | 89.9% | -1.0hPa | 2.5V | 00:00:00 | 00:00:00 | 00:00:00 | |
| OE3JTB-15 | 2026-09-04 01:13:16 | 49.26093 | 15.57777 | 108° | 73km/h | 2672m | -14.8m/s | 4.5°C | 93.1% | 0hPa | 2.5V | 00:00:00 | 00:00:00 | 00:00:00 | |
| OE3JTB-15 | 2026-09-04 01:13:07 | 49.26149 | 15.57540 | 109° | 66km/h | 2787m | -13.1m/s | 3.6°C | 94.3% | 0hPa | 2.5V | 00:00:00 | 02:26:20 | 00:00:00 | |
| OE3JTB-15 | 2026-09-04 01:12:48 | 49.26284 | 15.57106 | 120° | 64km/h | 3032m | -12.8m/s | 4.6°C | 12.7% | 0hPa | 2.5V | 00:00:00 | 00:00:00 | 00:00:00 | |
| OE3JTB-15 | 2026-09-04 01:12:29 | 49.26444 | 15.56698 | 125° | 62km/h | 3276m | -13.9m/s | 4.2°C | 17.2% | 0hPa | 2.6V | 00:00:00 | 00:00:00 | 00:00:00 | |
| OE3OSB-13 | 2026-09-04 01:12:17 | 49.26551 | 15.56459 | 127° | 58km/h | 3429m | -13.0m/s | 3.5°C | 16.9% | -1.0hPa | 2.6V | 00:00:00 | 00:00:00 | 00:00:00 | |
| OE3OSB-13 | 2026-09-04 01:11:47 | 49.26839 | 15.55816 | 120° | 68km/h | 3816m | -11.8m/s | 0.4°C | 43.3% | -1.0hPa | 2.6V | 00:00:00 | 00:00:00 | 00:00:00 | |
| OE5DRO-10 | 2026-09-04 01:11:45 | 49.26848 | 15.55794 | 120° | 69km/h | 3827m | -13.2m/s | 0.4°C | 43.6% | 0hPa | 2.6V | 00:00:00 | 00:00:00 | 00:00:00 | |
| OE5DRO-10 | 2026-09-04 01:11:29 | 49.26978 | 15.55413 | 118° | 75km/h | 4022m | -12.8m/s | -1.1°C | 45.6% | 0hPa | 2.6V | 00:00:00 | 00:00:00 | 00:00:00 | |
| OE3JTB-15 | 2026-09-04 01:11:22 | 49.27040 | 15.55243 | 122° | 82km/h | 4107m | -12.5m/s | -1.6°C | 43.1% | 0hPa | 2.6V | 00:00:00 | 00:00:00 | 00:00:00 | |
| OE3OSB-13 | 2026-09-04 01:11:15 | 49.27111 | 15.55066 | 121° | 75km/h | 4194m | -13.1m/s | -2.4°C | 41.9% | -1.0hPa | 2.6V | 00:00:00 | 00:00:00 | 00:00:00 | |
| OE5DRO-10 | 2026-09-04 01:11:13 | 49.27132 | 15.55014 | 124° | 84km/h | 4219m | -13.0m/s | -2.6°C | 43.9% | 0hPa | 2.6V | 00:00:00 | 00:00:00 | 00:00:00 | |
| PG1ADW-2 | 2026-09-04 01:11:11 | 49.27155 | 15.54962 | 123° | 86km/h | 4243m | -12.3m/s | -2.8°C | 44.0% | 0hPa | 2.6V | 00:00:00 | 00:00:00 | 00:00:00 | |
| OE3OSB-13 | 2026-09-04 01:10:44 | 49.27452 | 15.54186 | 121° | 84km/h | 4579m | -12.9m/s | -5.4°C | 45.0% | -1.0hPa | 2.6V | 00:00:00 | 00:00:00 | 00:00:00 | |
| OE5DRO-10 | 2026-09-04 01:10:41 | 49.27487 | 15.54099 | 124° | 91km/h | 4615m | -11.8m/s | -5.8°C | 48.6% | 0hPa | 2.6V | 00:00:00 | 00:00:00 | 00:00:00 | |
| PG1ADW-2 | 2026-09-04 01:10:31 | 49.27611 | 15.53803 | 123° | 89km/h | 4735m | -12.1m/s | -6.4°C | 34.4% | 0hPa | 2.6V | 08:06:00 | 00:00:00 | 00:00:00 | |
| OE5DRO-10 | 2026-09-04 01:10:25 | 49.27689 | 15.53626 | 125° | 89km/h | 4807m | -12.5m/s | -6.9°C | 52.2% | 0hPa | 2.5V | 00:00:00 | 00:00:00 | 00:00:00 | |
| OE3JTB-15 | 2026-09-04 01:10:24 | 49.27703 | 15.53597 | 127° | 86km/h | 4819m | -11.8m/s | -6.9°C | 67.6% | 0hPa | 2.5V | 00:00:00 | 00:00:00 | 00:00:00 | |
| OE5DXL-15 | 2026-09-04 01:10:23 | 49.27717 | 15.53569 | 127° | 86km/h | 4830m | -12.5m/s | -6.8°C | 75.0% | 0hPa | 2.5V | 08:06:00 | 00:00:00 | 00:00:00 | |
| OE3OSB-13 | 2026-09-04 01:10:13 | 49.27857 | 15.53293 | 129° | 88km/h | 4946m | -12.4m/s | -5.7°C | 94.7% | -1.0hPa | 2.5V | 00:00:00 | 00:00:00 | 00:00:00 | |
| PG1ADW-2 | 2026-09-04 01:10:11 | 49.27884 | 15.53242 | 127° | 84km/h | 4970m | -13.3m/s | -5.7°C | 98.3% | 0hPa | 2.5V | 00:00:00 | 02:23:24 | 00:00:00 | |
| OE5DRO-10 | 2026-09-04 01:10:09 | 49.27911 | 15.53190 | 129° | 84km/h | 4995m | -12.8m/s | -5.8°C | 98.9% | 0hPa | 2.5V | 00:00:00 | 00:00:00 | 00:00:00 | |
| OE3JTB-15 | 2026-09-04 01:09:55 | 49.28094 | 15.52834 | 126° | 86km/h | 5155m | -11.9m/s | -6.7°C | 95.3% | 0hPa | 2.5V | 00:00:00 | 00:00:00 | 00:00:00 | |
| OE5DRO-10 | 2026-09-04 01:09:53 | 49.28120 | 15.52783 | 129° | 84km/h | 5177m | -12.1m/s | -6.9°C | 93.6% | 0hPa | 2.5V | 08:06:00 | 00:00:00 | 00:00:00 | |
| PG1ADW-2 | 2026-09-04 01:09:51 | 49.28145 | 15.52731 | 126° | 86km/h | 5200m | -11.3m/s | -7.1°C | 92.2% | 0hPa | 2.5V | 00:00:00 | 00:00:00 | 00:00:00 | |
| OE3OSB-13 | 2026-09-04 01:09:42 | 49.28263 | 15.52496 | 128° | 86km/h | 5302m | -11.8m/s | -7.7°C | 87.6% | -1.0hPa | 2.5V | 00:00:00 | 00:00:00 | 00:00:00 | |
| OE5DRO-10 | 2026-09-04 01:09:37 | 49.28332 | 15.52365 | 131° | 89km/h | 5357m | -11.5m/s | -7.9°C | 88.2% | 0hPa | 2.5V | 00:00:00 | 00:00:00 | 00:00:00 | |
| PG1ADW-2 | 2026-09-04 01:09:31 | 49.28420 | 15.52207 | 132° | 89km/h | 5422m | -12.1m/s | -8.3°C | 89.1% | 0hPa | 2.5V | 00:00:00 | 00:00:00 | 00:00:00 | |
| OE3JTB-15 | 2026-09-04 01:09:24 | 49.28526 | 15.52023 | 132° | 89km/h | 5502m | -12.3m/s | -8.8°C | 86.8% | 0hPa | 2.5V | 00:00:00 | 02:22:37 | 00:00:00 | |
| OE5DXL-15 | 2026-09-04 01:09:23 | 49.28541 | 15.51996 | 130° | 89km/h | 5513m | -11.0m/s | -8.9°C | 87.1% | 0hPa | 2.5V | 00:00:00 | 00:00:00 | 00:00:00 | |
| OE5DRO-10 | 2026-09-04 01:09:21 | 49.28572 | 15.51943 | 132° | 89km/h | 5534m | -11.7m/s | -9.1°C | 87.8% | 0hPa | 2.5V | 00:00:00 | 00:00:00 | 00:00:00 | |
| PG1ADW-2 | 2026-09-04 01:09:11 | 49.28723 | 15.51683 | 131° | 89km/h | 5642m | -11.1m/s | -10.0°C | 90.8% | 0hPa | 2.5V | 00:00:00 | 00:00:00 | 00:00:00 | |
| OE5DRO-10 | 2026-09-04 01:09:05 | 49.28815 | 15.51525 | 130° | 91km/h | 5706m | -10.7m/s | -10.5°C | 92.0% | 0hPa | 2.5V | 00:00:00 | 00:00:00 | 00:00:00 | |
| OE5MMP-10 | 2026-09-04 01:08:57 | 49.28936 | 15.51313 | 133° | 89km/h | 5792m | -11.2m/s | -11.1°C | 93.6% | 0hPa | 2.6V | 00:00:00 | 02:22:10 | 00:00:00 | |
| OE5DXL-15 | 2026-09-04 01:08:54 | 49.28997 | 15.51208 | 133° | 86km/h | 5835m | -11.3m/s | -11.4°C | 95.1% | 0hPa | 2.5V | 00:00:00 | 00:00:00 | 00:00:00 | |
| PG1ADW-2 | 2026-09-04 01:08:51 | 49.29028 | 15.51157 | 130° | 88km/h | 5857m | -11.2m/s | -11.6°C | 95.8% | 0hPa | 2.5V | 00:00:00 | 02:22:04 | 00:00:00 | |
| OE5DRO-10 | 2026-09-04 01:08:49 | 49.29058 | 15.51104 | 133° | 88km/h | 5880m | -11.9m/s | -11.8°C | 96.5% | 0hPa | 2.5V | 00:00:00 | 00:00:00 | 00:00:00 | |
| OE5MMP-10 | 2026-09-04 01:08:47 | 49.29088 | 15.51052 | 133° | 88km/h | 5901m | -11.3m/s | -12.0°C | 98.0% | 0hPa | 2.5V | 00:00:00 | 02:22:00 | 00:00:00 | |
| OE3OSB-13 | 2026-09-04 01:08:40 | 49.29190 | 15.50870 | 130° | 82km/h | 5975m | -11.2m/s | -12.6°C | 98.7% | -1.0hPa | 2.5V | 00:00:00 | 00:00:00 | 00:00:00 | |
| OE5MMP-10 | 2026-09-04 01:08:37 | 49.29232 | 15.50793 | 128° | 84km/h | 6007m | -11.6m/s | -12.8°C | 0% | 0hPa | 2.5V | 00:00:00 | 02:21:50 | 00:00:00 | |
| OE3JTB-15 | 2026-09-04 01:08:34 | 49.29273 | 15.50715 | 127° | 80km/h | 6039m | -11.4m/s | -13.0°C | 0% | 0hPa | 2.5V | 00:00:00 | 00:00:00 | 00:00:00 | |
| PG1ADW-2 | 2026-09-04 01:08:31 | 49.29312 | 15.50638 | 127° | 82km/h | 6071m | -11.7m/s | -13.2°C | 0% | 0hPa | 2.6V | 00:00:00 | 00:00:00 | 00:00:00 | |
| OE5DRO-10 | 2026-09-04 01:08:30 | 49.29326 | 15.50612 | 130° | 82km/h | 6082m | -11.1m/s | -13.3°C | 0% | 0hPa | 2.6V | 00:00:00 | 00:00:00 | 00:00:00 | |
| PETON7-10 | 2026-09-04 01:08:29 | 49.29339 | 15.50586 | 127° | 80km/h | 6093m | -10.9m/s | -13.4°C | 0% | 0hPa | 2.6V | 00:00:00 | 02:21:42 | 00:00:00 | |
| OE5MMP-10 | 2026-09-04 01:08:27 | 49.29365 | 15.50534 | 127° | 82km/h | 6114m | -11.7m/s | -13.5°C | 0% | 0hPa | 2.6V | 00:00:00 | 02:21:40 | 00:00:00 | |
| OE5DXL-15 | 2026-09-04 01:08:23 | 49.29417 | 15.50432 | 127° | 80km/h | 6157m | -11.0m/s | -13.9°C | 0% | 0hPa | 2.6V | 00:00:00 | 00:00:00 | 00:00:00 | |
| OE5MMP-10 | 2026-09-04 01:08:17 | 49.29494 | 15.50283 | 128° | 80km/h | 6218m | -11.6m/s | -14.3°C | 0% | 0hPa | 2.6V | 00:00:00 | 02:21:30 | 00:00:00 | |
| PETON7-10 | 2026-09-04 01:08:14 | 49.29533 | 15.50211 | 130° | 80km/h | 6250m | -10.9m/s | -14.5°C | 0% | 0hPa | 2.6V | 00:00:00 | 00:00:00 | 00:00:00 | |
| PG1ADW-2 | 2026-09-04 01:08:11 | 49.29572 | 15.50138 | 128° | 80km/h | 6281m | -11.0m/s | -14.7°C | 0% | 0hPa | 2.5V | 00:00:00 | 00:00:00 | 00:00:00 | |
| OE3OSB-13 | 2026-09-04 01:08:09 | 49.29612 | 15.50066 | 131° | 77km/h | 6313m | -12.5m/s | -15.0°C | 98.6% | -1.0hPa | 2.5V | 00:00:00 | 00:00:00 | 00:00:00 | |
| OE5MMP-10 | 2026-09-04 01:08:07 | 49.29625 | 15.50042 | 130° | 80km/h | 6325m | -12.0m/s | -15.1°C | 0% | 0hPa | 2.5V | 00:00:00 | 02:21:20 | 00:00:00 | |
| PETON7-10 | 2026-09-04 01:07:59 | 49.29734 | 15.49859 | 133° | 80km/h | 6415m | -11.4m/s | -15.2°C | 96.6% | 0hPa | 2.5V | 00:00:00 | 00:00:00 | 00:00:00 | |
| OE5MMP-10 | 2026-09-04 01:07:57 | 49.29763 | 15.49816 | 137° | 82km/h | 6437m | -11.7m/s | -15.2°C | 95.4% | 0hPa | 2.5V | 08:08:00 | 02:21:10 | 00:00:00 | |
| OE3JTB-15 | 2026-09-04 01:07:54 | 49.29807 | 15.49752 | 138° | 82km/h | 6471m | -11.3m/s | -14.8°C | 85.7% | 0hPa | 2.5V | 00:00:00 | 00:00:00 | 00:00:00 | |
| OE5DXL-15 | 2026-09-04 01:07:53 | 49.29822 | 15.49731 | 136° | 82km/h | 6482m | -11.7m/s | -14.9°C | 85.6% | 0hPa | 2.5V | 00:00:00 | 00:00:00 | 00:00:00 | |
| OE5DRO-10 | 2026-09-04 01:07:52 | 49.29837 | 15.49709 | 136° | 82km/h | 6493m | -10.9m/s | -15.0°C | 85.2% | 0hPa | 2.5V | 00:00:00 | 00:00:00 | 00:00:00 | |
| PG1ADW-2 | 2026-09-04 01:07:51 | 49.29852 | 15.49688 | 139° | 82km/h | 6504m | -12.1m/s | -15.1°C | 85.7% | 0hPa | 2.5V | 00:00:00 | 00:00:00 | 00:00:00 | |
| OE5MMP-10 | 2026-09-04 01:07:45 | 49.29945 | 15.49559 | 138° | 82km/h | 6572m | -11.8m/s | -15.4°C | 84.2% | 0hPa | 2.5V | 00:00:00 | 02:20:58 | 00:00:00 | |
| PETON7-10 | 2026-09-04 01:07:41 | 49.30007 | 15.49476 | 141° | 82km/h | 6621m | -12.7m/s | -15.8°C | 86.4% | 0hPa | 2.5V | 00:00:00 | 02:20:54 | 00:00:00 | |
| OE3OSB-13 | 2026-09-04 01:07:38 | 49.30069 | 15.49391 | 138° | 78km/h | 6668m | -12.5m/s | -16.3°C | 85.0% | -1.0hPa | 2.5V | 00:00:00 | 00:00:00 | 00:00:00 | |
| OE5MMP-10 | 2026-09-04 01:07:35 | 49.30099 | 15.49347 | 137° | 84km/h | 6692m | -12.2m/s | -16.4°C | 89.3% | 0hPa | 2.5V | 00:00:00 | 02:20:48 | 00:00:00 | |
| OE5DRO-10 | 2026-09-04 01:07:33 | 49.30130 | 15.49304 | 136° | 84km/h | 6716m | -11.8m/s | -16.6°C | 89.8% | 0hPa | 2.5V | 00:00:00 | 00:00:00 | 00:00:00 | |
| PG1ADW-2 | 2026-09-04 01:07:31 | 49.30160 | 15.49260 | 137° | 84km/h | 6739m | -12.8m/s | -16.7°C | 88.6% | 0hPa | 2.5V | 08:09:00 | 02:20:44 | 00:00:00 | |
| PETON7-10 | 2026-09-04 01:07:26 | 49.30237 | 15.49148 | 137° | 84km/h | 6800m | -12.4m/s | -17.0°C | 88.3% | 0hPa | 2.5V | 08:09:00 | 00:00:00 | 00:00:00 | |
| OE3JTB-15 | 2026-09-04 01:07:25 | 49.30252 | 15.49126 | 137° | 86km/h | 6812m | -12.8m/s | -17.1°C | 87.8% | 0hPa | 2.6V | 00:00:00 | 02:20:38 | 00:00:00 | |
| OE5DXL-15 | 2026-09-04 01:07:23 | 49.30282 | 15.49080 | 134° | 88km/h | 6837m | -12.4m/s | -17.2°C | 87.9% | 0hPa | 2.6V | 00:00:00 | 00:00:00 | 00:00:00 | |
| OE5MMP-10 | 2026-09-04 01:07:15 | 49.30403 | 15.48896 | 136° | 86km/h | 6939m | -12.3m/s | -17.8°C | 82.8% | 0hPa | 2.6V | 00:00:00 | 02:20:28 | 00:00:00 | |
| OE5DRO-10 | 2026-09-04 01:07:14 | 49.30419 | 15.48873 | 138° | 88km/h | 6952m | -12.6m/s | -17.8°C | 83.1% | 0hPa | 2.6V | 08:09:00 | 00:00:00 | 00:00:00 | |
| PETON7-10 | 2026-09-04 01:07:11 | 49.30466 | 15.48804 | 138° | 88km/h | 6990m | -12.3m/s | -18.0°C | 82.3% | 0hPa | 2.5V | 00:00:00 | 00:00:00 | 00:00:00 | |
| OE3OSB-13 | 2026-09-04 01:07:07 | 49.30543 | 15.48690 | 134° | 88km/h | 7051m | -11.6m/s | -18.6°C | 80.0% | -1.0hPa | 2.5V | 00:00:00 | 00:00:00 | 00:00:00 | |
| OE5MMP-10 | 2026-09-04 01:07:05 | 49.30559 | 15.48666 | 137° | 91km/h | 7063m | -13.0m/s | -18.6°C | 83.0% | 0hPa | 2.5V | 00:00:00 | 02:20:18 | 00:00:00 | |
| PETON7-10 | 2026-09-04 01:06:56 | 49.30710 | 15.48451 | 137° | 97km/h | 7165m | -11.1m/s | -19.3°C | 79.6% | 0hPa | 2.5V | 00:00:00 | 02:20:09 | 00:00:00 | |
| OE5MMP-10 | 2026-09-04 01:06:55 | 49.30728 | 15.48426 | 137° | 97km/h | 7176m | -11.5m/s | -19.4°C | 79.4% | 0hPa | 2.5V | 00:00:00 | 02:20:08 | 00:00:00 | |
| DO3MHA-11 | 2026-09-04 01:06:53 | 49.30763 | 15.48377 | 140° | 99km/h | 7199m | -11.6m/s | -19.4°C | 77.5% | 0hPa | 2.5V | 00:00:00 | 02:20:06 | 00:00:00 | |
| PG1ADW-2 | 2026-09-04 01:06:51 | 49.30800 | 15.48326 | 138° | 100km/h | 7222m | -12.1m/s | -19.5°C | 77.1% | 0hPa | 2.5V | 00:00:00 | 00:00:00 | 00:00:00 | |
| OE5MMP-10 | 2026-09-04 01:06:45 | 49.30914 | 15.48176 | 141° | 102km/h | 7291m | -12.8m/s | -20.0°C | 78.7% | 0hPa | 2.5V | 00:00:00 | 02:19:58 | 00:00:00 | |
| DO3MHA-11 | 2026-09-04 01:06:43 | 49.30953 | 15.48126 | 142° | 102km/h | 7316m | -12.2m/s | -20.2°C | 78.6% | 0hPa | 2.5V | 00:00:00 | 02:19:56 | 00:00:00 | |
| PETON7-10 | 2026-09-04 01:06:41 | 49.30993 | 15.48079 | 142° | 104km/h | 7340m | -13.0m/s | -20.4°C | 79.8% | 0hPa | 2.5V | 00:00:00 | 00:00:00 | 00:00:00 | |
| OE5DRO-10 | 2026-09-04 01:06:36 | 49.31095 | 15.47956 | 142° | 104km/h | 7403m | -12.6m/s | -20.9°C | 80.7% | 0hPa | 2.5V | 00:00:00 | 00:00:00 | 00:00:00 | |
| DO3MHA-11 | 2026-09-04 01:06:33 | 49.31158 | 15.47882 | 143° | 104km/h | 7437m | -11.5m/s | -21.2°C | 82.2% | 0hPa | 2.5V | 08:10:00 | 02:19:46 | 00:00:00 | |
| PG1ADW-2 | 2026-09-04 01:06:31 | 49.31200 | 15.47833 | 143° | 104km/h | 7460m | -12.5m/s | -21.4°C | 82.8% | 0hPa | 2.6V | 00:00:00 | 00:00:00 | 00:00:00 | |
| OE3JTB-15 | 2026-09-04 01:06:27 | 49.31285 | 15.47733 | 142° | 104km/h | 7506m | -11.6m/s | -21.9°C | 84.8% | 0hPa | 2.5V | 00:00:00 | 00:00:00 | 00:00:00 | |
| PETON7-10 | 2026-09-04 01:06:26 | 49.31306 | 15.47708 | 143° | 104km/h | 7517m | -11.4m/s | -22.0°C | 85.2% | 0hPa | 2.5V | 00:00:00 | 00:00:00 | 00:00:00 | |
| OE5MMP-10 | 2026-09-04 01:06:25 | 49.31327 | 15.47684 | 145° | 104km/h | 7528m | -11.0m/s | -22.1°C | 85.9% | 0hPa | 2.5V | 00:00:00 | 02:19:38 | 00:00:00 | |
| OE5DXL-15 | 2026-09-04 01:06:23 | 49.31370 | 15.47635 | 143° | 104km/h | 7549m | -10.8m/s | -22.3°C | 87.2% | 0hPa | 2.5V | 00:00:00 | 00:00:00 | 00:00:00 | |
| OE5DRO-10 | 2026-09-04 01:06:17 | 49.31495 | 15.47482 | 141° | 104km/h | 7617m | -11.7m/s | -22.9°C | 90.6% | 0hPa | 2.5V | 00:00:00 | 00:00:00 | 00:00:00 | |
| OE5MMP-10 | 2026-09-04 01:06:15 | 49.31536 | 15.47431 | 141° | 104km/h | 7640m | -12.2m/s | -23.1°C | 91.2% | 0hPa | 2.5V | 08:10:00 | 02:19:28 | 00:00:00 | |
| DO3MHA-11 | 2026-09-04 01:06:13 | 49.31576 | 15.47380 | 140° | 104km/h | 7665m | -12.6m/s | -23.3°C | 91.3% | 0hPa | 2.5V | 00:00:00 | 02:19:26 | 00:00:00 | |
| PG1ADW-2 | 2026-09-04 01:06:11 | 49.31618 | 15.47326 | 140° | 104km/h | 7687m | -11.1m/s | -23.5°C | 91.9% | 0hPa | 2.5V | 00:00:00 | 02:19:24 | 00:00:00 | |
| OE3OSB-13 | 2026-09-04 01:06:05 | 49.31758 | 15.47143 | 138° | 104km/h | 7767m | -12.1m/s | -23.9°C | 83.7% | -1.0hPa | 2.5V | 00:00:00 | 00:00:00 | 00:00:00 | |
| DO3MHA-11 | 2026-09-04 01:06:00 | 49.31839 | 15.47037 | 140° | 106km/h | 7815m | -11.8m/s | -24.1°C | 81.1% | 0hPa | 2.5V | 00:00:00 | 02:19:13 | 00:00:00 | |
| OE3JTB-15 | 2026-09-04 01:05:58 | 49.31880 | 15.46985 | 140° | 106km/h | 7840m | -13.8m/s | -24.2°C | 78.9% | 0hPa | 2.5V | 00:00:00 | 02:19:11 | 00:00:00 | |
| PETON7-10 | 2026-09-04 01:05:56 | 49.31920 | 15.46931 | 141° | 106km/h | 7866m | -13.6m/s | -24.3°C | 77.6% | 0hPa | 2.5V | 00:00:00 | 00:00:00 | 00:00:00 | |
| OE5MMP-10 | 2026-09-04 01:05:55 | 49.31940 | 15.46905 | 140° | 106km/h | 7879m | -13.6m/s | -24.4°C | 77.2% | 0hPa | 2.6V | 00:00:00 | 02:19:08 | 00:00:00 | |
| OE5DXL-15 | 2026-09-04 01:05:53 | 49.31981 | 15.46852 | 140° | 106km/h | 7904m | -12.8m/s | -24.6°C | 77.2% | 0hPa | 2.6V | 08:10:00 | 00:00:00 | 00:00:00 | |
| PG1ADW-2 | 2026-09-04 01:05:51 | 49.32022 | 15.46798 | 140° | 106km/h | 7929m | -12.8m/s | -24.9°C | 77.9% | 0hPa | 2.5V | 00:00:00 | 00:00:00 | 00:00:00 | |
| DO3MHA-11 | 2026-09-04 01:05:50 | 49.32043 | 15.46772 | 142° | 108km/h | 7942m | -13.1m/s | -25.0°C | 78.1% | 0hPa | 2.5V | 00:00:00 | 02:19:03 | 00:00:00 | |
| OE5MMP-10 | 2026-09-04 01:05:45 | 49.32146 | 15.46637 | 140° | 106km/h | 8004m | -13.0m/s | -25.5°C | 79.9% | 0hPa | 2.5V | 00:00:00 | 02:18:58 | 00:00:00 | |
| PETON7-10 | 2026-09-04 01:05:41 | 49.32228 | 15.46529 | 141° | 106km/h | 8054m | -12.0m/s | -25.9°C | 81.7% | 0hPa | 2.5V | 00:00:00 | 00:00:00 | 00:00:00 | |
| OE5DRO-10 | 2026-09-04 01:05:39 | 49.32269 | 15.46476 | 140° | 108km/h | 8079m | -13.6m/s | -26.1°C | 82.0% | 0hPa | 2.5V | 00:00:00 | 00:00:00 | 00:00:00 | |
| OE5MMP-10 | 2026-09-04 01:05:35 | 49.32351 | 15.46370 | 140° | 108km/h | 8131m | -12.8m/s | -26.4°C | 79.5% | 0hPa | 2.5V | 00:00:00 | 02:18:48 | 00:00:00 | |
| OE3OSB-13 | 2026-09-04 01:05:33 | 49.32394 | 15.46316 | 141° | 106km/h | 8155m | -13.1m/s | -26.7°C | 74.3% | -1.0hPa | 2.5V | 00:00:00 | 00:00:00 | 00:00:00 | |
| PG1ADW-2 | 2026-09-04 01:05:31 | 49.32436 | 15.46264 | 141° | 110km/h | 8180m | -11.6m/s | -26.8°C | 79.4% | 0hPa | 2.5V | 00:00:00 | 00:00:00 | 00:00:00 | |
| OE3JTB-15 | 2026-09-04 01:05:29 | 49.32478 | 15.46213 | 141° | 111km/h | 8204m | -14.6m/s | -27.0°C | 78.0% | 0hPa | 2.6V | 00:00:00 | 00:00:00 | 00:00:00 | |
| PETON7-10 | 2026-09-04 01:05:26 | 49.32542 | 15.46133 | 143° | 111km/h | 8245m | -13.1m/s | -27.3°C | 80.5% | 0hPa | 2.5V | 00:00:00 | 02:18:39 | 00:00:00 | |
| OE5MMP-10 | 2026-09-04 01:05:25 | 49.32564 | 15.46107 | 142° | 111km/h | 8258m | -13.5m/s | -27.4°C | 81.3% | 0hPa | 2.5V | 00:00:00 | 02:18:38 | 00:00:00 | |
| DO3MHA-11 | 2026-09-04 01:05:23 | 49.32607 | 15.46054 | 142° | 111km/h | 8283m | -12.4m/s | -27.7°C | 82.6% | 0hPa | 2.5V | 00:00:00 | 02:18:36 | 00:00:00 | |
| OE5DRO-10 | 2026-09-04 01:05:20 | 49.32673 | 15.45974 | 141° | 113km/h | 8321m | -13.1m/s | -28.0°C | 83.7% | 0hPa | 2.5V | 00:00:00 | 00:00:00 | 00:00:00 | |
| OE5MMP-10 | 2026-09-04 01:05:15 | 49.32785 | 15.45839 | 141° | 113km/h | 8386m | -13.1m/s | -28.5°C | 84.2% | 0hPa | 2.6V | 00:00:00 | 02:18:28 | 00:00:00 | |
| DO3MHA-11 | 2026-09-04 01:05:13 | 49.32831 | 15.45785 | 143° | 113km/h | 8412m | -13.5m/s | -28.7°C | 83.6% | 0hPa | 2.5V | 00:00:00 | 02:18:26 | 00:00:00 | |
| PETON7-10 | 2026-09-04 01:05:11 | 49.32876 | 15.45731 | 141° | 113km/h | 8438m | -12.3m/s | -28.8°C | 83.0% | 0hPa | 2.5V | 08:11:00 | 00:00:00 | 00:00:00 | |
| NBG1-10 | 2026-09-04 01:05:08 | 49.32944 | 15.45648 | 141° | 124km/h | 8476m | -13.5m/s | -29.1°C | 83.4% | 0hPa | 2.5V | 00:00:00 | 02:18:21 | 00:00:00 | |
| OE5MMP-10 | 2026-09-04 01:05:05 | 49.33012 | 15.45562 | 142° | 113km/h | 8516m | -13.1m/s | -29.2°C | 78.7% | 0hPa | 2.5V | 00:00:00 | 02:18:18 | 00:00:00 | |
| DO3MHA-11 | 2026-09-04 01:05:03 | 49.33056 | 15.45508 | 141° | 113km/h | 8543m | -14.7m/s | -29.3°C | 75.0% | 0hPa | 2.5V | 00:00:00 | 02:18:16 | 00:00:00 | |
| OE3OSB-13 | 2026-09-04 01:05:02 | 49.33079 | 15.45480 | 139° | 113km/h | 8557m | -14.0m/s | -29.4°C | 68.8% | -1.0hPa | 2.5V | 00:00:00 | 00:00:00 | 00:00:00 | |
| SONDE2-11 | 2026-09-04 01:05:01 | 49.33101 | 15.45451 | 139° | 115km/h | 8571m | -14.0m/s | -29.5°C | 68.2% | -1.0hPa | 2.5V | 00:00:00 | 00:00:00 | 00:00:00 | |
| EDDB2-11 | 2026-09-04 01:04:59 | 49.33168 | 15.45368 | 140° | 111km/h | 8612m | -14.6m/s | -29.8°C | 66.4% | -1.0hPa | 2.5V | 00:00:00 | 00:00:00 | 00:00:00 | |
| EDDB2-12 | 2026-09-04 01:04:47 | 49.33438 | 15.45041 | 142° | 111km/h | 8771m | -14.5m/s | -31.1°C | 66.4% | -1.0hPa | 2.5V | 00:00:00 | 00:00:00 | 00:00:00 | |
| OE5MMP-10 | 2026-09-04 01:04:45 | 49.33460 | 15.45015 | 143° | 115km/h | 8786m | -13.2m/s | -31.2°C | 71.7% | 0hPa | 2.5V | 08:11:00 | 02:17:58 | 00:00:00 | |
| S52SK | 2026-09-04 01:04:44 | 49.33460 | 15.45015 | 143° | 115km/h | 8786m | -13.3m/s | -31.3°C | 67.0% | 0hPa | 2.5V | 00:00:00 | 00:00:00 | 00:00:00 | |
| DO3MHA-11 | 2026-09-04 01:04:42 | 49.33530 | 15.44936 | 143° | 117km/h | 8825m | -13.5m/s | -31.6°C | 73.6% | 0hPa | 2.5V | 08:11:00 | 02:17:55 | 00:00:00 | |
| PETON7-10 | 2026-09-04 01:04:41 | 49.33553 | 15.44909 | 143° | 119km/h | 8838m | -12.4m/s | -31.7°C | 74.1% | 0hPa | 2.5V | 00:00:00 | 02:17:54 | 00:00:00 | |
| S52SK | 2026-09-04 01:04:38 | 49.33600 | 15.44856 | 144° | 115km/h | 8864m | -12.8m/s | -32.0°C | 69.9% | 0hPa | 2.5V | 00:00:00 | 00:00:00 | 00:00:00 | |
| OE5MMP-10 | 2026-09-04 01:04:35 | 49.33695 | 15.44747 | 145° | 122km/h | 8913m | -12.5m/s | -32.4°C | 74.0% | 0hPa | 2.5V | 00:00:00 | 02:17:48 | 00:00:00 | |
| S52SK | 2026-09-04 01:04:33 | 49.33719 | 15.44721 | 144° | 117km/h | 8925m | -12.8m/s | -32.6°C | 68.2% | 0hPa | 2.5V | 00:00:00 | 00:00:00 | 00:00:00 | |
| DO3MHA-11 | 2026-09-04 01:04:32 | 49.33767 | 15.44665 | 143° | 124km/h | 8950m | -13.1m/s | -32.7°C | 71.3% | 0hPa | 2.5V | 00:00:00 | 02:17:45 | 00:00:00 | |
| PG1ADW-2 | 2026-09-04 01:04:31 | 49.33791 | 15.44636 | 142° | 124km/h | 8964m | -13.3m/s | -32.7°C | 69.9% | 0hPa | 2.5V | 08:12:00 | 00:00:00 | 00:00:00 | |
| SONDE2-11 | 2026-09-04 01:04:30 | 49.33815 | 15.44607 | 141° | 119km/h | 8977m | -13.0m/s | -32.9°C | 64.8% | -1.0hPa | 2.5V | 00:00:00 | 00:00:00 | 00:00:00 | |
| EDDB2-11 | 2026-09-04 01:04:28 | 49.33889 | 15.44518 | 141° | 124km/h | 9012m | -10.4m/s | -33.2°C | 65.9% | -1.0hPa | 2.5V | 00:00:00 | 00:00:00 | 00:00:00 | |
| PETON7-10 | 2026-09-04 01:04:26 | 49.33914 | 15.44488 | 143° | 126km/h | 9022m | -10.2m/s | -33.2°C | 71.6% | 0hPa | 2.5V | 00:00:00 | 00:00:00 | 00:00:00 | |
| OE5MMP-10 | 2026-09-04 01:04:25 | 49.33939 | 15.44458 | 143° | 124km/h | 9032m | -10.1m/s | -33.3°C | 72.1% | 0hPa | 2.5V | 00:00:00 | 02:17:38 | 00:00:00 | |
| OE5DXL-15 | 2026-09-04 01:04:23 | 49.33990 | 15.44399 | 143° | 126km/h | 9053m | -11.1m/s | -33.5°C | 73.8% | 0hPa | 2.5V | 00:00:00 | 00:00:00 | 00:00:00 | |
| DO3MHA-11 | 2026-09-04 01:04:22 | 49.34014 | 15.44369 | 142° | 124km/h | 9065m | -11.5m/s | -33.6°C | 74.9% | 0hPa | 2.4V | 00:00:00 | 02:17:35 | 00:00:00 | |
| OE5MMP-10 | 2026-09-04 01:04:15 | 49.34187 | 15.44156 | 142° | 126km/h | 9143m | -12.5m/s | -34.4°C | 78.1% | 0hPa | 2.4V | 00:00:00 | 02:17:28 | 00:00:00 | |
| DO3MHA-11 | 2026-09-04 01:04:12 | 49.34262 | 15.44065 | 142° | 126km/h | 9179m | -11.6m/s | -34.7°C | 78.4% | 0hPa | 2.5V | 00:00:00 | 02:17:25 | 00:00:00 | |
| PETON7-10 | 2026-09-04 01:04:11 | 49.34288 | 15.44035 | 143° | 126km/h | 9190m | -12.2m/s | -34.8°C | 78.1% | 0hPa | 2.6V | 00:00:00 | 00:00:00 | 00:00:00 | |
| OE5MMP-10 | 2026-09-04 01:04:05 | 49.34438 | 15.43856 | 144° | 126km/h | 9267m | -13.1m/s | -35.3°C | 73.5% | 0hPa | 2.6V | 00:00:00 | 02:17:18 | 00:00:00 | |
| OE5DRO-10 | 2026-09-04 01:04:04 | 49.34464 | 15.43827 | 143° | 130km/h | 9279m | -12.8m/s | -35.4°C | 73.8% | 0hPa | 2.6V | 00:00:00 | 00:00:00 | 00:00:00 | |
| DO3MHA-11 | 2026-09-04 01:04:02 | 49.34515 | 15.43767 | 144° | 128km/h | 9303m | -12.4m/s | -35.6°C | 74.3% | 0hPa | 2.6V | 00:00:00 | 02:17:15 | 00:00:00 | |
| OE3OSB-13 | 2026-09-04 01:04:00 | 49.34566 | 15.43709 | 142° | 126km/h | 9328m | -12.7m/s | -35.9°C | 68.3% | -1.0hPa | 2.6V | 00:00:00 | 00:00:00 | 00:00:00 | |
| SONDE2-11 | 2026-09-04 01:03:59 | 49.34592 | 15.43679 | 142° | 130km/h | 9340m | -12.5m/s | -36.0°C | 68.0% | -1.0hPa | 2.6V | 00:00:00 | 00:00:00 | 00:00:00 | |
| EDDB2-11 | 2026-09-04 01:03:56 | 49.34670 | 15.43589 | 143° | 126km/h | 9378m | -13.2m/s | -36.3°C | 67.4% | -1.0hPa | 2.6V | 00:00:00 | 00:00:00 | 00:00:00 | |
| EDDB2-12 | 2026-09-04 01:03:45 | 49.34985 | 15.43217 | 141° | 131km/h | 9522m | -12.3m/s | -37.3°C | 65.7% | -1.0hPa | 2.6V | 00:00:00 | 00:00:00 | 00:00:00 | |
| DO3MHA-11 | 2026-09-04 01:03:42 | 49.35037 | 15.43155 | 144° | 131km/h | 9546m | -12.7m/s | -37.5°C | 71.5% | 0hPa | 2.6V | 00:00:00 | 02:16:55 | 00:00:00 | |
| OE3JTB-15 | 2026-09-04 01:03:41 | 49.35063 | 15.43125 | 144° | 137km/h | 9559m | -12.1m/s | -37.6°C | 71.3% | 0hPa | 2.6V | 00:00:00 | 00:00:00 | 00:00:00 | |
| OE5MMP-10 | 2026-09-04 01:03:35 | 49.35225 | 15.42949 | 146° | 135km/h | 9632m | -13.2m/s | -38.1°C | 68.6% | 0hPa | 2.5V | 00:00:00 | 02:16:48 | 00:00:00 | |
| DO3MHA-11 | 2026-09-04 01:03:31 | 49.35336 | 15.42831 | 146° | 137km/h | 9682m | -11.7m/s | -38.5°C | 70.7% | 0hPa | 2.5V | 00:00:00 | 02:16:44 | 00:00:00 | |
| OE3OSB-13 | 2026-09-04 01:03:29 | 49.35392 | 15.42773 | 146° | 133km/h | 9707m | -12.0m/s | -38.8°C | 64.6% | -1.0hPa | 2.5V | 00:00:00 | 00:00:00 | 00:00:00 | |
| SONDE2-11 | 2026-09-04 01:03:28 | 49.35421 | 15.42743 | 145° | 137km/h | 9719m | -12.1m/s | -38.9°C | 64.1% | -1.0hPa | 2.5V | 00:00:00 | 00:00:00 | 00:00:00 | |
| PETON7-10 | 2026-09-04 01:03:26 | 49.35478 | 15.42684 | 146° | 139km/h | 9744m | -12.0m/s | -39.0°C | 68.8% | 0hPa | 2.5V | 00:00:00 | 00:00:00 | 00:00:00 | |
| EDDB2-11 | 2026-09-04 01:03:25 | 49.35507 | 15.42655 | 146° | 133km/h | 9755m | -12.1m/s | -39.1°C | 62.0% | -1.0hPa | 2.5V | 00:00:00 | 00:00:00 | 00:00:00 | |
| OE5DXL-15 | 2026-09-04 01:03:23 | 49.35564 | 15.42595 | 146° | 139km/h | 9781m | -12.7m/s | -39.1°C | 63.6% | 0hPa | 2.5V | 00:00:00 | 00:00:00 | 00:00:00 | |
| DO3MHA-11 | 2026-09-04 01:03:20 | 49.35651 | 15.42505 | 147° | 139km/h | 9819m | -12.6m/s | -39.4°C | 63.2% | 0hPa | 2.5V | 00:00:00 | 02:16:33 | 00:00:00 | |
| NBG1-10 | 2026-09-04 01:03:18 | 49.35710 | 15.42445 | 147° | 139km/h | 9844m | -12.3m/s | -39.6°C | 62.2% | 0hPa | 2.5V | 00:00:00 | 02:16:31 | 00:00:00 | |
| OE5MMP-10 | 2026-09-04 01:03:15 | 49.35799 | 15.42357 | 147° | 139km/h | 9883m | -13.2m/s | -40.0°C | 62.2% | 0hPa | 2.5V | 08:13:00 | 02:16:28 | 00:00:00 | |
| EDDB2-12 | 2026-09-04 01:03:14 | 49.35857 | 15.42298 | 147° | 135km/h | 9908m | -12.3m/s | -40.3°C | 56.0% | -1.0hPa | 2.5V | 00:00:00 | 00:00:00 | 00:00:00 | |
| PETON7-10 | 2026-09-04 01:03:11 | 49.35916 | 15.42241 | 147° | 139km/h | 9935m | -14.3m/s | -40.4°C | 59.8% | 0hPa | 2.5V | 00:00:00 | 02:16:24 | 00:00:00 | |
| DO3MHA-11 | 2026-09-04 01:03:10 | 49.35946 | 15.42211 | 148° | 139km/h | 9948m | -12.9m/s | -40.6°C | 59.4% | 0hPa | 2.5V | 08:13:00 | 02:16:23 | 00:00:00 | |
| OE5DRO-10 | 2026-09-04 01:03:07 | 49.36035 | 15.42124 | 148° | 141km/h | 9988m | -12.9m/s | -40.9°C | 58.9% | 0hPa | 2.5V | 00:00:00 | 00:00:00 | 00:00:00 | |
| OE5MMP-10 | 2026-09-04 01:03:05 | 49.36094 | 15.42066 | 147° | 139km/h | 10014m | -13.6m/s | -41.1°C | 58.7% | 0hPa | 2.5V | 00:00:00 | 02:16:18 | 00:00:00 | |
| OE3OSB-13 | 2026-09-04 01:02:58 | 49.36301 | 15.41862 | 146° | 142km/h | 10110m | -13.6m/s | -41.9°C | 50.7% | -1.0hPa | 2.5V | 00:00:00 | 00:00:00 | 00:00:00 | |
| SONDE2-11 | 2026-09-04 01:02:57 | 49.36332 | 15.41832 | 147° | 141km/h | 10124m | -14.9m/s | -42.1°C | 50.6% | -1.0hPa | 2.5V | 00:00:00 | 00:00:00 | 00:00:00 | |
| EDDB2-11 | 2026-09-04 01:02:55 | 49.36422 | 15.41745 | 146° | 141km/h | 10166m | -13.2m/s | -42.5°C | 50.7% | -1.0hPa | 2.5V | 00:00:00 | 00:00:00 | 00:00:00 | |
| SP6BVK | 2026-09-04 01:02:54 | 49.36392 | 15.41774 | 148° | 141km/h | 10153m | -13.9m/s | -42.3°C | 50.9% | 0hPa | 2.5V | 08:13:00 | 00:00:00 | 00:00:00 | |
| OE5DXL-15 | 2026-09-04 01:02:53 | 49.36452 | 15.41715 | 148° | 139km/h | 10179m | -13.2m/s | -42.5°C | 56.2% | 0hPa | 2.5V | 00:00:00 | 00:00:00 | 00:00:00 | |
| PG1ADW-2 | 2026-09-04 01:02:51 | 49.36513 | 15.41657 | 148° | 139km/h | 10207m | -14.6m/s | -42.8°C | 55.7% | 0hPa | 2.5V | 00:00:00 | 00:00:00 | 00:00:00 | |
| DO3MHA-11 | 2026-09-04 01:02:50 | 49.36543 | 15.41628 | 148° | 139km/h | 10220m | -12.9m/s | -42.9°C | 55.5% | 0hPa | 2.5V | 00:00:00 | 02:16:03 | 00:00:00 | |
| OE5DRO-10 | 2026-09-04 01:02:48 | 49.36604 | 15.41572 | 149° | 137km/h | 10246m | -13.1m/s | -43.2°C | 54.7% | 0hPa | 2.5V | 00:00:00 | 00:00:00 | 00:00:00 | |
| OE5MMP-10 | 2026-09-04 01:02:45 | 49.36694 | 15.41487 | 148° | 139km/h | 10287m | -14.6m/s | -43.5°C | 52.5% | 0hPa | 2.5V | 00:00:00 | 02:15:58 | 00:00:00 | |
| EDDB2-12 | 2026-09-04 01:02:42 | 49.36785 | 15.41403 | 149° | 135km/h | 10331m | -16.2m/s | -43.9°C | 45.0% | -1.0hPa | 2.5V | 00:00:00 | 00:00:00 | 00:00:00 | |
| PETON7-10 | 2026-09-04 01:02:41 | 49.36814 | 15.41376 | 149° | 137km/h | 10347m | -15.1m/s | -44.0°C | 49.9% | 0hPa | 2.5V | 00:00:00 | 00:00:00 | 00:00:00 | |
| DO3MHA-11 | 2026-09-04 01:02:40 | 49.36844 | 15.41348 | 149° | 137km/h | 10362m | -14.8m/s | -44.1°C | 49.2% | 0hPa | 2.5V | 00:00:00 | 02:15:53 | 00:00:00 | |
| NBG1-10 | 2026-09-04 01:02:37 | 49.36934 | 15.41264 | 150° | 139km/h | 10408m | -16.3m/s | -44.6°C | 48.2% | 0hPa | 2.6V | 00:00:00 | 02:15:50 | 00:00:00 | |
| OE5MMP-10 | 2026-09-04 01:02:35 | 49.36993 | 15.41209 | 148° | 137km/h | 10440m | -15.7m/s | -44.9°C | 47.0% | 0hPa | 2.6V | 00:00:00 | 02:15:48 | 00:00:00 | |
| SP6BVK | 2026-09-04 01:02:34 | 49.37022 | 15.41180 | 148° | 139km/h | 10456m | -15.8m/s | -45.0°C | 41.0% | 0hPa | 2.6V | 08:14:00 | 00:00:00 | 00:00:00 | |
| PG1ADW-2 | 2026-09-04 01:02:31 | 49.37111 | 15.41097 | 148° | 137km/h | 10502m | -16.1m/s | -45.3°C | 44.1% | 0hPa | 2.6V | 00:00:00 | 00:00:00 | 00:00:00 | |
| DO3MHA-11 | 2026-09-04 01:02:30 | 49.37140 | 15.41069 | 148° | 137km/h | 10518m | -14.6m/s | -45.5°C | 43.5% | 0hPa | 2.5V | 00:00:00 | 02:15:43 | 00:00:00 | |
| OE5DRO-10 | 2026-09-04 01:02:29 | 49.37169 | 15.41040 | 148° | 137km/h | 10533m | -16.0m/s | -45.6°C | 42.8% | 0hPa | 2.5V | 00:00:00 | 00:00:00 | 00:00:00 | |
| OE3OSB-13 | 2026-09-04 01:02:27 | 49.37229 | 15.40984 | 148° | 137km/h | 10563m | -16.1m/s | -46.0°C | 36.2% | -1.0hPa | 2.5V | 00:00:00 | 00:00:00 | 00:00:00 | |
| PETON7-10 | 2026-09-04 01:02:26 | 49.37259 | 15.40956 | 150° | 137km/h | 10579m | -16.6m/s | -46.0°C | 40.5% | 0hPa | 2.5V | 00:00:00 | 02:15:39 | 00:00:00 | |
| OE5MMP-10 | 2026-09-04 01:02:25 | 49.37288 | 15.40929 | 149° | 137km/h | 10595m | -16.6m/s | -46.2°C | 39.8% | 0hPa | 2.5V | 00:00:00 | 02:15:38 | 00:00:00 | |
| S52SK | 2026-09-04 01:02:24 | 49.37288 | 15.40929 | 149° | 137km/h | 10595m | -16.7m/s | -46.2°C | 34.9% | 0hPa | 2.5V | 00:00:00 | 00:00:00 | 00:00:00 | |
| OE5DXL-15 | 2026-09-04 01:02:23 | 49.37347 | 15.40872 | 150° | 141km/h | 10630m | -15.6m/s | -46.5°C | 38.4% | 0hPa | 2.5V | 00:00:00 | 00:00:00 | 00:00:00 | |
| DO3MHA-11 | 2026-09-04 01:02:20 | 49.37437 | 15.40792 | 149° | 137km/h | 10678m | -17.1m/s | -46.9°C | 36.9% | 0hPa | 2.5V | 00:00:00 | 02:15:33 | 00:00:00 | |
| S52SK | 2026-09-04 01:02:18 | 49.37467 | 15.40764 | 149° | 139km/h | 10695m | -16.6m/s | -47.1°C | 31.8% | 0hPa | 2.5V | 00:00:00 | 00:00:00 | 00:00:00 | |
| OE5MMP-10 | 2026-09-04 01:02:15 | 49.37587 | 15.40656 | 149° | 139km/h | 10759m | -16.0m/s | -47.7°C | 36.7% | 0hPa | 2.5V | 00:00:00 | 02:15:28 | 00:00:00 | |
| OE3JTB-15 | 2026-09-04 01:02:12 | 49.37678 | 15.40574 | 151° | 89km/h | 10806m | -16.1m/s | -48.1°C | 36.4% | 0hPa | 2.6V | 08:14:00 | 00:00:00 | 00:00:00 | |
| PETON7-10 | 2026-09-04 01:02:11 | 49.37708 | 15.40548 | 151° | 141km/h | 10822m | -16.8m/s | -48.3°C | 36.3% | 0hPa | 2.5V | 00:00:00 | 00:00:00 | 00:00:00 | |
| DO3MHA-11 | 2026-09-04 01:02:10 | 49.37738 | 15.40521 | 150° | 139km/h | 10838m | -16.1m/s | -48.4°C | 36.2% | 0hPa | 2.5V | 00:00:00 | 02:15:23 | 00:00:00 | |
| OE3OSB-13 | 2026-09-04 01:01:56 | 49.38173 | 15.40144 | 150° | 142km/h | 11066m | -16.4m/s | -50.5°C | 33.0% | -1.0hPa | 2.5V | 00:00:00 | 00:00:00 | 00:00:00 | |
| SONDE2-11 | 2026-09-04 01:01:55 | 49.38205 | 15.40117 | 150° | 146km/h | 11082m | -14.6m/s | -50.6°C | 33.5% | -1.0hPa | 2.5V | 00:00:00 | 00:00:00 | 00:00:00 | |
| EDDB2-11 | 2026-09-04 01:01:52 | 49.38303 | 15.40035 | 152° | 142km/h | 11126m | -15.7m/s | -51.1°C | 34.7% | -1.0hPa | 2.5V | 00:00:00 | 00:00:00 | 00:00:00 | |
| PG1ADW-2 | 2026-09-04 01:01:51 | 49.38335 | 15.40008 | 151° | 146km/h | 11142m | -16.2m/s | -51.1°C | 40.9% | 0hPa | 2.5V | 00:00:00 | 00:00:00 | 00:00:00 | |
| DO3MHA-11 | 2026-09-04 01:01:50 | 49.38367 | 15.39981 | 152° | 146km/h | 11158m | -16.6m/s | -51.3°C | 41.3% | 0hPa | 2.5V | 00:00:00 | 02:15:03 | 00:00:00 | |
| OE5MMP-10 | 2026-09-04 01:01:45 | 49.38530 | 15.39845 | 151° | 146km/h | 11240m | -17.0m/s | -52.0°C | 42.6% | 0hPa | 2.5V | 08:14:00 | 02:14:58 | 00:00:00 | |
| PETON7-10 | 2026-09-04 01:01:41 | 49.38662 | 15.39737 | 153° | 146km/h | 11308m | -17.1m/s | -52.6°C | 43.6% | 0hPa | 2.5V | 00:00:00 | 02:14:54 | 00:00:00 | |
| DO3MHA-11 | 2026-09-04 01:01:40 | 49.38694 | 15.39711 | 152° | 146km/h | 11325m | -17.4m/s | -52.8°C | 43.7% | 0hPa | 2.5V | 08:14:00 | 02:14:53 | 00:00:00 | |
| OE5MMP-10 | 2026-09-04 01:01:35 | 49.38859 | 15.39580 | 153° | 146km/h | 11407m | -15.7m/s | -53.6°C | 45.1% | 0hPa | 2.5V | 00:00:00 | 02:14:48 | 00:00:00 | |
| OE5DRO-10 | 2026-09-04 01:01:32 | 49.38959 | 15.39501 | 153° | 144km/h | 11454m | -15.6m/s | -54.0°C | 45.9% | 0hPa | 2.5V | 08:15:00 | 00:00:00 | 00:00:00 | |
| PG1ADW-2 | 2026-09-04 01:01:31 | 49.38992 | 15.39476 | 155° | 144km/h | 11470m | -14.9m/s | -54.1°C | 46.2% | 0hPa | 2.6V | 08:15:00 | 00:00:00 | 00:00:00 | |
| DO3MHA-11 | 2026-09-04 01:01:30 | 49.39025 | 15.39450 | 154° | 144km/h | 11485m | -15.4m/s | -54.3°C | 46.4% | 0hPa | 2.5V | 00:00:00 | 02:14:43 | 00:00:00 | |
| NBG1-10 | 2026-09-04 01:01:28 | 49.39091 | 15.39400 | 155° | 144km/h | 11515m | -16.0m/s | -54.6°C | 46.9% | 0hPa | 2.5V | 00:00:00 | 02:14:41 | 00:00:00 | |
| OE5MMP-10 | 2026-09-04 01:01:26 | 49.39192 | 15.39328 | 156° | 144km/h | 11563m | -16.3m/s | -54.9°C | 47.1% | 0hPa | 2.5V | 00:00:00 | 02:14:38 | 00:00:00 | |
| SONDE2-11 | 2026-09-04 01:01:25 | 49.39225 | 15.39305 | 156° | 142km/h | 11578m | -16.5m/s | -55.1°C | 40.1% | -1.0hPa | 2.5V | 00:00:00 | 00:00:00 | 00:00:00 | |
| OE5DXL-15 | 2026-09-04 01:01:23 | 49.39258 | 15.39282 | 155° | 142km/h | 11595m | -15.7m/s | -55.2°C | 47.6% | 0hPa | 2.5V | 08:15:00 | 00:00:00 | 00:00:00 | |
| EDDB2-11 | 2026-09-04 01:01:21 | 49.39325 | 15.39236 | 156° | 141km/h | 11626m | -16.5m/s | -55.5°C | 40.4% | -1.0hPa | 2.5V | 00:00:00 | 00:00:00 | 00:00:00 | |
| DO3MHA-11 | 2026-09-04 01:01:20 | 49.39358 | 15.39214 | 157° | 144km/h | 11642m | -15.7m/s | -55.6°C | 47.9% | 0hPa | 2.5V | 00:00:00 | 02:14:33 | 00:00:00 | |
| OE5MMP-10 | 2026-09-04 01:01:15 | 49.39526 | 15.39105 | 159° | 142km/h | 11722m | -16.2m/s | -56.4°C | 48.5% | 0hPa | 2.5V | 00:00:00 | 02:14:28 | 00:00:00 | |
| OE5DRO-10 | 2026-09-04 01:01:13 | 49.39594 | 15.39064 | 159° | 142km/h | 11752m | -14.8m/s | -56.6°C | 48.7% | 0hPa | 2.5V | 00:00:00 | 00:00:00 | 00:00:00 | |
| PETON7-10 | 2026-09-04 01:01:11 | 49.39661 | 15.39023 | 158° | 142km/h | 11783m | -14.7m/s | -56.8°C | 48.6% | 0hPa | 2.5V | 00:00:00 | 00:00:00 | 00:00:00 | |
| DO3MHA-11 | 2026-09-04 01:01:10 | 49.39695 | 15.39003 | 159° | 142km/h | 11798m | -15.3m/s | -56.9°C | 48.5% | 0hPa | 2.5V | 00:00:00 | 02:14:23 | 00:00:00 | |
| EDDB2-12 | 2026-09-04 01:01:09 | 49.39729 | 15.38983 | 159° | 139km/h | 11813m | -15.5m/s | 0°C | -1.0% | -1.0hPa | 2.5V | 00:00:00 | 00:00:00 | 00:00:00 | |
| OE5MMP-10 | 2026-09-04 01:01:05 | 49.39863 | 15.38904 | 160° | 142km/h | 11873m | -15.7m/s | -57.5°C | 48.4% | 0hPa | 2.5V | 00:00:00 | 02:14:18 | 00:00:00 | |
| OE3OSB-13 | 2026-09-04 01:00:54 | 49.40270 | 15.38671 | 159° | 144km/h | 12059m | -15.0m/s | -59.3°C | 39.3% | -1.0hPa | 2.5V | 00:00:00 | 00:00:00 | 00:00:00 | |
| OE5DXL-15 | 2026-09-04 01:00:53 | 49.40270 | 15.38671 | 160° | 144km/h | 12059m | -15.0m/s | -59.2°C | 47.5% | 0hPa | 2.5V | 00:00:00 | 00:00:00 | 00:00:00 | |
| PG1ADW-2 | 2026-09-04 01:00:51 | 49.40339 | 15.38631 | 161° | 146km/h | 12090m | -16.9m/s | -59.5°C | 47.1% | 0hPa | 2.5V | 00:00:00 | 02:14:04 | 00:00:00 | |
| DO3MHA-11 | 2026-09-04 01:00:50 | 49.40373 | 15.38612 | 159° | 146km/h | 12108m | -16.7m/s | -59.7°C | 47.0% | 0hPa | 2.5V | 00:00:00 | 02:14:03 | 00:00:00 | |
| OE5MMP-10 | 2026-09-04 01:00:45 | 49.40545 | 15.38511 | 160° | 148km/h | 12190m | -16.6m/s | -60.4°C | 45.7% | 0hPa | 2.5V | 00:00:00 | 02:13:58 | 00:00:00 | |
| PETON7-10 | 2026-09-04 01:00:41 | 49.40685 | 15.38429 | 159° | 144km/h | 12252m | -14.8m/s | -60.9°C | 45.4% | 0hPa | 2.5V | 08:15:00 | 00:00:00 | 00:00:00 | |
| DO3MHA-11 | 2026-09-04 01:00:40 | 49.40720 | 15.38407 | 158° | 146km/h | 12267m | -14.4m/s | -61.1°C | 45.2% | 0hPa | 2.5V | 00:00:00 | 02:13:53 | 00:00:00 | |
| OE5MMP-10 | 2026-09-04 01:00:35 | 49.40894 | 15.38303 | 160° | 142km/h | 12347m | -16.9m/s | -61.7°C | 44.2% | 0hPa | 2.6V | 00:00:00 | 02:13:48 | 00:00:00 | |
| PG1ADW-2 | 2026-09-04 01:00:31 | 49.41031 | 15.38221 | 160° | 135km/h | 12413m | -16.5m/s | -62.2°C | 43.5% | 0hPa | 2.6V | 00:00:00 | 00:00:00 | 00:00:00 | |
| SP6BVK | 2026-09-04 01:00:30 | 49.41065 | 15.38201 | 159° | 142km/h | 12429m | -16.7m/s | -62.3°C | 35.1% | 0hPa | 2.5V | 08:16:00 | 00:00:00 | 00:00:00 | |
| PETON7-10 | 2026-09-04 01:00:26 | 49.41197 | 15.38119 | 157° | 133km/h | 12493m | -15.0m/s | -62.7°C | 43.5% | 0hPa | 2.5V | 00:00:00 | 00:00:00 | 00:00:00 | |
| OE5MMP-10 | 2026-09-04 01:00:25 | 49.41229 | 15.38098 | 157° | 133km/h | 12509m | -15.9m/s | -62.8°C | 43.5% | 0hPa | 2.5V | 00:00:00 | 02:13:38 | 00:00:00 | |
| OE3OSB-13 | 2026-09-04 01:00:23 | 49.41323 | 15.38034 | 155° | 135km/h | 12557m | -15.1m/s | -63.2°C | 34.5% | -1.0hPa | 2.5V | 00:00:00 | 00:00:00 | 00:00:00 | |
| SONDE2-11 | 2026-09-04 01:00:22 | 49.41323 | 15.38034 | 155° | 135km/h | 12557m | -15.1m/s | -63.2°C | 34.5% | -1.0hPa | 2.5V | 00:00:00 | 00:00:00 | 00:00:00 | |
| EDDB2-11 | 2026-09-04 01:00:20 | 49.41414 | 15.37967 | 154° | 130km/h | 12603m | -15.0m/s | -63.5°C | 33.6% | -1.0hPa | 2.5V | 00:00:00 | 00:00:00 | 00:00:00 | |
| S52SK | 2026-09-04 01:00:19 | 49.41414 | 15.37967 | 155° | 130km/h | 12603m | -15.0m/s | -63.5°C | 34.0% | 0hPa | 2.5V | 08:16:00 | 00:00:00 | 00:00:00 | |
| OE5DRO-10 | 2026-09-04 01:00:17 | 49.41501 | 15.37898 | 153° | 144km/h | 12651m | -15.5m/s | -63.5°C | 41.1% | 0hPa | 2.5V | 00:00:00 | 00:00:00 | 00:00:00 | |
| OE5MMP-10 | 2026-09-04 01:00:15 | 49.41531 | 15.37873 | 151° | 139km/h | 12667m | -15.3m/s | -63.6°C | 40.5% | 0hPa | 2.5V | 08:16:00 | 02:13:28 | 00:00:00 | |
| S52SK | 2026-09-04 01:00:13 | 49.41560 | 15.37847 | 149° | 133km/h | 12682m | -15.1m/s | -63.6°C | 30.8% | 0hPa | 2.5V | 08:16:00 | 00:00:00 | 00:00:00 | |
| PG1ADW-2 | 2026-09-04 01:00:11 | 49.41647 | 15.37764 | 148° | 155km/h | 12727m | -16.5m/s | -63.6°C | 36.5% | 0hPa | 2.5V | 00:00:00 | 00:00:00 | 00:00:00 | |
| DO3MHA-11 | 2026-09-04 01:00:10 | 49.41677 | 15.37735 | 147° | 148km/h | 12744m | -16.8m/s | -63.6°C | 35.9% | 0hPa | 2.5V | 08:16:00 | 02:13:23 | 00:00:00 | |
| SP6BVK | 2026-09-04 01:00:08 | 49.41706 | 15.37706 | 148° | 142km/h | 12760m | -15.5m/s | -63.8°C | 27.6% | 0hPa | 2.5V | 08:17:00 | 00:00:00 | 00:00:00 | |
| OE5MMP-10 | 2026-09-04 01:00:05 | 49.41828 | 15.37582 | 147° | 157km/h | 12823m | -15.7m/s | -63.1°C | 32.1% | 0hPa | 2.5V | 00:00:00 | 02:13:18 | 00:00:00 | |
| OE3OSB-13 | 2026-09-04 00:59:52 | 49.42306 | 15.37106 | 148° | 170km/h | 13034m | -15.3m/s | -63.9°C | 19.4% | -1.0hPa | 2.5V | 00:00:00 | 00:00:00 | 00:00:00 | |
| SONDE2-11 | 2026-09-04 00:59:51 | 49.42343 | 15.37071 | 148° | 172km/h | 13049m | -15.1m/s | -64.0°C | 19.0% | -1.0hPa | 2.5V | 00:00:00 | 00:00:00 | 00:00:00 | |
| EDDB2-11 | 2026-09-04 00:59:48 | 49.42418 | 15.37001 | 149° | 172km/h | 13078m | -14.6m/s | -64.1°C | 17.6% | -1.0hPa | 2.5V | 00:00:00 | 00:00:00 | 00:00:00 | |
| SP3BTT-10 | 2026-09-04 00:59:46 | 49.42493 | 15.36934 | 150° | 91km/h | 13108m | -14.4m/s | -64.3°C | 23.4% | 0hPa | 2.5V | 00:00:00 | 00:00:00 | 00:00:00 | |
| OE5MMP-10 | 2026-09-04 00:59:45 | 49.42530 | 15.36901 | 151° | 155km/h | 13122m | -14.0m/s | -64.4°C | 22.6% | 0hPa | 2.5V | 00:00:00 | 02:12:58 | 00:00:00 | |
| NBG1-10 | 2026-09-04 00:59:42 | 49.42641 | 15.36809 | 152° | 117km/h | 13170m | -17.7m/s | -64.3°C | 19.8% | 0hPa | 2.6V | 00:00:00 | 02:12:55 | 00:00:00 | |
| PETON7-10 | 2026-09-04 00:59:41 | 49.42676 | 15.36781 | 154° | 137km/h | 13188m | -17.0m/s | -63.8°C | 18.0% | 0hPa | 2.6V | 00:00:00 | 00:00:00 | 00:00:00 | |
| DO3MHA-11 | 2026-09-04 00:59:40 | 49.42711 | 15.36753 | 153° | 139km/h | 13205m | -17.6m/s | -63.4°C | 16.7% | 0hPa | 2.6V | 00:00:00 | 02:12:53 | 00:00:00 | |
| OE5DRO-10 | 2026-09-04 00:59:38 | 49.42780 | 15.36702 | 155° | 124km/h | 13238m | -17.1m/s | -63.0°C | 15.2% | 0hPa | 2.5V | 00:00:00 | 00:00:00 | 00:00:00 | |
| OE5MMP-10 | 2026-09-04 00:59:35 | 49.42876 | 15.36630 | 153° | 128km/h | 13289m | -16.4m/s | -61.8°C | 12.8% | 0hPa | 2.4V | 00:00:00 | 02:12:48 | 00:00:00 | |
| PG1ADW-2 | 2026-09-04 00:59:31 | 49.42995 | 15.36537 | 150° | 108km/h | 13357m | -16.3m/s | -61.8°C | 11.8% | 0hPa | 2.4V | 00:00:00 | 02:12:44 | 00:00:00 | |
| DO3MHA-11 | 2026-09-04 00:59:30 | 49.43022 | 15.36513 | 151° | 117km/h | 13374m | -17.1m/s | -61.8°C | 11.7% | 0hPa | 2.5V | 00:00:00 | 02:12:43 | 00:00:00 | |
| SP6BVK | 2026-09-04 00:59:27 | 49.43076 | 15.36464 | 150° | 122km/h | 13406m | -16.1m/s | -61.8°C | 6.5% | 0hPa | 2.5V | 08:17:00 | 00:00:00 | 00:00:00 | |
| PETON7-10 | 2026-09-04 00:59:26 | 49.43128 | 15.36414 | 147° | 102km/h | 13439m | -16.9m/s | -61.7°C | 10.5% | 0hPa | 2.5V | 00:00:00 | 02:12:39 | 00:00:00 | |
| OE5MMP-10 | 2026-09-04 00:59:25 | 49.43153 | 15.36389 | 148° | 106km/h | 13455m | -16.8m/s | -61.8°C | 10.3% | 0hPa | 2.5V | 00:00:00 | 02:12:38 | 00:00:00 | |
| OE5DXL-15 | 2026-09-04 00:59:23 | 49.43202 | 15.36340 | 147° | 93km/h | 13489m | -16.2m/s | -61.9°C | 10.0% | 0hPa | 2.5V | 00:00:00 | 00:00:00 | 00:00:00 | |
| OE3OSB-13 | 2026-09-04 00:59:21 | 49.43270 | 15.36268 | 146° | 104km/h | 13538m | -16.7m/s | -61.6°C | 4.7% | -1.0hPa | 2.5V | 00:00:00 | 00:00:00 | 00:00:00 | |
| SONDE2-11 | 2026-09-04 00:59:20 | 49.43292 | 15.36246 | 146° | 99km/h | 13554m | -17.6m/s | -60.9°C | 4.2% | -1.0hPa | 2.5V | 00:00:00 | 00:00:00 | 00:00:00 | |
| OE5DRO-10 | 2026-09-04 00:59:19 | 49.43292 | 15.36246 | 147° | 88km/h | 13554m | -17.6m/s | -60.9°C | 8.4% | 0hPa | 2.5V | 00:00:00 | 00:00:00 | 00:00:00 | |
| EDDB2-11 | 2026-09-04 00:59:18 | 49.43334 | 15.36204 | 147° | 95km/h | 13588m | -17.6m/s | -60.2°C | 3.7% | -1.0hPa | 2.5V | 00:00:00 | 00:00:00 | 00:00:00 | |
| OE5MMP-10 | 2026-09-04 00:59:15 | 49.43374 | 15.36166 | 147° | 84km/h | 13621m | -16.5m/s | -59.7°C | 7.3% | 0hPa | 2.5V | 00:00:00 | 02:12:28 | 00:00:00 | |
| PETON7-10 | 2026-09-04 00:59:11 | 49.43446 | 15.36093 | 146° | 86km/h | 13688m | -16.6m/s | -59.5°C | 6.8% | 0hPa | 2.6V | 00:00:00 | 00:00:00 | 00:00:00 | |
| DO3MHA-11 | 2026-09-04 00:59:10 | 49.43462 | 15.36074 | 142° | 84km/h | 13705m | -17.1m/s | -59.5°C | 6.8% | 0hPa | 2.5V | 00:00:00 | 02:12:23 | 00:00:00 | |
| NBG1-10 | 2026-09-04 00:59:09 | 49.43479 | 15.36055 | 144° | 89km/h | 13722m | -17.3m/s | -59.5°C | 6.7% | 0hPa | 2.5V | 00:00:00 | 02:12:22 | 00:00:00 | |
| SP6BVK | 2026-09-04 00:59:06 | 49.43510 | 15.36015 | 140° | 84km/h | 13757m | -16.9m/s | -59.5°C | 3.1% | 0hPa | 2.5V | 08:18:00 | 00:00:00 | 00:00:00 | |
| OE5MMP-10 | 2026-09-04 00:59:05 | 49.43542 | 15.35973 | 138° | 93km/h | 13791m | -17.8m/s | -59.6°C | 6.6% | 0hPa | 2.5V | 00:00:00 | 02:12:18 | 00:00:00 | |
| SONDE2-11 | 2026-09-04 00:58:49 | 49.43859 | 15.35562 | 145° | 89km/h | 14080m | -18.2m/s | -58.6°C | 2.3% | -1.0hPa | 2.5V | 00:00:00 | 00:00:00 | 00:00:00 | |
| EDDB2-11 | 2026-09-04 00:58:46 | 49.43896 | 15.35523 | 144° | 84km/h | 14115m | -18.0m/s | -58.2°C | 2.2% | -1.0hPa | 2.5V | 00:00:00 | 00:00:00 | 00:00:00 | |
| OE5MMP-10 | 2026-09-04 00:58:45 | 49.43913 | 15.35503 | 145° | 75km/h | 14133m | -17.3m/s | -57.9°C | 5.5% | 0hPa | 2.5V | 08:17:00 | 02:11:58 | 00:00:00 | |
| OE5DRO-10 | 2026-09-04 00:58:41 | 49.43977 | 15.35431 | 141° | 69km/h | 14204m | -17.7m/s | -57.7°C | 5.4% | 0hPa | 2.5V | 08:17:00 | 00:00:00 | 00:00:00 | |
| DO3MHA-11 | 2026-09-04 00:58:40 | 49.43991 | 15.35414 | 142° | 66km/h | 14221m | -16.3m/s | -57.8°C | 5.4% | 0hPa | 2.5V | 08:17:00 | 02:11:53 | 00:00:00 | |
| ANDY1245 | 2026-09-04 00:58:39 | 49.43991 | 15.35414 | 143° | 73km/h | 14221m | -16.4m/s | -57.8°C | 2.3% | 0hPa | 2.5V | 00:00:00 | 00:00:00 | 00:00:00 | |
| NBG1-10 | 2026-09-04 00:58:36 | 49.44056 | 15.35325 | 136° | 75km/h | 14305m | -18.0m/s | -57.9°C | 5.4% | 0hPa | 2.5V | 08:18:00 | 02:11:48 | 00:00:00 | |
| OE5MMP-10 | 2026-09-04 00:58:35 | 49.44056 | 15.35325 | 136° | 66km/h | 14305m | -18.0m/s | -57.9°C | 5.4% | 0hPa | 2.6V | 00:00:00 | 02:11:48 | 00:00:00 | |
| PG1ADW-2 | 2026-09-04 00:58:31 | 49.44097 | 15.35253 | 130° | 77km/h | 14381m | -18.6m/s | -57.6°C | 5.2% | 0hPa | 2.6V | 08:18:00 | 00:00:00 | 00:00:00 | |
| DO3MHA-11 | 2026-09-04 00:58:30 | 49.44108 | 15.35234 | 132° | 73km/h | 14400m | -19.6m/s | -57.6°C | 5.3% | 0hPa | 2.5V | 00:00:00 | 02:11:43 | 00:00:00 | |
| OE5MMP-10 | 2026-09-04 00:58:25 | 49.44162 | 15.35129 | 128° | 80km/h | 14487m | -16.5m/s | -57.5°C | 5.2% | 0hPa | 2.5V | 00:00:00 | 02:11:38 | 00:00:00 | |
| SP6BVK | 2026-09-04 00:58:24 | 49.44162 | 15.35129 | 129° | 77km/h | 14487m | -16.5m/s | -57.6°C | 2.1% | 0hPa | 2.5V | 08:18:00 | 00:00:00 | 00:00:00 | |
| OE5DXL-15 | 2026-09-04 00:58:23 | 49.44186 | 15.35084 | 130° | 75km/h | 14520m | -16.3m/s | -57.5°C | 5.2% | 0hPa | 2.5V | 00:00:00 | 00:00:00 | 00:00:00 | |
| OE5DRO-10 | 2026-09-04 00:58:22 | 49.44199 | 15.35061 | 130° | 80km/h | 14535m | -14.8m/s | -57.5°C | 5.2% | 0hPa | 2.6V | 00:00:00 | 00:00:00 | 00:00:00 | |
| DO3MHA-11 | 2026-09-04 00:58:20 | 49.44226 | 15.35012 | 131° | 82km/h | 14566m | -16.0m/s | -57.5°C | 5.2% | 0hPa | 2.6V | 00:00:00 | 02:11:33 | 00:00:00 | |
| S52SK | 2026-09-04 00:58:19 | 49.44226 | 15.35012 | 131° | 84km/h | 14566m | -16.0m/s | -57.5°C | 2.2% | 0hPa | 2.6V | 00:00:00 | 00:00:00 | 00:00:00 | |
| SONDE2-11 | 2026-09-04 00:58:18 | 49.44268 | 15.34940 | 133° | 80km/h | 14615m | -17.5m/s | -57.0°C | 1.9% | -1.0hPa | 2.6V | 00:00:00 | 00:00:00 | 00:00:00 | |
| OE5MMP-10 | 2026-09-04 00:58:15 | 49.44296 | 15.34893 | 134° | 80km/h | 14651m | -17.0m/s | -57.1°C | 5.0% | 0hPa | 2.6V | 00:00:00 | 02:11:28 | 00:00:00 | |
| S52SK | 2026-09-04 00:58:14 | 49.44296 | 15.34893 | 134° | 84km/h | 14651m | -17.1m/s | -57.1°C | 2.0% | 0hPa | 2.6V | 00:00:00 | 00:00:00 | 00:00:00 | |
| PG1ADW-2 | 2026-09-04 00:58:11 | 49.44356 | 15.34801 | 135° | 69km/h | 14718m | -17.8m/s | -57.3°C | 5.1% | 0hPa | 2.6V | 00:00:00 | 02:11:24 | 00:00:00 | |
| DO3MHA-11 | 2026-09-04 00:58:10 | 49.44370 | 15.34779 | 136° | 75km/h | 14737m | -17.4m/s | -57.2°C | 5.0% | 0hPa | 2.6V | 00:00:00 | 02:11:23 | 00:00:00 | |
| S52SK | 2026-09-04 00:58:08 | 49.44385 | 15.34757 | 137° | 82km/h | 14754m | -16.8m/s | -57.2°C | 1.9% | 0hPa | 2.5V | 00:00:00 | 00:00:00 | 00:00:00 | |
| OE5MMP-10 | 2026-09-04 00:58:05 | 49.44442 | 15.34676 | 137° | 68km/h | 14821m | -17.4m/s | -57.3°C | 5.0% | 0hPa | 2.5V | 00:00:00 | 02:11:18 | 00:00:00 | |
| SP6BVK | 2026-09-04 00:58:03 | 49.44456 | 15.34657 | 138° | 73km/h | 14838m | -16.9m/s | -57.3°C | 2.0% | 0hPa | 2.5V | 08:18:00 | 00:00:00 | 00:00:00 | |
| SONDE2-11 | 2026-09-04 00:57:47 | 49.44667 | 15.34352 | 129° | 62km/h | 15142m | -17.1m/s | -57.3°C | 1.8% | -1.0hPa | 2.5V | 00:00:00 | 00:00:00 | 00:00:00 | |
| SP3BTT-10 | 2026-09-04 00:57:46 | 49.44667 | 15.34352 | 130° | 64km/h | 15142m | -17.0m/s | -57.3°C | 5.0% | 0hPa | 2.5V | 00:00:00 | 00:00:00 | 00:00:00 | |
| OE5MMP-10 | 2026-09-04 00:57:45 | 49.44677 | 15.34332 | 128° | 68km/h | 15160m | -18.2m/s | -57.3°C | 5.0% | 0hPa | 2.5V | 00:00:00 | 02:10:58 | 00:00:00 | |
| OE5DRO-10 | 2026-09-04 00:57:44 | 49.44687 | 15.34312 | 127° | 66km/h | 15177m | -16.9m/s | -57.2°C | 5.0% | 0hPa | 2.5V | 00:00:00 | 00:00:00 | 00:00:00 | |
| SP6BVK | 2026-09-04 00:57:43 | 49.44687 | 15.34312 | 127° | 69km/h | 15177m | -17.0m/s | -57.3°C | 1.9% | 0hPa | 2.6V | 08:18:00 | 00:00:00 | 00:00:00 | |
| OE5MMP-10 | 2026-09-04 00:57:35 | 49.44779 | 15.34123 | 129° | 66km/h | 15332m | -16.2m/s | -56.8°C | 4.9% | 0hPa | 2.6V | 00:00:00 | 02:10:48 | 00:00:00 | |
| DO3MHA-11 | 2026-09-04 00:57:34 | 49.44789 | 15.34103 | 129° | 66km/h | 15349m | -16.6m/s | -56.7°C | 4.8% | 0hPa | 2.6V | 00:00:00 | 02:10:47 | 00:00:00 | |
| PETON7-10 | 2026-09-04 00:57:32 | 49.44810 | 15.34064 | 131° | 64km/h | 15384m | -17.8m/s | -56.6°C | 4.8% | 0hPa | 2.6V | 00:00:00 | 02:10:45 | 00:00:00 | |
| PG1ADW-2 | 2026-09-04 00:57:31 | 49.44821 | 15.34045 | 131° | 62km/h | 15402m | -18.5m/s | -56.6°C | 4.7% | 0hPa | 2.6V | 00:00:00 | 00:00:00 | 00:00:00 | |
| NBG1-10 | 2026-09-04 00:57:26 | 49.44874 | 15.33949 | 132° | 66km/h | 15491m | -18.2m/s | -56.7°C | 4.7% | 0hPa | 2.5V | 00:00:00 | 02:10:39 | 00:00:00 | |
| OE5MMP-10 | 2026-09-04 00:57:25 | 49.44885 | 15.33931 | 131° | 62km/h | 15509m | -18.1m/s | -56.8°C | 4.7% | 0hPa | 2.5V | 00:00:00 | 02:10:38 | 00:00:00 | |
| DO3MHA-11 | 2026-09-04 00:57:23 | 49.44906 | 15.33894 | 131° | 66km/h | 15545m | -17.4m/s | -56.8°C | 4.7% | 0hPa | 2.5V | 00:00:00 | 02:10:36 | 00:00:00 | |
| PETON7-10 | 2026-09-04 00:57:17 | 49.44970 | 15.33785 | 133° | 64km/h | 15650m | -17.7m/s | -56.4°C | 4.5% | 0hPa | 2.5V | 08:19:00 | 00:00:00 | 00:00:00 | |
| SONDE2-11 | 2026-09-04 00:57:16 | 49.44990 | 15.33751 | 132° | 57km/h | 15685m | -17.0m/s | -56.6°C | 1.5% | -1.0hPa | 2.5V | 00:00:00 | 00:00:00 | 00:00:00 | |
| OE5MMP-10 | 2026-09-04 00:57:15 | 49.44990 | 15.33751 | 133° | 64km/h | 15685m | -17.0m/s | -56.5°C | 4.6% | 0hPa | 2.5V | 08:19:00 | 02:10:28 | 00:00:00 | |
| EDDB2-11 | 2026-09-04 00:57:13 | 49.45020 | 15.33700 | 130° | 60km/h | 15732m | -15.6m/s | -56.4°C | 1.6% | -1.0hPa | 2.5V | 00:00:00 | 00:00:00 | 00:00:00 | |
| PG1ADW-2 | 2026-09-04 00:57:11 | 49.45030 | 15.33682 | 129° | 69km/h | 15748m | -15.7m/s | -56.4°C | 4.6% | 0hPa | 2.5V | 00:00:00 | 00:00:00 | 00:00:00 | |
| OE5DRO-10 | 2026-09-04 00:57:06 | 49.45080 | 15.33580 | 126° | 68km/h | 15824m | -15.0m/s | -56.9°C | 4.9% | 0hPa | 2.5V | 00:00:00 | 00:00:00 | 00:00:00 | |
| OE5MMP-10 | 2026-09-04 00:57:05 | 49.45091 | 15.33558 | 126° | 71km/h | 15839m | -15.0m/s | -56.9°C | 4.9% | 0hPa | 2.5V | 00:00:00 | 02:10:18 | 00:00:00 | |
| SP6BVK | 2026-09-04 00:57:03 | 49.45112 | 15.33513 | 127° | 73km/h | 15869m | -15.5m/s | -56.9°C | 1.8% | 0hPa | 2.5V | 08:19:00 | 00:00:00 | 00:00:00 | |
| PETON7-10 | 2026-09-04 00:57:02 | 49.45123 | 15.33490 | 127° | 66km/h | 15885m | -15.7m/s | -56.9°C | 4.9% | 0hPa | 2.5V | 00:00:00 | 00:00:00 | 00:00:00 | |
| OE3OSB-13 | 2026-09-04 00:56:45 | 49.45274 | 15.33136 | 118° | 55km/h | 16151m | -13.5m/s | -56.1°C | 1.4% | -1.0hPa | 2.5V | 00:00:00 | 00:00:00 | 00:00:00 | |
| SONDE2-11 | 2026-09-04 00:56:44 | 49.45281 | 15.33117 | 118° | 55km/h | 16165m | -13.5m/s | -56.1°C | 1.4% | -1.0hPa | 2.5V | 00:00:00 | 00:00:00 | 00:00:00 | |
| DO3MHA-11 | 2026-09-04 00:56:43 | 49.45288 | 15.33098 | 119° | 62km/h | 16178m | -14.4m/s | -56.0°C | 4.4% | 0hPa | 2.5V | 00:00:00 | 02:09:56 | 00:00:00 | |
| SP6BVK | 2026-09-04 00:56:41 | 49.45295 | 15.33079 | 119° | 57km/h | 16193m | -13.9m/s | -56.1°C | 1.6% | 0hPa | 2.5V | 08:20:00 | 00:00:00 | 00:00:00 | |
| OE5MMP-10 | 2026-09-04 00:56:35 | 49.45338 | 15.32929 | 111° | 68km/h | 16290m | -14.2m/s | -56.8°C | 4.6% | 0hPa | 2.5V | 00:00:00 | 02:09:48 | 00:00:00 | |
| DO3MHA-11 | 2026-09-04 00:56:33 | 49.45350 | 15.32881 | 112° | 68km/h | 16318m | -14.0m/s | -56.9°C | 4.5% | 0hPa | 2.5V | 00:00:00 | 02:09:46 | 00:00:00 | |
| PETON7-10 | 2026-09-04 00:56:32 | 49.45356 | 15.32857 | 113° | 68km/h | 16333m | -14.4m/s | -56.9°C | 4.6% | 0hPa | 2.5V | 00:00:00 | 00:00:00 | 00:00:00 | |
| PG1ADW-2 | 2026-09-04 00:56:31 | 49.45363 | 15.32833 | 115° | 68km/h | 16347m | -13.9m/s | -57.0°C | 4.6% | 0hPa | 2.5V | 00:00:00 | 00:00:00 | 00:00:00 | |
| OE5DRO-10 | 2026-09-04 00:56:28 | 49.45387 | 15.32762 | 119° | 66km/h | 16389m | -13.9m/s | -57.3°C | 4.8% | 0hPa | 2.5V | 00:00:00 | 00:00:00 | 00:00:00 | |
| OE5MMP-10 | 2026-09-04 00:56:25 | 49.45413 | 15.32695 | 124° | 66km/h | 16429m | -11.9m/s | -57.1°C | 4.7% | 0hPa | 2.5V | 00:00:00 | 02:09:38 | 00:00:00 | |
| OE5DXL-15 | 2026-09-04 00:56:23 | 49.45431 | 15.32651 | 125° | 69km/h | 16455m | -13.1m/s | -57.0°C | 4.7% | 0hPa | 2.5V | 00:00:00 | 00:00:00 | 00:00:00 | |
| NBG1-10 | 2026-09-04 00:56:20 | 49.45460 | 15.32588 | 125° | 68km/h | 16495m | -14.5m/s | -56.8°C | 4.7% | 0hPa | 2.5V | 00:00:00 | 02:09:33 | 00:00:00 | |
| PETON7-10 | 2026-09-04 00:56:17 | 49.45487 | 15.32526 | 125° | 68km/h | 16540m | -15.0m/s | -56.6°C | 4.6% | 0hPa | 2.5V | 00:00:00 | 00:00:00 | 00:00:00 | |
| OE5MMP-10 | 2026-09-04 00:56:15 | 49.45506 | 15.32484 | 125° | 68km/h | 16570m | -14.5m/s | -56.5°C | 4.6% | 0hPa | 2.5V | 00:00:00 | 02:09:28 | 00:00:00 | |
| OE3OSB-13 | 2026-09-04 00:56:14 | 49.45515 | 15.32462 | 123° | 68km/h | 16585m | -15.0m/s | -56.5°C | 1.4% | -1.0hPa | 2.5V | 00:00:00 | 00:00:00 | 00:00:00 | |
| DO3MHA-11 | 2026-09-04 00:56:13 | 49.45525 | 15.32440 | 124° | 69km/h | 16600m | -15.1m/s | -56.3°C | 4.5% | 0hPa | 2.5V | 00:00:00 | 02:09:26 | 00:00:00 | |
| PG1ADW-2 | 2026-09-04 00:56:11 | 49.45544 | 15.32397 | 123° | 69km/h | 16630m | -15.4m/s | -56.4°C | 4.5% | 0hPa | 2.5V | 00:00:00 | 00:00:00 | 00:00:00 | |
| S52SK | 2026-09-04 00:56:10 | 49.45544 | 15.32397 | 124° | 68km/h | 16630m | -15.4m/s | -56.4°C | 1.5% | 0hPa | 2.5V | 00:00:00 | 00:00:00 | 00:00:00 | |
| OE5DRO-10 | 2026-09-04 00:56:09 | 49.45562 | 15.32352 | 123° | 69km/h | 16660m | -15.2m/s | -56.6°C | 4.6% | 0hPa | 2.5V | 00:00:00 | 00:00:00 | 00:00:00 | |
| OE5MMP-10 | 2026-09-04 00:56:05 | 49.45598 | 15.32261 | 121° | 71km/h | 16721m | -14.0m/s | -56.8°C | 4.8% | 0hPa | 2.5V | 00:00:00 | 02:09:18 | 00:00:00 | |
| S52SK | 2026-09-04 00:56:04 | 49.45598 | 15.32261 | 122° | 69km/h | 16721m | -14.0m/s | -56.9°C | 1.5% | 0hPa | 2.5V | 00:00:00 | 00:00:00 | 00:00:00 | |
| PETON7-10 | 2026-09-04 00:56:02 | 49.45626 | 15.32191 | 124° | 68km/h | 16763m | -14.9m/s | -56.6°C | 4.7% | 0hPa | 2.5V | 00:00:00 | 02:09:15 | 00:00:00 | |
| DO3MHA-11 | 2026-09-04 00:56:01 | 49.45636 | 15.32168 | 125° | 69km/h | 16778m | -14.5m/s | -56.5°C | 4.7% | 0hPa | 2.5V | 00:00:00 | 02:09:14 | 00:00:00 | |
| SP6BVK | 2026-09-04 00:55:59 | 49.45647 | 15.32144 | 126° | 73km/h | 16792m | -13.2m/s | -56.4°C | 1.5% | 0hPa | 2.5V | 08:20:00 | 00:00:00 | 00:00:00 | |
| OE5MMP-10 | 2026-09-04 00:55:55 | 49.45704 | 15.32037 | 133° | 64km/h | 16865m | -14.5m/s | -55.3°C | 4.1% | 0hPa | 2.5V | 00:00:00 | 02:09:08 | 00:00:00 | |
| OE5DXL-15 | 2026-09-04 00:55:53 | 49.45727 | 15.31999 | 135° | 49km/h | 16893m | -14.7m/s | -55.2°C | 4.1% | 0hPa | 2.5V | 00:00:00 | 00:00:00 | 00:00:00 | |
| PG1ADW-2 | 2026-09-04 00:55:51 | 49.45751 | 15.31964 | 137° | 49km/h | 16922m | -15.0m/s | -55.2°C | 4.1% | 0hPa | 2.5V | 00:00:00 | 00:00:00 | 00:00:00 | |
| OE5DRO-10 | 2026-09-04 00:55:50 | 49.45763 | 15.31947 | 138° | 49km/h | 16937m | -13.8m/s | -55.2°C | 4.1% | 0hPa | 2.5V | 08:20:00 | 00:00:00 | 00:00:00 | |
| PETON7-10 | 2026-09-04 00:55:47 | 49.45797 | 15.31899 | 139° | 46km/h | 16976m | -12.8m/s | -55.2°C | 4.1% | 0hPa | 2.5V | 00:00:00 | 00:00:00 | 00:00:00 | |
| HA6NAB-11 | 2026-09-04 00:55:46 | 49.45797 | 15.31899 | 140° | 58km/h | 16976m | -12.9m/s | -55.3°C | 1.3% | 0hPa | 2.6V | 00:00:00 | 00:00:00 | 00:00:00 | |
| OE5MMP-10 | 2026-09-04 00:55:45 | 49.45819 | 15.31870 | 139° | 46km/h | 17003m | -14.2m/s | -55.3°C | 4.2% | 0hPa | 2.6V | 08:20:00 | 02:08:58 | 00:00:00 | |
| SP3BTT-10 | 2026-09-04 00:55:44 | 49.45830 | 15.31856 | 140° | 33km/h | 17017m | -13.7m/s | -55.3°C | 4.2% | 0hPa | 2.5V | 00:00:00 | 00:00:00 | 00:00:00 | |
| OE3OSB-13 | 2026-09-04 00:55:43 | 49.45850 | 15.31829 | 136° | 49km/h | 17044m | -13.7m/s | -55.4°C | 1.2% | -1.0hPa | 2.5V | 00:00:00 | 00:00:00 | 00:00:00 | |
| SONDE2-11 | 2026-09-04 00:55:42 | 49.45850 | 15.31829 | 136° | 49km/h | 17044m | -13.7m/s | -55.4°C | 1.2% | -1.0hPa | 2.5V | 00:00:00 | 00:00:00 | 00:00:00 | |
| DO3MHA-11 | 2026-09-04 00:55:41 | 49.45858 | 15.31816 | 136° | 42km/h | 17059m | -15.2m/s | -55.3°C | 4.2% | 0hPa | 2.5V | 00:00:00 | 02:08:54 | 00:00:00 | |
| EDDB2-11 | 2026-09-04 00:55:40 | 49.45873 | 15.31791 | 130° | 40km/h | 17090m | -15.9m/s | -55.5°C | 1.2% | -1.0hPa | 2.5V | 00:00:00 | 00:00:00 | 00:00:00 | |
| SP6BVK | 2026-09-04 00:55:39 | 49.45873 | 15.31791 | 132° | 42km/h | 17090m | -15.9m/s | -55.5°C | 1.3% | 0hPa | 2.5V | 08:21:00 | 00:00:00 | 00:00:00 | |
| ANDY1245 | 2026-09-04 00:55:36 | 49.45886 | 15.31767 | 128° | 38km/h | 17121m | -15.0m/s | -55.6°C | 1.4% | 0hPa | 2.5V | 00:00:00 | 00:00:00 | 00:00:00 | |
| OE5MMP-10 | 2026-09-04 00:55:35 | 49.45897 | 15.31742 | 122° | 42km/h | 17153m | -17.3m/s | -55.5°C | 4.3% | 0hPa | 2.5V | 00:00:00 | 02:08:48 | 00:00:00 | |
| PETON7-10 | 2026-09-04 00:55:32 | 49.45913 | 15.31701 | 121° | 40km/h | 17202m | -14.7m/s | -55.8°C | 4.5% | 0hPa | 2.5V | 00:00:00 | 00:00:00 | 00:00:00 | |
| DO3MHA-11 | 2026-09-04 00:55:31 | 49.45918 | 15.31687 | 122° | 42km/h | 17217m | -15.3m/s | -55.8°C | 4.5% | 0hPa | 2.5V | 00:00:00 | 02:08:44 | 00:00:00 | |
| HA6NAB-11 | 2026-09-04 00:55:29 | 49.45924 | 15.31673 | 123° | 46km/h | 17232m | -14.7m/s | -55.9°C | 1.4% | 0hPa | 2.5V | 00:00:00 | 00:00:00 | 00:00:00 | |
| OE5MMP-10 | 2026-09-04 00:55:25 | 49.45954 | 15.31601 | 123° | 33km/h | 17314m | -15.9m/s | -55.4°C | 4.4% | 0hPa | 2.5V | 00:00:00 | 02:08:38 | 00:00:00 | |
| OE5DXL-15 | 2026-09-04 00:55:23 | 49.45965 | 15.31575 | 122° | 42km/h | 17344m | -13.6m/s | -54.7°C | 4.1% | 0hPa | 2.5V | 00:00:00 | 00:00:00 | 00:00:00 | |
| DO3MHA-11 | 2026-09-04 00:55:21 | 49.45975 | 15.31550 | 122° | 27km/h | 17371m | -14.0m/s | -54.5°C | 4.1% | 0hPa | 2.5V | 00:00:00 | 02:08:34 | 00:00:00 | |
| PETON7-10 | 2026-09-04 00:55:17 | 49.45990 | 15.31509 | 119° | 29km/h | 17433m | -16.2m/s | -53.6°C | 3.7% | 0hPa | 2.5V | 00:00:00 | 02:08:30 | 00:00:00 | |
| OE5MMP-10 | 2026-09-04 00:55:15 | 49.45997 | 15.31491 | 120° | 27km/h | 17464m | -14.8m/s | -53.8°C | 3.8% | 0hPa | 2.5V | 00:00:00 | 02:08:28 | 00:00:00 | |
| NBG1-10 | 2026-09-04 00:55:14 | 49.45999 | 15.31482 | 117° | 38km/h | 17479m | -14.6m/s | -53.9°C | 3.7% | 0hPa | 2.5V | 00:00:00 | 02:08:27 | 00:00:00 | |
| OE5DRO-10 | 2026-09-04 00:55:12 | 49.46005 | 15.31464 | 114° | 37km/h | 17508m | -14.5m/s | -54.1°C | 3.8% | 0hPa | 2.5V | 00:00:00 | 00:00:00 | 00:00:00 | |
| PG1ADW-2 | 2026-09-04 00:55:11 | 49.46008 | 15.31454 | 113° | 37km/h | 17522m | -14.0m/s | -54.1°C | 3.8% | 0hPa | 2.5V | 00:00:00 | 00:00:00 | 00:00:00 | |
| EDDB2-11 | 2026-09-04 00:55:08 | 49.46015 | 15.31424 | 107° | 27km/h | 17563m | -13.3m/s | -54.3°C | 1.1% | -1.0hPa | 2.5V | 00:00:00 | 00:00:00 | 00:00:00 | |
| DB0UT-7 | 2026-09-04 00:55:07 | 49.46017 | 15.31413 | 108° | 44km/h | 17577m | -13.3m/s | -54.3°C | 3.9% | 0hPa | 2.5V | 00:00:00 | 00:00:00 | 00:00:00 | |
| OE5MMP-10 | 2026-09-04 00:55:05 | 49.46021 | 15.31390 | 107° | 40km/h | 17604m | -12.8m/s | -54.6°C | 4.0% | 0hPa | 2.5V | 00:00:00 | 02:08:18 | 00:00:00 | |
| PETON7-10 | 2026-09-04 00:55:02 | 49.46029 | 15.31351 | 108° | 44km/h | 17642m | -12.3m/s | -54.8°C | 4.1% | 0hPa | 2.5V | 08:21:00 | 00:00:00 | 00:00:00 | |
| DO3MHA-11 | 2026-09-04 00:55:01 | 49.46032 | 15.31337 | 108° | 44km/h | 17655m | -13.3m/s | -54.7°C | 4.0% | 0hPa | 2.5V | 00:00:00 | 02:08:14 | 00:00:00 | |
| SP6BVK | 2026-09-04 00:54:56 | 49.46046 | 15.31275 | 110° | 44km/h | 17711m | -13.9m/s | -54.5°C | 1.2% | 0hPa | 2.5V | 08:22:00 | 00:00:00 | 00:00:00 | |
| OE5MMP-10 | 2026-09-04 00:54:55 | 49.46053 | 15.31242 | 111° | 46km/h | 17739m | -14.4m/s | -54.5°C | 4.0% | 0hPa | 2.5V | 00:00:00 | 02:08:08 | 00:00:00 | |
| OE5DRO-10 | 2026-09-04 00:54:53 | 49.46062 | 15.31210 | 112° | 44km/h | 17768m | -13.8m/s | -54.6°C | 4.0% | 0hPa | 2.5V | 00:00:00 | 00:00:00 | 00:00:00 | |
| PG1ADW-2 | 2026-09-04 00:54:51 | 49.46071 | 15.31177 | 116° | 44km/h | 17795m | -14.1m/s | -54.6°C | 4.0% | 0hPa | 2.5V | 00:00:00 | 00:00:00 | 00:00:00 | |
| ANDY1245 | 2026-09-04 00:54:48 | 49.46081 | 15.31146 | 121° | 46km/h | 17824m | -13.8m/s | -54.7°C | 1.3% | 0hPa | 2.5V | 08:22:00 | 00:00:00 | 00:00:00 | |
| PETON7-10 | 2026-09-04 00:54:47 | 49.46093 | 15.31116 | 124° | 42km/h | 17854m | -14.9m/s | -54.8°C | 4.1% | 0hPa | 2.5V | 00:00:00 | 00:00:00 | 00:00:00 | |
| OE5MMP-10 | 2026-09-04 00:54:45 | 49.46106 | 15.31088 | 126° | 44km/h | 17883m | -14.5m/s | -54.9°C | 4.1% | 0hPa | 2.5V | 00:00:00 | 02:07:58 | 00:00:00 | |
| OE3OSB-13 | 2026-09-04 00:54:41 | 49.46141 | 15.31022 | 131° | 42km/h | 17959m | -14.5m/s | -55.0°C | 1.1% | -1.0hPa | 2.5V | 00:00:00 | 00:00:00 | 00:00:00 | |
| SONDE2-11 | 2026-09-04 00:54:40 | 49.46141 | 15.31022 | 131° | 42km/h | 17959m | -14.5m/s | -55.0°C | 1.1% | -1.0hPa | 2.5V | 00:00:00 | 00:00:00 | 00:00:00 | |
| EDDB2-11 | 2026-09-04 00:54:38 | 49.46162 | 15.30986 | 134° | 42km/h | 18005m | -14.2m/s | -54.8°C | 1.1% | -1.0hPa | 2.5V | 00:00:00 | 00:00:00 | 00:00:00 | |
| SP6BVK | 2026-09-04 00:54:36 | 49.46162 | 15.30986 | 135° | 44km/h | 18005m | -14.2m/s | -54.8°C | 1.2% | 0hPa | 2.5V | 08:22:00 | 00:00:00 | 00:00:00 | |
| DB0UT-7 | 2026-09-04 00:54:35 | 49.46178 | 15.30964 | 139° | 20km/h | 18035m | -15.7m/s | -54.3°C | 3.9% | 0hPa | 2.5V | 08:22:00 | 02:07:48 | 00:00:00 | |
| OE5DRO-10 | 2026-09-04 00:54:34 | 49.46186 | 15.30954 | 139° | 44km/h | 18050m | -15.8m/s | -54.1°C | 3.8% | 0hPa | 2.5V | 00:00:00 | 00:00:00 | 00:00:00 | |
| PETON7-10 | 2026-09-04 00:54:32 | 49.46202 | 15.30934 | 144° | 44km/h | 18081m | -15.5m/s | -53.8°C | 3.7% | 0hPa | 2.5V | 00:00:00 | 02:07:45 | 00:00:00 | |
| DO3MHA-11 | 2026-09-04 00:54:31 | 49.46210 | 15.30924 | 141° | 42km/h | 18098m | -16.6m/s | -53.8°C | 3.7% | 0hPa | 2.5V | 00:00:00 | 02:07:44 | 00:00:00 | |
| OE5MMP-10 | 2026-09-04 00:54:25 | 49.46259 | 15.30862 | 139° | 44km/h | 18210m | -18.2m/s | -53.9°C | 3.6% | 0hPa | 2.5V | 00:00:00 | 02:07:38 | 00:00:00 | |
| OE5DXL-15 | 2026-09-04 00:54:24 | 49.46268 | 15.30851 | 142° | 40km/h | 18228m | -19.6m/s | -54.0°C | 3.6% | 0hPa | 2.5V | 00:00:00 | 00:00:00 | 00:00:00 | |
| DO3MHA-11 | 2026-09-04 00:54:21 | 49.46293 | 15.30818 | 140° | 42km/h | 18287m | -20.5m/s | -54.4°C | 3.7% | 0hPa | 2.5V | 00:00:00 | 02:07:34 | 00:00:00 | |
| PETON7-10 | 2026-09-04 00:54:17 | 49.46328 | 15.30775 | 144° | 38km/h | 18366m | -20.9m/s | -55.1°C | 3.9% | 0hPa | 2.6V | 00:00:00 | 00:00:00 | 00:00:00 | |
| ANDY1245 | 2026-09-04 00:54:16 | 49.46328 | 15.30774 | 144° | 44km/h | 18366m | -21.0m/s | -55.1°C | 1.2% | 0hPa | 2.6V | 08:22:00 | 00:00:00 | 00:00:00 | |
| OE5MMP-10 | 2026-09-04 00:54:15 | 49.46346 | 15.30756 | 151° | 38km/h | 18407m | -20.3m/s | -55.2°C | 4.0% | 0hPa | 2.6V | 08:22:00 | 02:07:28 | 00:00:00 | |
| S52SK | 2026-09-04 00:54:13 | 49.46355 | 15.30748 | 153° | 42km/h | 18427m | -21.2m/s | -55.2°C | 1.2% | 0hPa | 2.5V | 00:00:00 | 00:00:00 | 00:00:00 | |
| DO3MHA-11 | 2026-09-04 00:54:11 | 49.46381 | 15.30727 | 148° | 35km/h | 18490m | -20.9m/s | -55.4°C | 4.0% | 0hPa | 2.5V | 00:00:00 | 02:07:24 | 00:00:00 | |
| OE3OSB-13 | 2026-09-04 00:54:10 | 49.46397 | 15.30712 | 149° | 38km/h | 18533m | -21.5m/s | -55.8°C | 1.1% | -1.0hPa | 2.5V | 00:00:00 | 00:00:00 | 00:00:00 | |
| SONDE2-11 | 2026-09-04 00:54:09 | 49.46397 | 15.30712 | 149° | 38km/h | 18533m | -21.5m/s | -55.8°C | 1.1% | -1.0hPa | 2.5V | 00:00:00 | 00:00:00 | 00:00:00 | |
| S52SK | 2026-09-04 00:54:08 | 49.46397 | 15.30712 | 151° | 38km/h | 18533m | -21.5m/s | -55.8°C | 1.2% | 0hPa | 2.5V | 00:00:00 | 00:00:00 | 00:00:00 | |
| EDDB2-11 | 2026-09-04 00:54:07 | 49.46422 | 15.30692 | 151° | 35km/h | 18596m | -21.3m/s | -56.0°C | 1.1% | -1.0hPa | 2.5V | 00:00:00 | 00:00:00 | 00:00:00 | |
| OE5MMP-10 | 2026-09-04 00:54:05 | 49.46430 | 15.30685 | 151° | 27km/h | 18617m | -19.6m/s | -56.1°C | 4.3% | 0hPa | 2.5V | 00:00:00 | 02:07:18 | 00:00:00 | |
| PETON7-10 | 2026-09-04 00:54:02 | 49.46453 | 15.30669 | 157° | 26km/h | 18675m | -21.1m/s | -56.3°C | 4.4% | 0hPa | 2.5V | 00:00:00 | 00:00:00 | 00:00:00 | |
| DO3MHA-11 | 2026-09-04 00:54:01 | 49.46460 | 15.30664 | 155° | 24km/h | 18696m | -20.7m/s | -56.3°C | 4.5% | 0hPa | 2.5V | 00:00:00 | 02:07:14 | 00:00:00 | |
| SP6BVK | 2026-09-04 00:53:56 | 49.46489 | 15.30645 | 160° | 20km/h | 18802m | -23.3m/s | -55.8°C | 1.2% | 0hPa | 2.5V | 08:23:00 | 00:00:00 | 00:00:00 | |
| OE5MMP-10 | 2026-09-04 00:53:55 | 49.46493 | 15.30642 | 154° | 26km/h | 18825m | -23.4m/s | -55.7°C | 4.2% | 0hPa | 2.5V | 00:00:00 | 02:07:08 | 00:00:00 | |
| OE5DXL-15 | 2026-09-04 00:53:53 | 49.46502 | 15.30633 | 138° | 20km/h | 18872m | -22.9m/s | -55.8°C | 4.3% | 0hPa | 2.5V | 00:00:00 | 00:00:00 | 00:00:00 | |
| DO3MHA-11 | 2026-09-04 00:53:51 | 49.46511 | 15.30620 | 142° | 26km/h | 18917m | -21.6m/s | -56.0°C | 4.4% | 0hPa | 2.5V | 00:00:00 | 02:07:04 | 00:00:00 | |
| PETON7-10 | 2026-09-04 00:53:47 | 49.46530 | 15.30591 | 142° | 20km/h | 18996m | -19.7m/s | -55.9°C | 4.5% | 0hPa | 2.5V | 00:00:00 | 02:07:00 | 00:00:00 | |
| OE5MMP-10 | 2026-09-04 00:53:46 | 49.46541 | 15.30577 | 136° | 20km/h | 19034m | -18.0m/s | -55.9°C | 4.5% | 0hPa | 2.5V | 00:00:00 | 02:06:58 | 00:00:00 | |
| SP3BTT-10 | 2026-09-04 00:53:43 | 49.46551 | 15.30563 | 141° | 13km/h | 19072m | -20.9m/s | -55.7°C | 4.4% | 0hPa | 2.6V | 00:00:00 | 00:00:00 | 00:00:00 | |
| HA6NAB-11 | 2026-09-04 00:53:42 | 49.46555 | 15.30558 | 141° | 20km/h | 19093m | -21.3m/s | -55.6°C | 1.3% | 0hPa | 2.6V | 08:23:00 | 00:00:00 | 00:00:00 | |
| DO3MHA-11 | 2026-09-04 00:53:41 | 49.46559 | 15.30553 | 132° | 16km/h | 19114m | -22.0m/s | -55.4°C | 4.3% | 0hPa | 2.6V | 00:00:00 | 02:06:54 | 00:00:00 | |
| OE3OSB-13 | 2026-09-04 00:53:39 | 49.46567 | 15.30535 | 119° | 18km/h | 19184m | -25.0m/s | -55.3°C | 1.1% | -1.0hPa | 2.6V | 00:00:00 | 00:00:00 | 00:00:00 | |
| SONDE2-11 | 2026-09-04 00:53:38 | 49.46567 | 15.30535 | 119° | 18km/h | 19184m | -25.0m/s | -55.3°C | 1.1% | -1.0hPa | 2.6V | 00:00:00 | 00:00:00 | 00:00:00 | |
| OE5DRO-10 | 2026-09-04 00:53:37 | 49.46569 | 15.30530 | 127° | 15km/h | 19209m | -24.5m/s | -55.1°C | 4.1% | 0hPa | 2.6V | 00:00:00 | 00:00:00 | 00:00:00 | |
| SP6BVK | 2026-09-04 00:53:35 | 49.46573 | 15.30521 | 119° | 13km/h | 19258m | -24.9m/s | -54.6°C | 1.1% | 0hPa | 2.6V | 08:23:00 | 00:00:00 | 00:00:00 | |
| PETON7-10 | 2026-09-04 00:53:32 | 49.46580 | 15.30505 | 135° | 16km/h | 19329m | -23.7m/s | -54.6°C | 3.9% | 0hPa | 2.6V | 00:00:00 | 00:00:00 | 00:00:00 | |
| DO3MHA-11 | 2026-09-04 00:53:31 | 49.46583 | 15.30501 | 128° | 15km/h | 19352m | -22.9m/s | -54.7°C | 4.0% | 0hPa | 2.6V | 00:00:00 | 02:06:44 | 00:00:00 | |
| ANDY1245 | 2026-09-04 00:53:30 | 49.46583 | 15.30501 | 129° | 13km/h | 19352m | -23.0m/s | -54.7°C | 1.2% | 0hPa | 2.6V | 00:00:00 | 00:00:00 | 00:00:00 | |
| HA6NAB-11 | 2026-09-04 00:53:29 | 49.46585 | 15.30497 | 125° | 15km/h | 19375m | -21.7m/s | -54.8°C | 1.2% | 0hPa | 2.6V | 08:23:00 | 00:00:00 | 00:00:00 | |
| OE5MMP-10 | 2026-09-04 00:53:25 | 49.46597 | 15.30477 | 120° | 22km/h | 19480m | -23.1m/s | -55.1°C | 4.2% | 0hPa | 2.6V | 00:00:00 | 02:06:38 | 00:00:00 | |
| HA6NAB-11 | 2026-09-04 00:53:24 | 49.46597 | 15.30477 | 121° | 11km/h | 19480m | -23.2m/s | -55.2°C | 1.2% | 0hPa | 2.6V | 00:00:00 | 00:00:00 | 00:00:00 | |
| DB0UT-7 | 2026-09-04 00:53:23 | 49.46600 | 15.30465 | 116° | 20km/h | 19525m | -22.3m/s | -55.1°C | 4.2% | 0hPa | 2.6V | 00:00:00 | 00:00:00 | 00:00:00 | |
| DO3MHA-11 | 2026-09-04 00:53:21 | 49.46603 | 15.30452 | 105° | 29km/h | 19570m | -22.2m/s | -55.0°C | 4.2% | 0hPa | 2.6V | 08:23:00 | 02:06:34 | 00:00:00 | |
| HA6NAB-11 | 2026-09-04 00:53:19 | 49.46604 | 15.30445 | 103° | 20km/h | 19593m | -24.0m/s | -55.2°C | 1.2% | 0hPa | 2.6V | 00:00:00 | 00:00:00 | 00:00:00 | |
| OE5DRO-10 | 2026-09-04 00:53:18 | 49.46606 | 15.30425 | 111° | 27km/h | 19643m | -23.0m/s | -55.3°C | 4.3% | 0hPa | 2.6V | 00:00:00 | 00:00:00 | 00:00:00 | |
| PETON7-10 | 2026-09-04 00:53:17 | 49.46610 | 15.30414 | 116° | 29km/h | 19665m | -23.1m/s | -55.4°C | 4.4% | 0hPa | 2.6V | 00:00:00 | 00:00:00 | 00:00:00 | |
| HA6NAB-11 | 2026-09-04 00:53:15 | 49.46622 | 15.30381 | 127° | 35km/h | 19736m | -23.3m/s | -55.3°C | 1.1% | 0hPa | 2.6V | 00:00:00 | 00:00:00 | 00:00:00 | |
| DO3MHA-11 | 2026-09-04 00:53:11 | 49.46640 | 15.30349 | 133° | 24km/h | 19805m | -23.6m/s | -54.8°C | 4.2% | 0hPa | 2.6V | 00:00:00 | 02:06:24 | 00:00:00 | |
| OE3OSB-13 | 2026-09-04 00:53:08 | 49.46659 | 15.30317 | 129° | 24km/h | 19903m | -25.2m/s | -54.3°C | 1.0% | -1.0hPa | 2.6V | 00:00:00 | 00:00:00 | 00:00:00 | |
| SONDE2-11 | 2026-09-04 00:53:07 | 49.46659 | 15.30317 | 129° | 24km/h | 19903m | -25.2m/s | -54.3°C | 1.0% | -1.0hPa | 2.6V | 00:00:00 | 00:00:00 | 00:00:00 | |
| OE5MMP-10 | 2026-09-04 00:53:05 | 49.46668 | 15.30304 | 142° | 15km/h | 19956m | -26.4m/s | -54.1°C | 3.9% | 0hPa | 2.6V | 00:00:00 | 02:06:18 | 00:00:00 | |
| PETON7-10 | 2026-09-04 00:53:02 | 49.46682 | 15.30291 | 162° | 9km/h | 20030m | -25.6m/s | -53.7°C | 3.6% | 0hPa | 2.6V | 00:00:00 | 02:06:15 | 00:00:00 | |
| DO3MHA-11 | 2026-09-04 00:53:01 | 49.46686 | 15.30289 | 163° | 7km/h | 20056m | -26.8m/s | -53.8°C | 3.7% | 0hPa | 2.6V | 00:00:00 | 02:06:14 | 00:00:00 | |
| NBG1-10 | 2026-09-04 00:52:59 | 49.46693 | 15.30285 | 159° | 13km/h | 20107m | -24.6m/s | -53.9°C | 3.8% | 0hPa | 2.6V | 00:00:00 | 02:06:12 | 00:00:00 | |
| OE5MMP-10 | 2026-09-04 00:52:55 | 49.46700 | 15.30282 | 191° | 9km/h | 20191m | -18.7m/s | -53.6°C | 3.6% | 0hPa | 2.6V | 00:00:00 | 02:06:08 | 00:00:00 | |
| SP6BVK | 2026-09-04 00:52:54 | 49.46700 | 15.30282 | 191° | 4km/h | 20191m | -18.7m/s | -53.6°C | 1.0% | 0hPa | 2.6V | 08:24:00 | 00:00:00 | 00:00:00 | |
| DB0UT-7 | 2026-09-04 00:52:53 | 49.46701 | 15.30281 | 93° | 11km/h | 20229m | -18.0m/s | -53.7°C | 3.7% | 0hPa | 2.6V | 00:00:00 | 02:06:06 | 00:00:00 | |
| DO3MHA-11 | 2026-09-04 00:52:51 | 49.46700 | 15.30278 | 58° | 15km/h | 20266m | -19.0m/s | -54.0°C | 3.8% | 0hPa | 2.6V | 00:00:00 | 02:06:04 | 00:00:00 | |
| PETON7-10 | 2026-09-04 00:52:47 | 49.46696 | 15.30262 | 85° | 16km/h | 20346m | -21.3m/s | -54.3°C | 3.8% | 0hPa | 2.5V | 08:23:00 | 00:00:00 | 00:00:00 | |
| OE5MMP-10 | 2026-09-04 00:52:45 | 49.46697 | 15.30250 | 101° | 18km/h | 20388m | -20.4m/s | -54.4°C | 3.9% | 0hPa | 2.6V | 08:23:00 | 02:05:58 | 00:00:00 | |
| DO3MHA-11 | 2026-09-04 00:52:41 | 49.46705 | 15.30225 | 130° | 16km/h | 20472m | -20.7m/s | -54.9°C | 4.1% | 0hPa | 2.5V | 00:00:00 | 02:05:54 | 00:00:00 | |
| OE5DRO-10 | 2026-09-04 00:52:40 | 49.46708 | 15.30220 | 139° | 16km/h | 20493m | -21.8m/s | -55.0°C | 4.1% | 0hPa | 2.5V | 00:00:00 | 00:00:00 | 00:00:00 | |
| OE3OSB-13 | 2026-09-04 00:52:37 | 49.46720 | 15.30201 | 124° | 16km/h | 20584m | -23.8m/s | -54.9°C | 1.0% | -1.0hPa | 2.5V | 00:00:00 | 00:00:00 | 00:00:00 | |
| SONDE2-11 | 2026-09-04 00:52:36 | 49.46720 | 15.30201 | 124° | 16km/h | 20584m | -23.8m/s | -54.9°C | 1.0% | -1.0hPa | 2.5V | 00:00:00 | 00:00:00 | 00:00:00 | |
| OE5MMP-10 | 2026-09-04 00:52:35 | 49.46722 | 15.30195 | 132° | 16km/h | 20608m | -24.2m/s | -54.8°C | 4.0% | 0hPa | 2.5V | 00:00:00 | 02:05:48 | 00:00:00 | |
| SP6BVK | 2026-09-04 00:52:34 | 49.46725 | 15.30190 | 130° | 13km/h | 20633m | -24.0m/s | -54.9°C | 1.1% | 0hPa | 2.5V | 00:00:00 | 00:00:00 | 00:00:00 | |
| EDDB2-11 | 2026-09-04 00:52:33 | 49.46728 | 15.30186 | 129° | 13km/h | 20657m | -25.2m/s | -54.9°C | 1.0% | -1.0hPa | 2.5V | 00:00:00 | 00:00:00 | 00:00:00 | |
| PETON7-10 | 2026-09-04 00:52:32 | 49.46730 | 15.30182 | 125° | 16km/h | 20683m | -26.5m/s | -54.8°C | 4.0% | 0hPa | 2.5V | 00:00:00 | 00:00:00 | 00:00:00 | |
| PG1ADW-2 | 2026-09-04 00:52:31 | 49.46732 | 15.30178 | 127° | 16km/h | 20710m | -27.0m/s | -54.8°C | 4.0% | 0hPa | 2.5V | 08:24:00 | 00:00:00 | 00:00:00 | |
| NBG1-10 | 2026-09-04 00:52:26 | 49.46744 | 15.30148 | 129° | 13km/h | 20830m | -20.5m/s | -55.4°C | 4.3% | 0hPa | 2.6V | 00:00:00 | 02:05:39 | 00:00:00 | |
| OE5MMP-10 | 2026-09-04 00:52:25 | 49.46747 | 15.30143 | 136° | 16km/h | 20852m | -21.0m/s | -55.4°C | 4.5% | 0hPa | 2.6V | 00:00:00 | 02:05:38 | 00:00:00 | |
| OE5DXL-15 | 2026-09-04 00:52:23 | 49.46753 | 15.30150 | 136° | 13km/h | 20892m | -20.7m/s | -54.7°C | 4.2% | 0hPa | 2.6V | 00:00:00 | 00:00:00 | 00:00:00 | |
| DO3MHA-11 | 2026-09-04 00:52:21 | 49.46759 | 15.30126 | 142° | 16km/h | 20934m | -20.5m/s | -54.5°C | 4.1% | 0hPa | 2.6V | 00:00:00 | 02:05:34 | 00:00:00 | |
| ANDY1245 | 2026-09-04 00:52:20 | 49.46759 | 15.30126 | 143° | 16km/h | 20934m | -20.5m/s | -54.6°C | 1.1% | 0hPa | 2.6V | 00:00:00 | 00:00:00 | 00:00:00 | |
| PETON7-10 | 2026-09-04 00:52:17 | 49.46773 | 15.30119 | 170° | 13km/h | 21022m | -20.2m/s | -54.2°C | 4.1% | 0hPa | 2.6V | 00:00:00 | 02:05:30 | 00:00:00 | |
| OE5MMP-10 | 2026-09-04 00:52:15 | 49.46780 | 15.30118 | 178° | 15km/h | 21062m | -20.5m/s | -54.3°C | 4.1% | 0hPa | 2.6V | 00:00:00 | 02:05:28 | 00:00:00 | |
| SP6BVK | 2026-09-04 00:52:14 | 49.46784 | 15.30117 | 181° | 18km/h | 21081m | -18.4m/s | -54.2°C | 1.1% | 0hPa | 2.5V | 00:00:00 | 00:00:00 | 00:00:00 | |
| DO3MHA-11 | 2026-09-04 00:52:11 | 49.46797 | 15.30118 | 175° | 9km/h | 21143m | -22.3m/s | -53.7°C | 3.9% | 0hPa | 2.5V | 00:00:00 | 02:05:24 | 00:00:00 | |
| S52SK | 2026-09-04 00:52:09 | 49.46801 | 15.30117 | 171° | 13km/h | 21165m | -22.9m/s | -53.8°C | 1.0% | 0hPa | 2.5V | 00:00:00 | 00:00:00 | 00:00:00 | |
| OE3OSB-13 | 2026-09-04 00:52:06 | 49.46814 | 15.30114 | 193° | 5km/h | 21272m | -21.0m/s | -53.0°C | 0.9% | -1.0hPa | 2.5V | 00:00:00 | 00:00:00 | 00:00:00 | |
| OE5MMP-10 | 2026-09-04 00:52:05 | 49.46814 | 15.30114 | 194° | 7km/h | 21273m | -21.0m/s | -53.0°C | 3.6% | 0hPa | 2.5V | 00:00:00 | 02:05:18 | 00:00:00 | |
| PETON7-10 | 2026-09-04 00:52:02 | 49.46819 | 15.30116 | 197° | 11km/h | 21335m | -19.6m/s | -53.2°C | 3.7% | 0hPa | 2.5V | 00:00:00 | 00:00:00 | 00:00:00 | |
| DO3MHA-11 | 2026-09-04 00:52:01 | 49.46820 | 15.30118 | 235° | 11km/h | 21354m | -20.4m/s | -53.1°C | 3.6% | 0hPa | 2.6V | 00:00:00 | 02:05:14 | 00:00:00 | |
| OE5MMP-10 | 2026-09-04 00:51:55 | 49.46816 | 15.30135 | 317° | 11km/h | 21480m | -21.6m/s | -52.9°C | 3.5% | 0hPa | 2.6V | 00:00:00 | 02:05:08 | 00:00:00 | |
| OE5DXL-15 | 2026-09-04 00:51:53 | 49.46811 | 15.30144 | 309° | 13km/h | 21521m | -20.4m/s | -53.1°C | 3.5% | 0hPa | 2.6V | 08:24:00 | 00:00:00 | 00:00:00 | |
| SP6BVK | 2026-09-04 00:51:52 | 49.46811 | 15.30144 | 310° | 16km/h | 21521m | -20.4m/s | -53.2°C | 0.9% | 0hPa | 2.5V | 00:00:00 | 00:00:00 | 00:00:00 | |
| PG1ADW-2 | 2026-09-04 00:51:51 | 49.46806 | 15.30152 | 317° | 9km/h | 21562m | -20.4m/s | -53.3°C | 3.6% | 0hPa | 2.5V | 00:00:00 | 00:00:00 | 00:00:00 | |
| PETON7-10 | 2026-09-04 00:51:47 | 49.46800 | 15.30158 | 357° | 9km/h | 21635m | -17.9m/s | -53.7°C | 3.7% | 0hPa | 2.5V | 00:00:00 | 00:00:00 | 00:00:00 | |
| OK1SLM-15 | 2026-09-04 00:51:46 | 49.46799 | 15.30158 | 13° | 7km/h | 21653m | -17.9m/s | -53.9°C | 1.0% | 0hPa | 2.5V | 08:24:00 | 00:00:00 | 00:00:00 | |
| OE5MMP-10 | 2026-09-04 00:51:45 | 49.46797 | 15.30156 | 33° | 7km/h | 21670m | -17.1m/s | -53.9°C | 3.8% | 0hPa | 2.5V | 00:00:00 | 02:04:58 | 00:00:00 | |
| SP3BTT-10 | 2026-09-04 00:51:43 | 49.46795 | 15.30154 | 15° | 18km/h | 21703m | -17.3m/s | -54.0°C | 3.8% | 0hPa | 2.5V | 00:00:00 | 00:00:00 | 00:00:00 | |
| OK1SLM-15 | 2026-09-04 00:51:41 | 49.46791 | 15.30154 | 354° | 7km/h | 21738m | -19.0m/s | -54.0°C | 0.9% | 0hPa | 2.5V | 00:00:00 | 00:00:00 | 00:00:00 | |
| ANDY1245 | 2026-09-04 00:51:40 | 49.46791 | 15.30154 | 354° | 7km/h | 21738m | -19.0m/s | -54.0°C | 1.1% | 0hPa | 2.5V | 00:00:00 | 00:00:00 | 00:00:00 | |
| OE5MMP-10 | 2026-09-04 00:51:35 | 49.46782 | 15.30169 | 307° | 16km/h | 21845m | -17.7m/s | -53.7°C | 3.7% | 0hPa | 2.5V | 00:00:00 | 02:04:48 | 00:00:00 | |
| SONDE2-11 | 2026-09-04 00:51:34 | 49.46779 | 15.30174 | 329° | 9km/h | 21880m | -17.6m/s | -54.0°C | 0.9% | -1.0hPa | 2.5V | 00:00:00 | 00:00:00 | 00:00:00 | |
| PETON7-10 | 2026-09-04 00:51:32 | 49.46777 | 15.30175 | 353° | 18km/h | 21898m | -18.9m/s | -54.0°C | 3.8% | 0hPa | 2.5V | 00:00:00 | 02:04:45 | 00:00:00 | |
| PG1ADW-2 | 2026-09-04 00:51:31 | 49.46774 | 15.30175 | 2° | 20km/h | 21917m | -18.6m/s | -54.0°C | 3.8% | 0hPa | 2.5V | 00:00:00 | 02:04:44 | 00:00:00 | |
| DB0UT-7 | 2026-09-04 00:51:27 | 49.46756 | 15.30166 | 18° | 18km/h | 21988m | -18.1m/s | -54.3°C | 3.8% | 0hPa | 2.6V | 00:00:00 | 00:00:00 | 00:00:00 | |
| HA6NAB-11 | 2026-09-04 00:51:26 | 49.46750 | 15.30164 | 10° | 26km/h | 22007m | -18.5m/s | -54.4°C | 1.0% | 0hPa | 2.5V | 00:00:00 | 00:00:00 | 00:00:00 | |
| OE5MMP-10 | 2026-09-04 00:51:25 | 49.46744 | 15.30162 | 12° | 18km/h | 22025m | -18.5m/s | -54.5°C | 3.9% | 0hPa | 2.5V | 00:00:00 | 02:04:38 | 00:00:00 | |
| OE5DRO-10 | 2026-09-04 00:51:24 | 49.46739 | 15.30161 | 12° | 20km/h | 22045m | -20.1m/s | -54.5°C | 3.9% | 0hPa | 2.5V | 00:00:00 | 00:00:00 | 00:00:00 | |
| OE5DXL-15 | 2026-09-04 00:51:23 | 49.46734 | 15.30160 | 358° | 18km/h | 22066m | -21.5m/s | -54.5°C | 3.9% | 0hPa | 2.5V | 00:00:00 | 00:00:00 | 00:00:00 | |
| DO3MHA-11 | 2026-09-04 00:51:21 | 49.46727 | 15.30158 | 40° | 20km/h | 22108m | -20.7m/s | -54.6°C | 3.9% | 0hPa | 2.5V | 00:00:00 | 02:04:34 | 00:00:00 | |
| HA6NAB-11 | 2026-09-04 00:51:20 | 49.46727 | 15.30158 | 40° | 11km/h | 22108m | -20.8m/s | -54.7°C | 1.0% | 0hPa | 2.6V | 00:00:00 | 00:00:00 | 00:00:00 | |
| PETON7-10 | 2026-09-04 00:51:17 | 49.46721 | 15.30137 | 81° | 22km/h | 22189m | -18.5m/s | -54.8°C | 4.0% | 0hPa | 2.6V | 00:00:00 | 00:00:00 | 00:00:00 | |
| HA6NAB-11 | 2026-09-04 00:51:15 | 49.46719 | 15.30117 | 75° | 29km/h | 22225m | -18.4m/s | -54.9°C | 1.1% | 0hPa | 2.5V | 00:00:00 | 00:00:00 | 00:00:00 | |
| DO3MHA-11 | 2026-09-04 00:51:11 | 49.46712 | 15.30082 | 86° | 20km/h | 22301m | -18.9m/s | -55.0°C | 4.2% | 0hPa | 2.5V | 00:00:00 | 02:04:24 | 00:00:00 | |
| HA6NAB-11 | 2026-09-04 00:51:10 | 49.46712 | 15.30074 | 96° | 20km/h | 22319m | -16.9m/s | -55.1°C | 1.1% | 0hPa | 2.5V | 00:00:00 | 00:00:00 | 00:00:00 | |
| SP6BVK | 2026-09-04 00:51:09 | 49.46712 | 15.30074 | 96° | 20km/h | 22319m | -16.9m/s | -55.1°C | 1.1% | 0hPa | 2.5V | 00:00:00 | 00:00:00 | 00:00:00 | |
| OE5DRO-10 | 2026-09-04 00:51:05 | 49.46720 | 15.30040 | 132° | 11km/h | 22410m | -17.6m/s | -54.8°C | 4.1% | 0hPa | 2.5V | 00:00:00 | 00:00:00 | 00:00:00 | |
| HA6NAB-11 | 2026-09-04 00:51:04 | 49.46721 | 15.30040 | 132° | 18km/h | 22410m | -17.6m/s | -54.8°C | 1.1% | 0hPa | 2.5V | 00:00:00 | 00:00:00 | 00:00:00 | |
| SONDE2-11 | 2026-09-04 00:51:03 | 49.46730 | 15.30026 | 156° | 16km/h | 22466m | -19.4m/s | -54.7°C | 1.0% | -1.0hPa | 2.5V | 00:00:00 | 00:00:00 | 00:00:00 | |
| PETON7-10 | 2026-09-04 00:51:02 | 49.46730 | 15.30026 | 157° | 11km/h | 22466m | -19.3m/s | -54.7°C | 4.1% | 0hPa | 2.5V | 00:00:00 | 00:00:00 | 00:00:00 | |
| EDDB2-11 | 2026-09-04 00:51:00 | 49.46739 | 15.30021 | 159° | 16km/h | 22503m | -18.8m/s | -54.7°C | 0.9% | -1.0hPa | 2.5V | 00:00:00 | 00:00:00 | 00:00:00 | |
| DL6DJ-15 | 2026-09-04 00:50:50 | 49.46758 | 15.30024 | 315° | 4km/h | 22696m | -20.3m/s | -54.6°C | 1.0% | -1.0hPa | 2.5V | 00:00:00 | 00:00:00 | 00:00:00 | |
| PETON7-10 | 2026-09-04 00:50:47 | 49.46758 | 15.30030 | 237° | 11km/h | 22761m | -20.3m/s | -54.4°C | 4.1% | 0hPa | 2.5V | 00:00:00 | 02:04:00 | 00:00:00 | |
| OE5DRO-10 | 2026-09-04 00:50:46 | 49.46759 | 15.30032 | 195° | 9km/h | 22782m | -22.7m/s | -54.3°C | 4.1% | 0hPa | 2.5V | 00:00:00 | 00:00:00 | 00:00:00 | |
| OE5MMP-10 | 2026-09-04 00:50:45 | 49.46760 | 15.30031 | 155° | 13km/h | 22805m | -22.3m/s | -54.4°C | 4.0% | 0hPa | 2.5V | 00:00:00 | 02:03:58 | 00:00:00 | |
| NBG1-10 | 2026-09-04 00:50:44 | 49.46762 | 15.30028 | 128° | 11km/h | 22827m | -21.5m/s | -54.3°C | 4.1% | 0hPa | 2.6V | 00:00:00 | 02:03:57 | 00:00:00 | |
| DO3MHA-11 | 2026-09-04 00:50:41 | 49.46765 | 15.30014 | 88° | 11km/h | 22888m | -22.1m/s | -53.9°C | 3.9% | 0hPa | 2.6V | 00:00:00 | 02:03:54 | 00:00:00 | |
| OE5MMP-10 | 2026-09-04 00:50:35 | 49.46766 | 15.29985 | 120° | 5km/h | 23012m | -19.1m/s | -53.8°C | 3.9% | 0hPa | 2.6V | 00:00:00 | 02:03:48 | 00:00:00 | |
| SONDE2-11 | 2026-09-04 00:50:32 | 49.46771 | 15.29981 | 194° | 2km/h | 23088m | -19.9m/s | -53.8°C | 0.9% | -1.0hPa | 2.6V | 00:00:00 | 00:00:00 | 00:00:00 | |
| DO3MHA-11 | 2026-09-04 00:50:31 | 49.46771 | 15.29981 | 195° | 9km/h | 23088m | -19.9m/s | -53.8°C | 4.0% | 0hPa | 2.6V | 00:00:00 | 02:03:44 | 00:00:00 | |
| EDDB2-11 | 2026-09-04 00:50:29 | 49.46773 | 15.29980 | 70° | 2km/h | 23127m | -19.5m/s | -53.7°C | 0.9% | -1.0hPa | 2.6V | 00:00:00 | 00:00:00 | 00:00:00 | |
| OE5DRO-10 | 2026-09-04 00:50:27 | 49.46773 | 15.29979 | 127° | 13km/h | 23166m | -20.3m/s | -53.5°C | 4.0% | 0hPa | 2.6V | 00:00:00 | 00:00:00 | 00:00:00 | |
| OE5MMP-10 | 2026-09-04 00:50:25 | 49.46775 | 15.29973 | 111° | 13km/h | 23207m | -19.4m/s | -53.2°C | 3.9% | 0hPa | 2.6V | 00:00:00 | 02:03:38 | 00:00:00 | |
| S52SK | 2026-09-04 00:50:24 | 49.46775 | 15.29973 | 112° | 11km/h | 23207m | -19.4m/s | -53.2°C | 1.0% | 0hPa | 2.6V | 00:00:00 | 00:00:00 | 00:00:00 | |
| OE5DXL-15 | 2026-09-04 00:50:23 | 49.46778 | 15.29964 | 123° | 15km/h | 23247m | -20.7m/s | -53.1°C | 3.8% | 0hPa | 2.6V | 00:00:00 | 00:00:00 | 00:00:00 | |
| DO3MHA-11 | 2026-09-04 00:50:21 | 49.46782 | 15.29953 | 122° | 11km/h | 23287m | -20.1m/s | -53.2°C | 3.9% | 0hPa | 2.5V | 08:26:00 | 02:03:34 | 00:00:00 | |
| S52SK | 2026-09-04 00:50:19 | 49.46787 | 15.29942 | 128° | 13km/h | 23329m | -23.8m/s | -53.3°C | 0.9% | 0hPa | 2.5V | 00:00:00 | 00:00:00 | 00:00:00 | |
| PETON7-10 | 2026-09-04 00:50:17 | 49.46791 | 15.29936 | 130° | 15km/h | 23378m | -26.9m/s | -53.0°C | 3.8% | 0hPa | 2.5V | 00:00:00 | 00:00:00 | 00:00:00 | |
| OE5MMP-10 | 2026-09-04 00:50:15 | 49.46794 | 15.29932 | 126° | 15km/h | 23426m | -23.1m/s | -53.0°C | 3.8% | 0hPa | 2.5V | 00:00:00 | 02:03:28 | 00:00:00 | |
| PG1ADW-2 | 2026-09-04 00:50:11 | 49.46800 | 15.29917 | 120° | 16km/h | 23521m | -24.6m/s | -52.6°C | 3.7% | 0hPa | 2.6V | 00:00:00 | 02:03:24 | 00:00:00 | |
| OE5DRO-10 | 2026-09-04 00:50:08 | 49.46806 | 15.29899 | 126° | 16km/h | 23596m | -23.6m/s | -52.5°C | 3.7% | 0hPa | 2.6V | 08:26:00 | 00:00:00 | 00:00:00 | |
| OE5MMP-10 | 2026-09-04 00:50:05 | 49.46814 | 15.29882 | 141° | 15km/h | 23660m | -20.9m/s | -52.5°C | 3.8% | 0hPa | 2.6V | 00:00:00 | 02:03:18 | 00:00:00 | |
| DB0UT-7 | 2026-09-04 00:50:03 | 49.46822 | 15.29871 | 144° | 15km/h | 23699m | -19.2m/s | -52.4°C | 3.8% | 0hPa | 2.6V | 00:00:00 | 02:03:16 | 00:00:00 | |
| PETON7-10 | 2026-09-04 00:50:02 | 49.46825 | 15.29868 | 156° | 16km/h | 23720m | -20.3m/s | -52.4°C | 3.8% | 0hPa | 2.6V | 00:00:00 | 02:03:15 | 00:00:00 | |
| SONDE2-11 | 2026-09-04 00:50:01 | 49.46831 | 15.29861 | 139° | 9km/h | 23764m | -23.2m/s | -52.5°C | 0.8% | -1.0hPa | 2.6V | 00:00:00 | 00:00:00 | 00:00:00 | |
| EDDB2-11 | 2026-09-04 00:49:58 | 49.46835 | 15.29855 | 112° | 11km/h | 23806m | -20.9m/s | -52.3°C | 0.8% | -1.0hPa | 2.6V | 00:00:00 | 00:00:00 | 00:00:00 | |
| DL6DJ-15 | 2026-09-04 00:49:48 | 49.46862 | 15.29812 | 164° | 26km/h | 24043m | -23.8m/s | -51.3°C | 0.7% | -1.0hPa | 2.6V | 00:00:00 | 00:00:00 | 00:00:00 | |
| DO3MHA-11 | 2026-09-04 00:49:47 | 49.46869 | 15.29810 | 174° | 15km/h | 24067m | -22.5m/s | -51.2°C | 3.4% | 0hPa | 2.6V | 00:00:00 | 02:03:00 | 00:00:00 | |
| OE5MMP-10 | 2026-09-04 00:49:45 | 49.46884 | 15.29808 | 175° | 13km/h | 24111m | -20.8m/s | -51.0°C | 3.4% | 0hPa | 2.5V | 08:26:00 | 02:02:58 | 00:00:00 | |
| SP3BTT-10 | 2026-09-04 00:49:42 | 49.46901 | 15.29806 | 185° | 13km/h | 24169m | -20.5m/s | -50.9°C | 3.4% | 0hPa | 2.6V | 00:00:00 | 00:00:00 | 08:30:00 | |
| SP6BVK | 2026-09-04 00:49:38 | 49.46908 | 15.29811 | 249° | 9km/h | 24250m | -23.1m/s | -50.9°C | 0.8% | 0hPa | 2.5V | 08:27:00 | 00:00:00 | 00:00:00 | |
| DO3MHA-11 | 2026-09-04 00:49:37 | 49.46910 | 15.29814 | 246° | 7km/h | 24272m | -20.9m/s | -50.7°C | 3.4% | 0hPa | 2.5V | 00:00:00 | 02:02:50 | 00:00:00 | |
| OE5MMP-10 | 2026-09-04 00:49:35 | 49.46911 | 15.29820 | 250° | 11km/h | 24314m | -20.9m/s | -50.7°C | 3.4% | 0hPa | 2.5V | 00:00:00 | 02:02:48 | 00:00:00 | |
| ANDY1245 | 2026-09-04 00:49:33 | 49.46912 | 15.29823 | 228° | 9km/h | 24335m | -20.7m/s | -50.8°C | 0.8% | 0hPa | 2.5V | 00:00:00 | 00:00:00 | 00:00:00 | |
| DB0UT-7 | 2026-09-04 00:49:32 | 49.46916 | 15.29829 | 216° | 11km/h | 24378m | -21.8m/s | -50.7°C | 3.4% | 0hPa | 2.5V | 00:00:00 | 00:00:00 | 00:00:00 | |
| PG1ADW-2 | 2026-09-04 00:49:31 | 49.46919 | 15.29832 | 219° | 7km/h | 24399m | -22.3m/s | -50.7°C | 3.4% | 0hPa | 2.5V | 08:27:00 | 00:00:00 | 00:00:00 | |
| OE5DRO-10 | 2026-09-04 00:49:30 | 49.46921 | 15.29835 | 232° | 7km/h | 24421m | -22.9m/s | -50.8°C | 3.4% | 0hPa | 2.5V | 00:00:00 | 00:00:00 | 00:00:00 | |
| EDDB2-11 | 2026-09-04 00:49:27 | 49.46926 | 15.29843 | 231° | 4km/h | 24497m | -26.9m/s | -51.0°C | 0.7% | -1.0hPa | 2.5V | 00:00:00 | 00:00:00 | 00:00:00 | |
| DO3MHA-11 | 2026-09-04 00:49:26 | 49.46927 | 15.29845 | 240° | 7km/h | 24523m | -26.2m/s | -50.9°C | 3.5% | 0hPa | 2.5V | 00:00:00 | 02:02:39 | 00:00:00 | |
| OE5MMP-10 | 2026-09-04 00:49:25 | 49.46927 | 15.29848 | 270° | 4km/h | 24550m | -26.8m/s | -50.8°C | 3.5% | 0hPa | 2.5V | 00:00:00 | 02:02:38 | 00:00:00 | |
| OE5DXL-15 | 2026-09-04 00:49:23 | 49.46927 | 15.29850 | 309° | 7km/h | 24604m | -26.7m/s | -50.6°C | 3.4% | 0hPa | 2.5V | 00:00:00 | 00:00:00 | 00:00:00 | |
| SP6BVK | 2026-09-04 00:49:17 | 49.46929 | 15.29847 | 141° | 9km/h | 24777m | -34.7m/s | -50.3°C | 0.8% | 0hPa | 2.5V | 08:27:00 | 00:00:00 | 00:00:00 | |
| OE5MMP-10 | 2026-09-04 00:49:15 | 49.46932 | 15.29843 | 137° | 11km/h | 24845m | -33.2m/s | -50.3°C | 3.3% | 0hPa | 2.5V | 00:00:00 | 02:02:28 | 00:00:00 | |
| DO3MHA-11 | 2026-09-04 00:49:12 | 49.46938 | 15.29836 | 163° | 11km/h | 24941m | -32.0m/s | -50.1°C | 3.3% | 0hPa | 2.6V | 00:00:00 | 02:02:25 | 00:00:00 | |
| OE5DRO-10 | 2026-09-04 00:49:11 | 49.46941 | 15.29836 | 173° | 9km/h | 24972m | -31.5m/s | -50.0°C | 3.3% | 0hPa | 2.5V | 00:00:00 | 00:00:00 | 00:00:00 | |
| OE5MMP-10 | 2026-09-04 00:49:05 | 49.46957 | 15.29850 | 232° | 7km/h | 25160m | -32.3m/s | -49.5°C | 3.1% | 0hPa | 2.6V | 00:00:00 | 02:02:18 | 00:00:00 | |
| OE3JTB-15 | 2026-09-04 00:49:03 | 49.46960 | 15.29858 | 261° | 9km/h | 25223m | -31.8m/s | -49.5°C | 3.2% | 0hPa | 2.6V | 00:00:00 | 00:00:00 | 00:00:00 | |
| PETON7-10 | 2026-09-04 00:49:02 | 49.46960 | 15.29862 | 269° | 7km/h | 25255m | -32.7m/s | -49.6°C | 3.2% | 0hPa | 2.6V | 00:00:00 | 00:00:00 | 00:00:00 | |
| SONDE2-11 | 2026-09-04 00:48:59 | 49.46960 | 15.29868 | 43° | 7km/h | 25388m | -35.3m/s | -49.8°C | 0.7% | -1.0hPa | 2.6V | 00:00:00 | 00:00:00 | 00:00:00 | |
| EDDB2-11 | 2026-09-04 00:48:56 | 49.46958 | 15.29863 | 77° | 5km/h | 25458m | -36.4m/s | -49.8°C | 0.6% | -1.0hPa | 2.6V | 00:00:00 | 00:00:00 | 00:00:00 | |
| OE5MMP-10 | 2026-09-04 00:48:55 | 49.46958 | 15.29860 | 95° | 7km/h | 25495m | -36.9m/s | -49.7°C | 3.2% | 0hPa | 2.6V | 00:00:00 | 02:02:08 | 00:00:00 | |
| OE5DXL-15 | 2026-09-04 00:48:53 | 49.46960 | 15.29853 | 112° | 9km/h | 25568m | -37.7m/s | -49.6°C | 3.2% | 0hPa | 2.6V | 00:00:00 | 00:00:00 | 00:00:00 | |
| DO3MHA-11 | 2026-09-04 00:48:52 | 49.46960 | 15.29849 | 123° | 7km/h | 25607m | -38.0m/s | -49.5°C | 3.2% | 0hPa | 2.6V | 00:00:00 | 02:02:05 | 00:00:00 | |
| PG1ADW-2 | 2026-09-04 00:48:51 | 49.46962 | 15.29846 | 145° | 11km/h | 25646m | -38.5m/s | -49.6°C | 3.2% | 0hPa | 2.6V | 00:00:00 | 02:02:04 | 00:00:00 | |
| PETON7-10 | 2026-09-04 00:48:47 | 49.46968 | 15.29846 | 216° | 11km/h | 25796m | -38.2m/s | -49.6°C | 3.3% | 0hPa | 2.6V | 00:00:00 | 00:00:00 | 00:00:00 | |
| OE5MMP-10 | 2026-09-04 00:48:45 | 49.46968 | 15.29849 | 268° | 9km/h | 25872m | -36.5m/s | -49.5°C | 3.3% | 0hPa | 2.6V | 00:00:00 | 02:01:58 | 00:00:00 | |
| DO3MHA-11 | 2026-09-04 00:48:42 | 49.46966 | 15.29851 | 18° | 13km/h | 25981m | -38.0m/s | -49.3°C | 3.3% | 0hPa | 2.5V | 08:27:00 | 02:01:55 | 00:00:00 | |
| SP6BVK | 2026-09-04 00:48:36 | 49.46963 | 15.29829 | 117° | 20km/h | 26197m | -34.2m/s | -48.9°C | 0.7% | 0hPa | 2.6V | 08:28:00 | 00:00:00 | 00:00:00 | |
| OE5MMP-10 | 2026-09-04 00:48:35 | 49.46966 | 15.29822 | 120° | 11km/h | 26231m | -34.1m/s | -48.9°C | 3.2% | 0hPa | 2.6V | 00:00:00 | 02:01:48 | 00:00:00 | |
| OE3JTB-15 | 2026-09-04 00:48:34 | 49.46968 | 15.29815 | 117° | 9km/h | 26266m | -35.0m/s | -48.9°C | 3.3% | 0hPa | 2.6V | 00:00:00 | 02:01:47 | 00:00:00 | |
| OE5DRO-10 | 2026-09-04 00:48:33 | 49.46970 | 15.29809 | 124° | 9km/h | 26300m | -35.0m/s | -48.8°C | 3.2% | 0hPa | 2.6V | 00:00:00 | 00:00:00 | 00:00:00 | |
| DO3MHA-11 | 2026-09-04 00:48:32 | 49.46973 | 15.29804 | 128° | 7km/h | 26336m | -36.0m/s | -48.6°C | 3.2% | 0hPa | 2.6V | 00:00:00 | 02:01:45 | 00:00:00 | |
| PG1ADW-2 | 2026-09-04 00:48:31 | 49.46975 | 15.29800 | 137° | 7km/h | 26371m | -36.5m/s | -48.4°C | 3.2% | 0hPa | 2.6V | 00:00:00 | 00:00:00 | 00:00:00 | |
| S52SK | 2026-09-04 00:48:29 | 49.46978 | 15.29797 | 166° | 7km/h | 26445m | -37.0m/s | -48.3°C | 0.7% | 0hPa | 2.5V | 00:00:00 | 00:00:00 | 00:00:00 | |
| OE3OSB-13 | 2026-09-04 00:48:28 | 49.46980 | 15.29797 | 198° | 4km/h | 26481m | -36.5m/s | -48.2°C | 0.6% | -1.0hPa | 2.5V | 00:00:00 | 00:00:00 | 00:00:00 | |
| SONDE2-11 | 2026-09-04 00:48:27 | 49.46981 | 15.29799 | 236° | 5km/h | 26518m | -37.0m/s | -48.3°C | 0.6% | -1.0hPa | 2.5V | 00:00:00 | 00:00:00 | 00:00:00 | |
| OE5MMP-10 | 2026-09-04 00:48:25 | 49.46981 | 15.29804 | 284° | 7km/h | 26592m | -38.0m/s | -47.9°C | 3.1% | 0hPa | 2.5V | 00:00:00 | 02:01:38 | 00:00:00 | |
| DO3MHA-11 | 2026-09-04 00:48:22 | 49.46978 | 15.29808 | 347° | 9km/h | 26709m | -40.8m/s | -47.6°C | 3.0% | 0hPa | 2.5V | 00:00:00 | 02:01:35 | 00:00:00 | |
| OE5DXL-15 | 2026-09-04 00:48:18 | 49.46974 | 15.29800 | 113° | 13km/h | 26873m | -40.2m/s | -47.7°C | 3.1% | 0hPa | 2.5V | 00:00:00 | 00:00:00 | 00:00:00 | |
| PETON7-10 | 2026-09-04 00:48:17 | 49.46975 | 15.29797 | 128° | 9km/h | 26913m | -40.0m/s | -47.7°C | 3.0% | 0hPa | 2.5V | 08:28:00 | 00:00:00 | 00:00:00 | |
| DB0UT-7 | 2026-09-04 00:48:15 | 49.46980 | 15.29790 | 127° | 13km/h | 26992m | -40.3m/s | -47.7°C | 3.1% | 0hPa | 2.6V | 00:00:00 | 02:01:28 | 00:00:00 | |
| OE5DRO-10 | 2026-09-04 00:48:14 | 49.46982 | 15.29786 | 137° | 13km/h | 27033m | -40.9m/s | -47.6°C | 3.1% | 0hPa | 2.5V | 00:00:00 | 00:00:00 | 00:00:00 | |
| DO3MHA-11 | 2026-09-04 00:48:12 | 49.46986 | 15.29784 | 164° | 9km/h | 27116m | -44.8m/s | -47.0°C | 3.0% | 0hPa | 2.5V | 00:00:00 | 02:01:25 | 00:00:00 | |
| PG1ADW-2 | 2026-09-04 00:48:11 | 49.46988 | 15.29784 | 212° | 15km/h | 27161m | -46.3m/s | -46.8°C | 2.9% | 0hPa | 2.6V | 00:00:00 | 00:00:00 | 00:00:00 | |
| OE5MMP-10 | 2026-09-04 00:48:05 | 49.46996 | 15.29798 | 226° | 16km/h | 27453m | -50.3m/s | -46.2°C | 2.9% | 0hPa | 2.6V | 00:00:00 | 02:01:18 | 00:00:00 | |
| AA1-15 | 2026-09-04 00:47:45 | 49.47052 | 15.29833 | 89° | 16km/h | 28532m | -59.9m/s | -44.1°C | 0% | 0hPa | 2.6V | 18:12:15 | 02:00:58 | 00:00:00 | |
| DB0UT-7 | 2026-09-04 00:47:45 | 49.47052 | 15.29833 | 90° | 16km/h | 28532m | -59.9m/s | -44.1°C | 2.5% | 0hPa | 2.5V | 00:00:00 | 00:00:00 | 00:00:00 | |
| DL6DJ-15 | 2026-09-04 00:47:44 | 49.47052 | 15.29820 | 78° | 16km/h | 28651m | -60.0m/s | -43.6°C | 0.4% | -1.0hPa | 2.5V | 00:00:00 | 00:00:00 | 00:00:00 | |
| DO3MHA-11 | 2026-09-04 00:47:42 | 49.47051 | 15.29814 | 72° | 18km/h | 28711m | -60.2m/s | -43.3°C | 2.4% | 0hPa | 2.5V | 00:00:00 | 02:00:55 | 00:00:00 | |
| AA1-15 | 2026-09-04 00:47:24 | 49.47058 | 15.29693 | 101° | 22km/h | 29673m | -51.7m/s | -43.4°C | 0% | 0hPa | 2.5V | 18:12:15 | 02:00:37 | 00:00:00 | |
| AA1-15 | 2026-09-04 00:47:13 | 49.47061 | 15.29600 | 56° | 20km/h | 30176m | -46.1m/s | -44°C | 0% | 0hPa | 2.5V | 18:12:15 | 02:00:26 | 00:00:00 | |
| AA1-15 | 2026-09-04 00:47:02 | 49.47049 | 15.29525 | 104° | 24km/h | 30701m | -51.1m/s | -41.8°C | 0% | 0hPa | 2.5V | 18:12:15 | 02:00:15 | 00:00:00 | |
| AA1-15 | 2026-09-04 00:46:51 | 49.47084 | 15.29477 | 172° | 7km/h | 31204m | -35.4m/s | -42.1°C | 0% | 0hPa | 2.6V | 18:12:15 | 02:00:04 | 00:00:00 | |
| PG1ADW-2 | 2026-09-04 00:46:51 | 49.47084 | 15.29477 | 172° | 15km/h | 31204m | -35.4m/s | -42.1°C | 2.4% | 0hPa | 2.5V | 00:00:00 | 00:00:00 | 00:00:00 | |
| OK1SLM-15 | 2026-09-04 00:46:49 | 49.47087 | 15.29477 | 139° | 7km/h | 31268m | -31.1m/s | -42.0°C | 0.4% | 0hPa | 2.5V | 00:00:00 | 00:00:00 | 00:00:00 | |
| OE5DXL-15 | 2026-09-04 00:46:48 | 49.47089 | 15.29475 | 132° | 15km/h | 31300m | -33.1m/s | -42.0°C | 2.5% | 0hPa | 2.5V | 00:00:00 | 00:00:00 | 00:00:00 | |
| PETON7-10 | 2026-09-04 00:46:47 | 49.47090 | 15.29471 | 109° | 18km/h | 31333m | -32.7m/s | -41.9°C | 2.4% | 0hPa | 2.5V | 00:00:00 | 00:00:00 | 00:00:00 | |
| OE5MMP-10 | 2026-09-04 00:46:45 | 49.47092 | 15.29456 | 112° | 22km/h | 31402m | -35.8m/s | -41.4°C | 2.4% | 0hPa | 2.6V | 00:00:00 | 01:59:58 | 08:30:00 | |
| DM0DOS-11 | 2026-09-04 00:46:42 | 49.47104 | 15.29408 | 117° | 26km/h | 31592m | -40.6m/s | 0°C | 0% | 0hPa | 2.6V | 00:00:00 | 01:59:53 | 00:00:00 | |
| AA1-15 | 2026-09-04 00:46:40 | 49.47103 | 15.29408 | 117° | 26km/h | 31592m | -40.6m/s | -39.9°C | 0% | 0hPa | 2.6V | 18:12:15 | 01:59:53 | 00:00:00 | |
| OE5DRO-10 | 2026-09-04 00:46:39 | 49.47106 | 15.29400 | 121° | 15km/h | 31632m | -38.7m/s | -39.6°C | 2.0% | 0hPa | 2.6V | 00:00:00 | 00:00:00 | 00:00:00 | |
| OE5MMP-10 | 2026-09-04 00:46:35 | 49.47116 | 15.29386 | 153° | 9km/h | 31790m | -34.6m/s | -39.3°C | 2.0% | 0hPa | 2.6V | 00:00:00 | 01:59:48 | 00:00:00 | |
| DB0UT-7 | 2026-09-04 00:46:32 | 49.47118 | 15.29383 | 11° | 18km/h | 31897m | -36.4m/s | -39.4°C | 2.0% | 0hPa | 2.6V | 00:00:00 | 01:59:45 | 00:00:00 | |
| DM0DOS-11 | 2026-09-04 00:46:31 | 49.47115 | 15.29384 | 358° | 9km/h | 31967m | -34.5m/s | 0°C | 0% | 0hPa | 2.6V | 00:00:00 | 01:59:43 | 00:00:00 | |
| AA1-15 | 2026-09-04 00:46:30 | 49.47115 | 15.29384 | 358° | 9km/h | 31967m | -34.5m/s | -39.4°C | 0% | 0hPa | 2.6V | 18:12:15 | 01:59:43 | 00:00:00 | |
| DL1XH-west | 2026-09-04 00:46:19 | 49.47092 | 15.29315 | 24° | 13km/h | 32329m | -25.6m/s | 0°C | 0% | 0hPa | 2.5V | 18:12:15 | 01:59:32 | 00:00:00 | |
| AA1-15 | 2026-09-04 00:46:08 | 49.47110 | 15.29307 | 141° | 26km/h | 32515m | 5.2m/s | -38.9°C | 0% | 0hPa | 2.5V | 18:12:15 | 01:59:20 | 00:00:00 | |
| DL1XH-west | 2026-09-04 00:46:05 | 49.47119 | 15.29297 | 149° | 16km/h | 32503m | 7.7m/s | 0°C | 0% | 0hPa | 2.6V | 18:12:15 | 01:59:18 | 00:00:00 | |
| AA1-15 | 2026-09-04 00:45:57 | 49.47133 | 15.29261 | 118° | 15km/h | 32444m | 7.5m/s | -38.9°C | 0% | 0hPa | 2.6V | 18:12:15 | 01:59:09 | 00:00:00 | |
| DL1XH-west | 2026-09-04 00:45:53 | 49.47136 | 15.29254 | 109° | 4km/h | 32425m | 5.2m/s | 0°C | 0% | 0hPa | 2.5V | 18:12:15 | 01:59:06 | 00:00:00 | |
| AA1-15 | 2026-09-04 00:45:47 | 49.47131 | 15.29219 | 86° | 16km/h | 32385m | 7.7m/s | -39.5°C | 0% | 0hPa | 2.5V | 18:12:15 | 01:59:00 | 00:00:00 | |
| DL1XH-west | 2026-09-04 00:45:42 | 49.47129 | 15.29193 | 58° | 20km/h | 32352m | 7.8m/s | 0°C | 0% | 0hPa | 2.5V | 18:12:15 | 01:58:55 | 00:00:00 | |
| AA1-15 | 2026-09-04 00:45:37 | 49.47104 | 15.29169 | 13° | 18km/h | 32318m | 6m/s | -39.7°C | 0% | 0hPa | 2.5V | 18:12:15 | 01:58:50 | 00:00:00 | |
| DL1XH-west | 2026-09-04 00:45:31 | 49.47091 | 15.29136 | 89° | 20km/h | 32280m | 6.3m/s | 0°C | 0% | 0hPa | 2.6V | 18:12:15 | 01:58:44 | 00:00:00 | |
| AA1-15 | 2026-09-04 00:45:26 | 49.47084 | 15.29112 | 33° | 20km/h | 32247m | 7.7m/s | -39.9°C | 0% | 0hPa | 2.6V | 18:12:15 | 01:58:39 | 00:00:00 | |
| AA1-15 | 2026-09-04 00:45:17 | 49.47028 | 15.29059 | 61° | 26km/h | 32181m | 8m/s | -39.7°C | 0% | 0hPa | 2.6V | 18:12:15 | 01:58:29 | 00:00:00 | |
| SQ6EMJ | 2026-09-04 00:45:15 | 49.47025 | 15.29050 | 71° | 27km/h | 32175m | 6.5m/s | -39.7°C | 0.4% | 0hPa | 2.5V | 00:00:00 | 00:00:00 | 00:00:00 | |
| NBG1-10 | 2026-09-04 00:45:14 | 49.47023 | 15.29040 | 77° | 15km/h | 32168m | 5.8m/s | -39.7°C | 2.0% | 0hPa | 2.5V | 00:00:00 | 01:58:27 | 00:00:00 | |
| HA6NAB-11 | 2026-09-04 00:45:13 | 49.47023 | 15.29040 | 78° | 27km/h | 32168m | 5.8m/s | -39.7°C | 0.3% | 0hPa | 2.5V | 00:00:00 | 00:00:00 | 00:00:00 | |
| DO3MHA-11 | 2026-09-04 00:45:12 | 49.47022 | 15.29023 | 91° | 16km/h | 32155m | 7.6m/s | -39.7°C | 2.0% | 0hPa | 2.5V | 00:00:00 | 01:58:25 | 00:00:00 | |
| DM0DOS-11 | 2026-09-04 00:45:10 | 49.47001 | 15.28997 | 20° | 20km/h | 32110m | 5.9m/s | 0°C | 0% | 0hPa | 2.6V | 00:00:00 | 01:58:18 | 00:00:00 | |
| AA1-15 | 2026-09-04 00:45:06 | 49.47006 | 15.29000 | 23° | 24km/h | 32115m | 4.8m/s | -39.8°C | 0% | 0hPa | 2.6V | 18:12:15 | 01:58:19 | 00:00:00 | |
| OE5MMP-10 | 2026-09-04 00:45:05 | 49.47001 | 15.28997 | 21° | 15km/h | 32110m | 5.9m/s | -39.8°C | 2.0% | 0hPa | 2.6V | 00:00:00 | 01:58:18 | 00:00:00 | |
| OE5DRO-10 | 2026-09-04 00:45:04 | 49.46997 | 15.28995 | 19° | 11km/h | 32103m | 7.9m/s | -39.8°C | 2.0% | 0hPa | 2.6V | 00:00:00 | 00:00:00 | 00:00:00 | |
| PETON7-10 | 2026-09-04 00:45:02 | 49.46993 | 15.28991 | 67° | 15km/h | 32090m | 5.3m/s | -39.8°C | 2.0% | 0hPa | 2.6V | 00:00:00 | 00:00:00 | 00:00:00 | |
| HA6NAB-11 | 2026-09-04 00:45:01 | 49.46993 | 15.28991 | 67° | 7km/h | 32090m | 5.3m/s | -39.9°C | 0.4% | 0hPa | 2.6V | 00:00:00 | 00:00:00 | 00:00:00 | |
| DM0DOS-11 | 2026-09-04 00:44:56 | 49.46998 | 15.28926 | 102° | 13km/h | 32017m | 6.4m/s | 0°C | 0% | 0hPa | 2.6V | 00:00:00 | 01:58:04 | 00:00:00 | |
| AA1-15 | 2026-09-04 00:44:55 | 49.46992 | 15.28945 | 115° | 15km/h | 32043m | 7.5m/s | -40°C | 0% | 0hPa | 2.6V | 18:12:15 | 01:58:08 | 00:00:00 | |
| AA1-15 | 2026-09-04 00:44:44 | 49.47000 | 15.28910 | 113° | 16km/h | 31972m | 8.1m/s | -40.1°C | 0% | 0hPa | 2.5V | 18:12:15 | 01:57:57 | 00:00:00 | |
| OE3JTB-15 | 2026-09-04 00:44:43 | 49.47002 | 15.28902 | 114° | 18km/h | 31964m | 8.3m/s | -40.0°C | 2.0% | 0hPa | 2.5V | 00:00:00 | 00:00:00 | 08:30:00 | |
| DM0DOS-11 | 2026-09-04 00:44:42 | 49.47009 | 15.28881 | 119° | 33km/h | 31949m | 6.3m/s | 0°C | 0% | 0hPa | 2.6V | 00:00:00 | 01:57:54 | 00:00:00 | |
| AA1-15 | 2026-09-04 00:44:34 | 49.47037 | 15.28840 | 111° | 13km/h | 31902m | 6.3m/s | -40.1°C | 0% | 0hPa | 2.5V | 18:12:15 | 01:57:47 | 00:00:00 | |
| DO3MHA-11 | 2026-09-04 00:44:32 | 49.47038 | 15.28832 | 99° | 16km/h | 31890m | 6.6m/s | -40.0°C | 2.0% | 0hPa | 2.6V | 00:00:00 | 01:57:45 | 00:00:00 | |
| DM0DOS-11 | 2026-09-04 00:44:31 | 49.47054 | 15.28819 | 136° | 24km/h | 31849m | 7.9m/s | 0°C | 0% | 0hPa | 2.6V | 00:00:00 | 01:57:39 | 00:00:00 | |
| AA1-15 | 2026-09-04 00:44:22 | 49.47065 | 15.28783 | 111° | 20km/h | 31823m | 7.7m/s | -40.1°C | 0% | 0hPa | 2.5V | 18:12:15 | 01:57:35 | 00:00:00 | |
| DL1XH-west | 2026-09-04 00:44:14 | 49.47078 | 15.28739 | 135° | 29km/h | 31771m | 7m/s | 0°C | 0% | 0hPa | 2.5V | 18:12:15 | 01:57:27 | 00:00:00 | |
| AA1-15 | 2026-09-04 00:44:11 | 49.47094 | 15.28719 | 142° | 24km/h | 31751m | 5.1m/s | -40.4°C | 0% | 0hPa | 2.6V | 18:12:15 | 01:57:24 | 00:00:00 | |
| DL1XH-west | 2026-09-04 00:44:00 | 49.47144 | 15.28641 | 124° | 35km/h | 31675m | 5.9m/s | 0°C | 0% | 0hPa | 2.6V | 18:12:15 | 01:57:13 | 00:00:00 | |
| AA1-15 | 2026-09-04 00:43:47 | 49.47175 | 15.28548 | 145° | 24km/h | 31588m | 5.7m/s | -41.6°C | 0% | 0hPa | 2.5V | 18:12:15 | 01:57:00 | 00:00:00 | |
| EDDB2-11 | 2026-09-04 00:43:46 | 49.47182 | 15.28537 | 124° | 16km/h | 31577m | 6.9m/s | -41.7°C | 0.4% | -1.0hPa | 2.5V | 00:00:00 | 00:00:00 | 00:00:00 | |
| AA1-15 | 2026-09-04 00:43:37 | 49.47168 | 15.28499 | 84° | 5km/h | 31524m | 5.2m/s | -42.1°C | 0% | 0hPa | 2.5V | 18:12:15 | 01:56:50 | 00:00:00 | |
| AA1-15 | 2026-09-04 00:43:26 | 49.47190 | 15.28447 | 100° | 22km/h | 31448m | 6.5m/s | -42.4°C | 0% | 0hPa | 2.6V | 18:12:15 | 01:56:39 | 00:00:00 | |
| AA1-15 | 2026-09-04 00:43:13 | 49.47225 | 15.28373 | 152° | 26km/h | 31363m | 4.7m/s | -42.7°C | 0% | 0hPa | 2.6V | 18:12:15 | 01:56:26 | 00:00:00 | |
| AA1-15 | 2026-09-04 00:43:03 | 49.47261 | 15.28300 | 139° | 26km/h | 31296m | 7.3m/s | -42.4°C | 0% | 0hPa | 2.6V | 18:12:15 | 01:56:16 | 00:00:00 | |
| AA1-15 | 2026-09-04 00:42:52 | 49.47301 | 15.28207 | 120° | 26km/h | 31225m | 3.9m/s | -42.9°C | 0% | 0hPa | 2.6V | 18:12:15 | 01:56:05 | 00:00:00 | |
| SONDE2-11 | 2026-09-04 00:42:46 | 49.47320 | 15.28176 | 112° | 22km/h | 31178m | 8.0m/s | -42.7°C | 0.4% | -1.0hPa | 2.5V | 00:00:00 | 00:00:00 | 00:00:00 | |
| AA1-15 | 2026-09-04 00:42:41 | 49.47331 | 15.28133 | 111° | 27km/h | 31151m | 8.9m/s | -42.5°C | 0% | 0hPa | 2.5V | 18:12:15 | 01:55:54 | 00:00:00 | |
| AA1-15 | 2026-09-04 00:42:30 | 49.47375 | 15.28038 | 116° | 29km/h | 31079m | 7.2m/s | -42.8°C | 0% | 0hPa | 2.5V | 18:12:15 | 01:55:43 | 00:00:00 | |
| AA1-15 | 2026-09-04 00:42:20 | 49.47420 | 15.27878 | 118° | 35km/h | 30998m | 7.8m/s | -42.8°C | 0% | 0hPa | 2.5V | 18:12:15 | 01:55:31 | 00:00:00 | |
| AA1-15 | 2026-09-04 00:42:08 | 49.47418 | 15.27757 | 88° | 27km/h | 30930m | 5.7m/s | -42.7°C | 0% | 0hPa | 2.5V | 18:12:15 | 01:55:21 | 00:00:00 | |
| AA1-15 | 2026-09-04 00:41:58 | 49.47407 | 15.27644 | 66° | 27km/h | 30861m | 5.4m/s | -42.8°C | 0% | 0hPa | 2.5V | 18:12:15 | 01:55:11 | 00:00:00 | |
| AA1-15 | 2026-09-04 00:41:45 | 49.47384 | 15.27540 | 36° | 26km/h | 30774m | 6.2m/s | -42.7°C | 0% | 0hPa | 2.5V | 18:12:15 | 01:54:58 | 00:00:00 | |
| OE3OSB-13 | 2026-09-04 00:41:44 | 49.47379 | 15.27534 | 40° | 26km/h | 30767m | 7.4m/s | -42.7°C | 0.4% | -1.0hPa | 2.6V | 00:00:00 | 00:00:00 | 00:00:00 | |
| AA1-15 | 2026-09-04 00:41:33 | 49.47351 | 15.27421 | 66° | 31km/h | 30688m | 6.8m/s | -42.7°C | 0% | 0hPa | 2.6V | 18:12:15 | 01:54:45 | 00:00:00 | |
| OE5DXL-15 | 2026-09-04 00:41:32 | 49.47351 | 15.27421 | 66° | 24km/h | 30689m | 6.8m/s | -42.6°C | 2.3% | 0hPa | 2.6V | 00:00:00 | 00:00:00 | 08:30:00 | |
| DL6DJ-15 | 2026-09-04 00:41:31 | 49.47348 | 15.27411 | 64° | 24km/h | 30681m | 7.8m/s | -42.7°C | 0.4% | -1.0hPa | 2.5V | 00:00:00 | 00:00:00 | 00:00:00 | |
| SQ6EMJ | 2026-09-04 00:41:30 | 49.47346 | 15.27403 | 62° | 20km/h | 30674m | 6.2m/s | -42.7°C | 0.5% | 0hPa | 2.5V | 00:00:00 | 00:00:00 | 00:00:00 | |
| HA6NAB-11 | 2026-09-04 00:41:29 | 49.47346 | 15.27403 | 62° | 20km/h | 30674m | 6.2m/s | -42.7°C | 0.5% | 0hPa | 2.5V | 00:00:00 | 00:00:00 | 00:00:00 | |
| AA1-15 | 2026-09-04 00:41:11 | 49.47282 | 15.27261 | 67° | 11km/h | 30538m | 6.2m/s | -43.7°C | 0% | 0hPa | 2.5V | 18:12:15 | 01:54:23 | 00:00:00 | |
| AA1-15 | 2026-09-04 00:41:00 | 49.47247 | 15.27173 | 63° | 27km/h | 30472m | 8.2m/s | -44.2°C | 0% | 0hPa | 2.5V | 18:12:15 | 01:54:13 | 00:00:00 | |
| AA1-15 | 2026-09-04 00:40:48 | 49.47244 | 15.27121 | 84° | 27km/h | 30388m | 8.8m/s | -44.5°C | 0% | 0hPa | 2.6V | 18:12:15 | 01:54:01 | 00:00:00 | |
| AA1-15 | 2026-09-04 00:40:37 | 49.47259 | 15.27057 | 82° | 26km/h | 30317m | 8.9m/s | 0°C | 0% | 0hPa | 2.5V | 18:12:15 | 01:53:50 | 00:00:00 | |
| AA1-15 | 2026-09-04 00:40:26 | 49.47256 | 15.26982 | 170° | 4km/h | 30238m | 6m/s | 0°C | 0% | 0hPa | 2.6V | 18:12:15 | 01:53:39 | 00:00:00 | |
| AA1-15 | 2026-09-04 00:40:16 | 49.47255 | 15.26900 | 123° | 24km/h | 30166m | 7.7m/s | 0°C | 0% | 0hPa | 2.6V | 18:12:15 | 01:53:29 | 00:00:00 | |
| AA1-15 | 2026-09-04 00:40:06 | 49.47271 | 15.26835 | 81° | 31km/h | 30098m | 8m/s | 0°C | 0% | 0hPa | 2.6V | 18:12:15 | 01:53:19 | 00:00:00 | |
| AA1-15 | 2026-09-04 00:39:53 | 49.47282 | 15.26725 | 88° | 27km/h | 30004m | 6.8m/s | 0°C | 0% | 0hPa | 2.6V | 18:12:15 | 01:53:06 | 00:00:00 | |
| AA1-15 | 2026-09-04 00:39:41 | 49.47296 | 15.26627 | 69° | 13km/h | 29921m | 6.4m/s | 0°C | 0% | 0hPa | 2.5V | 18:12:15 | 01:52:54 | 00:00:00 | |
| OE5DRO-10 | 2026-09-04 00:39:41 | 49.47296 | 15.26627 | 69° | 22km/h | 29921m | 6.4m/s | -44.5°C | 2.6% | 0hPa | 2.5V | 00:00:00 | 00:00:00 | 00:00:00 | |
| AA1-15 | 2026-09-04 00:39:23 | 49.47284 | 15.26488 | 72° | 31km/h | 29794m | 8.3m/s | 0°C | 0% | 0hPa | 2.5V | 18:12:15 | 01:52:36 | 00:00:00 | |
| DO3MHA-11 | 2026-09-04 00:39:22 | 49.47283 | 15.26477 | 90° | 15km/h | 29788m | 5.0m/s | -44.1°C | 2.5% | 0hPa | 2.6V | 00:00:00 | 01:52:35 | 00:00:00 | |
| SQ6EMJ | 2026-09-04 00:39:17 | 49.47291 | 15.26451 | 152° | 7km/h | 29753m | 6.4m/s | 0°C | 0% | 0hPa | 2.6V | 00:00:00 | 00:00:00 | 00:00:00 | |
| OK1SLM-15 | 2026-09-04 00:39:16 | 49.47291 | 15.26451 | 152° | 7km/h | 29753m | 6.4m/s | 0°C | 0% | 0hPa | 2.6V | 00:00:00 | 00:00:00 | 00:00:00 | |
| OE5MMP-10 | 2026-09-04 00:39:15 | 49.47294 | 15.26446 | 104° | 18km/h | 29738m | 7.8m/s | -43.9°C | 2.5% | 0hPa | 2.6V | 00:00:00 | 01:52:28 | 08:30:00 | |
| DO3MHA-11 | 2026-09-04 00:39:12 | 49.47291 | 15.26431 | 53° | 18km/h | 29716m | 9.2m/s | -43.8°C | 2.5% | 0hPa | 2.5V | 00:00:00 | 01:52:25 | 00:00:00 | |
| SQ6EMJ | 2026-09-04 00:39:11 | 49.47288 | 15.26426 | 45° | 16km/h | 29708m | 7.2m/s | 0°C | 0% | 0hPa | 2.5V | 00:00:00 | 00:00:00 | 00:00:00 | |
| OE3OSB-13 | 2026-09-04 00:39:09 | 49.47282 | 15.26408 | 81° | 20km/h | 29687m | 8.9m/s | -44.0°C | 0.5% | -1.0hPa | 2.5V | 00:00:00 | 00:00:00 | 00:00:00 | |
| SONDE2-11 | 2026-09-04 00:39:08 | 49.47282 | 15.26408 | 81° | 20km/h | 29687m | 8.9m/s | -44.0°C | 0.5% | -1.0hPa | 2.5V | 00:00:00 | 00:00:00 | 00:00:00 | |
| EDDB2-11 | 2026-09-04 00:39:06 | 49.47284 | 15.26392 | 116° | 22km/h | 29672m | 6.6m/s | -44.0°C | 0.5% | -1.0hPa | 2.5V | 00:00:00 | 00:00:00 | 00:00:00 | |
| SQ6EMJ | 2026-09-04 00:39:05 | 49.47286 | 15.26385 | 130° | 20km/h | 29665m | 8.9m/s | 0°C | 0% | 0hPa | 2.5V | 00:00:00 | 00:00:00 | 00:00:00 | |
| OE5DRO-10 | 2026-09-04 00:39:03 | 49.47293 | 15.26377 | 147° | 22km/h | 29650m | 5.2m/s | -44.0°C | 2.5% | 0hPa | 2.5V | 00:00:00 | 00:00:00 | 00:00:00 | |
| PETON7-10 | 2026-09-04 00:39:02 | 49.47296 | 15.26373 | 136° | 22km/h | 29645m | 5.5m/s | -44.0°C | 2.5% | 0hPa | 2.5V | 00:00:00 | 00:00:00 | 00:00:00 | |
| DL6DJ-15 | 2026-09-04 00:38:56 | 49.47282 | 15.26326 | 35° | 27km/h | 29592m | 6.4m/s | -43.9°C | 0.5% | -1.0hPa | 2.5V | 00:00:00 | 00:00:00 | 00:00:00 | |
| OE5MMP-10 | 2026-09-04 00:38:55 | 49.47282 | 15.26326 | 36° | 24km/h | 29592m | 6.3m/s | -43.9°C | 2.5% | 0hPa | 2.5V | 00:00:00 | 01:52:08 | 00:00:00 | |
| DO3MHA-11 | 2026-09-04 00:38:52 | 49.47268 | 15.26303 | 68° | 24km/h | 29571m | 6.8m/s | -43.8°C | 2.5% | 0hPa | 2.5V | 00:00:00 | 01:52:05 | 00:00:00 | |
| PETON7-10 | 2026-09-04 00:38:47 | 49.47269 | 15.26266 | 110° | 26km/h | 29535m | 7.0m/s | -43.7°C | 2.4% | 0hPa | 2.5V | 00:00:00 | 01:52:00 | 00:00:00 | |
| OE5MMP-10 | 2026-09-04 00:38:45 | 49.47272 | 15.26247 | 90° | 29km/h | 29520m | 6.4m/s | -43.7°C | 2.5% | 0hPa | 2.5V | 00:00:00 | 01:51:58 | 00:00:00 | |
| OE5DRO-10 | 2026-09-04 00:38:44 | 49.47271 | 15.26235 | 74° | 26km/h | 29513m | 6.0m/s | -43.6°C | 2.4% | 0hPa | 2.6V | 00:00:00 | 00:00:00 | 08:30:00 | |
| DO3MHA-11 | 2026-09-04 00:38:42 | 49.47263 | 15.26215 | 47° | 26km/h | 29498m | 8.5m/s | -43.6°C | 2.4% | 0hPa | 2.5V | 00:00:00 | 01:51:55 | 00:00:00 | |
| OE3OSB-13 | 2026-09-04 00:38:38 | 49.47239 | 15.26168 | 84° | 24km/h | 29464m | 4.9m/s | -43.5°C | 0.5% | -1.0hPa | 2.6V | 00:00:00 | 00:00:00 | 00:00:00 | |
| SONDE2-11 | 2026-09-04 00:38:37 | 49.47239 | 15.26168 | 84° | 24km/h | 29464m | 4.9m/s | -43.5°C | 0.5% | -1.0hPa | 2.6V | 00:00:00 | 00:00:00 | 00:00:00 | |
| OE5MMP-10 | 2026-09-04 00:38:35 | 49.47240 | 15.26151 | 116° | 22km/h | 29451m | 8.8m/s | -43.4°C | 2.4% | 0hPa | 2.6V | 00:00:00 | 01:51:48 | 00:00:00 | |
| DO3MHA-11 | 2026-09-04 00:38:32 | 49.47245 | 15.26136 | 98° | 22km/h | 29430m | 5.7m/s | -43.4°C | 2.4% | 0hPa | 2.6V | 00:00:00 | 01:51:45 | 00:00:00 | |
| DL6DJ-15 | 2026-09-04 00:38:25 | 49.47241 | 15.26061 | 73° | 15km/h | 29372m | 7.6m/s | -43.5°C | 0.5% | -1.0hPa | 2.6V | 00:00:00 | 00:00:00 | 00:00:00 | |
| DO3MHA-11 | 2026-09-04 00:38:22 | 49.47238 | 15.26050 | 65° | 16km/h | 29357m | 6.0m/s | -43.4°C | 2.4% | 0hPa | 2.6V | 00:00:00 | 01:51:35 | 00:00:00 | |
| S52SK | 2026-09-04 00:38:19 | 49.47234 | 15.26038 | 72° | 16km/h | 29344m | 7.9m/s | -43.4°C | 0.5% | 0hPa | 2.6V | 00:00:00 | 00:00:00 | 00:00:00 | |
| PETON7-10 | 2026-09-04 00:38:17 | 49.47232 | 15.26023 | 72° | 13km/h | 29321m | 6.5m/s | -43.3°C | 2.4% | 0hPa | 2.6V | 00:00:00 | 00:00:00 | 00:00:00 | |
| OE5MMP-10 | 2026-09-04 00:38:15 | 49.47229 | 15.26012 | 70° | 16km/h | 29305m | 7.8m/s | -43.3°C | 2.4% | 0hPa | 2.6V | 00:00:00 | 01:51:28 | 00:00:00 | |
| S52SK | 2026-09-04 00:38:14 | 49.47229 | 15.26012 | 71° | 20km/h | 29305m | 7.8m/s | -43.4°C | 0.5% | 0hPa | 2.5V | 00:00:00 | 00:00:00 | 00:00:00 | |
| OE3OSB-13 | 2026-09-04 00:38:07 | 49.47225 | 15.25955 | 87° | 9km/h | 29240m | 5.9m/s | -43.3°C | 0.4% | -1.0hPa | 2.5V | 00:00:00 | 00:00:00 | 00:00:00 | |
| OE5DRO-10 | 2026-09-04 00:38:06 | 49.47225 | 15.25955 | 88° | 11km/h | 29240m | 5.9m/s | -43.2°C | 2.4% | 0hPa | 2.5V | 00:00:00 | 00:00:00 | 00:00:00 | |
| OE5MMP-10 | 2026-09-04 00:38:05 | 49.47225 | 15.25952 | 96° | 11km/h | 29233m | 7.5m/s | -43.3°C | 2.4% | 0hPa | 2.5V | 00:00:00 | 01:51:18 | 00:00:00 | |
| EDDB2-11 | 2026-09-04 00:38:04 | 49.47225 | 15.25950 | 113° | 2km/h | 29225m | 8.7m/s | -43.4°C | 0.4% | -1.0hPa | 2.5V | 00:00:00 | 00:00:00 | 00:00:00 | |
| OK1SLM-15 | 2026-09-04 00:38:03 | 49.47225 | 15.25950 | 114° | 4km/h | 29225m | 8.7m/s | 0°C | 0% | 0hPa | 2.5V | 00:00:00 | 00:00:00 | 00:00:00 | |
| PETON7-10 | 2026-09-04 00:38:02 | 49.47225 | 15.25949 | 6° | 13km/h | 29211m | 6.3m/s | -43.5°C | 2.4% | 0hPa | 2.5V | 00:00:00 | 01:51:15 | 00:00:00 | |
| DL6DJ-15 | 2026-09-04 00:37:54 | 49.47228 | 15.25902 | 113° | 13km/h | 29146m | 7.4m/s | -43.7°C | 0.5% | -1.0hPa | 2.5V | 00:00:00 | 00:00:00 | 00:00:00 | |
| OK1SLM-15 | 2026-09-04 00:37:53 | 49.47228 | 15.25902 | 115° | 13km/h | 29146m | 7.4m/s | 0°C | 0% | 0hPa | 2.5V | 00:00:00 | 00:00:00 | 00:00:00 | |
| DO3MHA-11 | 2026-09-04 00:37:52 | 49.47229 | 15.25898 | 111° | 9km/h | 29139m | 5.4m/s | -43.6°C | 2.4% | 0hPa | 2.5V | 00:00:00 | 01:51:05 | 00:00:00 | |
| HA6NAB-11 | 2026-09-04 00:37:50 | 49.47230 | 15.25894 | 111° | 11km/h | 29133m | 7.1m/s | -43.6°C | 0.5% | 0hPa | 2.5V | 00:00:00 | 00:00:00 | 00:00:00 | |
| DB0UT-7 | 2026-09-04 00:37:48 | 49.47234 | 15.25886 | 148° | 9km/h | 29111m | 5.7m/s | -43.6°C | 2.4% | 0hPa | 2.5V | 00:00:00 | 01:51:01 | 08:30:00 | |
| PETON7-10 | 2026-09-04 00:37:47 | 49.47235 | 15.25885 | 139° | 13km/h | 29105m | 6.5m/s | -43.6°C | 2.4% | 0hPa | 2.5V | 00:00:00 | 00:00:00 | 00:00:00 | |
| HA6NAB-11 | 2026-09-04 00:37:46 | 49.47235 | 15.25883 | 111° | 7km/h | 29097m | 8.6m/s | -43.6°C | 0.5% | 0hPa | 2.5V | 00:00:00 | 00:00:00 | 00:00:00 | |
| PG1ADW-2 | 2026-09-04 00:37:45 | 49.47236 | 15.25880 | 92° | 11km/h | 29090m | 6.7m/s | -43.6°C | 2.4% | 0hPa | 2.5V | 00:00:00 | 00:00:00 | 00:00:00 | |
| DO3MHA-11 | 2026-09-04 00:37:42 | 49.47236 | 15.25865 | 106° | 15km/h | 29070m | 8.0m/s | -43.6°C | 2.4% | 0hPa | 2.5V | 00:00:00 | 01:50:55 | 00:00:00 | |
| HA6NAB-11 | 2026-09-04 00:37:40 | 49.47240 | 15.25858 | 145° | 13km/h | 29055m | 5.5m/s | -43.6°C | 0.5% | 0hPa | 2.5V | 00:00:00 | 00:00:00 | 00:00:00 | |
| SP3BTT-10 | 2026-09-04 00:37:36 | 49.47250 | 15.25841 | 124° | 9km/h | 29028m | 5.8m/s | -43.6°C | 2.4% | 0hPa | 2.5V | 00:00:00 | 00:00:00 | 00:00:00 | |
| OE5MMP-10 | 2026-09-04 00:37:35 | 49.47253 | 15.25835 | 128° | 9km/h | 29022m | 6.9m/s | -43.7°C | 2.4% | 0hPa | 2.6V | 00:00:00 | 01:50:48 | 00:00:00 | |
| EDDB2-11 | 2026-09-04 00:37:33 | 49.47258 | 15.25828 | 147° | 9km/h | 29007m | 6.0m/s | -43.8°C | 0.5% | -1.0hPa | 2.6V | 00:00:00 | 00:00:00 | 00:00:00 | |
| PETON7-10 | 2026-09-04 00:37:32 | 49.47260 | 15.25826 | 148° | 9km/h | 29001m | 6.9m/s | -43.7°C | 2.4% | 0hPa | 2.6V | 00:00:00 | 00:00:00 | 00:00:00 | |
| OE5DRO-10 | 2026-09-04 00:37:28 | 49.47259 | 15.25817 | 40° | 11km/h | 28973m | 6.6m/s | -43.8°C | 2.4% | 0hPa | 2.6V | 00:00:00 | 00:00:00 | 00:00:00 | |
| OE3JTB-15 | 2026-09-04 00:37:27 | 49.47257 | 15.25816 | 30° | 11km/h | 28966m | 8.4m/s | -43.9°C | 2.4% | 0hPa | 2.6V | 00:00:00 | 00:00:00 | 00:00:00 | |
| PG1ADW-2 | 2026-09-04 00:37:25 | 49.47255 | 15.25814 | 33° | 13km/h | 28952m | 6.1m/s | -43.9°C | 2.4% | 0hPa | 2.5V | 00:00:00 | 01:50:38 | 00:00:00 | |
| DO3MHA-11 | 2026-09-04 00:37:22 | 49.47255 | 15.25806 | 104° | 13km/h | 28931m | 5.7m/s | -43.9°C | 2.4% | 0hPa | 2.6V | 00:00:00 | 01:50:35 | 00:00:00 | |
| PETON7-10 | 2026-09-04 00:37:17 | 49.47263 | 15.25780 | 125° | 13km/h | 28896m | 6.5m/s | -44.0°C | 2.4% | 0hPa | 2.6V | 00:00:00 | 01:50:30 | 00:00:00 | |
| OE5MMP-10 | 2026-09-04 00:37:15 | 49.47264 | 15.25773 | 91° | 13km/h | 28882m | 4.9m/s | -44.1°C | 2.4% | 0hPa | 2.6V | 00:00:00 | 01:50:28 | 00:00:00 | |
| DO3MHA-11 | 2026-09-04 00:37:12 | 49.47262 | 15.25760 | 57° | 13km/h | 28861m | 9.2m/s | -44.2°C | 2.5% | 0hPa | 2.5V | 00:00:00 | 01:50:25 | 00:00:00 | |
| OE5DRO-10 | 2026-09-04 00:37:09 | 49.47256 | 15.25751 | 50° | 13km/h | 28841m | 7.5m/s | -44.2°C | 2.5% | 0hPa | 2.6V | 00:00:00 | 00:00:00 | 00:00:00 | |
| OE3OSB-13 | 2026-09-04 00:37:05 | 49.47255 | 15.25725 | 134° | 11km/h | 28806m | 5.8m/s | -44.5°C | 0.5% | -1.0hPa | 2.6V | 00:00:00 | 00:00:00 | 00:00:00 | |
| SONDE2-11 | 2026-09-04 00:37:04 | 49.47255 | 15.25725 | 134° | 11km/h | 28806m | 5.8m/s | -44.5°C | 0.5% | -1.0hPa | 2.6V | 00:00:00 | 00:00:00 | 00:00:00 | |
| DO3MHA-11 | 2026-09-04 00:37:02 | 49.47259 | 15.25720 | 146° | 11km/h | 28794m | 7.3m/s | -44.4°C | 2.5% | 0hPa | 2.6V | 00:00:00 | 01:50:15 | 00:00:00 | |
| DL6DJ-15 | 2026-09-04 00:36:52 | 49.47242 | 15.25680 | 77° | 18km/h | 28721m | 7.4m/s | -44.7°C | 0.5% | -1.0hPa | 2.6V | 00:00:00 | 00:00:00 | 00:00:00 | |
| OE5DRO-10 | 2026-09-04 00:36:50 | 49.47242 | 15.25673 | 94° | 11km/h | 28713m | 8.2m/s | -44.7°C | 2.5% | 0hPa | 2.6V | 00:00:00 | 00:00:00 | 00:00:00 | |
| PETON7-10 | 2026-09-04 00:36:47 | 49.47246 | 15.25657 | 121° | 11km/h | 28692m | 8.1m/s | -45.0°C | 2.5% | 0hPa | 2.5V | 00:00:00 | 00:00:00 | 00:00:00 | |
| PG1ADW-2 | 2026-09-04 00:36:45 | 49.47249 | 15.25646 | 93° | 9km/h | 28680m | 5.8m/s | -45.0°C | 2.6% | 0hPa | 2.5V | 00:00:00 | 00:00:00 | 00:00:00 | |
| DO3MHA-11 | 2026-09-04 00:36:42 | 49.47246 | 15.25634 | 40° | 9km/h | 28659m | 5.8m/s | -45.2°C | 2.6% | 0hPa | 2.5V | 00:00:00 | 01:49:55 | 08:30:00 | |
| OE5MMP-10 | 2026-09-04 00:36:35 | 49.47234 | 15.25612 | 68° | 5km/h | 28612m | 6.1m/s | -45.6°C | 2.7% | 0hPa | 2.6V | 00:00:00 | 01:49:48 | 00:00:00 | |
| OE3OSB-13 | 2026-09-04 00:36:34 | 49.47235 | 15.25609 | 121° | 4km/h | 28598m | 7.6m/s | -45.6°C | 0.5% | -1.0hPa | 2.6V | 00:00:00 | 00:00:00 | 00:00:00 | |
| SONDE2-11 | 2026-09-04 00:36:33 | 49.47235 | 15.25609 | 121° | 4km/h | 28598m | 7.6m/s | -45.6°C | 0.5% | -1.0hPa | 2.6V | 00:00:00 | 00:00:00 | 00:00:00 | |
| DO3MHA-11 | 2026-09-04 00:36:32 | 49.47235 | 15.25607 | 116° | 7km/h | 28591m | 8.3m/s | -45.6°C | 2.7% | 0hPa | 2.6V | 00:00:00 | 01:49:45 | 00:00:00 | |
| OE5DRO-10 | 2026-09-04 00:36:31 | 49.47236 | 15.25603 | 113° | 11km/h | 28584m | 5.1m/s | -45.6°C | 2.7% | 0hPa | 2.6V | 00:00:00 | 00:00:00 | 00:00:00 | |
| OE3JTB-15 | 2026-09-04 00:36:29 | 49.47238 | 15.25597 | 119° | 9km/h | 28572m | 6.9m/s | -45.6°C | 2.7% | 0hPa | 2.6V | 00:00:00 | 01:49:42 | 00:00:00 | |
| NBG1-10 | 2026-09-04 00:36:26 | 49.47239 | 15.25594 | 360° | 9km/h | 28552m | 7.8m/s | -45.6°C | 2.7% | 0hPa | 2.6V | 00:00:00 | 01:49:39 | 00:00:00 | |
| PG1ADW-2 | 2026-09-04 00:36:25 | 49.47238 | 15.25594 | 9° | 9km/h | 28545m | 6.9m/s | -45.6°C | 2.7% | 0hPa | 2.6V | 00:00:00 | 00:00:00 | 00:00:00 | |
| DO3MHA-11 | 2026-09-04 00:36:22 | 49.47232 | 15.25594 | 338° | 13km/h | 28524m | 7.4m/s | -45.5°C | 2.7% | 0hPa | 2.5V | 00:00:00 | 01:49:35 | 00:00:00 | |
| DL6DJ-15 | 2026-09-04 00:36:20 | 49.47228 | 15.25599 | 322° | 15km/h | 28511m | 6.7m/s | -45.6°C | 0.5% | -1.0hPa | 2.5V | 00:00:00 | 00:00:00 | 00:00:00 | |
| PETON7-10 | 2026-09-04 00:36:17 | 49.47217 | 15.25608 | 335° | 9km/h | 28491m | 6.2m/s | -45.6°C | 2.6% | 0hPa | 2.5V | 00:00:00 | 00:00:00 | 00:00:00 | |
| OE5MMP-10 | 2026-09-04 00:36:15 | 49.47211 | 15.25614 | 310° | 7km/h | 28477m | 7.6m/s | -45.6°C | 2.6% | 0hPa | 2.6V | 00:00:00 | 01:49:28 | 08:30:00 | |
| DO3MHA-11 | 2026-09-04 00:36:12 | 49.47206 | 15.25626 | 305° | 5km/h | 28457m | 7.9m/s | -45.7°C | 2.7% | 0hPa | 2.5V | 00:00:00 | 01:49:25 | 00:00:00 | |
| ANDY1245 | 2026-09-04 00:36:07 | 49.47204 | 15.25629 | 269° | 2km/h | 28430m | 7.8m/s | -45.8°C | 0.6% | 0hPa | 2.5V | 00:00:00 | 00:00:00 | 00:00:00 | |
| PG1ADW-2 | 2026-09-04 00:36:05 | 49.47201 | 15.25634 | 336° | 7km/h | 28411m | 7.3m/s | -45.8°C | 2.6% | 0hPa | 2.5V | 00:00:00 | 01:49:18 | 00:00:00 | |
| OE3OSB-13 | 2026-09-04 00:36:03 | 49.47195 | 15.25634 | 18° | 5km/h | 28392m | 7.3m/s | -45.9°C | 0.5% | -1.0hPa | 2.5V | 00:00:00 | 00:00:00 | 00:00:00 | |
| DO3MHA-11 | 2026-09-04 00:36:02 | 49.47195 | 15.25634 | 19° | 7km/h | 28392m | 7.3m/s | -45.8°C | 2.6% | 0hPa | 2.5V | 00:00:00 | 01:49:15 | 00:00:00 | |
| EDDB2-11 | 2026-09-04 00:36:00 | 49.47194 | 15.25634 | 178° | 2km/h | 28377m | 6.0m/s | -45.9°C | 0.5% | -1.0hPa | 2.5V | 00:00:00 | 00:00:00 | 00:00:00 | |
| DL6DJ-15 | 2026-09-04 00:35:49 | 49.47207 | 15.25620 | 48° | 5km/h | 28303m | 6.3m/s | -46.1°C | 0.5% | -1.0hPa | 2.5V | 00:00:00 | 00:00:00 | 00:00:00 | |
| DB0UT-7 | 2026-09-04 00:35:47 | 49.47205 | 15.25618 | 336° | 9km/h | 28290m | 6.4m/s | -46.1°C | 2.6% | 0hPa | 2.5V | 00:00:00 | 01:49:00 | 00:00:00 | |
| OE5MMP-10 | 2026-09-04 00:35:45 | 49.47205 | 15.25620 | 227° | 7km/h | 28278m | 7.2m/s | -46.1°C | 2.6% | 0hPa | 2.5V | 00:00:00 | 01:48:58 | 00:00:00 | |
| DO3MHA-11 | 2026-09-04 00:35:42 | 49.47211 | 15.25622 | 177° | 7km/h | 28256m | 6.5m/s | -46.2°C | 2.6% | 0hPa | 2.5V | 00:00:00 | 01:48:55 | 00:00:00 | |
| SP3BTT-10 | 2026-09-04 00:35:36 | 49.47222 | 15.25621 | 105° | 16km/h | 28214m | 5.3m/s | -46.4°C | 2.7% | 0hPa | 2.5V | 00:00:00 | 00:00:00 | 00:00:00 | |
| OE5MMP-10 | 2026-09-04 00:35:35 | 49.47222 | 15.25618 | 101° | 7km/h | 28208m | 5.9m/s | -46.5°C | 2.7% | 0hPa | 2.5V | 00:00:00 | 01:48:48 | 00:00:00 | |
| OE5DRO-10 | 2026-09-04 00:35:34 | 49.47223 | 15.25616 | 115° | 13km/h | 28201m | 7.2m/s | -46.6°C | 2.7% | 0hPa | 2.5V | 00:00:00 | 00:00:00 | 00:00:00 | |
| OE5DXL-15 | 2026-09-04 00:35:32 | 49.47224 | 15.25616 | 209° | 11km/h | 28188m | 5.8m/s | -46.8°C | 2.7% | 0hPa | 2.5V | 00:00:00 | 00:00:00 | 00:00:00 | |
| OE3JTB-15 | 2026-09-04 00:35:31 | 49.47226 | 15.25617 | 206° | 11km/h | 28181m | 6.9m/s | -46.8°C | 2.8% | 0hPa | 2.5V | 00:00:00 | 00:00:00 | 00:00:00 | |
| EDDB2-11 | 2026-09-04 00:35:29 | 49.47229 | 15.25618 | 184° | 7km/h | 28167m | 5.9m/s | -47.0°C | 0.6% | -1.0hPa | 2.5V | 00:00:00 | 00:00:00 | 00:00:00 | |
| PG1ADW-2 | 2026-09-04 00:35:25 | 49.47240 | 15.25625 | 211° | 13km/h | 28140m | 5.7m/s | -47.2°C | 2.8% | 0hPa | 2.5V | 00:00:00 | 00:00:00 | 08:30:00 | |
| DO3MHA-11 | 2026-09-04 00:35:22 | 49.47252 | 15.25627 | 160° | 15km/h | 28121m | 5.9m/s | -47.3°C | 2.9% | 0hPa | 2.5V | 00:00:00 | 01:48:35 | 00:00:00 | |
| NBG1-10 | 2026-09-04 00:35:20 | 49.47259 | 15.25621 | 144° | 11km/h | 28107m | 8.0m/s | -47.4°C | 2.9% | 0hPa | 2.5V | 00:00:00 | 01:48:33 | 00:00:00 | |
| DL6DJ-15 | 2026-09-04 00:35:18 | 49.47265 | 15.25615 | 152° | 13km/h | 28094m | 5.5m/s | -47.5°C | 0.6% | -1.0hPa | 2.5V | 00:00:00 | 00:00:00 | 00:00:00 | |
| PETON7-10 | 2026-09-04 00:35:17 | 49.47269 | 15.25612 | 155° | 7km/h | 28088m | 7.1m/s | -47.5°C | 2.9% | 0hPa | 2.5V | 00:00:00 | 00:00:00 | 00:00:00 | |
| OE5DRO-10 | 2026-09-04 00:35:15 | 49.47275 | 15.25607 | 149° | 7km/h | 28073m | 6.0m/s | -47.5°C | 2.9% | 0hPa | 2.5V | 00:00:00 | 00:00:00 | 00:00:00 | |
| DO3MHA-11 | 2026-09-04 00:35:12 | 49.47281 | 15.25603 | 206° | 5km/h | 28052m | 7.1m/s | -47.4°C | 2.9% | 0hPa | 2.5V | 00:00:00 | 01:48:25 | 08:30:00 | |
| HA6NAB-11 | 2026-09-04 00:35:09 | 49.47286 | 15.25608 | 202° | 9km/h | 28032m | 8.4m/s | -47.5°C | 0.6% | 0hPa | 2.6V | 00:00:00 | 00:00:00 | 00:00:00 | |
| OE5MMP-10 | 2026-09-04 00:35:05 | 49.47292 | 15.25606 | 118° | 7km/h | 28004m | 7.4m/s | -47.4°C | 2.9% | 0hPa | 2.6V | 00:00:00 | 01:48:18 | 00:00:00 | |
| HA6NAB-11 | 2026-09-04 00:35:03 | 49.47292 | 15.25605 | 87° | 2km/h | 27998m | 5.6m/s | -47.5°C | 0.6% | 0hPa | 2.6V | 00:00:00 | 00:00:00 | 00:00:00 | |
| PETON7-10 | 2026-09-04 00:35:02 | 49.47292 | 15.25601 | 89° | 11km/h | 27984m | 7.6m/s | -47.6°C | 2.9% | 0hPa | 2.6V | 00:00:00 | 01:48:15 | 00:00:00 | |
| SONDE2-11 | 2026-09-04 00:35:00 | 49.47291 | 15.25594 | 81° | 9km/h | 27971m | 6.2m/s | -47.7°C | 0.6% | -1.0hPa | 2.6V | 00:00:00 | 00:00:00 | 00:00:00 | |
| HA6NAB-11 | 2026-09-04 00:34:58 | 49.47291 | 15.25589 | 184° | 4km/h | 27958m | 6.0m/s | -47.7°C | 0.6% | 0hPa | 2.6V | 00:00:00 | 00:00:00 | 00:00:00 | |
| OE5DRO-10 | 2026-09-04 00:34:56 | 49.47296 | 15.25592 | 203° | 13km/h | 27945m | 7.5m/s | -47.6°C | 2.9% | 0hPa | 2.6V | 00:00:00 | 00:00:00 | 00:00:00 | |
| OE5MMP-10 | 2026-09-04 00:34:55 | 49.47301 | 15.25595 | 196° | 13km/h | 27938m | 7.2m/s | -47.6°C | 2.9% | 0hPa | 2.5V | 00:00:00 | 01:48:08 | 00:00:00 | |
| DO3MHA-11 | 2026-09-04 00:34:52 | 49.47316 | 15.25598 | 185° | 9km/h | 27918m | 8.2m/s | -47.5°C | 2.9% | 0hPa | 2.5V | 00:00:00 | 01:48:05 | 00:00:00 | |
| HA6NAB-11 | 2026-09-04 00:34:51 | 49.47316 | 15.25598 | 186° | 15km/h | 27918m | 8.3m/s | -47.6°C | 0.6% | 0hPa | 2.5V | 00:00:00 | 00:00:00 | 00:00:00 | |
| HA6NAB-11 | 2026-09-04 00:34:47 | 49.47321 | 15.25591 | 101° | 11km/h | 27883m | 5.7m/s | -47.6°C | 0.6% | 0hPa | 2.5V | 00:00:00 | 00:00:00 | 00:00:00 | |
| PG1ADW-2 | 2026-09-04 00:34:45 | 49.47322 | 15.25584 | 130° | 11km/h | 27870m | 8.4m/s | -47.5°C | 2.9% | 0hPa | 2.5V | 00:00:00 | 01:47:58 | 00:00:00 | |
| DO3MHA-11 | 2026-09-04 00:34:42 | 49.47329 | 15.25586 | 214° | 9km/h | 27849m | 7.9m/s | -47.6°C | 2.9% | 0hPa | 2.5V | 00:00:00 | 01:47:55 | 00:00:00 | |
| HA6NAB-11 | 2026-09-04 00:34:40 | 49.47331 | 15.25589 | 208° | 15km/h | 27841m | 8.4m/s | -47.7°C | 0.7% | 0hPa | 2.6V | 00:00:00 | 00:00:00 | 00:00:00 | |
| OE5DRO-10 | 2026-09-04 00:34:37 | 49.47343 | 15.25597 | 228° | 13km/h | 27812m | 8.7m/s | -47.7°C | 2.9% | 0hPa | 2.6V | 00:00:00 | 00:00:00 | 00:00:00 | |
| DB0UT-7 | 2026-09-04 00:34:36 | 49.47343 | 15.25600 | 267° | 13km/h | 27805m | 5.4m/s | -47.7°C | 2.9% | 0hPa | 2.6V | 00:00:00 | 00:00:00 | 00:00:00 | |
| OE5MMP-10 | 2026-09-04 00:34:35 | 49.47343 | 15.25601 | 330° | 11km/h | 27799m | 6.4m/s | -47.7°C | 3.0% | 0hPa | 2.5V | 00:00:00 | 01:47:48 | 00:00:00 | |
| OE3JTB-15 | 2026-09-04 00:34:33 | 49.47342 | 15.25599 | 70° | 13km/h | 27785m | 6.1m/s | -47.8°C | 3.0% | 0hPa | 2.5V | 00:00:00 | 00:00:00 | 00:00:00 | |
| DO3MHA-11 | 2026-09-04 00:34:32 | 49.47342 | 15.25598 | 105° | 15km/h | 27779m | 5.0m/s | -47.8°C | 3.0% | 0hPa | 2.5V | 00:00:00 | 01:47:45 | 00:00:00 | |
| SONDE2-11 | 2026-09-04 00:34:29 | 49.47343 | 15.25611 | 272° | 20km/h | 27752m | 5.5m/s | -47.7°C | 0.6% | -1.0hPa | 2.5V | 00:00:00 | 00:00:00 | 00:00:00 | |
| EDDB2-11 | 2026-09-04 00:34:27 | 49.47343 | 15.25626 | 266° | 18km/h | 27740m | 6.8m/s | -47.7°C | 0.6% | -1.0hPa | 2.5V | 00:00:00 | 00:00:00 | 00:00:00 | |
| OE5MMP-10 | 2026-09-04 00:34:25 | 49.47343 | 15.25633 | 251° | 13km/h | 27734m | 5.1m/s | -47.6°C | 2.9% | 0hPa | 2.5V | 00:00:00 | 01:47:38 | 00:00:00 | |
| DO3MHA-11 | 2026-09-04 00:34:22 | 49.47351 | 15.25651 | 234° | 11km/h | 27713m | 8.3m/s | -47.6°C | 2.9% | 0hPa | 2.5V | 00:00:00 | 01:47:35 | 00:00:00 | |
| OE5DRO-10 | 2026-09-04 00:34:18 | 49.47358 | 15.25669 | 266° | 11km/h | 27686m | 6.2m/s | -47.6°C | 3.0% | 0hPa | 2.5V | 00:00:00 | 00:00:00 | 00:00:00 | |
| PETON7-10 | 2026-09-04 00:34:17 | 49.47358 | 15.25671 | 293° | 13km/h | 27679m | 6.2m/s | -47.6°C | 3.0% | 0hPa | 2.5V | 00:00:00 | 01:47:30 | 00:00:00 | |
| DL6DJ-15 | 2026-09-04 00:34:16 | 49.47358 | 15.25672 | 277° | 4km/h | 27672m | 7.3m/s | -47.7°C | 0.6% | -1.0hPa | 2.5V | 00:00:00 | 00:00:00 | 00:00:00 | |
| OE5MMP-10 | 2026-09-04 00:34:15 | 49.47358 | 15.25674 | 262° | 16km/h | 27665m | 7.8m/s | -47.7°C | 2.9% | 0hPa | 2.5V | 00:00:00 | 01:47:28 | 00:00:00 | |
| NBG1-10 | 2026-09-04 00:34:14 | 49.47359 | 15.25678 | 256° | 13km/h | 27658m | 6.2m/s | -47.6°C | 2.9% | 0hPa | 2.6V | 00:00:00 | 01:47:27 | 00:00:00 | |
| OK1SLM-15 | 2026-09-04 00:34:13 | 49.47359 | 15.25678 | 257° | 13km/h | 27658m | 6.2m/s | 0°C | 0% | 0hPa | 2.6V | 00:00:00 | 00:00:00 | 00:00:00 | |
| DO3MHA-11 | 2026-09-04 00:34:12 | 49.47361 | 15.25690 | 248° | 13km/h | 27644m | 8.2m/s | -47.6°C | 2.9% | 0hPa | 2.6V | 00:00:00 | 01:47:25 | 00:00:00 | |
| OK1SLM-15 | 2026-09-04 00:34:08 | 49.47372 | 15.25710 | 227° | 20km/h | 27616m | 8.5m/s | 0°C | 0% | 0hPa | 2.5V | 00:00:00 | 00:00:00 | 00:00:00 | |
| DB0UT-7 | 2026-09-04 00:34:06 | 49.47378 | 15.25721 | 236° | 11km/h | 27602m | 6.3m/s | -47.5°C | 2.9% | 0hPa | 2.5V | 00:00:00 | 01:47:19 | 00:00:00 | |
| PG1ADW-2 | 2026-09-04 00:34:05 | 49.47380 | 15.25725 | 236° | 13km/h | 27595m | 8.0m/s | -47.5°C | 2.9% | 0hPa | 2.5V | 00:00:00 | 00:00:00 | 00:00:00 | |
| OE3JTB-15 | 2026-09-04 00:34:04 | 49.47380 | 15.25727 | 222° | 15km/h | 27588m | 6.1m/s | -47.6°C | 2.9% | 0hPa | 2.5V | 00:00:00 | 00:00:00 | 00:00:00 | |
| DO3MHA-11 | 2026-09-04 00:34:02 | 49.47382 | 15.25728 | 201° | 11km/h | 27575m | 7.4m/s | -47.6°C | 2.9% | 0hPa | 2.5V | 00:00:00 | 01:47:15 | 00:00:00 | |
| SONDE2-11 | 2026-09-04 00:33:58 | 49.47392 | 15.25740 | 202° | 11km/h | 27540m | 5.8m/s | -47.7°C | 0.6% | -1.0hPa | 2.5V | 00:00:00 | 00:00:00 | 00:00:00 | |
| EDDB2-11 | 2026-09-04 00:33:56 | 49.47397 | 15.25742 | 193° | 11km/h | 27526m | 7.5m/s | -47.7°C | 0.6% | -1.0hPa | 2.5V | 00:00:00 | 00:00:00 | 00:00:00 | |
| OE5MMP-10 | 2026-09-04 00:33:55 | 49.47397 | 15.25742 | 194° | 16km/h | 27526m | 7.5m/s | -47.6°C | 3.0% | 0hPa | 2.5V | 00:00:00 | 01:47:08 | 00:00:00 | |
| DO3MHA-11 | 2026-09-04 00:33:52 | 49.47408 | 15.25747 | 197° | 15km/h | 27506m | 6.9m/s | -47.7°C | 2.9% | 0hPa | 2.5V | 00:00:00 | 01:47:05 | 00:00:00 | |
| PETON7-10 | 2026-09-04 00:33:47 | 49.47430 | 15.25740 | 144° | 20km/h | 27471m | 8.7m/s | -47.8°C | 3.0% | 0hPa | 2.5V | 00:00:00 | 00:00:00 | 00:00:00 | |
| S52SK | 2026-09-04 00:33:45 | 49.47434 | 15.25734 | 108° | 7km/h | 27455m | 4.9m/s | -47.8°C | 0.7% | 0hPa | 2.5V | 00:00:00 | 00:00:00 | 00:00:00 | |
| NBG1-10 | 2026-09-04 00:33:41 | 49.47437 | 15.25714 | 120° | 20km/h | 27431m | 5.8m/s | -47.6°C | 2.9% | 0hPa | 2.5V | 00:00:00 | 01:46:54 | 08:30:00 | |
| OE5DRO-10 | 2026-09-04 00:33:40 | 49.47440 | 15.25707 | 132° | 22km/h | 27424m | 7.1m/s | -47.6°C | 2.9% | 0hPa | 2.6V | 00:00:00 | 00:00:00 | 00:00:00 | |
| S52SK | 2026-09-04 00:33:39 | 49.47440 | 15.25707 | 133° | 24km/h | 27424m | 7.1m/s | -47.6°C | 0.7% | 0hPa | 2.6V | 00:00:00 | 00:00:00 | 00:00:00 | |
| OE5MMP-10 | 2026-09-04 00:33:35 | 49.47471 | 15.25682 | 152° | 18km/h | 27388m | 6.9m/s | -47.5°C | 2.8% | 0hPa | 2.6V | 00:00:00 | 01:46:48 | 00:00:00 | |
| PETON7-10 | 2026-09-04 00:33:32 | 49.47488 | 15.25666 | 141° | 18km/h | 27368m | 7.6m/s | -47.7°C | 2.8% | 0hPa | 2.6V | 00:00:00 | 01:46:45 | 00:00:00 | |
| SONDE2-11 | 2026-09-04 00:33:27 | 49.47494 | 15.25635 | 103° | 15km/h | 27324m | 8.0m/s | -47.9°C | 0.6% | -1.0hPa | 2.6V | 00:00:00 | 00:00:00 | 00:00:00 | |
| PG1ADW-2 | 2026-09-04 00:33:25 | 49.47495 | 15.25630 | 117° | 18km/h | 27316m | 7.5m/s | -48.0°C | 2.9% | 0hPa | 2.6V | 00:00:00 | 01:46:38 | 00:00:00 | |
| DO3MHA-11 | 2026-09-04 00:33:22 | 49.47505 | 15.25612 | 132° | 22km/h | 27295m | 6.0m/s | -48.1°C | 3.0% | 0hPa | 2.5V | 00:00:00 | 01:46:35 | 00:00:00 | |
| OE5DRO-10 | 2026-09-04 00:33:21 | 49.47509 | 15.25604 | 130° | 16km/h | 27289m | 6.0m/s | -48.1°C | 2.9% | 0hPa | 2.5V | 00:00:00 | 00:00:00 | 00:00:00 | |
| PETON7-10 | 2026-09-04 00:33:17 | 49.47523 | 15.25574 | 117° | 13km/h | 27262m | 6.9m/s | -48.1°C | 3.0% | 0hPa | 2.5V | 00:00:00 | 00:00:00 | 00:00:00 | |
| OE5MMP-10 | 2026-09-04 00:33:15 | 49.47526 | 15.25562 | 109° | 15km/h | 27246m | 8.3m/s | -48.1°C | 3.0% | 0hPa | 2.5V | 00:00:00 | 01:46:28 | 08:30:00 | |
| DL6DJ-15 | 2026-09-04 00:33:14 | 49.47528 | 15.25549 | 99° | 16km/h | 27233m | 6.3m/s | -48.2°C | 0.6% | -1.0hPa | 2.6V | 00:00:00 | 00:00:00 | 00:00:00 | |
| DO3MHA-11 | 2026-09-04 00:33:12 | 49.47529 | 15.25542 | 99° | 11km/h | 27226m | 7.8m/s | -48.1°C | 2.9% | 0hPa | 2.6V | 00:00:00 | 01:46:25 | 00:00:00 | |
| OK1SLM-15 | 2026-09-04 00:33:08 | 49.47531 | 15.25525 | 115° | 15km/h | 27197m | 7.7m/s | 0°C | 0% | 0hPa | 2.6V | 00:00:00 | 00:00:00 | 00:00:00 | |
| OE3JTB-15 | 2026-09-04 00:33:06 | 49.47535 | 15.25515 | 125° | 11km/h | 27185m | 6.4m/s | -48.2°C | 3.0% | 0hPa | 2.6V | 00:00:00 | 00:00:00 | 00:00:00 | |
| PG1ADW-2 | 2026-09-04 00:33:05 | 49.47537 | 15.25511 | 128° | 11km/h | 27177m | 8.1m/s | -48.3°C | 3.0% | 0hPa | 2.5V | 00:00:00 | 00:00:00 | 00:00:00 | |
| DO3MHA-11 | 2026-09-04 00:33:02 | 49.47538 | 15.25502 | 60° | 13km/h | 27158m | 6.4m/s | -48.3°C | 3.1% | 0hPa | 2.5V | 00:00:00 | 01:46:15 | 00:00:00 | |
| SONDE2-11 | 2026-09-04 00:32:56 | 49.47524 | 15.25481 | 8° | 11km/h | 27113m | 6.9m/s | -48.5°C | 0.6% | -1.0hPa | 2.5V | 00:00:00 | 00:00:00 | 00:00:00 | |
| OE5MMP-10 | 2026-09-04 00:32:55 | 49.47524 | 15.25481 | 9° | 11km/h | 27113m | 6.8m/s | -48.4°C | 3.0% | 0hPa | 2.5V | 00:00:00 | 01:46:08 | 00:00:00 | |
| DB0UT-7 | 2026-09-04 00:32:53 | 49.47518 | 15.25478 | 26° | 9km/h | 27099m | 5.6m/s | -48.5°C | 3.1% | 0hPa | 2.5V | 00:00:00 | 00:00:00 | 00:00:00 | |
| DO3MHA-11 | 2026-09-04 00:32:52 | 49.47514 | 15.25476 | 27° | 9km/h | 27094m | 5.1m/s | -48.5°C | 3.1% | 0hPa | 2.5V | 00:00:00 | 01:46:05 | 00:00:00 | |
| PETON7-10 | 2026-09-04 00:32:47 | 49.47503 | 15.25472 | 9° | 7km/h | 27061m | 8.1m/s | -48.5°C | 3.1% | 0hPa | 2.5V | 00:00:00 | 01:46:00 | 00:00:00 | |
| HA6NAB-11 | 2026-09-04 00:32:46 | 49.47503 | 15.25472 | 9° | 11km/h | 27061m | 8.2m/s | -48.5°C | 0.7% | 0hPa | 2.5V | 00:00:00 | 00:00:00 | 00:00:00 | |
| PG1ADW-2 | 2026-09-04 00:32:45 | 49.47499 | 15.25472 | 347° | 7km/h | 27050m | 4.7m/s | -48.4°C | 3.1% | 0hPa | 2.5V | 00:00:00 | 00:00:00 | 00:00:00 | |
| DL6DJ-15 | 2026-09-04 00:32:43 | 49.47497 | 15.25480 | 276° | 11km/h | 27030m | 4.8m/s | -48.4°C | 0.6% | -1.0hPa | 2.5V | 00:00:00 | 00:00:00 | 00:00:00 | |
| DO3MHA-11 | 2026-09-04 00:32:42 | 49.47497 | 15.25480 | 277° | 7km/h | 27030m | 4.7m/s | -48.4°C | 3.1% | 0hPa | 2.5V | 00:00:00 | 01:45:55 | 00:00:00 | |
| HA6NAB-11 | 2026-09-04 00:32:41 | 49.47497 | 15.25480 | 277° | 11km/h | 27030m | 4.8m/s | -48.4°C | 0.7% | 0hPa | 2.6V | 00:00:00 | 00:00:00 | 00:00:00 | |
| OE3JTB-15 | 2026-09-04 00:32:37 | 49.47490 | 15.25490 | 45° | 9km/h | 27000m | 7.2m/s | -48.3°C | 3.0% | 0hPa | 2.6V | 00:00:00 | 00:00:00 | 00:00:00 | |
| HA6NAB-11 | 2026-09-04 00:32:36 | 49.47490 | 15.25488 | 107° | 4km/h | 26992m | 7.5m/s | -48.3°C | 0.7% | 0hPa | 2.6V | 00:00:00 | 00:00:00 | 00:00:00 | |
| OE5MMP-10 | 2026-09-04 00:32:35 | 49.47491 | 15.25486 | 113° | 9km/h | 26986m | 5.3m/s | -48.2°C | 3.0% | 0hPa | 2.6V | 00:00:00 | 01:45:48 | 00:00:00 | |
| PETON7-10 | 2026-09-04 00:32:32 | 49.47490 | 15.25479 | 42° | 7km/h | 26967m | 5.2m/s | -48.2°C | 3.0% | 0hPa | 2.6V | 00:00:00 | 00:00:00 | 08:30:00 | |
| HA6NAB-11 | 2026-09-04 00:32:30 | 49.47490 | 15.25479 | 352° | 4km/h | 26962m | 5.5m/s | -48.2°C | 0.7% | 0hPa | 2.5V | 00:00:00 | 00:00:00 | 00:00:00 | |
| ANDY1245 | 2026-09-04 00:32:28 | 49.47488 | 15.25482 | 280° | 11km/h | 26948m | 6.6m/s | -48.2°C | 0.7% | 0hPa | 2.5V | 00:00:00 | 00:00:00 | 00:00:00 | |
| HA6NAB-11 | 2026-09-04 00:32:25 | 49.47482 | 15.25497 | 341° | 13km/h | 26922m | 6.0m/s | -48.1°C | 0.7% | 0hPa | 2.5V | 00:00:00 | 00:00:00 | 00:00:00 | |
| OE5DRO-10 | 2026-09-04 00:32:24 | 49.47479 | 15.25499 | 355° | 13km/h | 26916m | 6.0m/s | -48.1°C | 3.0% | 0hPa | 2.5V | 00:00:00 | 00:00:00 | 00:00:00 | |
| DB0UT-7 | 2026-09-04 00:32:23 | 49.47477 | 15.25499 | 8° | 13km/h | 26909m | 7.8m/s | -48.1°C | 3.0% | 0hPa | 2.5V | 00:00:00 | 01:45:36 | 00:00:00 | |
| DO3MHA-11 | 2026-09-04 00:32:22 | 49.47475 | 15.25498 | 46° | 7km/h | 26902m | 6.3m/s | -48.1°C | 3.0% | 0hPa | 2.5V | 00:00:00 | 01:45:35 | 00:00:00 | |
| PETON7-10 | 2026-09-04 00:32:17 | 49.47473 | 15.25493 | 289° | 15km/h | 26873m | 5.5m/s | -48.1°C | 3.0% | 0hPa | 2.5V | 00:00:00 | 00:00:00 | 00:00:00 | |
| OE5MMP-10 | 2026-09-04 00:32:15 | 49.47473 | 15.25500 | 261° | 18km/h | 26860m | 5.8m/s | -48.1°C | 3.0% | 0hPa | 2.5V | 00:00:00 | 01:45:28 | 00:00:00 | |
| DL6DJ-15 | 2026-09-04 00:32:12 | 49.47464 | 15.25527 | 324° | 22km/h | 26831m | 4.8m/s | -48.0°C | 0.6% | -1.0hPa | 2.5V | 00:00:00 | 00:00:00 | 00:00:00 | |
| OE3JTB-15 | 2026-09-04 00:32:07 | 49.47452 | 15.25544 | 306° | 7km/h | 26813m | 5.1m/s | -47.9°C | 2.9% | 0hPa | 2.5V | 00:00:00 | 01:45:20 | 00:00:00 | |
| OE5MMP-10 | 2026-09-04 00:32:05 | 49.47448 | 15.25552 | 312° | 7km/h | 26801m | 6.9m/s | -47.9°C | 2.9% | 0hPa | 2.5V | 00:00:00 | 01:45:18 | 00:00:00 | |
| DO3MHA-11 | 2026-09-04 00:32:02 | 49.47448 | 15.25552 | 149° | 11km/h | 26782m | 6.0m/s | -48.0°C | 2.9% | 0hPa | 2.5V | 00:00:00 | 01:45:15 | 00:00:00 | |
| SONDE2-11 | 2026-09-04 00:31:54 | 49.47447 | 15.25557 | 315° | 16km/h | 26728m | 6.6m/s | -48.2°C | 0.6% | -1.0hPa | 2.5V | 00:00:00 | 00:00:00 | 00:00:00 | |
| EDDB2-11 | 2026-09-04 00:31:52 | 49.47442 | 15.25568 | 301° | 15km/h | 26717m | 4.7m/s | -48.2°C | 0.6% | -1.0hPa | 2.5V | 00:00:00 | 00:00:00 | 00:00:00 | |
| ANDY1245 | 2026-09-04 00:31:50 | 49.47442 | 15.25568 | 302° | 16km/h | 26717m | 4.7m/s | -48.2°C | 0.7% | 0hPa | 2.5V | 00:00:00 | 00:00:00 | 00:00:00 | |
| PETON7-10 | 2026-09-04 00:31:47 | 49.47436 | 15.25576 | 41° | 7km/h | 26693m | 5.5m/s | -48.2°C | 2.9% | 0hPa | 2.5V | 00:00:00 | 00:00:00 | 00:00:00 | |
| OE5DRO-10 | 2026-09-04 00:31:46 | 49.47436 | 15.25576 | 192° | 9km/h | 26687m | 7.2m/s | -48.3°C | 3.0% | 0hPa | 2.5V | 00:00:00 | 00:00:00 | 00:00:00 | |
| PG1ADW-2 | 2026-09-04 00:31:45 | 49.47438 | 15.25577 | 200° | 9km/h | 26680m | 7.2m/s | -48.3°C | 3.0% | 0hPa | 2.5V | 00:00:00 | 00:00:00 | 00:00:00 | |
| DO3MHA-11 | 2026-09-04 00:31:42 | 49.47443 | 15.25577 | 147° | 7km/h | 26662m | 7.2m/s | -48.5°C | 3.0% | 0hPa | 2.5V | 00:00:00 | 01:44:55 | 00:00:00 | |
| DL6DJ-15 | 2026-09-04 00:31:40 | 49.47443 | 15.25576 | 15° | 4km/h | 26650m | 6.0m/s | -48.7°C | 0.6% | -1.0hPa | 2.5V | 00:00:00 | 00:00:00 | 00:00:00 | |
| OE5MMP-10 | 2026-09-04 00:31:35 | 49.47433 | 15.25582 | 4° | 11km/h | 26619m | 6.1m/s | -48.9°C | 3.1% | 0hPa | 2.5V | 00:00:00 | 01:44:48 | 00:00:00 | |
| SP3BTT-10 | 2026-09-04 00:31:34 | 49.47432 | 15.25581 | 73° | 7km/h | 26613m | 4.6m/s | -49.0°C | 3.1% | 0hPa | 2.5V | 00:00:00 | 00:00:00 | 08:30:00 | |
| OE3JTB-15 | 2026-09-04 00:31:33 | 49.47432 | 15.25579 | 127° | 15km/h | 26608m | 5.6m/s | -49.0°C | 3.1% | 0hPa | 2.6V | 00:00:00 | 00:00:00 | 08:30:00 | |
| PETON7-10 | 2026-09-04 00:31:32 | 49.47434 | 15.25576 | 147° | 11km/h | 26602m | 6.8m/s | -49.0°C | 3.1% | 0hPa | 2.5V | 00:00:00 | 00:00:00 | 00:00:00 | |
| NBG1-10 | 2026-09-04 00:31:29 | 49.47444 | 15.25568 | 140° | 15km/h | 26584m | 6.8m/s | -49.0°C | 3.1% | 0hPa | 2.5V | 00:00:00 | 01:44:42 | 00:00:00 | |
| OE5DRO-10 | 2026-09-04 00:31:27 | 49.47447 | 15.25560 | 108° | 13km/h | 26572m | 5.3m/s | -49.0°C | 3.1% | 0hPa | 2.5V | 00:00:00 | 00:00:00 | 00:00:00 | |
| PG1ADW-2 | 2026-09-04 00:31:25 | 49.47449 | 15.25554 | 112° | 15km/h | 26560m | 7.3m/s | -49.0°C | 3.1% | 0hPa | 2.5V | 00:00:00 | 00:00:00 | 00:00:00 | |
| SONDE2-11 | 2026-09-04 00:31:23 | 49.47450 | 15.25547 | 88° | 7km/h | 26542m | 7.0m/s | -49.0°C | 0.7% | -1.0hPa | 2.5V | 00:00:00 | 00:00:00 | 00:00:00 | |
| DO3MHA-11 | 2026-09-04 00:31:22 | 49.47450 | 15.25547 | 89° | 18km/h | 26542m | 7.0m/s | -48.9°C | 3.1% | 0hPa | 2.5V | 00:00:00 | 01:44:35 | 00:00:00 | |
| PETON7-10 | 2026-09-04 00:31:17 | 49.47456 | 15.25522 | 135° | 16km/h | 26511m | 4.8m/s | -48.9°C | 3.0% | 0hPa | 2.5V | 00:00:00 | 01:44:30 | 00:00:00 | |
| OE5MMP-10 | 2026-09-04 00:31:15 | 49.47464 | 15.25508 | 122° | 15km/h | 26500m | 7.4m/s | -48.9°C | 3.0% | 0hPa | 2.5V | 00:00:00 | 01:44:28 | 00:00:00 | |
| DO3MHA-11 | 2026-09-04 00:31:12 | 49.47469 | 15.25485 | 105° | 15km/h | 26482m | 5.8m/s | -49.0°C | 3.0% | 0hPa | 2.6V | 00:00:00 | 01:44:25 | 00:00:00 | |
| DL6DJ-15 | 2026-09-04 00:31:10 | 49.47472 | 15.25473 | 106° | 5km/h | 26463m | 5.4m/s | -49.2°C | 0.7% | -1.0hPa | 2.5V | 00:00:00 | 00:00:00 | 00:00:00 | |
| DB0UT-7 | 2026-09-04 00:31:09 | 49.47472 | 15.25473 | 107° | 16km/h | 26464m | 5.4m/s | -49.1°C | 3.1% | 0hPa | 2.5V | 00:00:00 | 00:00:00 | 00:00:00 | |
| OE5DRO-10 | 2026-09-04 00:31:08 | 49.47472 | 15.25470 | 96° | 16km/h | 26458m | 5.5m/s | -49.1°C | 3.0% | 0hPa | 2.5V | 00:00:00 | 00:00:00 | 00:00:00 | |
| PG1ADW-2 | 2026-09-04 00:31:05 | 49.47473 | 15.25454 | 100° | 16km/h | 26440m | 5.8m/s | -49.1°C | 3.0% | 0hPa | 2.5V | 00:00:00 | 00:00:00 | 00:00:00 | |
| OE3JTB-15 | 2026-09-04 00:31:04 | 49.47474 | 15.25446 | 111° | 15km/h | 26433m | 7.1m/s | -49.1°C | 3.1% | 0hPa | 2.5V | 00:00:00 | 00:00:00 | 00:00:00 | |
| PETON7-10 | 2026-09-04 00:31:02 | 49.47480 | 15.25430 | 127° | 16km/h | 26421m | 4.3m/s | -49.3°C | 3.1% | 0hPa | 2.5V | 00:00:00 | 00:00:00 | 00:00:00 | |
| OE3OSB-13 | 2026-09-04 00:30:52 | 49.47500 | 15.25369 | 47° | 11km/h | 26356m | 5.5m/s | -49.7°C | 0.7% | -1.0hPa | 2.5V | 00:00:00 | 00:00:00 | 00:00:00 | |
| SONDE2-11 | 2026-09-04 00:30:51 | 49.47500 | 15.25369 | 47° | 11km/h | 26356m | 5.5m/s | -49.7°C | 0.7% | -1.0hPa | 2.5V | 00:00:00 | 00:00:00 | 00:00:00 | |
| ANDY1245 | 2026-09-04 00:30:50 | 49.47500 | 15.25369 | 48° | 13km/h | 26356m | 5.5m/s | -49.7°C | 0.8% | 0hPa | 2.5V | 00:00:00 | 00:00:00 | 00:00:00 | |
| OE5DRO-10 | 2026-09-04 00:30:49 | 49.47495 | 15.25363 | 37° | 13km/h | 26344m | 6.5m/s | -49.7°C | 3.2% | 0hPa | 2.5V | 00:00:00 | 00:00:00 | 00:00:00 | |
| PETON7-10 | 2026-09-04 00:30:47 | 49.47493 | 15.25357 | 92° | 13km/h | 26333m | 5.1m/s | -49.7°C | 3.2% | 0hPa | 2.5V | 00:00:00 | 00:00:00 | 00:00:00 | |
| PG1ADW-2 | 2026-09-04 00:30:45 | 49.47494 | 15.25345 | 94° | 11km/h | 26320m | 7.2m/s | -49.7°C | 3.2% | 0hPa | 2.5V | 00:00:00 | 01:43:58 | 00:00:00 | |
| ANDY1245 | 2026-09-04 00:30:44 | 49.47494 | 15.25345 | 95° | 18km/h | 26320m | 7.2m/s | -49.7°C | 0.8% | 0hPa | 2.5V | 00:00:00 | 00:00:00 | 00:00:00 | |
| DO3MHA-11 | 2026-09-04 00:30:42 | 49.47495 | 15.25322 | 102° | 9km/h | 26301m | 7.5m/s | -49.8°C | 3.2% | 0hPa | 2.5V | 00:00:00 | 01:43:55 | 08:30:00 | |
| DB0UT-7 | 2026-09-04 00:30:39 | 49.47498 | 15.25309 | 86° | 7km/h | 26282m | 7.3m/s | -49.8°C | 3.3% | 0hPa | 2.6V | 00:00:00 | 01:43:52 | 00:00:00 | |
| ANDY1245 | 2026-09-04 00:30:38 | 49.47497 | 15.25309 | 87° | 5km/h | 26282m | 7.3m/s | -49.9°C | 0.8% | 0hPa | 2.6V | 00:00:00 | 00:00:00 | 00:00:00 | |
| OE5MMP-10 | 2026-09-04 00:30:35 | 49.47490 | 15.25304 | 32° | 9km/h | 26256m | 8.1m/s | -49.7°C | 3.3% | 0hPa | 2.6V | 00:00:00 | 01:43:48 | 00:00:00 | |
| OE3JTB-15 | 2026-09-04 00:30:34 | 49.47488 | 15.25298 | 76° | 9km/h | 26242m | 6.9m/s | -49.6°C | 3.2% | 0hPa | 2.6V | 00:00:00 | 01:43:46 | 00:00:00 | |
| PETON7-10 | 2026-09-04 00:30:33 | 49.47488 | 15.25294 | 79° | 9km/h | 26235m | 7.6m/s | -49.5°C | 3.2% | 0hPa | 2.6V | 00:00:00 | 01:43:45 | 00:00:00 | |
| DO3MHA-11 | 2026-09-04 00:30:32 | 49.47488 | 15.25294 | 79° | 7km/h | 26235m | 7.6m/s | -49.5°C | 3.2% | 0hPa | 2.6V | 00:00:00 | 01:43:45 | 00:00:00 | |
| OE5DRO-10 | 2026-09-04 00:30:30 | 49.47486 | 15.25286 | 84° | 7km/h | 26223m | 6.5m/s | -49.5°C | 3.1% | 0hPa | 2.6V | 00:00:00 | 00:00:00 | 00:00:00 | |
| OE5MMP-10 | 2026-09-04 00:30:25 | 49.47488 | 15.25275 | 19° | 9km/h | 26188m | 7.1m/s | -49.6°C | 3.1% | 0hPa | 2.6V | 00:00:00 | 01:43:38 | 00:00:00 | |
| NBG1-10 | 2026-09-04 00:30:23 | 49.47484 | 15.25274 | 5° | 9km/h | 26176m | 6.7m/s | -49.7°C | 3.1% | 0hPa | 2.6V | 00:00:00 | 01:43:36 | 00:00:00 | |
| DO3MHA-11 | 2026-09-04 00:30:22 | 49.47481 | 15.25274 | 10° | 7km/h | 26168m | 8.2m/s | -49.8°C | 3.1% | 0hPa | 2.5V | 00:00:00 | 01:43:35 | 00:00:00 | |
| SONDE2-11 | 2026-09-04 00:30:21 | 49.47477 | 15.25270 | 44° | 9km/h | 26154m | 5.1m/s | -50.0°C | 0.7% | -1.0hPa | 2.5V | 00:00:00 | 00:00:00 | 00:00:00 | |
| PETON7-10 | 2026-09-04 00:30:18 | 49.47471 | 15.25262 | 44° | 9km/h | 26135m | 5.4m/s | -50.1°C | 3.2% | 0hPa | 2.5V | 00:00:00 | 00:00:00 | 08:30:00 | |
| OE5MMP-10 | 2026-09-04 00:30:15 | 49.47468 | 15.25257 | 48° | 7km/h | 26122m | 7.8m/s | -50.1°C | 3.2% | 0hPa | 2.5V | 00:00:00 | 01:43:28 | 08:30:00 | |
| DO3MHA-11 | 2026-09-04 00:30:12 | 49.47468 | 15.25257 | 285° | 9km/h | 26102m | 7.4m/s | -50.2°C | 3.2% | 0hPa | 2.6V | 00:00:00 | 01:43:25 | 00:00:00 | |
| OE5DRO-10 | 2026-09-04 00:30:11 | 49.47467 | 15.25259 | 318° | 11km/h | 26095m | 6.6m/s | -50.2°C | 3.2% | 0hPa | 2.5V | 00:00:00 | 00:00:00 | 08:30:00 | |
| DL6DJ-15 | 2026-09-04 00:30:07 | 49.47457 | 15.25268 | 341° | 7km/h | 26068m | 5.6m/s | -50.3°C | 0.7% | -1.0hPa | 2.5V | 00:00:00 | 00:00:00 | 00:00:00 | |
| OE5MMP-10 | 2026-09-04 00:30:06 | 49.47453 | 15.25267 | 36° | 11km/h | 26055m | 8.7m/s | -50.5°C | 3.3% | 0hPa | 2.5V | 00:00:00 | 01:43:18 | 00:00:00 | |
| PG1ADW-2 | 2026-09-04 00:30:05 | 49.47453 | 15.25267 | 36° | 9km/h | 26055m | 8.7m/s | -50.5°C | 3.3% | 0hPa | 2.5V | 00:00:00 | 00:00:00 | 00:00:00 | |
| OE3JTB-15 | 2026-09-04 00:30:04 | 49.47452 | 15.25264 | 60° | 7km/h | 26047m | 5.8m/s | -50.5°C | 3.3% | 0hPa | 2.5V | 00:00:00 | 00:00:00 | 00:00:00 | |
| DO3MHA-11 | 2026-09-04 00:30:02 | 49.47450 | 15.25256 | 93° | 11km/h | 26034m | 7.5m/s | -50.6°C | 3.4% | 0hPa | 2.5V | 00:00:00 | 01:43:15 | 00:00:00 | |
| OE3OSB-13 | 2026-09-04 00:29:50 | 49.47463 | 15.25273 | 67° | 4km/h | 25944m | 8.4m/s | -50.6°C | 0.7% | -1.0hPa | 2.5V | 00:00:00 | 00:00:00 | 00:00:00 | |
| PETON7-10 | 2026-09-04 00:29:47 | 49.47464 | 15.25269 | 116° | 7km/h | 25930m | 6.1m/s | -50.5°C | 3.4% | 0hPa | 2.5V | 00:00:00 | 01:43:00 | 00:00:00 | |
| HA6NAB-11 | 2026-09-04 00:29:46 | 49.47464 | 15.25269 | 117° | 5km/h | 25930m | 6.1m/s | -50.6°C | 0.8% | 0hPa | 2.5V | 00:00:00 | 00:00:00 | 00:00:00 | |
| PG1ADW-2 | 2026-09-04 00:29:45 | 49.47465 | 15.25264 | 105° | 7km/h | 25917m | 6.0m/s | -50.5°C | 3.3% | 0hPa | 2.5V | 00:00:00 | 00:00:00 | 00:00:00 | |
| DO3MHA-11 | 2026-09-04 00:29:42 | 49.47467 | 15.25258 | 170° | 7km/h | 25896m | 7.4m/s | -50.4°C | 3.3% | 0hPa | 2.5V | 00:00:00 | 01:42:55 | 00:00:00 | |
| HA6NAB-11 | 2026-09-04 00:29:41 | 49.47468 | 15.25258 | 216° | 5km/h | 25889m | 6.0m/s | -50.5°C | 0.8% | 0hPa | 2.5V | 00:00:00 | 00:00:00 | 00:00:00 | |
| DL6DJ-15 | 2026-09-04 00:29:36 | 49.47467 | 15.25269 | 293° | 7km/h | 25855m | 7.8m/s | -50.8°C | 0.7% | -1.0hPa | 2.5V | 00:00:00 | 00:00:00 | 00:00:00 | |
| OE5MMP-10 | 2026-09-04 00:29:35 | 49.47467 | 15.25273 | 276° | 7km/h | 25848m | 6.0m/s | -50.7°C | 3.4% | 0hPa | 2.5V | 00:00:00 | 01:42:48 | 00:00:00 | |
| OE3JTB-15 | 2026-09-04 00:29:33 | 49.47467 | 15.25278 | 243° | 7km/h | 25835m | 7.6m/s | -50.7°C | 3.4% | 0hPa | 2.5V | 00:00:00 | 00:00:00 | 00:00:00 | |
| PETON7-10 | 2026-09-04 00:29:32 | 49.47468 | 15.25278 | 152° | 7km/h | 25828m | 5.6m/s | -50.7°C | 3.4% | 0hPa | 2.5V | 00:00:00 | 00:00:00 | 00:00:00 | |
| HA6NAB-11 | 2026-09-04 00:29:30 | 49.47470 | 15.25274 | 125° | 9km/h | 25815m | 7.4m/s | -50.7°C | 0.8% | 0hPa | 2.5V | 00:00:00 | 00:00:00 | 00:00:00 | |
| DB0UT-7 | 2026-09-04 00:29:27 | 49.47475 | 15.25266 | 129° | 9km/h | 25794m | 6.1m/s | -50.6°C | 3.4% | 0hPa | 2.5V | 00:00:00 | 00:00:00 | 08:30:00 | |
| OE5MMP-10 | 2026-09-04 00:29:25 | 49.47476 | 15.25260 | 67° | 5km/h | 25782m | 4.9m/s | -50.6°C | 3.4% | 0hPa | 2.6V | 00:00:00 | 01:42:38 | 00:00:00 | |
| HA6NAB-11 | 2026-09-04 00:29:23 | 49.47475 | 15.25257 | 42° | 9km/h | 25776m | 6.2m/s | -50.7°C | 0.9% | 0hPa | 2.6V | 00:00:00 | 00:00:00 | 00:00:00 | |
| DO3MHA-11 | 2026-09-04 00:29:22 | 49.47471 | 15.25255 | 355° | 5km/h | 25762m | 6.6m/s | -50.6°C | 3.4% | 0hPa | 2.6V | 00:00:00 | 01:42:35 | 00:00:00 | |
| NBG1-10 | 2026-09-04 00:29:18 | 49.47468 | 15.25260 | 260° | 9km/h | 25729m | 6.6m/s | -50.5°C | 3.4% | 0hPa | 2.6V | 00:00:00 | 01:42:30 | 00:00:00 | |
| PETON7-10 | 2026-09-04 00:29:17 | 49.47468 | 15.25260 | 260° | 9km/h | 25729m | 6.6m/s | -50.5°C | 3.4% | 0hPa | 2.6V | 00:00:00 | 00:00:00 | 00:00:00 | |
| EDDB2-11 | 2026-09-04 00:29:16 | 49.47469 | 15.25262 | 237° | 5km/h | 25721m | 8.0m/s | -50.6°C | 0.7% | -1.0hPa | 2.6V | 00:00:00 | 00:00:00 | 00:00:00 | |
| OE5MMP-10 | 2026-09-04 00:29:15 | 49.47470 | 15.25265 | 236° | 9km/h | 25715m | 5.5m/s | -50.5°C | 3.4% | 0hPa | 2.6V | 00:00:00 | 01:42:28 | 00:00:00 | |
| OE5DRO-10 | 2026-09-04 00:29:14 | 49.47471 | 15.25268 | 240° | 9km/h | 25709m | 5.7m/s | -50.4°C | 3.4% | 0hPa | 2.6V | 00:00:00 | 00:00:00 | 00:00:00 | |
| DO3MHA-11 | 2026-09-04 00:29:12 | 49.47472 | 15.25274 | 311° | 9km/h | 25696m | 5.9m/s | -50.3°C | 3.3% | 0hPa | 2.5V | 00:00:00 | 01:42:25 | 08:30:00 | |
| HA6NAB-11 | 2026-09-04 00:29:07 | 49.47460 | 15.25276 | 357° | 9km/h | 25663m | 5.8m/s | -50.2°C | 0.8% | 0hPa | 2.6V | 00:00:00 | 00:00:00 | 00:00:00 | |
| OE5MMP-10 | 2026-09-04 00:29:05 | 49.47456 | 15.25277 | 350° | 9km/h | 25650m | 5.8m/s | -50.1°C | 3.3% | 0hPa | 2.6V | 00:00:00 | 01:42:18 | 00:00:00 | |
| OE3JTB-15 | 2026-09-04 00:29:04 | 49.47454 | 15.25278 | 337° | 7km/h | 25644m | 5.9m/s | -50.1°C | 3.3% | 0hPa | 2.6V | 00:00:00 | 01:42:17 | 00:00:00 | |
| DO3MHA-11 | 2026-09-04 00:29:02 | 49.47452 | 15.25282 | 274° | 9km/h | 25629m | 7.9m/s | -50.0°C | 3.3% | 0hPa | 2.6V | 00:00:00 | 01:42:15 | 00:00:00 | |
| HA6NAB-11 | 2026-09-04 00:29:01 | 49.47452 | 15.25283 | 275° | 11km/h | 25629m | 8.0m/s | -50.0°C | 0.8% | 0hPa | 2.6V | 00:00:00 | 00:00:00 | 00:00:00 | |
| ANDY1245 | 2026-09-04 00:28:59 | 49.47453 | 15.25298 | 274° | 13km/h | 25610m | 7.4m/s | -50.0°C | 0.8% | 0hPa | 2.6V | 00:00:00 | 00:00:00 | 00:00:00 | |
| OE5MMP-10 | 2026-09-04 00:28:55 | 49.47448 | 15.25307 | 342° | 9km/h | 25583m | 6.6m/s | -49.9°C | 3.3% | 0hPa | 2.6V | 00:00:00 | 01:42:08 | 00:00:00 | |
| DO3MHA-11 | 2026-09-04 00:28:52 | 49.47443 | 15.25306 | 14° | 11km/h | 25564m | 6.2m/s | -49.9°C | 3.3% | 0hPa | 2.6V | 00:00:00 | 01:42:05 | 00:00:00 | |
| HA6NAB-11 | 2026-09-04 00:28:49 | 49.47437 | 15.25306 | 355° | 11km/h | 25551m | 6.8m/s | -50.0°C | 0.8% | 0hPa | 2.6V | 00:00:00 | 00:00:00 | 00:00:00 | |
| PETON7-10 | 2026-09-04 00:28:47 | 49.47433 | 15.25315 | 287° | 7km/h | 25531m | 6.5m/s | -49.9°C | 3.3% | 0hPa | 2.6V | 00:00:00 | 00:00:00 | 00:00:00 | |
| PG1ADW-2 | 2026-09-04 00:28:45 | 49.47430 | 15.25325 | 293° | 9km/h | 25518m | 5.4m/s | -49.9°C | 3.3% | 0hPa | 2.5V | 00:00:00 | 00:00:00 | 00:00:00 | |
| NBG1-10 | 2026-09-04 00:28:44 | 49.47429 | 15.25329 | 295° | 9km/h | 25512m | 6.4m/s | -49.9°C | 3.3% | 0hPa | 2.5V | 00:00:00 | 01:41:57 | 08:30:00 | |
| HA6NAB-11 | 2026-09-04 00:28:43 | 49.47429 | 15.25329 | 295° | 9km/h | 25512m | 6.4m/s | -49.9°C | 0.9% | 0hPa | 2.5V | 00:00:00 | 00:00:00 | 00:00:00 | |
| DO3MHA-11 | 2026-09-04 00:28:42 | 49.47428 | 15.25334 | 262° | 5km/h | 25498m | 6.1m/s | -49.8°C | 3.3% | 0hPa | 2.5V | 00:00:00 | 01:41:55 | 00:00:00 | |
| OE5DRO-10 | 2026-09-04 00:28:36 | 49.47429 | 15.25330 | 223° | 9km/h | 25461m | 6.0m/s | -49.7°C | 3.3% | 0hPa | 2.5V | 00:00:00 | 00:00:00 | 00:00:00 | |
| OE3JTB-15 | 2026-09-04 00:28:35 | 49.47430 | 15.25332 | 244° | 7km/h | 25454m | 5.9m/s | -49.7°C | 3.3% | 0hPa | 2.5V | 00:00:00 | 00:00:00 | 00:00:00 | |
| DL6DJ-15 | 2026-09-04 00:28:34 | 49.47431 | 15.25336 | 251° | 13km/h | 25448m | 7.3m/s | -49.8°C | 0.7% | -1.0hPa | 2.5V | 00:00:00 | 00:00:00 | 00:00:00 | |
| PETON7-10 | 2026-09-04 00:28:32 | 49.47433 | 15.25347 | 261° | 9km/h | 25434m | 4.2m/s | -49.7°C | 3.3% | 0hPa | 2.5V | 00:00:00 | 00:00:00 | 00:00:00 | |
| ANDY1245 | 2026-09-04 00:28:26 | 49.47440 | 15.25371 | 218° | 9km/h | 25404m | 6.5m/s | -49.7°C | 0.8% | 0hPa | 2.5V | 00:00:00 | 00:00:00 | 00:00:00 | |
| PG1ADW-2 | 2026-09-04 00:28:25 | 49.47442 | 15.25372 | 77° | 7km/h | 25390m | 5.9m/s | -49.6°C | 3.2% | 0hPa | 2.5V | 00:00:00 | 00:00:00 | 00:00:00 | |
| DO3MHA-11 | 2026-09-04 00:28:22 | 49.47441 | 15.25373 | 266° | 11km/h | 25370m | 5.3m/s | -49.7°C | 3.2% | 0hPa | 2.5V | 00:00:00 | 01:41:35 | 00:00:00 | |
| ANDY1245 | 2026-09-04 00:28:21 | 49.47441 | 15.25373 | 267° | 5km/h | 25370m | 5.3m/s | -49.7°C | 0.8% | 0hPa | 2.5V | 00:00:00 | 00:00:00 | 00:00:00 | |
| SONDE2-11 | 2026-09-04 00:28:17 | 49.47448 | 15.25396 | 224° | 15km/h | 25332m | 7.2m/s | -49.7°C | 0.7% | -1.0hPa | 2.5V | 00:00:00 | 00:00:00 | 00:00:00 | |
| OE3OSB-13 | 2026-09-04 00:28:16 | 49.47448 | 15.25396 | 224° | 15km/h | 25332m | 7.2m/s | -49.7°C | 0.7% | -1.0hPa | 2.5V | 00:00:00 | 00:00:00 | 00:00:00 | |
| OE5MMP-10 | 2026-09-04 00:28:15 | 49.47451 | 15.25399 | 220° | 7km/h | 25325m | 5.6m/s | -49.7°C | 3.2% | 0hPa | 2.5V | 00:00:00 | 01:41:28 | 00:00:00 | |
| EDDB2-11 | 2026-09-04 00:28:14 | 49.47454 | 15.25403 | 214° | 13km/h | 25319m | 6.9m/s | -49.8°C | 0.7% | -1.0hPa | 2.6V | 00:00:00 | 00:00:00 | 00:00:00 | |
| DO3MHA-11 | 2026-09-04 00:28:12 | 49.47457 | 15.25405 | 174° | 9km/h | 25305m | 5.7m/s | -49.7°C | 3.2% | 0hPa | 2.6V | 00:00:00 | 01:41:25 | 00:00:00 | |
| NBG1-10 | 2026-09-04 00:28:11 | 49.47458 | 15.25405 | 37° | 13km/h | 25299m | 6.3m/s | -49.7°C | 3.2% | 0hPa | 2.6V | 00:00:00 | 01:41:24 | 00:00:00 | |
| OE5MMP-10 | 2026-09-04 00:28:05 | 49.47455 | 15.25420 | 262° | 16km/h | 25262m | 5.3m/s | -49.9°C | 3.2% | 0hPa | 2.6V | 00:00:00 | 01:41:18 | 00:00:00 | |
| PETON7-10 | 2026-09-04 00:28:02 | 49.47461 | 15.25438 | 232° | 15km/h | 25240m | 6.0m/s | -49.8°C | 3.2% | 0hPa | 2.6V | 00:00:00 | 00:00:00 | 08:30:00 | |
| OE5DRO-10 | 2026-09-04 00:27:58 | 49.47476 | 15.25459 | 214° | 13km/h | 25216m | 6.0m/s | -49.8°C | 3.2% | 0hPa | 2.5V | 00:00:00 | 00:00:00 | 00:00:00 | |
| OE5MMP-10 | 2026-09-04 00:27:55 | 49.47482 | 15.25469 | 257° | 13km/h | 25195m | 5.4m/s | -49.9°C | 3.2% | 0hPa | 2.5V | 00:00:00 | 01:41:08 | 00:00:00 | |
| DO3MHA-11 | 2026-09-04 00:27:52 | 49.47481 | 15.25482 | 303° | 15km/h | 25176m | 5.1m/s | -50.0°C | 3.3% | 0hPa | 2.5V | 00:00:00 | 01:41:05 | 00:00:00 | |
| PETON7-10 | 2026-09-04 00:27:47 | 49.47486 | 15.25496 | 196° | 11km/h | 25145m | 6.8m/s | -50.2°C | 3.3% | 0hPa | 2.5V | 00:00:00 | 00:00:00 | 00:00:00 | |
| PG1ADW-2 | 2026-09-04 00:27:45 | 49.47496 | 15.25497 | 173° | 11km/h | 25133m | 5.9m/s | -50.1°C | 3.3% | 0hPa | 2.5V | 00:00:00 | 00:00:00 | 00:00:00 | |
| DB0UT-7 | 2026-09-04 00:27:44 | 49.47501 | 15.25496 | 169° | 9km/h | 25127m | 6.8m/s | -50.1°C | 3.3% | 0hPa | 2.5V | 00:00:00 | 00:00:00 | 00:00:00 | |
| ANDY1245 | 2026-09-04 00:27:43 | 49.47506 | 15.25494 | 173° | 18km/h | 25119m | 7.7m/s | -50.1°C | 0.8% | 0hPa | 2.5V | 00:00:00 | 00:00:00 | 00:00:00 | |
| DO3MHA-11 | 2026-09-04 00:27:42 | 49.47510 | 15.25494 | 176° | 5km/h | 25113m | 5.6m/s | -50.0°C | 3.3% | 0hPa | 2.5V | 00:00:00 | 01:40:55 | 08:30:00 | |
| OE5DRO-10 | 2026-09-04 00:27:39 | 49.47513 | 15.25493 | 21° | 7km/h | 25093m | 5.8m/s | -50.0°C | 3.2% | 0hPa | 2.5V | 00:00:00 | 00:00:00 | 00:00:00 | |
| NBG1-10 | 2026-09-04 00:27:38 | 49.47512 | 15.25492 | 6° | 9km/h | 25087m | 6.8m/s | -50.0°C | 3.2% | 0hPa | 2.5V | 00:00:00 | 01:40:51 | 00:00:00 | |
| ANDY1245 | 2026-09-04 00:27:37 | 49.47512 | 15.25492 | 6° | 5km/h | 25087m | 6.9m/s | -50.1°C | 0.8% | 0hPa | 2.5V | 00:00:00 | 00:00:00 | 00:00:00 | |
| OE5MMP-10 | 2026-09-04 00:27:35 | 49.47510 | 15.25495 | 244° | 11km/h | 25069m | 5.2m/s | -50.1°C | 3.2% | 0hPa | 2.5V | 00:00:00 | 01:40:48 | 00:00:00 | |
| SP3BTT-10 | 2026-09-04 00:27:33 | 49.47513 | 15.25497 | 166° | 18km/h | 25056m | 6.4m/s | -50.2°C | 3.3% | 0hPa | 2.5V | 00:00:00 | 00:00:00 | 00:00:00 | |
| PETON7-10 | 2026-09-04 00:27:32 | 49.47515 | 15.25495 | 150° | 9km/h | 25050m | 5.6m/s | -50.2°C | 3.3% | 0hPa | 2.5V | 00:00:00 | 01:40:45 | 00:00:00 | |
| OE5MMP-10 | 2026-09-04 00:27:25 | 49.47532 | 15.25477 | 90° | 7km/h | 25007m | 5.4m/s | -50.6°C | 3.4% | 0hPa | 2.5V | 00:00:00 | 01:40:38 | 00:00:00 | |
| DO3MHA-11 | 2026-09-04 00:27:22 | 49.47530 | 15.25471 | 64° | 9km/h | 24988m | 5.0m/s | -50.6°C | 3.4% | 0hPa | 2.5V | 00:00:00 | 01:40:35 | 00:00:00 | |
| OE5DRO-10 | 2026-09-04 00:27:20 | 49.47531 | 15.25469 | 138° | 7km/h | 24976m | 6.7m/s | -50.6°C | 3.3% | 0hPa | 2.5V | 00:00:00 | 00:00:00 | 08:30:00 | |
| PETON7-10 | 2026-09-04 00:27:17 | 49.47536 | 15.25461 | 136° | 7km/h | 24959m | 6.9m/s | -50.5°C | 3.3% | 0hPa | 2.6V | 00:00:00 | 00:00:00 | 00:00:00 | |
| OE5MMP-10 | 2026-09-04 00:27:15 | 49.47541 | 15.25455 | 142° | 9km/h | 24945m | 5.1m/s | -50.5°C | 3.3% | 0hPa | 2.5V | 00:00:00 | 01:40:28 | 08:30:00 | |
| DB0UT-7 | 2026-09-04 00:27:14 | 49.47542 | 15.25453 | 129° | 9km/h | 24940m | 6.2m/s | -50.5°C | 3.3% | 0hPa | 2.5V | 00:00:00 | 01:40:27 | 00:00:00 | |
| DO3MHA-11 | 2026-09-04 00:27:12 | 49.47544 | 15.25445 | 95° | 5km/h | 24928m | 5.7m/s | -50.6°C | 3.3% | 0hPa | 2.6V | 00:00:00 | 01:40:25 | 00:00:00 | |
| OE5MMP-10 | 2026-09-04 00:27:05 | 49.47541 | 15.25428 | 102° | 9km/h | 24885m | 6.8m/s | -50.8°C | 3.4% | 0hPa | 2.6V | 00:00:00 | 01:40:18 | 00:00:00 | |
| ANDY1245 | 2026-09-04 00:27:04 | 49.47541 | 15.25428 | 102° | 5km/h | 24885m | 6.9m/s | -50.8°C | 0.9% | 0hPa | 2.6V | 00:00:00 | 00:00:00 | 00:00:00 | |
| PETON7-10 | 2026-09-04 00:27:02 | 49.47542 | 15.25423 | 140° | 7km/h | 24865m | 6.1m/s | -50.8°C | 3.3% | 0hPa | 2.6V | 00:00:00 | 00:00:00 | 00:00:00 | |
| OE5DRO-10 | 2026-09-04 00:27:01 | 49.47544 | 15.25421 | 143° | 7km/h | 24858m | 7.5m/s | -50.8°C | 3.4% | 0hPa | 2.6V | 00:00:00 | 00:00:00 | 00:00:00 | |
| ANDY1245 | 2026-09-04 00:26:59 | 49.47549 | 15.25417 | 150° | 15km/h | 24846m | 5.2m/s | -50.9°C | 0.9% | 0hPa | 2.6V | 00:00:00 | 00:00:00 | 00:00:00 | |
| OE5MMP-10 | 2026-09-04 00:26:55 | 49.47559 | 15.25414 | 239° | 5km/h | 24820m | 4.5m/s | -50.8°C | 3.4% | 0hPa | 2.6V | 00:00:00 | 01:40:08 | 00:00:00 | |
| DO3MHA-11 | 2026-09-04 00:26:52 | 49.47558 | 15.25419 | 1° | 5km/h | 24803m | 5.0m/s | -50.8°C | 3.3% | 0hPa | 2.6V | 00:00:00 | 01:40:05 | 00:00:00 | |
| PETON7-10 | 2026-09-04 00:26:47 | 49.47554 | 15.25422 | 273° | 9km/h | 24774m | 5.8m/s | -50.9°C | 3.4% | 0hPa | 2.6V | 00:00:00 | 01:40:00 | 00:00:00 | |
| OE5MMP-10 | 2026-09-04 00:26:45 | 49.47555 | 15.25425 | 194° | 11km/h | 24761m | 5.5m/s | -50.9°C | 3.4% | 0hPa | 2.6V | 00:00:00 | 01:39:58 | 00:00:00 | |
| OE3OSB-13 | 2026-09-04 00:26:43 | 49.47559 | 15.25426 | 193° | 9km/h | 24750m | 6.4m/s | -51.0°C | 0.8% | -1.0hPa | 2.6V | 00:00:00 | 00:00:00 | 00:00:00 | |
| OE3JTB-15 | 2026-09-04 00:26:42 | 49.47561 | 15.25427 | 206° | 15km/h | 24743m | 7.5m/s | -51.0°C | 3.4% | 0hPa | 2.6V | 00:00:00 | 01:39:55 | 00:00:00 | |
| EDDB2-11 | 2026-09-04 00:26:41 | 49.47565 | 15.25430 | 213° | 15km/h | 24736m | 5.4m/s | -51.1°C | 0.7% | -1.0hPa | 2.6V | 00:00:00 | 00:00:00 | 00:00:00 | |
| OE5MMP-10 | 2026-09-04 00:26:35 | 49.47577 | 15.25446 | 268° | 5km/h | 24698m | 5.9m/s | -50.9°C | 3.4% | 0hPa | 2.6V | 00:00:00 | 01:39:48 | 00:00:00 | |
| DO3MHA-11 | 2026-09-04 00:26:32 | 49.47576 | 15.25451 | 358° | 7km/h | 24681m | 5.1m/s | -50.9°C | 3.4% | 0hPa | 2.6V | 00:00:00 | 01:39:45 | 00:00:00 | |
| DL6DJ-15 | 2026-09-04 00:26:30 | 49.47575 | 15.25450 | 350° | 2km/h | 24668m | 6.8m/s | -51.1°C | 0.7% | -1.0hPa | 2.6V | 00:00:00 | 00:00:00 | 00:00:00 | |
| ANDY1245 | 2026-09-04 00:26:26 | 49.47574 | 15.25456 | 264° | 9km/h | 24649m | 7.0m/s | -51.1°C | 0.9% | 0hPa | 2.6V | 00:00:00 | 00:00:00 | 00:00:00 | |
| OE5MMP-10 | 2026-09-04 00:26:25 | 49.47575 | 15.25463 | 247° | 7km/h | 24638m | 5.5m/s | -51.1°C | 3.4% | 0hPa | 2.6V | 00:00:00 | 01:39:38 | 00:00:00 | |
| OE5DRO-10 | 2026-09-04 00:26:23 | 49.47577 | 15.25470 | 253° | 9km/h | 24624m | 8.0m/s | -51.1°C | 3.5% | 0hPa | 2.6V | 00:00:00 | 00:00:00 | 00:00:00 | |
| DO3MHA-11 | 2026-09-04 00:26:22 | 49.47578 | 15.25474 | 257° | 7km/h | 24617m | 5.7m/s | -51.2°C | 3.5% | 0hPa | 2.6V | 00:00:00 | 01:39:35 | 00:00:00 | |
| ANDY1245 | 2026-09-04 00:26:21 | 49.47578 | 15.25474 | 257° | 11km/h | 24617m | 5.8m/s | -51.2°C | 0.9% | 0hPa | 2.6V | 00:00:00 | 00:00:00 | 00:00:00 | |
| PETON7-10 | 2026-09-04 00:26:17 | 49.47582 | 15.25484 | 182° | 9km/h | 24587m | 7.3m/s | -51.3°C | 3.5% | 0hPa | 2.6V | 00:00:00 | 00:00:00 | 00:00:00 | |
| OE5MMP-10 | 2026-09-04 00:26:15 | 49.47586 | 15.25486 | 212° | 9km/h | 24573m | 5.5m/s | -51.3°C | 3.5% | 0hPa | 2.6V | 00:00:00 | 01:39:28 | 00:00:00 | |
| DO3MHA-11 | 2026-09-04 00:26:12 | 49.47589 | 15.25490 | 218° | 9km/h | 24554m | 5.5m/s | -51.3°C | 3.5% | 0hPa | 2.5V | 00:00:00 | 01:39:25 | 08:30:00 | |
| EDDB2-11 | 2026-09-04 00:26:10 | 49.47592 | 15.25494 | 241° | 9km/h | 24541m | 7.6m/s | -51.3°C | 0.8% | -1.0hPa | 2.6V | 00:00:00 | 00:00:00 | 00:00:00 | |
| OK1SLM-15 | 2026-09-04 00:26:06 | 49.47595 | 15.25508 | 241° | 13km/h | 24522m | 7.2m/s | 0°C | 0% | 0hPa | 2.6V | 00:00:00 | 00:00:00 | 00:00:00 | |
| PG1ADW-2 | 2026-09-04 00:26:05 | 49.47599 | 15.25514 | 218° | 16km/h | 24510m | 6.1m/s | -51.3°C | 3.5% | 0hPa | 2.6V | 00:00:00 | 00:00:00 | 00:00:00 | |
| OE5DRO-10 | 2026-09-04 00:26:04 | 49.47601 | 15.25517 | 213° | 16km/h | 24504m | 6.8m/s | -51.3°C | 3.5% | 0hPa | 2.6V | 00:00:00 | 00:00:00 | 00:00:00 | |
| DO3MHA-11 | 2026-09-04 00:26:02 | 49.47605 | 15.25522 | 228° | 15km/h | 24490m | 5.7m/s | -51.3°C | 3.5% | 0hPa | 2.6V | 00:00:00 | 01:39:15 | 00:00:00 | |
| NBG1-10 | 2026-09-04 00:25:59 | 49.47611 | 15.25530 | 212° | 20km/h | 24470m | 5.1m/s | -51.2°C | 3.5% | 0hPa | 2.6V | 00:00:00 | 01:39:12 | 00:00:00 | |
| OE5MMP-10 | 2026-09-04 00:25:55 | 49.47620 | 15.25544 | 232° | 22km/h | 24443m | 5.1m/s | -51.1°C | 3.5% | 0hPa | 2.6V | 00:00:00 | 01:39:08 | 00:00:00 | |
| DO3MHA-11 | 2026-09-04 00:25:52 | 49.47632 | 15.25559 | 209° | 24km/h | 24425m | 5.3m/s | -51.1°C | 3.4% | 0hPa | 2.6V | 00:00:00 | 01:39:05 | 00:00:00 | |
| PETON7-10 | 2026-09-04 00:25:47 | 49.47658 | 15.25582 | 210° | 22km/h | 24394m | 6.9m/s | -51.1°C | 3.4% | 0hPa | 2.6V | 00:00:00 | 00:00:00 | 08:30:00 | |
| OE5MMP-10 | 2026-09-04 00:25:45 | 49.47668 | 15.25589 | 198° | 22km/h | 24381m | 5.9m/s | -51.0°C | 3.4% | 0hPa | 2.5V | 00:00:00 | 01:38:58 | 08:30:00 | |
| DO3MHA-11 | 2026-09-04 00:25:42 | 49.47684 | 15.25599 | 207° | 20km/h | 24362m | 5.4m/s | -51.1°C | 3.4% | 0hPa | 2.5V | 00:00:00 | 01:38:55 | 00:00:00 | |
| SONDE2-11 | 2026-09-04 00:25:41 | 49.47694 | 15.25605 | 196° | 20km/h | 24349m | 7.1m/s | -51.2°C | 0.7% | -1.0hPa | 2.5V | 00:00:00 | 00:00:00 | 00:00:00 | |
| EDDB2-11 | 2026-09-04 00:25:39 | 49.47699 | 15.25608 | 194° | 20km/h | 24342m | 5.5m/s | -51.2°C | 0.8% | -1.0hPa | 2.5V | 00:00:00 | 00:00:00 | 00:00:00 | |
| ANDY1245 | 2026-09-04 00:25:37 | 49.47708 | 15.25612 | 207° | 20km/h | 24330m | 7.7m/s | -51.3°C | 0.9% | 0hPa | 2.5V | 00:00:00 | 00:00:00 | 00:00:00 | |
| OE5MMP-10 | 2026-09-04 00:25:35 | 49.47717 | 15.25620 | 206° | 24km/h | 24318m | 5.8m/s | -51.3°C | 3.4% | 0hPa | 2.5V | 00:00:00 | 01:38:48 | 00:00:00 | |
| PETON7-10 | 2026-09-04 00:25:32 | 49.47732 | 15.25625 | 185° | 27km/h | 24299m | 5.5m/s | -51.3°C | 3.4% | 0hPa | 2.5V | 00:00:00 | 00:00:00 | 00:00:00 | |
| DO3MHA-11 | 2026-09-04 00:25:31 | 49.47738 | 15.25625 | 187° | 24km/h | 24293m | 6.5m/s | -51.3°C | 3.5% | 0hPa | 2.5V | 00:00:00 | 01:38:44 | 00:00:00 | |
| DL6DJ-15 | 2026-09-04 00:25:28 | 49.47768 | 15.25625 | 168° | 26km/h | 24262m | 5.7m/s | -51.4°C | 0.8% | -1.0hPa | 2.5V | 00:00:00 | 00:00:00 | 00:00:00 | |
| OE5DRO-10 | 2026-09-04 00:25:26 | 49.47768 | 15.25625 | 169° | 26km/h | 24262m | 5.6m/s | -51.3°C | 3.4% | 0hPa | 2.5V | 00:00:00 | 00:00:00 | 00:00:00 | |
| OE5MMP-10 | 2026-09-04 00:25:25 | 49.47775 | 15.25623 | 171° | 29km/h | 24256m | 6.3m/s | -51.3°C | 3.4% | 0hPa | 2.5V | 00:00:00 | 01:38:38 | 00:00:00 | |
| DO3MHA-11 | 2026-09-04 00:25:21 | 49.47804 | 15.25621 | 177° | 31km/h | 24230m | 6.9m/s | -51.3°C | 3.4% | 0hPa | 2.5V | 00:00:00 | 01:38:34 | 00:00:00 | |
| PETON7-10 | 2026-09-04 00:25:17 | 49.47835 | 15.25624 | 193° | 24km/h | 24205m | 4.4m/s | -51.4°C | 3.4% | 0hPa | 2.5V | 00:00:00 | 01:38:30 | 00:00:00 | |
| OE5MMP-10 | 2026-09-04 00:25:15 | 49.47848 | 15.25627 | 181° | 22km/h | 24195m | 7.3m/s | -51.5°C | 3.5% | 0hPa | 2.5V | 00:00:00 | 01:38:28 | 00:00:00 | |
| SONDE2-11 | 2026-09-04 00:25:10 | 49.47876 | 15.25614 | 164° | 18km/h | 24159m | 6.2m/s | -51.8°C | 0.8% | -1.0hPa | 2.6V | 00:00:00 | 00:00:00 | 00:00:00 | |
| DO3MHA-11 | 2026-09-04 00:25:09 | 49.47876 | 15.25614 | 165° | 20km/h | 24159m | 6.1m/s | -51.7°C | 3.5% | 0hPa | 2.6V | 00:00:00 | 01:38:22 | 00:00:00 | |
| EDDB2-11 | 2026-09-04 00:25:08 | 49.47882 | 15.25612 | 163° | 22km/h | 24152m | 7.4m/s | -51.8°C | 0.8% | -1.0hPa | 2.5V | 00:00:00 | 00:00:00 | 00:00:00 | |
| OE5DRO-10 | 2026-09-04 00:25:07 | 49.47888 | 15.25609 | 164° | 20km/h | 24145m | 5.9m/s | -51.8°C | 3.5% | 0hPa | 2.5V | 00:00:00 | 00:00:00 | 00:00:00 | |
| OE5MMP-10 | 2026-09-04 00:25:05 | 49.47901 | 15.25603 | 169° | 20km/h | 24134m | 6.2m/s | -51.8°C | 3.5% | 0hPa | 2.5V | 00:00:00 | 01:38:18 | 00:00:00 | |
| OK1SLM-15 | 2026-09-04 00:25:03 | 49.47914 | 15.25600 | 166° | 24km/h | 24122m | 5.7m/s | 0°C | 0% | 0hPa | 2.5V | 00:00:00 | 00:00:00 | 00:00:00 | |
| PETON7-10 | 2026-09-04 00:25:02 | 49.47920 | 15.25597 | 158° | 18km/h | 24115m | 6.5m/s | -51.8°C | 3.5% | 0hPa | 2.5V | 00:00:00 | 00:00:00 | 00:00:00 | |
| DL6DJ-15 | 2026-09-04 00:24:57 | 49.47939 | 15.25567 | 127° | 15km/h | 24079m | 5.8m/s | -51.9°C | 0.8% | -1.0hPa | 2.6V | 00:00:00 | 00:00:00 | 00:00:00 | |
| OE5MMP-10 | 2026-09-04 00:24:55 | 49.47942 | 15.25562 | 134° | 18km/h | 24072m | 6.4m/s | -51.8°C | 3.5% | 0hPa | 2.6V | 00:00:00 | 01:38:08 | 00:00:00 | |
| NBG1-10 | 2026-09-04 00:24:53 | 49.47949 | 15.25553 | 151° | 16km/h | 24061m | 6.3m/s | -51.8°C | 3.5% | 0hPa | 2.6V | 00:00:00 | 01:38:06 | 00:00:00 | |
| ANDY1245 | 2026-09-04 00:24:52 | 49.47949 | 15.25553 | 152° | 18km/h | 24061m | 6.3m/s | -51.8°C | 0.9% | 0hPa | 2.6V | 00:00:00 | 00:00:00 | 00:00:00 | |
| OE5DRO-10 | 2026-09-04 00:24:48 | 49.47970 | 15.25537 | 141° | 15km/h | 24029m | 5.3m/s | -51.8°C | 3.5% | 0hPa | 2.6V | 00:00:00 | 00:00:00 | 00:00:00 | |
| PETON7-10 | 2026-09-04 00:24:47 | 49.47974 | 15.25531 | 135° | 15km/h | 24023m | 5.8m/s | -51.9°C | 3.5% | 0hPa | 2.6V | 00:00:00 | 00:00:00 | 00:00:00 | |
| ANDY1245 | 2026-09-04 00:24:46 | 49.47974 | 15.25531 | 135° | 20km/h | 24023m | 5.9m/s | -51.9°C | 0.9% | 0hPa | 2.6V | 00:00:00 | 00:00:00 | 00:00:00 | |
| PG1ADW-2 | 2026-09-04 00:24:45 | 49.47979 | 15.25521 | 121° | 15km/h | 24010m | 5.1m/s | -52.0°C | 3.5% | 0hPa | 2.6V | 00:00:00 | 00:00:00 | 00:00:00 | |
| OE3OSB-13 | 2026-09-04 00:24:39 | 49.47997 | 15.25481 | 159° | 7km/h | 23969m | 5.3m/s | -52.4°C | 0.8% | -1.0hPa | 2.6V | 00:00:00 | 00:00:00 | 00:00:00 | |
| EDDB2-11 | 2026-09-04 00:24:37 | 49.48000 | 15.25479 | 145° | 5km/h | 23958m | 7.1m/s | -52.5°C | 0.8% | -1.0hPa | 2.6V | 00:00:00 | 00:00:00 | 00:00:00 | |
| OE5MMP-10 | 2026-09-04 00:24:35 | 49.48001 | 15.25477 | 133° | 16km/h | 23952m | 5.2m/s | -52.5°C | 3.6% | 0hPa | 2.6V | 00:00:00 | 01:37:48 | 00:00:00 | |
| DO3MHA-11 | 2026-09-04 00:24:33 | 49.48004 | 15.25474 | 154° | 18km/h | 23940m | 6.9m/s | -52.5°C | 3.6% | 0hPa | 2.6V | 00:00:00 | 01:37:46 | 00:00:00 | |
| PETON7-10 | 2026-09-04 00:24:32 | 49.48006 | 15.25473 | 160° | 18km/h | 23933m | 5.8m/s | -52.5°C | 3.6% | 0hPa | 2.6V | 00:00:00 | 01:37:45 | 00:00:00 | |
| OE5DRO-10 | 2026-09-04 00:24:29 | 49.48016 | 15.25463 | 140° | 20km/h | 23915m | 6.0m/s | -52.5°C | 3.6% | 0hPa | 2.6V | 00:00:00 | 00:00:00 | 08:30:00 | |
| OE5MMP-10 | 2026-09-04 00:24:25 | 49.48035 | 15.25440 | 148° | 16km/h | 23891m | 5.5m/s | -52.6°C | 3.6% | 0hPa | 2.5V | 00:00:00 | 01:37:38 | 00:00:00 | |
| NBG1-10 | 2026-09-04 00:24:20 | 49.48053 | 15.25420 | 158° | 18km/h | 23860m | 7.6m/s | -52.6°C | 3.6% | 0hPa | 2.5V | 00:00:00 | 01:37:33 | 00:00:00 | |
| DO3MHA-11 | 2026-09-04 00:24:19 | 49.48056 | 15.25419 | 167° | 20km/h | 23853m | 5.4m/s | -52.6°C | 3.6% | 0hPa | 2.5V | 00:00:00 | 01:37:32 | 08:30:00 | |
| PETON7-10 | 2026-09-04 00:24:17 | 49.48063 | 15.25414 | 147° | 15km/h | 23842m | 6.6m/s | -52.6°C | 3.6% | 0hPa | 2.5V | 00:00:00 | 00:00:00 | 00:00:00 | |
| OE5MMP-10 | 2026-09-04 00:24:15 | 49.48071 | 15.25404 | 138° | 18km/h | 23830m | 5.7m/s | -52.6°C | 3.7% | 0hPa | 2.7V | 00:00:00 | 01:37:28 | 08:30:00 | |
| ANDY1245 | 2026-09-04 00:24:14 | 49.48071 | 15.25404 | 139° | 24km/h | 23830m | 5.8m/s | -52.7°C | 1.0% | 0hPa | 2.5V | 00:00:00 | 00:00:00 | 00:00:00 | |
| OE5DRO-10 | 2026-09-04 00:24:10 | 49.48090 | 15.25373 | 119° | 18km/h | 23800m | 6.2m/s | -52.8°C | 3.7% | 0hPa | 2.5V | 00:00:00 | 00:00:00 | 00:00:00 | |
| DO3MHA-11 | 2026-09-04 00:24:09 | 49.48092 | 15.25368 | 120° | 11km/h | 23794m | 5.2m/s | -52.8°C | 3.7% | 0hPa | 2.5V | 00:00:00 | 01:37:22 | 00:00:00 | |
| DB0UT-7 | 2026-09-04 00:24:08 | 49.48094 | 15.25363 | 130° | 9km/h | 23788m | 6.5m/s | -52.9°C | 3.7% | 0hPa | 2.5V | 00:00:00 | 00:00:00 | 00:00:00 | |
| HA6NAB-11 | 2026-09-04 00:24:07 | 49.48094 | 15.25363 | 131° | 13km/h | 23788m | 6.5m/s | -52.9°C | 0.9% | 0hPa | 2.6V | 00:00:00 | 00:00:00 | 00:00:00 | |
| EDDB2-11 | 2026-09-04 00:24:06 | 49.48100 | 15.25359 | 165° | 4km/h | 23771m | 5.7m/s | -53.0°C | 0.9% | -1.0hPa | 2.6V | 00:00:00 | 00:00:00 | 00:00:00 | |
| OE5MMP-10 | 2026-09-04 00:24:05 | 49.48099 | 15.25359 | 166° | 20km/h | 23771m | 5.7m/s | -52.9°C | 3.8% | 0hPa | 2.6V | 00:00:00 | 01:37:18 | 00:00:00 | |
| PETON7-10 | 2026-09-04 00:24:02 | 49.48104 | 15.25354 | 148° | 20km/h | 23754m | 5.5m/s | -52.9°C | 3.7% | 0hPa | 2.6V | 00:00:00 | 00:00:00 | 00:00:00 | |
| HA6NAB-11 | 2026-09-04 00:24:01 | 49.48104 | 15.25354 | 148° | 13km/h | 23754m | 5.5m/s | -52.9°C | 0.9% | 0hPa | 2.6V | 00:00:00 | 00:00:00 | 00:00:00 | |
| DO3MHA-11 | 2026-09-04 00:23:59 | 49.48118 | 15.25340 | 139° | 22km/h | 23735m | 6.2m/s | -52.8°C | 3.7% | 0hPa | 2.6V | 00:00:00 | 01:37:12 | 00:00:00 | |
| OE5MMP-10 | 2026-09-04 00:23:55 | 49.48137 | 15.25306 | 129° | 16km/h | 23711m | 6.1m/s | -52.8°C | 3.7% | 0hPa | 2.6V | 00:00:00 | 01:37:08 | 00:00:00 | |
| OE5DRO-10 | 2026-09-04 00:23:51 | 49.48146 | 15.25279 | 93° | 13km/h | 23686m | 5.8m/s | -52.8°C | 3.7% | 0hPa | 2.6V | 00:00:00 | 00:00:00 | 00:00:00 | |
| HA6NAB-11 | 2026-09-04 00:23:50 | 49.48146 | 15.25279 | 94° | 15km/h | 23686m | 5.9m/s | -52.9°C | 0.9% | 0hPa | 2.6V | 00:00:00 | 00:00:00 | 00:00:00 | |
| DO3MHA-11 | 2026-09-04 00:23:49 | 49.48147 | 15.25269 | 102° | 15km/h | 23674m | 6.3m/s | -52.9°C | 3.7% | 0hPa | 2.6V | 00:00:00 | 01:37:02 | 00:00:00 | |
| PETON7-10 | 2026-09-04 00:23:47 | 49.48149 | 15.25260 | 129° | 15km/h | 23663m | 5.6m/s | -52.9°C | 3.7% | 0hPa | 2.5V | 00:00:00 | 01:37:00 | 00:00:00 | |
| OE5MMP-10 | 2026-09-04 00:23:45 | 49.48153 | 15.25253 | 127° | 15km/h | 23650m | 6.5m/s | -52.9°C | 3.7% | 0hPa | 2.5V | 00:00:00 | 01:36:58 | 00:00:00 | |
| HA6NAB-11 | 2026-09-04 00:23:44 | 49.48154 | 15.25253 | 128° | 15km/h | 23650m | 6.6m/s | -52.9°C | 1.0% | 0hPa | 2.6V | 00:00:00 | 00:00:00 | 00:00:00 | |
| ANDY1245 | 2026-09-04 00:23:40 | 49.48166 | 15.25233 | 139° | 20km/h | 23627m | 4.5m/s | -52.9°C | 1.0% | 0hPa | 2.6V | 00:00:00 | 00:00:00 | 00:00:00 | |
| DO3MHA-11 | 2026-09-04 00:23:39 | 49.48171 | 15.25223 | 116° | 13km/h | 23617m | 6.9m/s | -52.8°C | 3.6% | 0hPa | 2.6V | 00:00:00 | 01:36:52 | 00:00:00 | |
| SONDE2-11 | 2026-09-04 00:23:37 | 49.48172 | 15.25210 | 84° | 9km/h | 23601m | 5.2m/s | -52.8°C | 0.8% | -1.0hPa | 2.6V | 00:00:00 | 00:00:00 | 00:00:00 | |
| OE3OSB-13 | 2026-09-04 00:23:36 | 49.48172 | 15.25210 | 84° | 9km/h | 23601m | 5.2m/s | -52.8°C | 0.8% | -1.0hPa | 2.6V | 00:00:00 | 00:00:00 | 00:00:00 | |
| EDDB2-11 | 2026-09-04 00:23:35 | 49.48173 | 15.25205 | 156° | 9km/h | 23589m | 6.0m/s | -52.9°C | 0.9% | -1.0hPa | 2.6V | 00:00:00 | 00:00:00 | 00:00:00 | |
| PETON7-10 | 2026-09-04 00:23:32 | 49.48180 | 15.25204 | 194° | 15km/h | 23577m | 5.7m/s | -52.9°C | 3.7% | 0hPa | 2.6V | 00:00:00 | 00:00:00 | 08:30:00 | |
| SP3BTT-10 | 2026-09-04 00:23:31 | 49.48184 | 15.25206 | 204° | 15km/h | 23571m | 6.7m/s | -53.0°C | 3.7% | 0hPa | 2.5V | 00:00:00 | 00:00:00 | 00:00:00 | |
| ANDY1245 | 2026-09-04 00:23:30 | 49.48183 | 15.25206 | 204° | 16km/h | 23571m | 6.7m/s | -53.0°C | 1.0% | 0hPa | 2.5V | 00:00:00 | 00:00:00 | 00:00:00 | |
| DO3MHA-11 | 2026-09-04 00:23:29 | 49.48191 | 15.25211 | 194° | 16km/h | 23560m | 4.2m/s | -53.0°C | 3.6% | 0hPa | 2.5V | 00:00:00 | 01:36:42 | 00:00:00 | |
| PG1ADW-2 | 2026-09-04 00:23:25 | 49.48202 | 15.25198 | 105° | 13km/h | 23537m | 6.4m/s | -53.3°C | 3.8% | 0hPa | 2.5V | 00:00:00 | 00:00:00 | 08:30:00 | |
| DO3MHA-11 | 2026-09-04 00:23:19 | 49.48207 | 15.25166 | 167° | 11km/h | 23503m | 5.1m/s | -53.4°C | 3.9% | 0hPa | 2.5V | 00:00:00 | 01:36:32 | 00:00:00 | |
| PETON7-10 | 2026-09-04 00:23:17 | 49.48212 | 15.25166 | 188° | 11km/h | 23492m | 5.8m/s | -53.4°C | 3.9% | 0hPa | 2.5V | 00:00:00 | 00:00:00 | 00:00:00 | |
| OE5MMP-10 | 2026-09-04 00:23:15 | 49.48218 | 15.25166 | 167° | 11km/h | 23482m | 5.0m/s | -53.4°C | 3.8% | 0hPa | 2.5V | 00:00:00 | 01:36:28 | 00:00:00 | |
| NBG1-10 | 2026-09-04 00:23:14 | 49.48221 | 15.25164 | 155° | 13km/h | 23476m | 5.9m/s | -53.4°C | 3.8% | 0hPa | 2.6V | 00:00:00 | 01:36:27 | 00:00:00 | |
| OE5DRO-10 | 2026-09-04 00:23:13 | 49.48223 | 15.25162 | 143° | 13km/h | 23471m | 5.2m/s | -53.4°C | 3.8% | 0hPa | 2.6V | 00:00:00 | 00:00:00 | 00:00:00 | |
| DO3MHA-11 | 2026-09-04 00:23:09 | 49.48229 | 15.25149 | 104° | 13km/h | 23447m | 5.4m/s | -53.3°C | 3.8% | 0hPa | 2.6V | 00:00:00 | 01:36:22 | 00:00:00 | |
| OE5MMP-10 | 2026-09-04 00:23:05 | 49.48234 | 15.25136 | 124° | 16km/h | 23424m | 6.7m/s | -53.4°C | 3.8% | 0hPa | 2.6V | 00:00:00 | 01:36:18 | 00:00:00 | |
| EDDB2-11 | 2026-09-04 00:23:04 | 49.48236 | 15.25129 | 112° | 13km/h | 23412m | 4.4m/s | -53.4°C | 0.9% | -1.0hPa | 2.6V | 00:00:00 | 00:00:00 | 00:00:00 | |
| PETON7-10 | 2026-09-04 00:23:02 | 49.48238 | 15.25124 | 114° | 13km/h | 23407m | 6.2m/s | -53.4°C | 3.8% | 0hPa | 2.6V | 00:00:00 | 01:36:15 | 00:00:00 | |
| OK1SLM-15 | 2026-09-04 00:22:59 | 49.48245 | 15.25101 | 118° | 22km/h | 23389m | 4.2m/s | 0°C | 0% | 0hPa | 2.6V | 00:00:00 | 00:00:00 | 00:00:00 | |
| ANDY1245 | 2026-09-04 00:22:58 | 49.48245 | 15.25101 | 118° | 22km/h | 23389m | 4.2m/s | -53.5°C | 1.0% | 0hPa | 2.6V | 00:00:00 | 00:00:00 | 00:00:00 | |
| OE5MMP-10 | 2026-09-04 00:22:55 | 49.48251 | 15.25080 | 113° | 9km/h | 23367m | 5.7m/s | -53.4°C | 3.8% | 0hPa | 2.6V | 00:00:00 | 01:36:08 | 00:00:00 | |
| OE5DRO-10 | 2026-09-04 00:22:54 | 49.48252 | 15.25077 | 118° | 9km/h | 23360m | 6.0m/s | -53.5°C | 3.8% | 0hPa | 2.6V | 00:00:00 | 00:00:00 | 00:00:00 | |
| ANDY1245 | 2026-09-04 00:22:53 | 49.48252 | 15.25075 | 117° | 5km/h | 23355m | 5.6m/s | -53.5°C | 1.1% | 0hPa | 2.6V | 00:00:00 | 00:00:00 | 00:00:00 | |
| OE5DXL-15 | 2026-09-04 00:22:49 | 49.48254 | 15.25068 | 106° | 13km/h | 23332m | 4.3m/s | -53.4°C | 3.9% | 0hPa | 2.6V | 00:00:00 | 00:00:00 | 00:00:00 | |
| PETON7-10 | 2026-09-04 00:22:47 | 49.48256 | 15.25059 | 115° | 11km/h | 23321m | 5.7m/s | -53.4°C | 3.9% | 0hPa | 2.6V | 00:00:00 | 00:00:00 | 00:00:00 | |
| OE5MMP-10 | 2026-09-04 00:22:45 | 49.48261 | 15.25044 | 113° | 9km/h | 23311m | 5.4m/s | -53.3°C | 3.8% | 0hPa | 2.5V | 00:00:00 | 01:35:58 | 08:30:00 | |
| S52SK | 2026-09-04 00:22:42 | 49.48264 | 15.25031 | 112° | 13km/h | 23300m | 5.8m/s | -53.3°C | 1.0% | 0hPa | 2.5V | 00:00:00 | 00:00:00 | 00:00:00 | |
| NBG1-10 | 2026-09-04 00:22:41 | 49.48266 | 15.25025 | 117° | 9km/h | 23289m | 5.0m/s | -53.1°C | 3.8% | 0hPa | 2.5V | 00:00:00 | 01:35:54 | 00:00:00 | |
| DO3MHA-11 | 2026-09-04 00:22:39 | 49.48267 | 15.25021 | 103° | 9km/h | 23278m | 5.0m/s | -53.1°C | 3.8% | 0hPa | 2.5V | 00:00:00 | 01:35:52 | 00:00:00 | |
| DB0UT-7 | 2026-09-04 00:22:38 | 49.48267 | 15.25019 | 67° | 11km/h | 23273m | 5.4m/s | -53.1°C | 3.7% | 0hPa | 2.5V | 00:00:00 | 01:35:51 | 00:00:00 | |
| S52SK | 2026-09-04 00:22:36 | 49.48266 | 15.25018 | 34° | 5km/h | 23267m | 7.1m/s | -53.1°C | 1.0% | 0hPa | 2.5V | 00:00:00 | 00:00:00 | 00:00:00 | |
| SONDE2-11 | 2026-09-04 00:22:35 | 49.48262 | 15.25013 | 81° | 5km/h | 23251m | 4.8m/s | -53.1°C | 0.9% | -1.0hPa | 2.5V | 00:00:00 | 00:00:00 | 00:00:00 | |
| OE3OSB-13 | 2026-09-04 00:22:34 | 49.48262 | 15.25013 | 81° | 5km/h | 23251m | 4.8m/s | -53.1°C | 0.9% | -1.0hPa | 2.5V | 00:00:00 | 00:00:00 | 00:00:00 | |
| EDDB2-11 | 2026-09-04 00:22:33 | 49.48264 | 15.25007 | 145° | 13km/h | 23240m | 5.2m/s | -53.1°C | 0.9% | -1.0hPa | 2.5V | 00:00:00 | 00:00:00 | 00:00:00 | |
| PETON7-10 | 2026-09-04 00:22:32 | 49.48264 | 15.25007 | 146° | 9km/h | 23240m | 5.1m/s | -53.0°C | 3.7% | 0hPa | 2.5V | 00:00:00 | 00:00:00 | 00:00:00 | |
| DO3MHA-11 | 2026-09-04 00:22:29 | 49.48275 | 15.25003 | 180° | 7km/h | 23223m | 5.3m/s | -53.1°C | 3.7% | 0hPa | 2.5V | 00:00:00 | 01:35:42 | 00:00:00 | |
| OE5MMP-10 | 2026-09-04 00:22:25 | 49.48285 | 15.24998 | 110° | 9km/h | 23201m | 5.1m/s | -53.1°C | 3.7% | 0hPa | 2.5V | 00:00:00 | 01:35:38 | 00:00:00 | |
| DO3MHA-11 | 2026-09-04 00:22:19 | 49.48288 | 15.24996 | 167° | 13km/h | 23168m | 6.6m/s | -53.3°C | 3.7% | 0hPa | 2.5V | 00:00:00 | 01:35:32 | 00:00:00 | |
| PETON7-10 | 2026-09-04 00:22:17 | 49.48295 | 15.24992 | 158° | 13km/h | 23157m | 5.3m/s | -53.5°C | 3.8% | 0hPa | 2.6V | 00:00:00 | 01:35:30 | 00:00:00 | |
| OE5DRO-10 | 2026-09-04 00:22:16 | 49.48299 | 15.24990 | 159° | 11km/h | 23151m | 6.4m/s | -53.5°C | 3.8% | 0hPa | 2.6V | 00:00:00 | 00:00:00 | 00:00:00 | |
| OE5MMP-10 | 2026-09-04 00:22:15 | 49.48302 | 15.24988 | 159° | 13km/h | 23145m | 5.0m/s | -53.6°C | 3.9% | 0hPa | 2.6V | 00:00:00 | 01:35:28 | 00:00:00 | |
| ANDY1245 | 2026-09-04 00:22:13 | 49.48306 | 15.24985 | 158° | 15km/h | 23140m | 5.4m/s | -53.6°C | 1.0% | 0hPa | 2.7V | 00:00:00 | 00:00:00 | 00:00:00 | |
| DO3MHA-11 | 2026-09-04 00:22:09 | 49.48319 | 15.24981 | 231° | 11km/h | 23113m | 6.3m/s | -53.6°C | 3.8% | 0hPa | 2.7V | 00:00:00 | 01:35:22 | 00:00:00 | |
| DB0UT-7 | 2026-09-04 00:22:08 | 49.48320 | 15.24984 | 238° | 9km/h | 23107m | 5.1m/s | -53.6°C | 3.8% | 0hPa | 2.7V | 00:00:00 | 00:00:00 | 00:00:00 | |
| ANDY1245 | 2026-09-04 00:22:07 | 49.48320 | 15.24984 | 238° | 13km/h | 23107m | 5.1m/s | -53.7°C | 1.1% | 0hPa | 2.7V | 00:00:00 | 00:00:00 | 00:00:00 | |
| OE5MMP-10 | 2026-09-04 00:22:05 | 49.48327 | 15.24994 | 196° | 9km/h | 23091m | 4.3m/s | -53.7°C | 3.8% | 0hPa | 2.7V | 00:00:00 | 01:35:18 | 00:00:00 | |
| OE3OSB-13 | 2026-09-04 00:22:04 | 49.48333 | 15.24994 | 162° | 9km/h | 23081m | 5.9m/s | -53.8°C | 0.9% | -1.0hPa | 2.7V | 00:00:00 | 00:00:00 | 00:00:00 | |
| ANDY1245 | 2026-09-04 00:22:03 | 49.48332 | 15.24994 | 164° | 9km/h | 23081m | 5.9m/s | -53.8°C | 1.1% | 0hPa | 2.7V | 00:00:00 | 00:00:00 | 00:00:00 | |
| EDDB2-11 | 2026-09-04 00:22:02 | 49.48337 | 15.24990 | 137° | 9km/h | 23069m | 5.8m/s | -53.8°C | 0.9% | -1.0hPa | 2.7V | 00:00:00 | 00:00:00 | 00:00:00 | |
| DL6DJ-15 | 2026-09-04 00:21:51 | 49.48352 | 15.24932 | 122° | 11km/h | 22980m | 5.4m/s | -53.9°C | 0.9% | -1.0hPa | 2.7V | 00:00:00 | 00:00:00 | 00:00:00 | |
| ANDY1245 | 2026-09-04 00:21:50 | 49.48346 | 15.24960 | 106° | 15km/h | 23015m | 5.2m/s | -53.9°C | 1.1% | 0hPa | 2.7V | 00:00:00 | 00:00:00 | 00:00:00 | |
| DO3MHA-11 | 2026-09-04 00:21:49 | 49.48347 | 15.24950 | 98° | 11km/h | 23003m | 5.5m/s | -53.9°C | 3.8% | 0hPa | 2.7V | 00:00:00 | 01:35:02 | 00:00:00 | |
| PETON7-10 | 2026-09-04 00:21:47 | 49.48349 | 15.24941 | 115° | 13km/h | 22992m | 6.4m/s | -53.8°C | 3.8% | 0hPa | 2.5V | 00:00:00 | 00:00:00 | 00:00:00 | |
| OE5MMP-10 | 2026-09-04 00:21:45 | 49.48352 | 15.24932 | 123° | 13km/h | 22980m | 5.3m/s | -53.8°C | 3.8% | 0hPa | 2.5V | 00:00:00 | 01:34:58 | 00:00:00 | |
| ANDY1245 | 2026-09-04 00:21:44 | 49.48352 | 15.24932 | 123° | 13km/h | 22980m | 5.4m/s | -53.9°C | 1.1% | 0hPa | 2.6V | 00:00:00 | 00:00:00 | 00:00:00 | |
| DO3MHA-11 | 2026-09-04 00:21:39 | 49.48354 | 15.24906 | 97° | 15km/h | 22945m | 5.5m/s | -54.3°C | 3.9% | 0hPa | 2.6V | 00:00:00 | 01:34:52 | 00:00:00 | |
| OE5DRO-10 | 2026-09-04 00:21:38 | 49.48355 | 15.24901 | 95° | 11km/h | 22939m | 5.6m/s | -54.3°C | 3.9% | 0hPa | 2.6V | 00:00:00 | 00:00:00 | 08:30:00 | |
| OE5MMP-10 | 2026-09-04 00:21:35 | 49.48356 | 15.24883 | 110° | 13km/h | 22923m | 4.5m/s | -54.4°C | 3.9% | 0hPa | 2.7V | 00:00:00 | 01:34:48 | 00:00:00 | |
| PETON7-10 | 2026-09-04 00:21:32 | 49.48363 | 15.24869 | 136° | 11km/h | 22907m | 5.0m/s | -54.6°C | 4.0% | 0hPa | 2.7V | 00:00:00 | 01:34:45 | 00:00:00 | |
| SP3BTT-10 | 2026-09-04 00:21:30 | 49.48368 | 15.24860 | 118° | 16km/h | 22895m | 5.5m/s | -54.6°C | 4.0% | 0hPa | 2.7V | 00:00:00 | 00:00:00 | 00:00:00 | |
| DO3MHA-11 | 2026-09-04 00:21:29 | 49.48369 | 15.24856 | 111° | 9km/h | 22890m | 4.3m/s | -54.7°C | 4.0% | 0hPa | 2.7V | 00:00:00 | 01:34:42 | 00:00:00 | |
| PG1ADW-2 | 2026-09-04 00:21:25 | 49.48372 | 15.24843 | 98° | 9km/h | 22869m | 5.3m/s | -54.8°C | 4.0% | 0hPa | 2.7V | 00:00:00 | 01:34:38 | 00:00:00 | |
| OE5DXL-15 | 2026-09-04 00:21:21 | 49.48369 | 15.24832 | 91° | 7km/h | 22846m | 6.5m/s | -54.8°C | 4.0% | 0hPa | 2.5V | 00:00:00 | 00:00:00 | 00:00:00 | |
| DL6DJ-15 | 2026-09-04 00:21:20 | 49.48371 | 15.24823 | 106° | 11km/h | 22834m | 4.5m/s | -54.8°C | 0.9% | -1.0hPa | 2.7V | 00:00:00 | 00:00:00 | 00:00:00 | |
| OE5DRO-10 | 2026-09-04 00:21:19 | 49.48371 | 15.24823 | 107° | 7km/h | 22834m | 4.5m/s | -54.8°C | 4.0% | 0hPa | 2.7V | 00:00:00 | 00:00:00 | 00:00:00 | |
| PETON7-10 | 2026-09-04 00:21:17 | 49.48372 | 15.24814 | 98° | 7km/h | 22823m | 5.7m/s | -54.8°C | 4.0% | 0hPa | 2.7V | 00:00:00 | 00:00:00 | 08:30:00 | |
| OE5MMP-10 | 2026-09-04 00:21:15 | 49.48373 | 15.24809 | 148° | 7km/h | 22813m | 5.5m/s | -54.8°C | 4.0% | 0hPa | 2.5V | 00:00:00 | 01:34:28 | 08:30:00 | |
| ANDY1245 | 2026-09-04 00:21:12 | 49.48379 | 15.24809 | 179° | 9km/h | 22797m | 4.6m/s | -54.9°C | 1.1% | 0hPa | 2.5V | 00:00:00 | 00:00:00 | 00:00:00 | |
| DO3MHA-11 | 2026-09-04 00:21:09 | 49.48384 | 15.24805 | 131° | 5km/h | 22781m | 4.1m/s | -54.8°C | 4.0% | 0hPa | 2.5V | 00:00:00 | 01:34:22 | 00:00:00 | |
| ANDY1245 | 2026-09-04 00:21:06 | 49.48387 | 15.24802 | 175° | 5km/h | 22769m | 6.8m/s | -54.9°C | 1.1% | 0hPa | 2.5V | 00:00:00 | 00:00:00 | 00:00:00 | |
| PG1ADW-2 | 2026-09-04 00:21:05 | 49.48390 | 15.24804 | 233° | 9km/h | 22758m | 6.2m/s | -54.9°C | 4.0% | 0hPa | 2.5V | 00:00:00 | 00:00:00 | 00:00:00 | |
| SONDE2-11 | 2026-09-04 00:21:02 | 49.48391 | 15.24811 | 236° | 5km/h | 22735m | 6.7m/s | -55.1°C | 1.0% | -1.0hPa | 2.5V | 00:00:00 | 00:00:00 | 00:00:00 | |
| OE3OSB-13 | 2026-09-04 00:21:01 | 49.48391 | 15.24811 | 236° | 5km/h | 22735m | 6.7m/s | -55.1°C | 1.0% | -1.0hPa | 2.5V | 00:00:00 | 00:00:00 | 00:00:00 | |
| EDDB2-11 | 2026-09-04 00:21:00 | 49.48394 | 15.24815 | 217° | 7km/h | 22723m | 5.5m/s | -55.2°C | 1.0% | -1.0hPa | 2.5V | 00:00:00 | 00:00:00 | 00:00:00 | |
| DL6DJ-15 | 2026-09-04 00:20:49 | 49.48418 | 15.24831 | 221° | 18km/h | 22648m | 3.3m/s | -55.3°C | 1.0% | -1.0hPa | 2.5V | 00:00:00 | 00:00:00 | 00:00:00 | |
| PETON7-10 | 2026-09-04 00:20:47 | 49.48415 | 15.24825 | 230° | 16km/h | 22652m | 4.9m/s | -55.3°C | 4.2% | 0hPa | 2.5V | 00:00:00 | 01:34:00 | 00:00:00 | |
| PG1ADW-2 | 2026-09-04 00:20:45 | 49.48422 | 15.24835 | 215° | 16km/h | 22644m | 5.5m/s | -55.2°C | 4.1% | 0hPa | 2.5V | 00:00:00 | 00:00:00 | 00:00:00 | |
| S52SK | 2026-09-04 00:20:44 | 49.48422 | 15.24835 | 215° | 16km/h | 22644m | 5.5m/s | -55.3°C | 1.1% | 0hPa | 2.5V | 00:00:00 | 00:00:00 | 00:00:00 | |
| OE5DRO-10 | 2026-09-04 00:20:41 | 49.48433 | 15.24832 | 140° | 18km/h | 22619m | 7.1m/s | -55.2°C | 4.1% | 0hPa | 2.5V | 00:00:00 | 00:00:00 | 00:00:00 | |
| DO3MHA-11 | 2026-09-04 00:20:39 | 49.48439 | 15.24823 | 132° | 16km/h | 22606m | 5.8m/s | -55.2°C | 4.1% | 0hPa | 2.5V | 00:00:00 | 01:33:52 | 00:00:00 | |
| OE5MMP-10 | 2026-09-04 00:20:35 | 49.48451 | 15.24802 | 151° | 18km/h | 22583m | 6.9m/s | -55.3°C | 4.1% | 0hPa | 2.5V | 00:00:00 | 01:33:48 | 00:00:00 | |
| PETON7-10 | 2026-09-04 00:20:32 | 49.48463 | 15.24800 | 179° | 16km/h | 22566m | 5.3m/s | -55.3°C | 4.2% | 0hPa | 2.5V | 00:00:00 | 00:00:00 | 00:00:00 | |
| SONDE2-11 | 2026-09-04 00:20:31 | 49.48470 | 15.24798 | 152° | 13km/h | 22554m | 5.6m/s | -55.4°C | 1.0% | -1.0hPa | 2.5V | 00:00:00 | 00:00:00 | 00:00:00 | |
| OE3OSB-13 | 2026-09-04 00:20:30 | 49.48470 | 15.24798 | 152° | 13km/h | 22554m | 5.6m/s | -55.4°C | 1.0% | -1.0hPa | 2.5V | 00:00:00 | 00:00:00 | 00:00:00 | |
| EDDB2-11 | 2026-09-04 00:20:29 | 49.48477 | 15.24790 | 136° | 18km/h | 22542m | 6.5m/s | -55.4°C | 1.0% | -1.0hPa | 2.5V | 00:00:00 | 00:00:00 | 00:00:00 | |
| PG1ADW-2 | 2026-09-04 00:20:25 | 49.48487 | 15.24771 | 123° | 20km/h | 22525m | 5.7m/s | -55.4°C | 4.2% | 0hPa | 2.5V | 00:00:00 | 00:00:00 | 08:30:00 | |
| DB0UT-7 | 2026-09-04 00:20:24 | 49.48489 | 15.24764 | 116° | 16km/h | 22519m | 6.2m/s | -55.4°C | 4.2% | 0hPa | 2.5V | 00:00:00 | 00:00:00 | 00:00:00 | |
| OE5DRO-10 | 2026-09-04 00:20:22 | 49.48493 | 15.24752 | 126° | 20km/h | 22507m | 6.5m/s | -55.4°C | 4.2% | 0hPa | 2.5V | 00:00:00 | 00:00:00 | 00:00:00 | |
| OE5DXL-15 | 2026-09-04 00:20:21 | 49.48496 | 15.24748 | 137° | 22km/h | 22500m | 6.7m/s | -55.4°C | 4.2% | 0hPa | 2.5V | 00:00:00 | 00:00:00 | 00:00:00 | |
| DO3MHA-11 | 2026-09-04 00:20:19 | 49.48501 | 15.24740 | 125° | 24km/h | 22490m | 5.2m/s | -55.4°C | 4.2% | 0hPa | 2.5V | 00:00:00 | 01:33:32 | 00:00:00 | |
| PETON7-10 | 2026-09-04 00:20:17 | 49.48504 | 15.24728 | 105° | 20km/h | 22478m | 5.6m/s | -55.3°C | 4.2% | 0hPa | 2.5V | 00:00:00 | 00:00:00 | 00:00:00 | |
| OE5MMP-10 | 2026-09-04 00:20:15 | 49.48507 | 15.24712 | 109° | 22km/h | 22465m | 7.1m/s | -55.3°C | 4.1% | 0hPa | 2.5V | 00:00:00 | 01:33:28 | 00:00:00 | |
| DO3MHA-11 | 2026-09-04 00:20:09 | 49.48514 | 15.24648 | 90° | 16km/h | 22429m | 5.8m/s | -55.2°C | 4.2% | 0hPa | 2.5V | 00:00:00 | 01:33:22 | 00:00:00 | |
| OE5MMP-10 | 2026-09-04 00:20:05 | 49.48511 | 15.24629 | 47° | 24km/h | 22405m | 6.3m/s | -55.3°C | 4.2% | 0hPa | 2.5V | 00:00:00 | 01:33:18 | 00:00:00 | |
| OE5DRO-10 | 2026-09-04 00:20:03 | 49.48507 | 15.24620 | 68° | 24km/h | 22394m | 5.3m/s | -55.4°C | 4.2% | 0hPa | 2.5V | 00:00:00 | 00:00:00 | 00:00:00 | |
| PETON7-10 | 2026-09-04 00:20:02 | 49.48506 | 15.24614 | 84° | 26km/h | 22388m | 6.8m/s | -55.4°C | 4.2% | 0hPa | 2.5V | 00:00:00 | 01:33:15 | 00:00:00 | |
| OE3OSB-13 | 2026-09-04 00:19:59 | 49.48506 | 15.24587 | 89° | 29km/h | 22370m | 6.3m/s | -55.4°C | 1.0% | -1.0hPa | 2.5V | 00:00:00 | 00:00:00 | 00:00:00 | |
| EDDB2-11 | 2026-09-04 00:19:57 | 49.48505 | 15.24562 | 80° | 33km/h | 22358m | 5.3m/s | -55.4°C | 1.0% | -1.0hPa | 2.5V | 00:00:00 | 00:00:00 | 00:00:00 | |
| DL6DJ-15 | 2026-09-04 00:19:46 | 49.48485 | 15.24465 | 72° | 16km/h | 22294m | 6.3m/s | -55.3°C | 1.0% | -1.0hPa | 2.5V | 00:00:00 | 00:00:00 | 00:00:00 | |
| PG1ADW-2 | 2026-09-04 00:19:45 | 49.48483 | 15.24459 | 66° | 20km/h | 22288m | 6.5m/s | -55.2°C | 4.2% | 0hPa | 2.5V | 00:00:00 | 00:00:00 | 00:00:00 | |
| OE5DRO-10 | 2026-09-04 00:19:44 | 49.48481 | 15.24452 | 63° | 20km/h | 22281m | 5.6m/s | -55.2°C | 4.2% | 0hPa | 2.5V | 00:00:00 | 00:00:00 | 00:00:00 | |
| DO3MHA-11 | 2026-09-04 00:19:39 | 49.48469 | 15.24412 | 67° | 18km/h | 22253m | 6.9m/s | -55.0°C | 4.2% | 0hPa | 2.7V | 00:00:00 | 01:32:52 | 00:00:00 | |
| OE5MMP-10 | 2026-09-04 00:19:35 | 49.48458 | 15.24379 | 52° | 15km/h | 22230m | 4.8m/s | -55.0°C | 4.2% | 0hPa | 2.7V | 00:00:00 | 01:32:48 | 00:00:00 | |
| SP3BTT-10 | 2026-09-04 00:19:29 | 49.48439 | 15.24368 | 23° | 9km/h | 22194m | 5.0m/s | -54.7°C | 4.1% | 0hPa | 2.7V | 00:00:00 | 00:00:00 | 00:00:00 | |
| OE3OSB-13 | 2026-09-04 00:19:28 | 49.48432 | 15.24362 | 36° | 18km/h | 22183m | 6.7m/s | -54.7°C | 1.0% | -1.0hPa | 2.5V | 00:00:00 | 00:00:00 | 00:00:00 | |
| EDDB2-11 | 2026-09-04 00:19:26 | 49.48428 | 15.24357 | 39° | 20km/h | 22177m | 5.4m/s | -54.7°C | 1.0% | -1.0hPa | 2.5V | 00:00:00 | 00:00:00 | 00:00:00 | |
| PG1ADW-2 | 2026-09-04 00:19:25 | 49.48424 | 15.24351 | 39° | 20km/h | 22171m | 5.3m/s | -54.6°C | 4.1% | 0hPa | 2.5V | 00:00:00 | 00:00:00 | 00:00:00 | |
| NBG1-10 | 2026-09-04 00:19:23 | 49.48416 | 15.24342 | 34° | 18km/h | 22159m | 6.0m/s | -54.5°C | 4.0% | 0hPa | 2.7V | 00:00:00 | 01:32:36 | 00:00:00 | |
| OE5DXL-15 | 2026-09-04 00:19:21 | 49.48408 | 15.24336 | 23° | 18km/h | 22147m | 6.1m/s | -54.5°C | 4.1% | 0hPa | 2.7V | 00:00:00 | 00:00:00 | 00:00:00 | |
| DO3MHA-11 | 2026-09-04 00:19:19 | 49.48400 | 15.24332 | 18° | 16km/h | 22135m | 5.5m/s | -54.5°C | 4.1% | 0hPa | 2.7V | 00:00:00 | 01:32:32 | 00:00:00 | |
| PETON7-10 | 2026-09-04 00:19:17 | 49.48394 | 15.24329 | 18° | 20km/h | 22123m | 5.8m/s | -54.5°C | 4.1% | 0hPa | 2.5V | 00:00:00 | 01:32:30 | 00:00:00 | |
| OE5MMP-10 | 2026-09-04 00:19:15 | 49.48389 | 15.24325 | 28° | 24km/h | 22112m | 5.9m/s | -54.5°C | 4.1% | 0hPa | 2.5V | 00:00:00 | 01:32:28 | 00:00:00 | |
| DB0UT-7 | 2026-09-04 00:19:12 | 49.48376 | 15.24315 | 31° | 18km/h | 22094m | 5.9m/s | -54.4°C | 4.1% | 0hPa | 2.5V | 00:00:00 | 01:32:25 | 00:00:00 | |
| DO3MHA-11 | 2026-09-04 00:19:09 | 49.48360 | 15.24302 | 24° | 22km/h | 22078m | 5.1m/s | -54.3°C | 4.1% | 0hPa | 2.5V | 00:00:00 | 01:32:22 | 00:00:00 | |
| OE5DRO-10 | 2026-09-04 00:19:06 | 49.48340 | 15.24292 | 15° | 18km/h | 22061m | 5.2m/s | -54.3°C | 4.1% | 0hPa | 2.5V | 00:00:00 | 00:00:00 | 00:00:00 | |
| OE5MMP-10 | 2026-09-04 00:19:05 | 49.48335 | 15.24290 | 11° | 16km/h | 22055m | 6.4m/s | -54.3°C | 4.1% | 0hPa | 2.5V | 00:00:00 | 01:32:18 | 00:00:00 | |
| PETON7-10 | 2026-09-04 00:19:02 | 49.48322 | 15.24292 | 338° | 16km/h | 22038m | 7.3m/s | -54.2°C | 4.1% | 0hPa | 2.5V | 00:00:00 | 00:00:00 | 08:30:00 | |
| OE3OSB-13 | 2026-09-04 00:18:57 | 49.48300 | 15.24312 | 336° | 16km/h | 22003m | 7.1m/s | -54.0°C | 1.0% | -1.0hPa | 2.5V | 00:00:00 | 00:00:00 | 00:00:00 | |
| EDDB2-11 | 2026-09-04 00:18:56 | 49.48296 | 15.24314 | 345° | 18km/h | 21997m | 5.3m/s | -54.0°C | 1.0% | -1.0hPa | 2.5V | 00:00:00 | 00:00:00 | 00:00:00 | |
| OE5MMP-10 | 2026-09-04 00:18:55 | 49.48296 | 15.24314 | 346° | 18km/h | 21997m | 5.3m/s | -53.9°C | 4.0% | 0hPa | 2.5V | 00:00:00 | 01:32:08 | 00:00:00 | |
| OE5DXL-15 | 2026-09-04 00:18:51 | 49.48277 | 15.24311 | 23° | 13km/h | 21974m | 5.5m/s | -53.7°C | 4.0% | 0hPa | 2.5V | 00:00:00 | 00:00:00 | 00:00:00 | |
| NBG1-10 | 2026-09-04 00:18:50 | 49.48273 | 15.24309 | 18° | 13km/h | 21969m | 4.8m/s | -53.7°C | 4.0% | 0hPa | 2.5V | 00:00:00 | 01:32:03 | 08:30:00 | |
| DO3MHA-11 | 2026-09-04 00:18:49 | 49.48270 | 15.24308 | 360° | 16km/h | 21963m | 6.5m/s | -53.7°C | 3.9% | 0hPa | 2.5V | 00:00:00 | 01:32:02 | 00:00:00 | |
| PETON7-10 | 2026-09-04 00:18:47 | 49.48262 | 15.24313 | 318° | 13km/h | 21952m | 4.6m/s | -53.7°C | 4.0% | 0hPa | 2.7V | 00:00:00 | 00:00:00 | 00:00:00 | |
| PG1ADW-2 | 2026-09-04 00:18:45 | 49.48257 | 15.24323 | 300° | 13km/h | 21941m | 6.7m/s | -53.6°C | 3.9% | 0hPa | 2.7V | 00:00:00 | 01:31:58 | 00:00:00 | |
| ANDY1245 | 2026-09-04 00:18:43 | 49.48254 | 15.24334 | 299° | 15km/h | 21930m | 4.4m/s | -53.6°C | 1.1% | 0hPa | 2.7V | 00:00:00 | 00:00:00 | 00:00:00 | |
| DB0UT-7 | 2026-09-04 00:18:42 | 49.48252 | 15.24338 | 309° | 7km/h | 21925m | 6.0m/s | -53.5°C | 3.9% | 0hPa | 2.7V | 00:00:00 | 00:00:00 | 00:00:00 | |
| DO3MHA-11 | 2026-09-04 00:18:39 | 49.48242 | 15.24350 | 325° | 9km/h | 21908m | 5.1m/s | -53.5°C | 3.9% | 0hPa | 2.7V | 00:00:00 | 01:31:52 | 00:00:00 | |
| ANDY1245 | 2026-09-04 00:18:37 | 49.48240 | 15.24353 | 323° | 13km/h | 21902m | 7.2m/s | -53.6°C | 1.1% | 0hPa | 2.7V | 00:00:00 | 00:00:00 | 00:00:00 | |
| OE5MMP-10 | 2026-09-04 00:18:35 | 49.48235 | 15.24359 | 340° | 11km/h | 21884m | 6.9m/s | -53.5°C | 3.9% | 0hPa | 2.7V | 00:00:00 | 01:31:48 | 00:00:00 | |
| PETON7-10 | 2026-09-04 00:18:32 | 49.48231 | 15.24363 | 288° | 13km/h | 21868m | 5.9m/s | -53.4°C | 3.9% | 0hPa | 2.7V | 00:00:00 | 01:31:45 | 00:00:00 | |
| DO3MHA-11 | 2026-09-04 00:18:29 | 49.48231 | 15.24375 | 274° | 15km/h | 21851m | 6.0m/s | -53.3°C | 3.8% | 0hPa | 2.7V | 00:00:00 | 01:31:42 | 00:00:00 | |
| OE5DRO-10 | 2026-09-04 00:18:28 | 49.48230 | 15.24381 | 283° | 13km/h | 21844m | 6.2m/s | -53.3°C | 3.8% | 0hPa | 2.7V | 00:00:00 | 00:00:00 | 00:00:00 | |
| OE3OSB-13 | 2026-09-04 00:18:26 | 49.48227 | 15.24400 | 283° | 16km/h | 21827m | 5.8m/s | -53.2°C | 0.9% | -1.0hPa | 2.7V | 00:00:00 | 00:00:00 | 00:00:00 | |
| EDDB2-11 | 2026-09-04 00:18:25 | 49.48226 | 15.24406 | 284° | 15km/h | 21822m | 4.9m/s | -53.2°C | 0.9% | -1.0hPa | 2.7V | 00:00:00 | 00:00:00 | 00:00:00 | |
| OE5DXL-15 | 2026-09-04 00:18:21 | 49.48222 | 15.24419 | 297° | 9km/h | 21806m | 4.0m/s | -53.0°C | 3.8% | 0hPa | 2.7V | 00:00:00 | 00:00:00 | 08:30:00 | |
| DO3MHA-11 | 2026-09-04 00:18:19 | 49.48222 | 15.24425 | 256° | 11km/h | 21796m | 5.9m/s | -53.0°C | 3.6% | 0hPa | 2.5V | 00:00:00 | 01:31:32 | 08:30:00 | |
| PETON7-10 | 2026-09-04 00:18:17 | 49.48224 | 15.24434 | 255° | 9km/h | 21786m | 4.8m/s | -52.9°C | 3.7% | 0hPa | 2.5V | 00:00:00 | 00:00:00 | 00:00:00 | |
| OE5MMP-10 | 2026-09-04 00:18:15 | 49.48224 | 15.24444 | 273° | 9km/h | 21774m | 5.7m/s | -52.9°C | 3.6% | 0hPa | 2.7V | 00:00:00 | 01:31:28 | 08:30:00 | |
| HA6NAB-11 | 2026-09-04 00:18:13 | 49.48224 | 15.24448 | 275° | 11km/h | 21769m | 5.0m/s | -53.0°C | 1.0% | 0hPa | 2.7V | 00:00:00 | 00:00:00 | 00:00:00 | |
| OE5DRO-10 | 2026-09-04 00:18:09 | 49.48224 | 15.24466 | 310° | 7km/h | 21743m | 6.3m/s | -53.2°C | 3.7% | 0hPa | 2.7V | 00:00:00 | 00:00:00 | 00:00:00 | |
| HA6NAB-11 | 2026-09-04 00:18:07 | 49.48223 | 15.24466 | 15° | 5km/h | 21737m | 5.3m/s | -53.3°C | 1.1% | 0hPa | 2.7V | 00:00:00 | 00:00:00 | 00:00:00 | |
| PG1ADW-2 | 2026-09-04 00:18:05 | 49.48222 | 15.24460 | 124° | 9km/h | 21722m | 5.4m/s | -53.3°C | 3.8% | 0hPa | 2.7V | 00:00:00 | 00:00:00 | 00:00:00 | |
| PETON7-10 | 2026-09-04 00:18:02 | 49.48228 | 15.24459 | 220° | 9km/h | 21707m | 4.4m/s | -53.4°C | 3.7% | 0hPa | 2.7V | 00:00:00 | 00:00:00 | 00:00:00 | |
| OE3OSB-13 | 2026-09-04 00:17:55 | 49.48219 | 15.24466 | 36° | 7km/h | 21665m | 6.4m/s | -53.8°C | 1.0% | -1.0hPa | 2.7V | 00:00:00 | 00:00:00 | 00:00:00 | |
| EDDB2-11 | 2026-09-04 00:17:53 | 49.48218 | 15.24464 | 52° | 7km/h | 21660m | 4.4m/s | -53.7°C | 0.9% | -1.0hPa | 2.7V | 00:00:00 | 00:00:00 | 00:00:00 | |
| OE5DXL-15 | 2026-09-04 00:17:51 | 49.48217 | 15.24458 | 113° | 7km/h | 21650m | 6.1m/s | -53.7°C | 3.8% | 0hPa | 2.7V | 00:00:00 | 00:00:00 | 00:00:00 | |
| DO3MHA-11 | 2026-09-04 00:17:49 | 49.48221 | 15.24451 | 126° | 7km/h | 21639m | 5.1m/s | -53.7°C | 3.8% | 0hPa | 2.7V | 00:00:00 | 01:31:02 | 00:00:00 | |
| PETON7-10 | 2026-09-04 00:17:47 | 49.48223 | 15.24442 | 103° | 7km/h | 21629m | 4.1m/s | -53.7°C | 3.8% | 0hPa | 2.5V | 00:00:00 | 01:31:00 | 00:00:00 | |
| PG1ADW-2 | 2026-09-04 00:17:45 | 49.48223 | 15.24439 | 345° | 7km/h | 21619m | 5.5m/s | -53.9°C | 3.8% | 0hPa | 2.5V | 00:00:00 | 00:00:00 | 00:00:00 | |
| NBG1-10 | 2026-09-04 00:17:44 | 49.48223 | 15.24440 | 309° | 9km/h | 21614m | 5.3m/s | -54.0°C | 3.9% | 0hPa | 2.5V | 00:00:00 | 01:30:57 | 00:00:00 | |
| ANDY1245 | 2026-09-04 00:17:39 | 49.48216 | 15.24452 | 285° | 9km/h | 21586m | 5.6m/s | -54.3°C | 1.2% | 0hPa | 2.5V | 00:00:00 | 00:00:00 | 00:00:00 | |
| OE5MMP-10 | 2026-09-04 00:17:35 | 49.48219 | 15.24458 | 161° | 7km/h | 21565m | 5.2m/s | -54.5°C | 4.1% | 0hPa | 2.5V | 00:00:00 | 01:30:48 | 00:00:00 | |
| ANDY1245 | 2026-09-04 00:17:33 | 49.48221 | 15.24457 | 156° | 7km/h | 21560m | 4.6m/s | -54.6°C | 1.2% | 0hPa | 2.5V | 00:00:00 | 00:00:00 | 00:00:00 | |
| OE5DRO-10 | 2026-09-04 00:17:31 | 49.48225 | 15.24454 | 147° | 9km/h | 21544m | 5.0m/s | -54.6°C | 4.1% | 0hPa | 2.5V | 00:00:00 | 00:00:00 | 00:00:00 | |
| DB0UT-7 | 2026-09-04 00:17:29 | 49.48227 | 15.24452 | 152° | 11km/h | 21534m | 4.2m/s | -54.5°C | 4.1% | 0hPa | 2.5V | 00:00:00 | 01:30:42 | 00:00:00 | |
| SP3BTT-10 | 2026-09-04 00:17:28 | 49.48228 | 15.24452 | 190° | 16km/h | 21530m | 4.3m/s | -54.5°C | 4.1% | 0hPa | 2.5V | 00:00:00 | 00:00:00 | 00:00:00 | |
| OE3OSB-13 | 2026-09-04 00:17:24 | 49.48241 | 15.24452 | 130° | 9km/h | 21504m | 5.1m/s | -54.4°C | 1.0% | -1.0hPa | 2.5V | 00:00:00 | 00:00:00 | 00:00:00 | |
| EDDB2-11 | 2026-09-04 00:17:22 | 49.48242 | 15.24448 | 105° | 9km/h | 21500m | 4.2m/s | -54.4°C | 1.0% | -1.0hPa | 2.5V | 00:00:00 | 00:00:00 | 00:00:00 | |
| OE5DXL-15 | 2026-09-04 00:17:21 | 49.48242 | 15.24444 | 94° | 11km/h | 21495m | 5.0m/s | -54.3°C | 4.0% | 0hPa | 2.5V | 00:00:00 | 00:00:00 | 00:00:00 | |
| DO3MHA-11 | 2026-09-04 00:17:19 | 49.48242 | 15.24436 | 92° | 11km/h | 21486m | 4.2m/s | -54.3°C | 4.0% | 0hPa | 2.5V | 00:00:00 | 01:30:32 | 00:00:00 | |
| PETON7-10 | 2026-09-04 00:17:17 | 49.48243 | 15.24426 | 112° | 11km/h | 21476m | 5.7m/s | -54.4°C | 4.0% | 0hPa | 2.5V | 00:00:00 | 00:00:00 | 00:00:00 | |
| OE5MMP-10 | 2026-09-04 00:17:15 | 49.48247 | 15.24418 | 141° | 9km/h | 21467m | 4.4m/s | -54.5°C | 4.1% | 0hPa | 2.5V | 00:00:00 | 01:30:28 | 00:00:00 | |
| OE5DRO-10 | 2026-09-04 00:17:12 | 49.48253 | 15.24419 | 212° | 11km/h | 21452m | 4.3m/s | -54.5°C | 4.2% | 0hPa | 2.7V | 00:00:00 | 00:00:00 | 00:00:00 | |
| NBG1-10 | 2026-09-04 00:17:11 | 49.48255 | 15.24420 | 202° | 13km/h | 21447m | 5.7m/s | -54.4°C | 4.2% | 0hPa | 2.7V | 00:00:00 | 01:30:24 | 00:00:00 | |
| OE5MMP-10 | 2026-09-04 00:17:05 | 49.48267 | 15.24414 | 145° | 13km/h | 21416m | 6.0m/s | -54.2°C | 4.0% | 0hPa | 2.7V | 00:00:00 | 01:30:18 | 00:00:00 | |
| ANDY1245 | 2026-09-04 00:17:03 | 49.48269 | 15.24412 | 155° | 13km/h | 21410m | 5.3m/s | -54.2°C | 1.1% | 0hPa | 2.7V | 00:00:00 | 00:00:00 | 00:00:00 | |
| PETON7-10 | 2026-09-04 00:17:02 | 49.48275 | 15.24409 | 172° | 13km/h | 21399m | 5.9m/s | -54.1°C | 4.0% | 0hPa | 2.7V | 00:00:00 | 01:30:15 | 00:00:00 | |
| SONDE2-11 | 2026-09-04 00:16:53 | 49.48304 | 15.24404 | 160° | 13km/h | 21346m | 5.2m/s | -54.1°C | 1.0% | -1.0hPa | 2.7V | 00:00:00 | 00:00:00 | 00:00:00 | |
| OE3OSB-13 | 2026-09-04 00:16:52 | 49.48304 | 15.24404 | 160° | 13km/h | 21346m | 5.2m/s | -54.1°C | 1.0% | -1.0hPa | 2.7V | 00:00:00 | 00:00:00 | 00:00:00 | |
| OE5DXL-15 | 2026-09-04 00:16:51 | 49.48308 | 15.24402 | 162° | 18km/h | 21341m | 5.8m/s | -54.1°C | 3.9% | 0hPa | 2.7V | 00:00:00 | 00:00:00 | 00:00:00 | |
| DO3MHA-11 | 2026-09-04 00:16:49 | 49.48314 | 15.24399 | 167° | 16km/h | 21329m | 4.5m/s | -54.1°C | 4.0% | 0hPa | 2.5V | 00:00:00 | 01:30:02 | 08:30:00 | |
| PETON7-10 | 2026-09-04 00:16:47 | 49.48321 | 15.24396 | 166° | 18km/h | 21319m | 6.0m/s | -54.1°C | 4.0% | 0hPa | 2.5V | 00:00:00 | 00:00:00 | 08:30:00 | |
| PG1ADW-2 | 2026-09-04 00:16:45 | 49.48331 | 15.24393 | 169° | 20km/h | 21309m | 4.6m/s | -54.1°C | 4.0% | 0hPa | 2.7V | 00:00:00 | 00:00:00 | 00:00:00 | |
| DO3MHA-11 | 2026-09-04 00:16:39 | 49.48356 | 15.24388 | 163° | 22km/h | 21278m | 4.5m/s | -54.2°C | 4.0% | 0hPa | 2.7V | 00:00:00 | 01:29:52 | 00:00:00 | |
| NBG1-10 | 2026-09-04 00:16:38 | 49.48361 | 15.24386 | 165° | 18km/h | 21273m | 4.6m/s | -54.2°C | 4.0% | 0hPa | 2.7V | 00:00:00 | 01:29:51 | 00:00:00 | |
| OE5MMP-10 | 2026-09-04 00:16:35 | 49.48375 | 15.24385 | 191° | 22km/h | 21257m | 4.1m/s | -54.2°C | 4.0% | 0hPa | 2.7V | 00:00:00 | 01:29:48 | 00:00:00 | |
| OE5DRO-10 | 2026-09-04 00:16:34 | 49.48381 | 15.24386 | 193° | 18km/h | 21252m | 4.7m/s | -54.2°C | 4.0% | 0hPa | 2.7V | 00:00:00 | 00:00:00 | 00:00:00 | |
| PETON7-10 | 2026-09-04 00:16:32 | 49.48392 | 15.24389 | 190° | 16km/h | 21242m | 4.7m/s | -54.2°C | 4.0% | 0hPa | 2.7V | 00:00:00 | 00:00:00 | 00:00:00 | |
| DO3MHA-11 | 2026-09-04 00:16:29 | 49.48409 | 15.24396 | 202° | 15km/h | 21225m | 4.7m/s | -54.1°C | 4.0% | 0hPa | 2.7V | 00:00:00 | 01:29:42 | 00:00:00 | |
| OE5MMP-10 | 2026-09-04 00:16:25 | 49.48426 | 15.24400 | 164° | 15km/h | 21204m | 5.3m/s | -54.1°C | 4.0% | 0hPa | 2.7V | 00:00:00 | 01:29:38 | 00:00:00 | |
| SONDE2-11 | 2026-09-04 00:16:22 | 49.48437 | 15.24390 | 138° | 15km/h | 21181m | 6.6m/s | -54.0°C | 1.0% | -1.0hPa | 2.7V | 00:00:00 | 00:00:00 | 00:00:00 | |
| OE5DXL-15 | 2026-09-04 00:16:21 | 49.48437 | 15.24390 | 139° | 15km/h | 21181m | 6.5m/s | -54.0°C | 3.9% | 0hPa | 2.7V | 00:00:00 | 00:00:00 | 00:00:00 | |
| EDDB2-11 | 2026-09-04 00:16:20 | 49.48440 | 15.24386 | 145° | 16km/h | 21176m | 4.2m/s | -54.0°C | 1.0% | -1.0hPa | 2.7V | 00:00:00 | 00:00:00 | 00:00:00 | |
| DO3MHA-11 | 2026-09-04 00:16:19 | 49.48443 | 15.24383 | 157° | 16km/h | 21172m | 4.0m/s | -54.0°C | 3.9% | 0hPa | 2.7V | 00:00:00 | 01:29:32 | 00:00:00 | |
| PETON7-10 | 2026-09-04 00:16:17 | 49.48452 | 15.24380 | 176° | 16km/h | 21161m | 5.3m/s | -54.0°C | 3.9% | 0hPa | 2.7V | 00:00:00 | 01:29:30 | 00:00:00 | |
| OE5MMP-10 | 2026-09-04 00:16:15 | 49.48460 | 15.24379 | 175° | 16km/h | 21151m | 5.8m/s | -54.0°C | 3.9% | 0hPa | 2.7V | 00:00:00 | 01:29:28 | 00:00:00 | |
| ANDY1245 | 2026-09-04 00:16:13 | 49.48465 | 15.24378 | 175° | 18km/h | 21145m | 5.0m/s | -54.1°C | 1.2% | 0hPa | 2.7V | 00:00:00 | 00:00:00 | 00:00:00 | |
| DO3MHA-11 | 2026-09-04 00:16:09 | 49.48485 | 15.24373 | 141° | 16km/h | 21118m | 6.4m/s | -54.5°C | 4.1% | 0hPa | 2.7V | 00:00:00 | 01:29:22 | 00:00:00 | |
| ANDY1245 | 2026-09-04 00:16:08 | 49.48485 | 15.24373 | 142° | 15km/h | 21118m | 6.4m/s | -54.5°C | 1.2% | 0hPa | 2.7V | 00:00:00 | 00:00:00 | 00:00:00 | |
| PG1ADW-2 | 2026-09-04 00:16:05 | 49.48495 | 15.24353 | 134° | 13km/h | 21096m | 5.2m/s | -54.5°C | 4.1% | 0hPa | 2.7V | 00:00:00 | 01:29:18 | 00:00:00 | |
| ANDY1245 | 2026-09-04 00:16:03 | 49.48497 | 15.24349 | 139° | 15km/h | 21092m | 3.8m/s | -54.5°C | 1.2% | 0hPa | 2.7V | 00:00:00 | 00:00:00 | 00:00:00 | |
| PETON7-10 | 2026-09-04 00:16:02 | 49.48504 | 15.24341 | 145° | 13km/h | 21082m | 6.1m/s | -54.5°C | 4.1% | 0hPa | 2.7V | 00:00:00 | 00:00:00 | 00:00:00 | |
| OE3OSB-13 | 2026-09-04 00:15:51 | 49.48535 | 15.24322 | 124° | 13km/h | 21021m | 4.7m/s | -54.1°C | 1.0% | -1.0hPa | 2.7V | 00:00:00 | 00:00:00 | 00:00:00 | |
| DO3MHA-11 | 2026-09-04 00:15:49 | 49.48537 | 15.24317 | 118° | 15km/h | 21016m | 6.1m/s | -54.1°C | 3.9% | 0hPa | 2.7V | 00:00:00 | 01:29:02 | 00:00:00 | |
| PETON7-10 | 2026-09-04 00:15:47 | 49.48540 | 15.24305 | 111° | 18km/h | 21005m | 5.1m/s | -54.1°C | 3.9% | 0hPa | 2.5V | 00:00:00 | 00:00:00 | 00:00:00 | |
| PG1ADW-2 | 2026-09-04 00:15:45 | 49.48542 | 15.24297 | 121° | 18km/h | 20994m | 4.5m/s | -54.1°C | 4.0% | 0hPa | 2.5V | 00:00:00 | 00:00:00 | 00:00:00 | |
| DO3MHA-11 | 2026-09-04 00:15:39 | 49.48562 | 15.24277 | 154° | 20km/h | 20962m | 4.8m/s | -54.3°C | 4.0% | 0hPa | 2.5V | 00:00:00 | 01:28:52 | 00:00:00 | |
| HA6NAB-11 | 2026-09-04 00:15:38 | 49.48562 | 15.24277 | 154° | 20km/h | 20962m | 4.9m/s | -54.4°C | 1.2% | 0hPa | 2.5V | 00:00:00 | 00:00:00 | 00:00:00 | |
| OE5DRO-10 | 2026-09-04 00:15:37 | 49.48571 | 15.24268 | 140° | 20km/h | 20952m | 6.0m/s | -54.3°C | 4.0% | 0hPa | 2.5V | 00:00:00 | 00:00:00 | 00:00:00 | |
| OE5MMP-10 | 2026-09-04 00:15:35 | 49.48579 | 15.24252 | 119° | 18km/h | 20941m | 4.1m/s | -54.3°C | 4.0% | 0hPa | 2.5V | 00:00:00 | 01:28:48 | 00:00:00 | |
| S52SK | 2026-09-04 00:15:34 | 49.48579 | 15.24252 | 120° | 27km/h | 20941m | 4.1m/s | -54.4°C | 0% | 0hPa | 2.5V | 00:00:00 | 00:00:00 | 00:00:00 | |
| ANDY1245 | 2026-09-04 00:15:33 | 49.48582 | 15.24242 | 112° | 26km/h | 20936m | 4.8m/s | -54.4°C | 1.2% | 0hPa | 2.5V | 00:00:00 | 00:00:00 | 00:00:00 | |
| PETON7-10 | 2026-09-04 00:15:32 | 49.48585 | 15.24227 | 103° | 18km/h | 20925m | 5.5m/s | -54.4°C | 4.0% | 0hPa | 2.5V | 00:00:00 | 01:28:45 | 00:00:00 | |
| DO3MHA-11 | 2026-09-04 00:15:29 | 49.48589 | 15.24216 | 138° | 20km/h | 20909m | 4.7m/s | -54.4°C | 4.0% | 0hPa | 2.5V | 00:00:00 | 01:28:42 | 00:00:00 | |
| ANDY1245 | 2026-09-04 00:15:28 | 49.48589 | 15.24216 | 139° | 11km/h | 20909m | 4.7m/s | -54.4°C | 1.2% | 0hPa | 2.5V | 00:00:00 | 00:00:00 | 00:00:00 | |
| SP3BTT-10 | 2026-09-04 00:15:27 | 49.48594 | 15.24208 | 129° | 13km/h | 20898m | 5.5m/s | -54.3°C | 4.0% | 0hPa | 2.5V | 00:00:00 | 00:00:00 | 00:00:00 | |
| OE5MMP-10 | 2026-09-04 00:15:25 | 49.48600 | 15.24195 | 128° | 20km/h | 20887m | 5.3m/s | -54.3°C | 4.0% | 0hPa | 2.5V | 00:00:00 | 01:28:38 | 00:00:00 | |
| HA6NAB-11 | 2026-09-04 00:15:23 | 49.48608 | 15.24181 | 132° | 26km/h | 20876m | 5.1m/s | -54.3°C | 1.1% | 0hPa | 2.5V | 00:00:00 | 00:00:00 | 00:00:00 | |
| ANDY1245 | 2026-09-04 00:15:22 | 49.48608 | 15.24181 | 132° | 26km/h | 20876m | 5.1m/s | -54.3°C | 1.2% | 0hPa | 2.5V | 00:00:00 | 00:00:00 | 00:00:00 | |
| OE5DXL-15 | 2026-09-04 00:15:21 | 49.48615 | 15.24166 | 122° | 16km/h | 20865m | 6.5m/s | -54.2°C | 3.9% | 0hPa | 2.5V | 00:00:00 | 00:00:00 | 00:00:00 | |
| SONDE2-11 | 2026-09-04 00:15:20 | 49.48620 | 15.24151 | 110° | 16km/h | 20855m | 3.9m/s | -54.4°C | 1.0% | -1.0hPa | 2.7V | 00:00:00 | 00:00:00 | 00:00:00 | |
| DB0UT-7 | 2026-09-04 00:15:19 | 49.48620 | 15.24151 | 111° | 20km/h | 20855m | 3.9m/s | -54.3°C | 4.0% | 0hPa | 2.7V | 00:00:00 | 01:28:32 | 00:00:00 | |
| OE5DRO-10 | 2026-09-04 00:15:18 | 49.48621 | 15.24145 | 115° | 15km/h | 20850m | 5.8m/s | -54.4°C | 4.0% | 0hPa | 2.5V | 00:00:00 | 00:00:00 | 00:00:00 | |
| HA6NAB-11 | 2026-09-04 00:15:17 | 49.48623 | 15.24140 | 122° | 13km/h | 20844m | 5.6m/s | -54.6°C | 1.2% | 0hPa | 2.5V | 00:00:00 | 00:00:00 | 00:00:00 | |
| ANDY1245 | 2026-09-04 00:15:16 | 49.48623 | 15.24140 | 122° | 13km/h | 20844m | 5.6m/s | -54.6°C | 1.2% | 0hPa | 2.5V | 00:00:00 | 00:00:00 | 00:00:00 | |
| OE5MMP-10 | 2026-09-04 00:15:15 | 49.48626 | 15.24132 | 120° | 15km/h | 20834m | 4.5m/s | -54.6°C | 4.1% | 0hPa | 2.5V | 00:00:00 | 01:28:28 | 08:30:00 | |
| ANDY1245 | 2026-09-04 00:15:11 | 49.48631 | 15.24109 | 131° | 15km/h | 20808m | 6.4m/s | -54.7°C | 1.2% | 0hPa | 2.7V | 00:00:00 | 00:00:00 | 00:00:00 | |
| OE5MMP-10 | 2026-09-04 00:15:05 | 49.48642 | 15.24084 | 106° | 18km/h | 20780m | 5.6m/s | -54.8°C | 4.2% | 0hPa | 2.7V | 00:00:00 | 01:28:18 | 00:00:00 | |
| ANDY1245 | 2026-09-04 00:15:03 | 49.48643 | 15.24079 | 106° | 15km/h | 20774m | 6.4m/s | -54.8°C | 1.2% | 0hPa | 2.7V | 00:00:00 | 00:00:00 | 00:00:00 | |
| PETON7-10 | 2026-09-04 00:15:02 | 49.48644 | 15.24066 | 96° | 16km/h | 20763m | 5.5m/s | -54.7°C | 4.1% | 0hPa | 2.7V | 00:00:00 | 00:00:00 | 00:00:00 | |
| SONDE2-11 | 2026-09-04 00:14:49 | 49.48654 | 15.23982 | 66° | 11km/h | 20686m | 5.7m/s | -54.2°C | 1.0% | -1.0hPa | 2.7V | 00:00:00 | 00:00:00 | 00:00:00 | |
| OE3OSB-13 | 2026-09-04 00:14:48 | 49.48654 | 15.23982 | 66° | 11km/h | 20686m | 5.7m/s | -54.2°C | 1.0% | -1.0hPa | 2.7V | 00:00:00 | 00:00:00 | 00:00:00 | |
| PETON7-10 | 2026-09-04 00:14:47 | 49.48653 | 15.23977 | 78° | 16km/h | 20681m | 4.6m/s | -54.2°C | 4.1% | 0hPa | 2.7V | 00:00:00 | 01:28:00 | 00:00:00 | |
| PG1ADW-2 | 2026-09-04 00:14:45 | 49.48653 | 15.23963 | 101° | 16km/h | 20671m | 6.2m/s | -54.2°C | 4.0% | 0hPa | 2.7V | 00:00:00 | 01:27:58 | 00:00:00 | |
| OE5DRO-10 | 2026-09-04 00:14:40 | 49.48660 | 15.23930 | 100° | 16km/h | 20645m | 5.2m/s | -54.1°C | 4.1% | 0hPa | 2.7V | 00:00:00 | 00:00:00 | 00:00:00 | |
| DO3MHA-11 | 2026-09-04 00:14:39 | 49.48661 | 15.23924 | 99° | 15km/h | 20640m | 5.0m/s | -54.0°C | 4.0% | 0hPa | 2.7V | 00:00:00 | 01:27:52 | 00:00:00 | |
| OE5MMP-10 | 2026-09-04 00:14:35 | 49.48662 | 15.23901 | 83° | 16km/h | 20616m | 5.4m/s | -53.9°C | 4.0% | 0hPa | 2.7V | 00:00:00 | 01:27:48 | 00:00:00 | |
| ANDY1245 | 2026-09-04 00:14:34 | 49.48662 | 15.23901 | 83° | 13km/h | 20616m | 5.4m/s | -54.0°C | 1.2% | 0hPa | 2.7V | 00:00:00 | 00:00:00 | 00:00:00 | |
| PETON7-10 | 2026-09-04 00:14:32 | 49.48663 | 15.23887 | 121° | 16km/h | 20601m | 5.9m/s | -53.9°C | 3.9% | 0hPa | 2.7V | 00:00:00 | 00:00:00 | 08:30:00 | |
| DO3MHA-11 | 2026-09-04 00:14:29 | 49.48670 | 15.23873 | 124° | 16km/h | 20583m | 5.4m/s | -53.8°C | 4.0% | 0hPa | 2.7V | 00:00:00 | 01:27:42 | 00:00:00 | |
| NBG1-10 | 2026-09-04 00:14:26 | 49.48677 | 15.23855 | 121° | 22km/h | 20566m | 6.5m/s | -53.8°C | 3.9% | 0hPa | 2.7V | 00:00:00 | 01:27:39 | 00:00:00 | |
| OE5MMP-10 | 2026-09-04 00:14:25 | 49.48680 | 15.23848 | 115° | 18km/h | 20561m | 4.6m/s | -53.7°C | 3.9% | 0hPa | 2.7V | 00:00:00 | 01:27:38 | 00:00:00 | |
| OE5DXL-15 | 2026-09-04 00:14:21 | 49.48682 | 15.23823 | 90° | 22km/h | 20540m | 4.8m/s | -53.9°C | 3.9% | 0hPa | 2.7V | 00:00:00 | 00:00:00 | 00:00:00 | |
| DO3MHA-11 | 2026-09-04 00:14:19 | 49.48684 | 15.23812 | 116° | 22km/h | 20529m | 6.1m/s | -53.9°C | 4.0% | 0hPa | 2.7V | 00:00:00 | 01:27:32 | 00:00:00 | |
| OE3OSB-13 | 2026-09-04 00:14:18 | 49.48689 | 15.23799 | 123° | 22km/h | 20518m | 5.2m/s | -53.9°C | 1.0% | -1.0hPa | 2.5V | 00:00:00 | 00:00:00 | 00:00:00 | |
| PETON7-10 | 2026-09-04 00:14:17 | 49.48689 | 15.23799 | 124° | 22km/h | 20518m | 5.1m/s | -53.8°C | 4.0% | 0hPa | 2.5V | 00:00:00 | 00:00:00 | 00:00:00 | |
| EDDB2-11 | 2026-09-04 00:14:16 | 49.48692 | 15.23791 | 122° | 22km/h | 20512m | 6.0m/s | -53.8°C | 1.0% | -1.0hPa | 2.5V | 00:00:00 | 00:00:00 | 00:00:00 | |
| OE5MMP-10 | 2026-09-04 00:14:15 | 49.48695 | 15.23784 | 125° | 22km/h | 20507m | 5.4m/s | -53.8°C | 3.9% | 0hPa | 2.5V | 00:00:00 | 01:27:28 | 00:00:00 | |
| DO3MHA-11 | 2026-09-04 00:14:09 | 49.48717 | 15.23744 | 109° | 22km/h | 20475m | 6.4m/s | -53.8°C | 3.9% | 0hPa | 2.5V | 00:00:00 | 01:27:22 | 00:00:00 | |
| OE5MMP-10 | 2026-09-04 00:14:05 | 49.48718 | 15.23714 | 99° | 26km/h | 20451m | 5.9m/s | -53.8°C | 3.9% | 0hPa | 2.5V | 00:00:00 | 01:27:18 | 00:00:00 | |
| PETON7-10 | 2026-09-04 00:14:02 | 49.48722 | 15.23688 | 106° | 24km/h | 20435m | 5.9m/s | -53.9°C | 3.9% | 0hPa | 2.5V | 00:00:00 | 01:27:15 | 00:00:00 | |
| ANDY1245 | 2026-09-04 00:14:01 | 49.48722 | 15.23688 | 107° | 26km/h | 20435m | 6.0m/s | -53.9°C | 1.2% | 0hPa | 2.5V | 00:00:00 | 00:00:00 | 00:00:00 | |
| SONDE2-11 | 2026-09-04 00:13:47 | 49.48744 | 15.23552 | 83° | 15km/h | 20348m | 5.4m/s | -53.7°C | 1.0% | -1.0hPa | 2.5V | 00:00:00 | 00:00:00 | 00:00:00 | |
| OE3OSB-13 | 2026-09-04 00:13:46 | 49.48744 | 15.23552 | 83° | 15km/h | 20348m | 5.4m/s | -53.7°C | 1.0% | -1.0hPa | 2.5V | 00:00:00 | 00:00:00 | 00:00:00 | |
| OE5MMP-10 | 2026-09-04 00:13:45 | 49.48744 | 15.23546 | 100° | 15km/h | 20343m | 6.0m/s | -53.7°C | 4.0% | 0hPa | 2.5V | 00:00:00 | 01:26:58 | 08:30:00 | |
| OE5DRO-10 | 2026-09-04 00:13:43 | 49.48745 | 15.23535 | 106° | 11km/h | 20332m | 5.0m/s | -53.6°C | 4.0% | 0hPa | 2.5V | 00:00:00 | 00:00:00 | 00:00:00 | |
| S52SK | 2026-09-04 00:13:40 | 49.48746 | 15.23524 | 87° | 15km/h | 20320m | 5.8m/s | -53.6°C | 0% | 0hPa | 2.5V | 00:00:00 | 00:00:00 | 00:00:00 | |
| DO3MHA-11 | 2026-09-04 00:13:39 | 49.48745 | 15.23512 | 77° | 11km/h | 20309m | 5.9m/s | -53.5°C | 3.9% | 0hPa | 2.5V | 00:00:00 | 01:26:52 | 00:00:00 | |
| OE5MMP-10 | 2026-09-04 00:13:35 | 49.48736 | 15.23492 | 41° | 7km/h | 20287m | 3.6m/s | -53.4°C | 3.9% | 0hPa | 2.5V | 00:00:00 | 01:26:48 | 00:00:00 | |
| PETON7-10 | 2026-09-04 00:13:32 | 49.48730 | 15.23484 | 77° | 9km/h | 20272m | 5.3m/s | -53.3°C | 3.9% | 0hPa | 2.5V | 00:00:00 | 00:00:00 | 00:00:00 | |
| DO3MHA-11 | 2026-09-04 00:13:29 | 49.48732 | 15.23479 | 120° | 9km/h | 20256m | 4.5m/s | -53.2°C | 3.9% | 0hPa | 2.5V | 00:00:00 | 01:26:42 | 00:00:00 | |
| SP3BTT-10 | 2026-09-04 00:13:27 | 49.48733 | 15.23475 | 114° | 16km/h | 20245m | 6.1m/s | -53.2°C | 3.8% | 0hPa | 2.5V | 00:00:00 | 00:00:00 | 08:30:00 | |
| OE5MMP-10 | 2026-09-04 00:13:25 | 49.48732 | 15.23471 | 57° | 13km/h | 20234m | 5.9m/s | -53.2°C | 3.9% | 0hPa | 2.7V | 00:00:00 | 01:26:38 | 00:00:00 | |
| OE5DRO-10 | 2026-09-04 00:13:24 | 49.48730 | 15.23467 | 50° | 9km/h | 20228m | 6.0m/s | -53.3°C | 3.9% | 0hPa | 2.7V | 00:00:00 | 00:00:00 | 00:00:00 | |
| OE5DXL-15 | 2026-09-04 00:13:21 | 49.48723 | 15.23454 | 58° | 9km/h | 20213m | 5.4m/s | -53.2°C | 3.9% | 0hPa | 2.7V | 00:00:00 | 00:00:00 | 00:00:00 | |
| NBG1-10 | 2026-09-04 00:13:20 | 49.48722 | 15.23450 | 70° | 9km/h | 20208m | 5.4m/s | -53.1°C | 3.9% | 0hPa | 2.7V | 00:00:00 | 01:26:33 | 00:00:00 | |
| DO3MHA-11 | 2026-09-04 00:13:19 | 49.48721 | 15.23445 | 83° | 7km/h | 20202m | 6.0m/s | -53.1°C | 4.0% | 0hPa | 2.7V | 00:00:00 | 01:26:32 | 00:00:00 | |
| PETON7-10 | 2026-09-04 00:13:17 | 49.48722 | 15.23437 | 115° | 5km/h | 20191m | 4.1m/s | -53.0°C | 3.9% | 0hPa | 2.5V | 00:00:00 | 01:26:30 | 00:00:00 | |
| OE5MMP-10 | 2026-09-04 00:13:15 | 49.48726 | 15.23430 | 147° | 5km/h | 20181m | 6.0m/s | -52.9°C | 3.9% | 0hPa | 2.5V | 00:00:00 | 01:26:28 | 00:00:00 | |
| EDDB2-11 | 2026-09-04 00:13:14 | 49.48728 | 15.23429 | 158° | 5km/h | 20175m | 5.0m/s | -53.0°C | 1.0% | -1.0hPa | 2.7V | 00:00:00 | 00:00:00 | 00:00:00 | |
| ANDY1245 | 2026-09-04 00:13:11 | 49.48729 | 15.23427 | 82° | 4km/h | 20163m | 5.6m/s | -52.9°C | 1.1% | 0hPa | 2.7V | 00:00:00 | 00:00:00 | 00:00:00 | |
| DO3MHA-11 | 2026-09-04 00:13:09 | 49.48727 | 15.23425 | 326° | 7km/h | 20147m | 6.5m/s | -52.8°C | 3.7% | 0hPa | 2.7V | 00:00:00 | 01:26:22 | 00:00:00 | |
| OE5MMP-10 | 2026-09-04 00:13:05 | 49.48721 | 15.23427 | 37° | 11km/h | 20124m | 5.6m/s | -52.7°C | 3.8% | 0hPa | 2.7V | 00:00:00 | 01:26:18 | 00:00:00 | |
| PETON7-10 | 2026-09-04 00:13:02 | 49.48723 | 15.23424 | 149° | 9km/h | 20106m | 5.3m/s | -52.7°C | 3.8% | 0hPa | 2.7V | 00:00:00 | 00:00:00 | 00:00:00 | |
| OE3OSB-13 | 2026-09-04 00:12:44 | 49.48771 | 15.23393 | 155° | 27km/h | 20001m | 6.4m/s | 0°C | -1.0% | -1.0hPa | 2.7V | 00:00:00 | 00:00:00 | 00:00:00 | |
| EDDB2-11 | 2026-09-04 00:12:43 | 49.48783 | 15.23382 | 148° | 26km/h | 19989m | 5.3m/s | -52.8°C | 1.0% | -1.0hPa | 2.7V | 00:00:00 | 00:00:00 | 00:00:00 | |
| DO3MHA-11 | 2026-09-04 00:12:39 | 49.48798 | 15.23369 | 153° | 18km/h | 19973m | 5.5m/s | -52.9°C | 3.6% | 0hPa | 2.7V | 00:00:00 | 01:25:52 | 00:00:00 | |
| HA6NAB-11 | 2026-09-04 00:12:36 | 49.48804 | 15.23363 | 136° | 15km/h | 19960m | 6.0m/s | -52.9°C | 1.1% | 0hPa | 2.7V | 00:00:00 | 00:00:00 | 00:00:00 | |
| PETON7-10 | 2026-09-04 00:12:32 | 49.48820 | 15.23343 | 148° | 22km/h | 19931m | 6.4m/s | -53.0°C | 3.7% | 0hPa | 2.7V | 00:00:00 | 01:25:45 | 00:00:00 | |
| HA6NAB-11 | 2026-09-04 00:12:30 | 49.48825 | 15.23338 | 145° | 24km/h | 19926m | 5.0m/s | -53.0°C | 1.1% | 0hPa | 2.7V | 00:00:00 | 00:00:00 | 00:00:00 | |
| DO3MHA-11 | 2026-09-04 00:12:29 | 49.48836 | 15.23326 | 143° | 22km/h | 19914m | 7.1m/s | -53.0°C | 3.7% | 0hPa | 2.7V | 00:00:00 | 01:25:42 | 00:00:00 | |
| OE5DRO-10 | 2026-09-04 00:12:27 | 49.48847 | 15.23313 | 147° | 24km/h | 19903m | 5.7m/s | -53.1°C | 3.7% | 0hPa | 2.7V | 00:00:00 | 00:00:00 | 00:00:00 | |
| PG1ADW-2 | 2026-09-04 00:12:25 | 49.48859 | 15.23300 | 140° | 26km/h | 19891m | 5.9m/s | -53.2°C | 3.7% | 0hPa | 2.7V | 00:00:00 | 00:00:00 | 00:00:00 | |
| HA6NAB-11 | 2026-09-04 00:12:24 | 49.48859 | 15.23300 | 140° | 27km/h | 19891m | 5.9m/s | -53.3°C | 1.1% | 0hPa | 2.5V | 00:00:00 | 00:00:00 | 00:00:00 | |
| ANDY1245 | 2026-09-04 00:12:23 | 49.48864 | 15.23293 | 136° | 24km/h | 19885m | 5.3m/s | -53.3°C | 1.2% | 0hPa | 2.5V | 00:00:00 | 00:00:00 | 00:00:00 | |
| DB0UT-7 | 2026-09-04 00:12:22 | 49.48872 | 15.23282 | 139° | 29km/h | 19873m | 5.6m/s | -53.4°C | 3.6% | 0hPa | 2.5V | 00:00:00 | 00:00:00 | 08:30:00 | |
| OE5DXL-15 | 2026-09-04 00:12:21 | 49.48875 | 15.23278 | 140° | 29km/h | 19867m | 6.2m/s | -53.5°C | 3.7% | 0hPa | 2.7V | 00:00:00 | 00:00:00 | 00:00:00 | |
| DO3MHA-11 | 2026-09-04 00:12:19 | 49.48878 | 15.23272 | 129° | 24km/h | 19856m | 4.7m/s | -53.8°C | 3.7% | 0hPa | 2.5V | 00:00:00 | 01:25:32 | 08:30:00 | |
| HA6NAB-11 | 2026-09-04 00:12:18 | 49.48878 | 15.23272 | 130° | 9km/h | 19856m | 4.8m/s | -53.8°C | 1.1% | 0hPa | 2.6V | 00:00:00 | 00:00:00 | 00:00:00 | |
| PETON7-10 | 2026-09-04 00:12:17 | 49.48881 | 15.23267 | 141° | 33km/h | 19844m | 4.4m/s | -54.0°C | 3.8% | 0hPa | 2.6V | 00:00:00 | 00:00:00 | 08:30:00 | |
| OE5MMP-10 | 2026-09-04 00:12:15 | 49.48888 | 15.23260 | 152° | 37km/h | 19834m | 6.2m/s | -54.2°C | 3.8% | 0hPa | 2.7V | 00:00:00 | 01:25:28 | 08:30:00 | |
| HA6NAB-11 | 2026-09-04 00:12:14 | 49.48893 | 15.23255 | 149° | 26km/h | 19828m | 6.1m/s | -54.4°C | 1.2% | 0hPa | 2.5V | 00:00:00 | 00:00:00 | 00:00:00 | |
| SONDE2-11 | 2026-09-04 00:12:13 | 49.48899 | 15.23249 | 139° | 27km/h | 19821m | 7.5m/s | -54.5°C | 1.1% | -1.0hPa | 2.5V | 00:00:00 | 00:00:00 | 00:00:00 | |
| OE3JTB-15 | 2026-09-04 00:12:12 | 49.48905 | 15.23240 | 132° | 33km/h | 19814m | 6.0m/s | -54.5°C | 3.9% | 0hPa | 2.5V | 00:00:00 | 00:00:00 | 08:30:00 | |
| DO3MHA-11 | 2026-09-04 00:12:09 | 49.48923 | 15.23202 | 124° | 37km/h | 19795m | 5.6m/s | -54.8°C | 4.0% | 0hPa | 2.5V | 00:00:00 | 01:25:22 | 00:00:00 | |
| HA6NAB-11 | 2026-09-04 00:12:08 | 49.48929 | 15.23188 | 122° | 46km/h | 19789m | 5.8m/s | -54.8°C | 1.3% | 0hPa | 2.5V | 00:00:00 | 00:00:00 | 00:00:00 | |
| PG1ADW-2 | 2026-09-04 00:12:05 | 49.48945 | 15.23143 | 118° | 29km/h | 19771m | 6.1m/s | -55.0°C | 4.1% | 0hPa | 2.5V | 00:00:00 | 01:25:18 | 00:00:00 | |
| PETON7-10 | 2026-09-04 00:12:02 | 49.48960 | 15.23112 | 135° | 27km/h | 19753m | 6.5m/s | -55.3°C | 4.2% | 0hPa | 2.5V | 00:00:00 | 00:00:00 | 00:00:00 | |
| DO3MHA-11 | 2026-09-04 00:11:59 | 49.48975 | 15.23086 | 130° | 29km/h | 19736m | 5.7m/s | -55.5°C | 4.2% | 0hPa | 2.5V | 00:00:00 | 01:25:12 | 00:00:00 | |
| OE5MMP-10 | 2026-09-04 00:11:55 | 49.48990 | 15.23044 | 105° | 26km/h | 19712m | 5.3m/s | -55.5°C | 4.3% | 0hPa | 2.5V | 00:00:00 | 01:25:08 | 00:00:00 | |
| ANDY1245 | 2026-09-04 00:11:53 | 49.48992 | 15.23033 | 104° | 31km/h | 19706m | 6.6m/s | -55.6°C | 1.3% | 0hPa | 2.5V | 00:00:00 | 00:00:00 | 00:00:00 | |
| DB0UT-7 | 2026-09-04 00:11:52 | 49.48996 | 15.23011 | 106° | 29km/h | 19696m | 5.7m/s | -55.5°C | 4.3% | 0hPa | 2.5V | 00:00:00 | 01:25:05 | 00:00:00 | |
| OE5DXL-15 | 2026-09-04 00:11:51 | 49.48997 | 15.23001 | 106° | 24km/h | 19689m | 6.7m/s | -55.5°C | 4.3% | 0hPa | 2.5V | 00:00:00 | 00:00:00 | 00:00:00 | |
| DO3MHA-11 | 2026-09-04 00:11:49 | 49.49001 | 15.22984 | 112° | 27km/h | 19678m | 4.9m/s | -55.5°C | 4.3% | 0hPa | 2.5V | 00:00:00 | 01:25:02 | 00:00:00 | |
| PETON7-10 | 2026-09-04 00:11:47 | 49.49006 | 15.22969 | 127° | 26km/h | 19667m | 5.4m/s | -55.5°C | 4.2% | 0hPa | 2.7V | 00:00:00 | 01:25:00 | 00:00:00 | |
| S52SK | 2026-09-04 00:11:46 | 49.49006 | 15.22969 | 127° | 26km/h | 19667m | 5.4m/s | -55.5°C | 0% | 0hPa | 2.7V | 00:00:00 | 00:00:00 | 00:00:00 | |
| OE5MMP-10 | 2026-09-04 00:11:45 | 49.49015 | 15.22952 | 128° | 26km/h | 19655m | 5.8m/s | -55.5°C | 4.3% | 0hPa | 2.7V | 00:00:00 | 01:24:58 | 00:00:00 | |
| SONDE2-11 | 2026-09-04 00:11:42 | 49.49026 | 15.22923 | 113° | 29km/h | 19639m | 2.9m/s | -55.6°C | 1.2% | -1.0hPa | 2.5V | 00:00:00 | 00:00:00 | 00:00:00 | |
| NBG1-10 | 2026-09-04 00:11:41 | 49.49029 | 15.22912 | 114° | 22km/h | 19635m | 5.1m/s | -55.5°C | 4.3% | 0hPa | 2.5V | 00:00:00 | 01:24:54 | 00:00:00 | |
| S52SK | 2026-09-04 00:11:40 | 49.49029 | 15.22912 | 115° | 29km/h | 19635m | 5.2m/s | -55.6°C | 0% | 0hPa | 2.5V | 00:00:00 | 00:00:00 | 00:00:00 | |
| DO3MHA-11 | 2026-09-04 00:11:39 | 49.49035 | 15.22893 | 118° | 20km/h | 19622m | 7.3m/s | -55.4°C | 4.2% | 0hPa | 2.5V | 00:00:00 | 01:24:52 | 00:00:00 | |
| ANDY1245 | 2026-09-04 00:11:36 | 49.49041 | 15.22882 | 142° | 18km/h | 19610m | 6.6m/s | -55.4°C | 1.3% | 0hPa | 2.5V | 00:00:00 | 00:00:00 | 00:00:00 | |
| OE3JTB-15 | 2026-09-04 00:11:35 | 49.49049 | 15.22873 | 152° | 26km/h | 19599m | 6.2m/s | -55.4°C | 4.2% | 0hPa | 2.5V | 00:00:00 | 00:00:00 | 00:00:00 | |
| PETON7-10 | 2026-09-04 00:11:32 | 49.49062 | 15.22859 | 130° | 22km/h | 19581m | 5.9m/s | -55.5°C | 4.3% | 0hPa | 2.5V | 00:00:00 | 00:00:00 | 00:00:00 | |
| ANDY1245 | 2026-09-04 00:11:31 | 49.49062 | 15.22859 | 131° | 20km/h | 19581m | 6.0m/s | -55.6°C | 1.4% | 0hPa | 2.7V | 00:00:00 | 00:00:00 | 00:00:00 | |
| OE5DRO-10 | 2026-09-04 00:11:30 | 49.49068 | 15.22847 | 123° | 22km/h | 19569m | 4.8m/s | -55.6°C | 4.3% | 0hPa | 2.7V | 00:00:00 | 00:00:00 | 00:00:00 | |
| DO3MHA-11 | 2026-09-04 00:11:29 | 49.49070 | 15.22840 | 124° | 24km/h | 19564m | 6.0m/s | -55.5°C | 4.3% | 0hPa | 2.7V | 00:00:00 | 01:24:42 | 00:00:00 | |
| SP3BTT-10 | 2026-09-04 00:11:26 | 49.49080 | 15.22823 | 143° | 22km/h | 19547m | 5.3m/s | -55.7°C | 4.3% | 0hPa | 2.7V | 00:00:00 | 00:00:00 | 00:00:00 | |
| PG1ADW-2 | 2026-09-04 00:11:25 | 49.49084 | 15.22819 | 151° | 24km/h | 19542m | 4.3m/s | -55.8°C | 4.4% | 0hPa | 2.7V | 00:00:00 | 00:00:00 | 08:30:00 | |
| OE5DXL-15 | 2026-09-04 00:11:21 | 49.49109 | 15.22801 | 157° | 22km/h | 19518m | 4.6m/s | -55.7°C | 4.4% | 0hPa | 2.7V | 00:00:00 | 00:00:00 | 00:00:00 | |
| DO3MHA-11 | 2026-09-04 00:11:19 | 49.49119 | 15.22793 | 146° | 22km/h | 19508m | 4.9m/s | -55.7°C | 4.4% | 0hPa | 2.7V | 00:00:00 | 01:24:32 | 00:00:00 | |
| PETON7-10 | 2026-09-04 00:11:17 | 49.49127 | 15.22782 | 138° | 24km/h | 19497m | 6.3m/s | -55.7°C | 4.4% | 0hPa | 2.5V | 00:00:00 | 00:00:00 | 00:00:00 | |
| OE5MMP-10 | 2026-09-04 00:11:15 | 49.49135 | 15.22772 | 141° | 24km/h | 19484m | 5.4m/s | -55.7°C | 4.4% | 0hPa | 2.5V | 00:00:00 | 01:24:28 | 00:00:00 | |
| SONDE2-11 | 2026-09-04 00:11:12 | 49.49151 | 15.22751 | 137° | 22km/h | 19462m | 7.0m/s | -55.7°C | 1.2% | -1.0hPa | 2.7V | 00:00:00 | 00:00:00 | 00:00:00 | |
| OE5DRO-10 | 2026-09-04 00:11:11 | 49.49151 | 15.22751 | 138° | 22km/h | 19462m | 6.9m/s | -55.6°C | 4.3% | 0hPa | 2.7V | 00:00:00 | 00:00:00 | 00:00:00 | |
| DO3MHA-11 | 2026-09-04 00:11:09 | 49.49160 | 15.22738 | 140° | 24km/h | 19450m | 5.6m/s | -55.6°C | 4.3% | 0hPa | 2.7V | 00:00:00 | 01:24:22 | 00:00:00 | |
| NBG1-10 | 2026-09-04 00:11:08 | 49.49165 | 15.22732 | 138° | 20km/h | 19444m | 5.7m/s | -55.5°C | 4.3% | 0hPa | 2.7V | 00:00:00 | 01:24:21 | 00:00:00 | |
| PG1ADW-2 | 2026-09-04 00:11:05 | 49.49181 | 15.22711 | 147° | 22km/h | 19428m | 6.9m/s | -55.5°C | 4.3% | 0hPa | 2.7V | 00:00:00 | 00:00:00 | 00:00:00 | |
| PETON7-10 | 2026-09-04 00:11:02 | 49.49197 | 15.22700 | 160° | 22km/h | 19410m | 6.0m/s | -55.4°C | 4.2% | 0hPa | 2.7V | 00:00:00 | 01:24:15 | 00:00:00 | |
| DO3MHA-11 | 2026-09-04 00:10:59 | 49.49209 | 15.22690 | 145° | 22km/h | 19394m | 6.4m/s | -55.4°C | 4.2% | 0hPa | 2.7V | 00:00:00 | 01:24:12 | 00:00:00 | |
| OE5MMP-10 | 2026-09-04 00:10:55 | 49.49221 | 15.22670 | 121° | 24km/h | 19369m | 5.5m/s | -55.3°C | 4.1% | 0hPa | 2.7V | 00:00:00 | 01:24:08 | 00:00:00 | |
| OE5DRO-10 | 2026-09-04 00:10:52 | 49.49231 | 15.22649 | 138° | 20km/h | 19352m | 5.5m/s | -55.5°C | 4.1% | 0hPa | 2.7V | 00:00:00 | 00:00:00 | 00:00:00 | |
| OE5DXL-15 | 2026-09-04 00:10:51 | 49.49236 | 15.22643 | 141° | 22km/h | 19346m | 6.7m/s | -55.6°C | 4.1% | 0hPa | 2.7V | 00:00:00 | 00:00:00 | 00:00:00 | |
| DO3MHA-11 | 2026-09-04 00:10:49 | 49.49246 | 15.22631 | 146° | 15km/h | 19335m | 6.2m/s | -55.9°C | 4.2% | 0hPa | 2.6V | 00:00:00 | 01:24:02 | 08:30:00 | |
| PETON7-10 | 2026-09-04 00:10:47 | 49.49257 | 15.22622 | 161° | 20km/h | 19322m | 5.0m/s | -56.0°C | 4.3% | 0hPa | 2.7V | 00:00:00 | 00:00:00 | 00:00:00 | |
| PG1ADW-2 | 2026-09-04 00:10:45 | 49.49265 | 15.22618 | 159° | 20km/h | 19311m | 5.9m/s | -56.0°C | 4.3% | 0hPa | 2.6V | 00:00:00 | 01:23:58 | 00:00:00 | |
| ANDY1245 | 2026-09-04 00:10:43 | 49.49267 | 15.22617 | 142° | 7km/h | 19305m | 5.6m/s | -56.1°C | 1.3% | 0hPa | 2.6V | 00:00:00 | 00:00:00 | 00:00:00 | |
| SONDE2-11 | 2026-09-04 00:10:40 | 49.49275 | 15.22608 | 154° | 15km/h | 19282m | 6.3m/s | -56.1°C | 1.2% | -1.0hPa | 2.6V | 00:00:00 | 00:00:00 | 00:00:00 | |
| DO3MHA-11 | 2026-09-04 00:10:39 | 49.49279 | 15.22605 | 154° | 26km/h | 19276m | 5.4m/s | -56.1°C | 4.4% | 0hPa | 2.6V | 00:00:00 | 01:23:52 | 00:00:00 | |
| ANDY1245 | 2026-09-04 00:10:38 | 49.49279 | 15.22605 | 155° | 22km/h | 19276m | 5.5m/s | -56.1°C | 1.4% | 0hPa | 2.6V | 00:00:00 | 00:00:00 | 00:00:00 | |
| OE5MMP-10 | 2026-09-04 00:10:35 | 49.49306 | 15.22589 | 164° | 24km/h | 19254m | 4.2m/s | -56.2°C | 4.4% | 0hPa | 2.6V | 00:00:00 | 01:23:48 | 00:00:00 | |
| OE5DRO-10 | 2026-09-04 00:10:33 | 49.49319 | 15.22581 | 154° | 29km/h | 19244m | 5.7m/s | -56.2°C | 4.4% | 0hPa | 2.6V | 00:00:00 | 00:00:00 | 00:00:00 | |
| PETON7-10 | 2026-09-04 00:10:32 | 49.49325 | 15.22576 | 146° | 27km/h | 19239m | 5.4m/s | -56.2°C | 4.4% | 0hPa | 2.6V | 00:00:00 | 00:00:00 | 00:00:00 | |
| DO3MHA-11 | 2026-09-04 00:10:29 | 49.49337 | 15.22560 | 140° | 29km/h | 19222m | 4.5m/s | -56.2°C | 4.3% | 0hPa | 2.6V | 00:00:00 | 01:23:42 | 00:00:00 | |
| PG1ADW-2 | 2026-09-04 00:10:25 | 49.49356 | 15.22536 | 139° | 31km/h | 19201m | 6.4m/s | -56.3°C | 4.3% | 0hPa | 2.6V | 00:00:00 | 00:00:00 | 00:00:00 | |
| OE5DXL-15 | 2026-09-04 00:10:21 | 49.49380 | 15.22502 | 138° | 27km/h | 19178m | 5.4m/s | -56.4°C | 4.4% | 0hPa | 2.7V | 00:00:00 | 00:00:00 | 00:00:00 | |
| DO3MHA-11 | 2026-09-04 00:10:19 | 49.49394 | 15.22484 | 141° | 29km/h | 19166m | 6.2m/s | -56.6°C | 4.4% | 0hPa | 2.7V | 00:00:00 | 01:23:32 | 00:00:00 | |
| PETON7-10 | 2026-09-04 00:10:17 | 49.49407 | 15.22468 | 143° | 29km/h | 19154m | 6.1m/s | -56.7°C | 4.5% | 0hPa | 2.6V | 00:00:00 | 01:23:30 | 00:00:00 | |
| OE5MMP-10 | 2026-09-04 00:10:15 | 49.49419 | 15.22452 | 140° | 27km/h | 19142m | 4.8m/s | -56.7°C | 4.5% | 0hPa | 2.6V | 00:00:00 | 01:23:28 | 00:00:00 | |
| OE5DRO-10 | 2026-09-04 00:10:14 | 49.49425 | 15.22444 | 137° | 26km/h | 19136m | 6.8m/s | -56.7°C | 4.5% | 0hPa | 2.7V | 00:00:00 | 00:00:00 | 08:30:00 | |
| OE3JTB-15 | 2026-09-04 00:10:10 | 49.49453 | 15.22415 | 157° | 20km/h | 19108m | 5.4m/s | -56.6°C | 4.5% | 0hPa | 2.6V | 00:00:00 | 01:23:22 | 00:00:00 | |
| EDDB2-11 | 2026-09-04 00:10:07 | 49.49465 | 15.22407 | 156° | 27km/h | 19096m | 4.9m/s | -56.7°C | 1.2% | -1.0hPa | 2.6V | 00:00:00 | 00:00:00 | 00:00:00 | |
| OE5MMP-10 | 2026-09-04 00:10:05 | 49.49479 | 15.22397 | 154° | 26km/h | 19085m | 4.9m/s | -56.6°C | 4.5% | 0hPa | 2.6V | 00:00:00 | 01:23:18 | 00:00:00 | |
| PETON7-10 | 2026-09-04 00:10:02 | 49.49498 | 15.22380 | 145° | 26km/h | 19069m | 5.5m/s | -56.6°C | 4.6% | 0hPa | 2.6V | 00:00:00 | 00:00:00 | 08:30:00 | |
| DO3MHA-11 | 2026-09-04 00:09:59 | 49.49514 | 15.22363 | 145° | 26km/h | 19052m | 4.9m/s | -56.6°C | 4.6% | 0hPa | 2.6V | 00:00:00 | 01:23:12 | 00:00:00 | |
| ANDY1245 | 2026-09-04 00:09:58 | 49.49514 | 15.22363 | 145° | 24km/h | 19052m | 4.9m/s | -56.6°C | 1.4% | 0hPa | 2.6V | 00:00:00 | 00:00:00 | 00:00:00 | |
| OE5MMP-10 | 2026-09-04 00:09:55 | 49.49531 | 15.22343 | 150° | 27km/h | 19030m | 4.2m/s | -56.4°C | 4.6% | 0hPa | 2.6V | 00:00:00 | 01:23:08 | 00:00:00 | |
| S52SK | 2026-09-04 00:09:53 | 49.49536 | 15.22338 | 155° | 26km/h | 19025m | 6.1m/s | -56.4°C | 0% | 0hPa | 2.6V | 00:00:00 | 00:00:00 | 00:00:00 | |
| OE5DXL-15 | 2026-09-04 00:09:51 | 49.49556 | 15.22325 | 154° | 24km/h | 19008m | 6.2m/s | -56.3°C | 4.5% | 0hPa | 2.6V | 00:00:00 | 00:00:00 | 00:00:00 | |
| DO3MHA-11 | 2026-09-04 00:09:49 | 49.49569 | 15.22314 | 154° | 20km/h | 18996m | 5.5m/s | -56.2°C | 4.5% | 0hPa | 2.6V | 00:00:00 | 01:23:02 | 00:00:00 | |
| PETON7-10 | 2026-09-04 00:09:47 | 49.49583 | 15.22304 | 155° | 22km/h | 18985m | 5.7m/s | -56.1°C | 4.5% | 0hPa | 2.7V | 00:00:00 | 00:00:00 | 00:00:00 | |
| OE5MMP-10 | 2026-09-04 00:09:45 | 49.49592 | 15.22296 | 145° | 18km/h | 18974m | 6.5m/s | -56.1°C | 4.4% | 0hPa | 2.7V | 00:00:00 | 01:22:58 | 00:00:00 | |
| DO3MHA-11 | 2026-09-04 00:09:39 | 49.49612 | 15.22278 | 156° | 24km/h | 18940m | 6.3m/s | -55.9°C | 4.4% | 0hPa | 2.6V | 00:00:00 | 01:22:52 | 00:00:00 | |
| SONDE2-11 | 2026-09-04 00:09:38 | 49.49617 | 15.22274 | 155° | 26km/h | 18934m | 5.0m/s | -55.9°C | 1.2% | -1.0hPa | 2.6V | 00:00:00 | 00:00:00 | 00:00:00 | |
| OE3JTB-15 | 2026-09-04 00:09:37 | 49.49623 | 15.22270 | 159° | 24km/h | 18929m | 5.3m/s | -55.8°C | 4.4% | 0hPa | 2.6V | 00:00:00 | 00:00:00 | 00:00:00 | |
| OE5DRO-10 | 2026-09-04 00:09:36 | 49.49630 | 15.22266 | 162° | 24km/h | 18924m | 5.7m/s | -55.8°C | 4.4% | 0hPa | 2.7V | 00:00:00 | 00:00:00 | 00:00:00 | |
| OE5MMP-10 | 2026-09-04 00:09:35 | 49.49636 | 15.22263 | 162° | 22km/h | 18918m | 5.4m/s | -55.8°C | 4.4% | 0hPa | 2.7V | 00:00:00 | 01:22:48 | 00:00:00 | |
| PETON7-10 | 2026-09-04 00:09:32 | 49.49654 | 15.22252 | 155° | 24km/h | 18901m | 5.6m/s | -55.6°C | 4.4% | 0hPa | 2.7V | 00:00:00 | 01:22:45 | 00:00:00 | |
| DO3MHA-11 | 2026-09-04 00:09:29 | 49.49668 | 15.22244 | 167° | 24km/h | 18886m | 6.0m/s | -55.5°C | 4.3% | 0hPa | 2.7V | 00:00:00 | 01:22:42 | 00:00:00 | |
| ANDY1245 | 2026-09-04 00:09:28 | 49.49668 | 15.22244 | 168° | 16km/h | 18886m | 6.0m/s | -55.6°C | 1.4% | 0hPa | 2.7V | 00:00:00 | 00:00:00 | 00:00:00 | |
| OE5DXL-15 | 2026-09-04 00:09:21 | 49.49716 | 15.22226 | 166° | 33km/h | 18843m | 5.1m/s | -55.5°C | 4.3% | 0hPa | 2.7V | 00:00:00 | 01:22:34 | 08:30:00 | |
| DO3MHA-11 | 2026-09-04 00:09:19 | 49.49728 | 15.22220 | 159° | 24km/h | 18832m | 5.6m/s | -55.4°C | 4.3% | 0hPa | 2.6V | 00:00:00 | 01:22:32 | 08:30:00 | |
| OE5DRO-10 | 2026-09-04 00:09:18 | 49.49737 | 15.22214 | 163° | 26km/h | 18820m | 7.1m/s | -55.3°C | 4.2% | 0hPa | 2.6V | 00:00:00 | 00:00:00 | 00:00:00 | |
| PETON7-10 | 2026-09-04 00:09:17 | 49.49737 | 15.22214 | 163° | 26km/h | 18820m | 7.1m/s | -55.3°C | 4.2% | 0hPa | 2.6V | 00:00:00 | 00:00:00 | 00:00:00 | |
| OE5MMP-10 | 2026-09-04 00:09:15 | 49.49745 | 15.22211 | 161° | 29km/h | 18810m | 4.3m/s | -55.3°C | 4.3% | 0hPa | 2.7V | 00:00:00 | 01:22:28 | 08:30:00 | |
| DO3MHA-11 | 2026-09-04 00:09:09 | 49.49786 | 15.22192 | 167° | 27km/h | 18778m | 5.2m/s | -55.0°C | 4.2% | 0hPa | 2.7V | 00:00:00 | 01:22:22 | 00:00:00 | |
| OE3JTB-15 | 2026-09-04 00:09:08 | 49.49794 | 15.22188 | 167° | 33km/h | 18772m | 6.6m/s | -55.0°C | 4.1% | 0hPa | 2.7V | 00:00:00 | 00:00:00 | 00:00:00 | |
| SONDE2-11 | 2026-09-04 00:09:07 | 49.49802 | 15.22186 | 166° | 29km/h | 18765m | 5.6m/s | -55.1°C | 1.1% | -1.0hPa | 2.7V | 00:00:00 | 00:00:00 | 00:00:00 | |
| PG1ADW-2 | 2026-09-04 00:09:05 | 49.49815 | 15.22183 | 178° | 31km/h | 18755m | 6.1m/s | -55.1°C | 4.2% | 0hPa | 2.7V | 00:00:00 | 00:00:00 | 00:00:00 | |
| PETON7-10 | 2026-09-04 00:09:02 | 49.49832 | 15.22182 | 168° | 33km/h | 18739m | 6.8m/s | -55.1°C | 4.2% | 0hPa | 2.7V | 00:00:00 | 00:00:00 | 00:00:00 | |
| DO3MHA-11 | 2026-09-04 00:08:59 | 49.49852 | 15.22170 | 161° | 38km/h | 18723m | 5.8m/s | -55.1°C | 4.2% | 0hPa | 2.7V | 00:00:00 | 01:22:12 | 00:00:00 | |
| OE5DRO-10 | 2026-09-04 00:08:58 | 49.49861 | 15.22166 | 166° | 35km/h | 18717m | 6.8m/s | -55.1°C | 4.2% | 0hPa | 2.7V | 00:00:00 | 00:00:00 | 00:00:00 | |
| NBG1-10 | 2026-09-04 00:08:56 | 49.49883 | 15.22158 | 167° | 35km/h | 18705m | 6.1m/s | -55.0°C | 4.2% | 0hPa | 2.7V | 00:00:00 | 01:22:09 | 08:30:00 | |
| OE5MMP-10 | 2026-09-04 00:08:55 | 49.49895 | 15.22153 | 167° | 29km/h | 18699m | 5.3m/s | -55.0°C | 4.2% | 0hPa | 2.7V | 00:00:00 | 01:22:08 | 00:00:00 | |
| ANDY1245 | 2026-09-04 00:08:53 | 49.49906 | 15.22149 | 165° | 42km/h | 18694m | 5.0m/s | -55.0°C | 1.3% | 0hPa | 2.7V | 00:00:00 | 00:00:00 | 00:00:00 | |
| OE5DXL-15 | 2026-09-04 00:08:49 | 49.49942 | 15.22129 | 142° | 35km/h | 18666m | 5.0m/s | -54.9°C | 4.1% | 0hPa | 2.7V | 00:00:00 | 00:00:00 | 00:00:00 | |
| PETON7-10 | 2026-09-04 00:08:47 | 49.49952 | 15.22118 | 149° | 35km/h | 18655m | 5.0m/s | -54.8°C | 4.1% | 0hPa | 2.7V | 00:00:00 | 01:22:00 | 00:00:00 | |
| PG1ADW-2 | 2026-09-04 00:08:45 | 49.49962 | 15.22110 | 158° | 37km/h | 18646m | 4.5m/s | -54.8°C | 4.1% | 0hPa | 2.7V | 00:00:00 | 00:00:00 | 00:00:00 | |
| HA6NAB-11 | 2026-09-04 00:08:44 | 49.49962 | 15.22110 | 159° | 26km/h | 18646m | 4.5m/s | -54.9°C | 1.3% | 0hPa | 2.7V | 00:00:00 | 00:00:00 | 00:00:00 | |
| ANDY1245 | 2026-09-04 00:08:42 | 49.49977 | 15.22101 | 158° | 37km/h | 18635m | 5.4m/s | -54.8°C | 1.3% | 0hPa | 2.7V | 00:00:00 | 00:00:00 | 00:00:00 | |
| OE5DRO-10 | 2026-09-04 00:08:39 | 49.50015 | 15.22082 | 168° | 37km/h | 18614m | 4.9m/s | -54.7°C | 4.0% | 0hPa | 2.7V | 00:00:00 | 00:00:00 | 00:00:00 | |
| OE3JTB-15 | 2026-09-04 00:08:36 | 49.50044 | 15.22070 | 162° | 44km/h | 18597m | 4.7m/s | -54.7°C | 4.1% | 0hPa | 2.7V | 00:00:00 | 01:21:49 | 00:00:00 | |
| OE5MMP-10 | 2026-09-04 00:08:35 | 49.50052 | 15.22066 | 163° | 35km/h | 18592m | 5.2m/s | -54.7°C | 4.1% | 0hPa | 2.7V | 00:00:00 | 01:21:48 | 00:00:00 | |
| HA6NAB-11 | 2026-09-04 00:08:34 | 49.50052 | 15.22066 | 163° | 31km/h | 18592m | 5.2m/s | -54.8°C | 0% | 0hPa | 2.7V | 00:00:00 | 00:00:00 | 00:00:00 | |
| PETON7-10 | 2026-09-04 00:08:31 | 49.50080 | 15.22051 | 155° | 38km/h | 18571m | 6.4m/s | -54.6°C | 4.2% | 0hPa | 2.7V | 00:00:00 | 00:00:00 | 00:00:00 | |
| DO3MHA-11 | 2026-09-04 00:08:29 | 49.50096 | 15.22037 | 149° | 38km/h | 18559m | 5.6m/s | -54.6°C | 4.1% | 0hPa | 2.7V | 00:00:00 | 01:21:42 | 00:00:00 | |
| HA6NAB-11 | 2026-09-04 00:08:28 | 49.50096 | 15.22037 | 150° | 38km/h | 18559m | 5.7m/s | -54.6°C | 0% | 0hPa | 2.7V | 00:00:00 | 00:00:00 | 00:00:00 | |
| DB0UT-7 | 2026-09-04 00:08:26 | 49.50121 | 15.22014 | 151° | 55km/h | 18543m | 5.2m/s | -54.6°C | 4.1% | 0hPa | 2.7V | 00:00:00 | 01:21:39 | 00:00:00 | |
| PG1ADW-2 | 2026-09-04 00:08:25 | 49.50131 | 15.22005 | 151° | 44km/h | 18537m | 6.4m/s | -54.6°C | 4.2% | 0hPa | 2.7V | 00:00:00 | 00:00:00 | 08:30:00 | |
| NBG1-10 | 2026-09-04 00:08:23 | 49.50151 | 15.21989 | 153° | 44km/h | 18526m | 5.9m/s | -54.7°C | 4.1% | 0hPa | 2.7V | 00:00:00 | 01:21:36 | 00:00:00 | |
| HA6NAB-11 | 2026-09-04 00:08:22 | 49.50151 | 15.21989 | 153° | 40km/h | 18526m | 5.9m/s | -54.7°C | 0% | 0hPa | 2.7V | 00:00:00 | 00:00:00 | 00:00:00 | |
| OE5DRO-10 | 2026-09-04 00:08:20 | 49.50173 | 15.21969 | 145° | 44km/h | 18510m | 5.4m/s | -54.8°C | 4.2% | 0hPa | 2.7V | 00:00:00 | 00:00:00 | 00:00:00 | |
| DO3MHA-11 | 2026-09-04 00:08:19 | 49.50180 | 15.21961 | 141° | 46km/h | 18504m | 6.1m/s | -54.7°C | 4.2% | 0hPa | 2.6V | 00:00:00 | 01:21:32 | 00:00:00 | |
| PETON7-10 | 2026-09-04 00:08:16 | 49.50202 | 15.21931 | 141° | 44km/h | 18487m | 6.3m/s | -54.6°C | 4.2% | 0hPa | 2.6V | 00:00:00 | 00:00:00 | 00:00:00 | |
| S52SK | 2026-09-04 00:08:12 | 49.50231 | 15.21901 | 148° | 53km/h | 18470m | 6.2m/s | -54.5°C | 0% | 0hPa | 2.6V | 00:00:00 | 00:00:00 | 00:00:00 | |
| ANDY1245 | 2026-09-04 00:08:11 | 49.50242 | 15.21890 | 148° | 53km/h | 18464m | 5.7m/s | -54.5°C | 1.3% | 0hPa | 2.6V | 00:00:00 | 00:00:00 | 00:00:00 | |
| DO3MHA-11 | 2026-09-04 00:08:09 | 49.50275 | 15.21858 | 147° | 42km/h | 18448m | 4.7m/s | -54.3°C | 4.1% | 0hPa | 2.6V | 00:00:00 | 01:21:22 | 00:00:00 | |
| S52SK | 2026-09-04 00:08:06 | 49.50293 | 15.21838 | 144° | 44km/h | 18438m | 6.5m/s | -54.3°C | 0% | 0hPa | 2.6V | 00:00:00 | 00:00:00 | 00:00:00 | |
| OE5MMP-10 | 2026-09-04 00:08:05 | 49.50310 | 15.21817 | 139° | 44km/h | 18427m | 4.9m/s | -54.2°C | 4.0% | 0hPa | 2.6V | 00:00:00 | 01:21:18 | 00:00:00 | |
| EDDB2-11 | 2026-09-04 00:08:03 | 49.50412 | 15.21706 | 145° | 49km/h | 18368m | 5.9m/s | -54.0°C | 1.1% | -1.0hPa | 2.6V | 00:00:00 | 00:00:00 | 00:00:00 | |
| PETON7-10 | 2026-09-04 00:08:01 | 49.50341 | 15.21779 | 142° | 47km/h | 18406m | 5.8m/s | -54.1°C | 4.0% | 0hPa | 2.6V | 00:00:00 | 01:21:14 | 00:00:00 | |
| DO3MHA-11 | 2026-09-04 00:07:59 | 49.50360 | 15.21757 | 145° | 49km/h | 18395m | 5.3m/s | -54.0°C | 4.0% | 0hPa | 2.6V | 00:00:00 | 01:21:12 | 00:00:00 | |
| OE5MMP-10 | 2026-09-04 00:07:55 | 49.50401 | 15.21716 | 147° | 47km/h | 18374m | 6.2m/s | -54.0°C | 4.0% | 0hPa | 2.6V | 00:00:00 | 01:21:08 | 00:00:00 | |
| NBG1-10 | 2026-09-04 00:07:50 | 49.50452 | 15.21665 | 147° | 53km/h | 18348m | 4.3m/s | -53.9°C | 3.9% | 0hPa | 2.6V | 00:00:00 | 01:21:03 | 00:00:00 | |
| DO3MHA-11 | 2026-09-04 00:07:49 | 49.50462 | 15.21655 | 146° | 47km/h | 18343m | 6.8m/s | -53.9°C | 4.0% | 0hPa | 2.6V | 00:00:00 | 01:21:02 | 08:30:00 | |
| OE5DXL-15 | 2026-09-04 00:07:48 | 49.50471 | 15.21644 | 142° | 51km/h | 18336m | 5.3m/s | -54.0°C | 4.0% | 0hPa | 2.6V | 00:00:00 | 00:00:00 | 00:00:00 | |
| PETON7-10 | 2026-09-04 00:07:46 | 49.50489 | 15.21623 | 145° | 49km/h | 18326m | 5.4m/s | -54.0°C | 4.0% | 0hPa | 2.7V | 00:00:00 | 00:00:00 | 08:30:00 | |
| OE5MMP-10 | 2026-09-04 00:07:45 | 49.50498 | 15.21612 | 145° | 49km/h | 18321m | 4.5m/s | -54.0°C | 4.0% | 0hPa | 2.7V | 00:00:00 | 01:20:58 | 08:30:00 | |
| OE5DRO-10 | 2026-09-04 00:07:42 | 49.50526 | 15.21579 | 141° | 55km/h | 18305m | 4.8m/s | -53.9°C | 4.0% | 0hPa | 2.7V | 00:00:00 | 00:00:00 | 00:00:00 | |
| ANDY1245 | 2026-09-04 00:07:41 | 49.50526 | 15.21579 | 141° | 51km/h | 18305m | 4.9m/s | -54.0°C | 1.3% | 0hPa | 2.7V | 00:00:00 | 00:00:00 | 00:00:00 | |
| DO3MHA-11 | 2026-09-04 00:07:39 | 49.50556 | 15.21542 | 141° | 53km/h | 18290m | 4.6m/s | -54.0°C | 4.0% | 0hPa | 2.7V | 00:00:00 | 01:20:52 | 00:00:00 | |
| ANDY1245 | 2026-09-04 00:07:36 | 49.50576 | 15.21514 | 136° | 53km/h | 18278m | 6.7m/s | -54.1°C | 1.3% | 0hPa | 2.7V | 00:00:00 | 00:00:00 | 00:00:00 | |
| OE5MMP-10 | 2026-09-04 00:07:35 | 49.50594 | 15.21485 | 133° | 57km/h | 18267m | 6.5m/s | -54.0°C | 4.0% | 0hPa | 2.7V | 00:00:00 | 01:20:48 | 00:00:00 | |
| SONDE2-11 | 2026-09-04 00:07:34 | 49.50611 | 15.21457 | 131° | 49km/h | 18256m | 4.8m/s | -54.0°C | 1.1% | -1.0hPa | 2.7V | 00:00:00 | 00:00:00 | 00:00:00 | |
| PETON7-10 | 2026-09-04 00:07:31 | 49.50629 | 15.21425 | 129° | 55km/h | 18245m | 5.8m/s | -53.8°C | 4.1% | 0hPa | 2.7V | 00:00:00 | 00:00:00 | 00:00:00 | |
| DO3MHA-11 | 2026-09-04 00:07:29 | 49.50648 | 15.21388 | 131° | 57km/h | 18234m | 6.2m/s | -53.8°C | 4.0% | 0hPa | 2.7V | 00:00:00 | 01:20:42 | 00:00:00 | |
| PG1ADW-2 | 2026-09-04 00:07:25 | 49.50690 | 15.21315 | 128° | 53km/h | 18214m | 6.1m/s | -53.7°C | 4.0% | 0hPa | 2.7V | 00:00:00 | 00:00:00 | 00:00:00 | |
| OE5DRO-10 | 2026-09-04 00:07:23 | 49.50707 | 15.21278 | 127° | 53km/h | 18204m | 4.8m/s | -53.6°C | 4.0% | 0hPa | 2.6V | 00:00:00 | 00:00:00 | 08:30:00 | |
| DB0UT-7 | 2026-09-04 00:07:22 | 49.50716 | 15.21262 | 130° | 49km/h | 18198m | 6.3m/s | -53.6°C | 4.0% | 0hPa | 2.6V | 00:00:00 | 00:00:00 | 00:00:00 | |
| DO3MHA-11 | 2026-09-04 00:07:19 | 49.50740 | 15.21220 | 133° | 57km/h | 18182m | 4.9m/s | -53.4°C | 4.0% | 0hPa | 2.6V | 00:00:00 | 01:20:32 | 00:00:00 | |
| NBG1-10 | 2026-09-04 00:07:17 | 49.50758 | 15.21191 | 137° | 53km/h | 18172m | 6.0m/s | -53.4°C | 3.9% | 0hPa | 2.6V | 00:00:00 | 01:20:30 | 00:00:00 | |
| PETON7-10 | 2026-09-04 00:07:16 | 49.50768 | 15.21176 | 137° | 53km/h | 18166m | 4.9m/s | -53.4°C | 3.9% | 0hPa | 2.7V | 00:00:00 | 01:20:29 | 00:00:00 | |
| OE5MMP-10 | 2026-09-04 00:07:15 | 49.50779 | 15.21160 | 134° | 55km/h | 18162m | 4.6m/s | -53.4°C | 3.9% | 0hPa | 2.7V | 00:00:00 | 01:20:28 | 00:00:00 | |
| DO3MHA-11 | 2026-09-04 00:07:09 | 49.50829 | 15.21053 | 122° | 51km/h | 18126m | 5.8m/s | -53.2°C | 3.9% | 0hPa | 2.7V | 00:00:00 | 01:20:22 | 00:00:00 | |
| OE5MMP-10 | 2026-09-04 00:07:05 | 49.50857 | 15.20993 | 131° | 57km/h | 18103m | 4.6m/s | -53.2°C | 3.9% | 0hPa | 2.7V | 00:00:00 | 01:20:18 | 00:00:00 | |
| OE5DRO-10 | 2026-09-04 00:07:04 | 49.50865 | 15.20978 | 130° | 53km/h | 18098m | 5.3m/s | -53.2°C | 3.9% | 0hPa | 2.7V | 00:00:00 | 00:00:00 | 00:00:00 | |
| SONDE2-11 | 2026-09-04 00:07:03 | 49.50882 | 15.20947 | 128° | 55km/h | 18088m | 5.5m/s | -53.3°C | 1.1% | -1.0hPa | 2.7V | 00:00:00 | 00:00:00 | 00:00:00 | |
| EDDB2-11 | 2026-09-04 00:07:02 | 49.50937 | 15.20815 | 115° | 53km/h | 18049m | 4.5m/s | -53.2°C | 1.1% | -1.0hPa | 2.7V | 00:00:00 | 00:00:00 | 00:00:00 | |
| PETON7-10 | 2026-09-04 00:07:01 | 49.50890 | 15.20930 | 130° | 53km/h | 18082m | 7.5m/s | -53.2°C | 3.9% | 0hPa | 2.7V | 00:00:00 | 00:00:00 | 00:00:00 | |
| ANDY1245 | 2026-09-04 00:07:00 | 49.50891 | 15.20930 | 131° | 58km/h | 18082m | 7.5m/s | -53.3°C | 1.3% | 0hPa | 2.6V | 00:00:00 | 00:00:00 | 00:00:00 | |
| DO3MHA-11 | 2026-09-04 00:06:59 | 49.50909 | 15.20893 | 124° | 53km/h | 18072m | 5.6m/s | -53.2°C | 3.9% | 0hPa | 2.6V | 00:00:00 | 01:20:12 | 00:00:00 | |
| OE5MMP-10 | 2026-09-04 00:06:55 | 49.50936 | 15.20814 | 116° | 49km/h | 18050m | 4.5m/s | -53.2°C | 3.8% | 0hPa | 2.6V | 00:00:00 | 01:20:08 | 00:00:00 | |
| DO3MHA-11 | 2026-09-04 00:06:49 | 49.50973 | 15.20717 | 131° | 49km/h | 18018m | 4.8m/s | -53.0°C | 3.7% | 0hPa | 2.6V | 00:00:00 | 01:20:02 | 00:00:00 | |
| PETON7-10 | 2026-09-04 00:06:46 | 49.50997 | 15.20676 | 133° | 49km/h | 18002m | 6.4m/s | -53.0°C | 3.6% | 0hPa | 2.7V | 00:00:00 | 00:00:00 | 00:00:00 | |
| PG1ADW-2 | 2026-09-04 00:06:45 | 49.51006 | 15.20661 | 131° | 49km/h | 17996m | 5.8m/s | -53.0°C | 3.6% | 0hPa | 2.7V | 00:00:00 | 01:19:58 | 00:00:00 | |
| DB0UT-7 | 2026-09-04 00:06:44 | 49.51014 | 15.20646 | 129° | 40km/h | 17990m | 5.4m/s | -53.1°C | 3.7% | 0hPa | 2.7V | 00:00:00 | 01:19:57 | 00:00:00 | |
| DO3MHA-11 | 2026-09-04 00:06:39 | 49.51045 | 15.20564 | 121° | 51km/h | 17962m | 4.4m/s | -53.4°C | 3.7% | 0hPa | 2.7V | 00:00:00 | 01:19:52 | 00:00:00 | |
| OE5MMP-10 | 2026-09-04 00:06:35 | 49.51075 | 15.20502 | 130° | 51km/h | 17939m | 5.6m/s | -54.3°C | 4.0% | 0hPa | 2.7V | 00:00:00 | 01:19:48 | 00:00:00 | |
| SONDE2-11 | 2026-09-04 00:06:32 | 49.51109 | 15.20443 | 133° | 49km/h | 17916m | 6.0m/s | -54.6°C | 1.2% | -1.0hPa | 2.7V | 00:00:00 | 00:00:00 | 00:00:00 | |
| PETON7-10 | 2026-09-04 00:06:30 | 49.51117 | 15.20429 | 132° | 53km/h | 17911m | 3.9m/s | -54.5°C | 4.0% | 0hPa | 2.7V | 00:00:00 | 01:19:43 | 00:00:00 | |
| DO3MHA-11 | 2026-09-04 00:06:29 | 49.51125 | 15.20414 | 130° | 53km/h | 17907m | 5.7m/s | -54.5°C | 4.0% | 0hPa | 2.7V | 00:00:00 | 01:19:42 | 00:00:00 | |
| OE5DRO-10 | 2026-09-04 00:06:26 | 49.51148 | 15.20367 | 126° | 53km/h | 17889m | 5.2m/s | -54.6°C | 4.0% | 0hPa | 2.7V | 00:00:00 | 00:00:00 | 00:00:00 | |
| PG1ADW-2 | 2026-09-04 00:06:25 | 49.51156 | 15.20351 | 126° | 53km/h | 17883m | 6.2m/s | -54.7°C | 4.0% | 0hPa | 2.7V | 00:00:00 | 00:00:00 | 00:00:00 | |
| ANDY1245 | 2026-09-04 00:06:23 | 49.51163 | 15.20334 | 128° | 55km/h | 17878m | 4.8m/s | -54.8°C | 1.4% | 0hPa | 2.6V | 00:00:00 | 00:00:00 | 00:00:00 | |
| DO3MHA-11 | 2026-09-04 00:06:19 | 49.51203 | 15.20248 | 121° | 53km/h | 17851m | 4.2m/s | -55.2°C | 4.3% | 0hPa | 2.6V | 00:00:00 | 01:19:32 | 08:30:00 | |
| S52SK | 2026-09-04 00:06:18 | 49.51210 | 15.20230 | 120° | 53km/h | 17846m | 5.3m/s | -55.3°C | 0% | 0hPa | 2.7V | 00:00:00 | 00:00:00 | 00:00:00 | |
| OE5MMP-10 | 2026-09-04 00:06:15 | 49.51229 | 15.20176 | 120° | 53km/h | 17829m | 5.7m/s | -55.4°C | 4.3% | 0hPa | 2.7V | 00:00:00 | 01:19:28 | 08:30:00 | |
| PETON7-10 | 2026-09-04 00:06:14 | 49.51236 | 15.20158 | 120° | 49km/h | 17824m | 5.3m/s | -55.4°C | 4.3% | 0hPa | 2.6V | 00:00:00 | 00:00:00 | 00:00:00 | |
| S52SK | 2026-09-04 00:06:12 | 49.51242 | 15.20140 | 121° | 55km/h | 17819m | 5.1m/s | -55.5°C | 0% | 0hPa | 2.6V | 00:00:00 | 00:00:00 | 00:00:00 | |
| NBG1-10 | 2026-09-04 00:06:11 | 49.51256 | 15.20103 | 120° | 42km/h | 17809m | 4.7m/s | -55.5°C | 4.3% | 0hPa | 2.6V | 00:00:00 | 01:19:24 | 00:00:00 | |
| DO3MHA-11 | 2026-09-04 00:06:09 | 49.51268 | 15.20067 | 113° | 46km/h | 17798m | 3.6m/s | -55.6°C | 4.4% | 0hPa | 2.6V | 00:00:00 | 01:19:22 | 00:00:00 | |
| OE5DRO-10 | 2026-09-04 00:06:07 | 49.51277 | 15.20029 | 110° | 42km/h | 17790m | 6.1m/s | -55.6°C | 4.4% | 0hPa | 2.6V | 00:00:00 | 00:00:00 | 00:00:00 | |
| PG1ADW-2 | 2026-09-04 00:06:05 | 49.51284 | 15.19992 | 106° | 40km/h | 17777m | 7.3m/s | -55.6°C | 4.4% | 0hPa | 2.6V | 00:00:00 | 00:00:00 | 00:00:00 | |
| HA6NAB-11 | 2026-09-04 00:06:04 | 49.51284 | 15.19992 | 106° | 46km/h | 17777m | 7.3m/s | -55.7°C | 0% | 0hPa | 2.6V | 00:00:00 | 00:00:00 | 00:00:00 | |
| SONDE2-11 | 2026-09-04 00:06:01 | 49.51298 | 15.19912 | 107° | 42km/h | 17749m | 5.9m/s | -55.9°C | 1.3% | -1.0hPa | 2.6V | 00:00:00 | 00:00:00 | 00:00:00 | |
| HA6NAB-11 | 2026-09-04 00:05:59 | 49.51301 | 15.19896 | 107° | 42km/h | 17743m | 6.1m/s | -55.9°C | 0% | 0hPa | 2.6V | 00:00:00 | 00:00:00 | 00:00:00 | |
| OE5MMP-10 | 2026-09-04 00:05:55 | 49.51315 | 15.19830 | 110° | 38km/h | 17721m | 5.2m/s | -55.9°C | 4.5% | 0hPa | 2.6V | 00:00:00 | 01:19:08 | 00:00:00 | |
| HA6NAB-11 | 2026-09-04 00:05:53 | 49.51318 | 15.19815 | 112° | 40km/h | 17716m | 4.1m/s | 0°C | 0% | 0hPa | 2.6V | 00:00:00 | 00:00:00 | 00:00:00 | |
| ANDY1245 | 2026-09-04 00:05:51 | 49.51325 | 15.19786 | 113° | 40km/h | 17706m | 6.6m/s | -55.8°C | 1.5% | 0hPa | 2.6V | 00:00:00 | 00:00:00 | 00:00:00 | |
| DO3MHA-11 | 2026-09-04 00:05:49 | 49.51338 | 15.19745 | 118° | 37km/h | 17689m | 6.3m/s | -55.7°C | 4.5% | 0hPa | 2.6V | 00:00:00 | 01:19:02 | 00:00:00 | |
| HA6NAB-11 | 2026-09-04 00:05:48 | 49.51343 | 15.19734 | 124° | 33km/h | 17684m | 3.7m/s | 0°C | 0% | 0hPa | 2.6V | 00:00:00 | 00:00:00 | 00:00:00 | |
| OE5DXL-15 | 2026-09-04 00:05:45 | 49.51359 | 15.19703 | 132° | 47km/h | 17669m | 4.3m/s | -55.6°C | 4.5% | 0hPa | 2.6V | 00:00:00 | 00:00:00 | 00:00:00 | |
| PETON7-10 | 2026-09-04 00:05:44 | 49.51365 | 15.19692 | 129° | 40km/h | 17665m | 3.9m/s | -55.6°C | 4.5% | 0hPa | 2.6V | 00:00:00 | 01:18:57 | 00:00:00 | |
| HA6NAB-11 | 2026-09-04 00:05:41 | 49.51375 | 15.19667 | 116° | 38km/h | 17653m | 6.5m/s | 0°C | 0% | 0hPa | 2.6V | 00:00:00 | 00:00:00 | 00:00:00 | |
| DO3MHA-11 | 2026-09-04 00:05:39 | 49.51384 | 15.19620 | 105° | 38km/h | 17636m | 7.2m/s | -55.6°C | 4.5% | 0hPa | 2.6V | 00:00:00 | 01:18:52 | 00:00:00 | |
| NBG1-10 | 2026-09-04 00:05:38 | 49.51387 | 15.19604 | 109° | 44km/h | 17631m | 1.9m/s | -55.6°C | 4.5% | 0hPa | 2.6V | 00:00:00 | 01:18:51 | 00:00:00 | |
| OE5MMP-10 | 2026-09-04 00:05:35 | 49.51399 | 15.19557 | 119° | 38km/h | 17616m | 8.5m/s | -55.6°C | 4.4% | 0hPa | 2.6V | 00:00:00 | 01:18:48 | 00:00:00 | |
| DB0UT-7 | 2026-09-04 00:05:32 | 49.51414 | 15.19522 | 125° | 46km/h | 17597m | 7.7m/s | 0°C | 0% | 0hPa | 2.6V | 00:00:00 | 00:00:00 | 00:00:00 | |
| HA6NAB-11 | 2026-09-04 00:05:31 | 49.51414 | 15.19522 | 126° | 35km/h | 17597m | 7.7m/s | 0°C | 0% | 0hPa | 2.6V | 00:00:00 | 00:00:00 | 00:00:00 | |
| SONDE2-11 | 2026-09-04 00:05:30 | 49.51430 | 15.19489 | 127° | 37km/h | 17576m | 5.1m/s | -55.5°C | 1.3% | -1.0hPa | 2.6V | 00:00:00 | 00:00:00 | 00:00:00 | |
| DO3MHA-11 | 2026-09-04 00:05:29 | 49.51430 | 15.19489 | 128° | 44km/h | 17576m | 5.0m/s | -55.5°C | 4.2% | 0hPa | 2.6V | 00:00:00 | 01:18:42 | 00:00:00 | |
| EDDB2-11 | 2026-09-04 00:05:28 | 49.51436 | 15.19477 | 125° | 38km/h | 17570m | 6.1m/s | -55.5°C | 1.3% | -1.0hPa | 2.6V | 00:00:00 | 00:00:00 | 00:00:00 | |
| HA6NAB-11 | 2026-09-04 00:05:26 | 49.51442 | 15.19464 | 124° | 40km/h | 17563m | 8.1m/s | 0°C | 0% | 0hPa | 2.6V | 00:00:00 | 00:00:00 | 00:00:00 | |
| OE5MMP-10 | 2026-09-04 00:05:25 | 49.51453 | 15.19437 | 123° | 46km/h | 17549m | 7.2m/s | -55.4°C | 4.2% | 0hPa | 2.6V | 00:00:00 | 01:18:38 | 00:00:00 | |
| SP3BTT-10 | 2026-09-04 00:05:24 | 49.51458 | 15.19423 | 122° | 57km/h | 17542m | 6.0m/s | -55.4°C | 4.2% | 0hPa | 2.6V | 00:00:00 | 00:00:00 | 00:00:00 | |
| HA6NAB-11 | 2026-09-04 00:05:20 | 49.51475 | 15.19376 | 121° | 47km/h | 17526m | 5.3m/s | 0°C | 0% | 0hPa | 2.6V | 00:00:00 | 00:00:00 | 00:00:00 | |
| DO3MHA-11 | 2026-09-04 00:05:19 | 49.51489 | 15.19347 | 129° | 49km/h | 17513m | 5.5m/s | -56.3°C | 4.5% | 0hPa | 2.6V | 00:00:00 | 01:18:32 | 00:00:00 | |
| ANDY1245 | 2026-09-04 00:05:16 | 49.51503 | 15.19319 | 130° | 49km/h | 17501m | 7.9m/s | -56.6°C | 1.6% | 0hPa | 2.7V | 00:00:00 | 00:00:00 | 00:00:00 | |
| OE5MMP-10 | 2026-09-04 00:05:15 | 49.51519 | 15.19289 | 131° | 51km/h | 17488m | 6.8m/s | -56.6°C | 4.5% | 0hPa | 2.7V | 00:00:00 | 01:18:28 | 00:00:00 | |
| PETON7-10 | 2026-09-04 00:05:11 | 49.51549 | 15.19225 | 121° | 46km/h | 17462m | 4.9m/s | -57.0°C | 4.7% | 0hPa | 2.6V | 00:00:00 | 00:00:00 | 00:00:00 | |
| OE5DRO-10 | 2026-09-04 00:05:10 | 49.51556 | 15.19208 | 120° | 44km/h | 17456m | 6.4m/s | -57.0°C | 4.7% | 0hPa | 2.6V | 00:00:00 | 00:00:00 | 00:00:00 | |
| DO3MHA-11 | 2026-09-04 00:05:09 | 49.51562 | 15.19191 | 117° | 47km/h | 17450m | 5.6m/s | -57.1°C | 4.7% | 0hPa | 2.6V | 00:00:00 | 01:18:22 | 00:00:00 | |
| OE5DXL-15 | 2026-09-04 00:05:07 | 49.51573 | 15.19156 | 114° | 53km/h | 17439m | 5.6m/s | -57.2°C | 4.8% | 0hPa | 2.6V | 00:00:00 | 00:00:00 | 00:00:00 | |
| OE5MMP-10 | 2026-09-04 00:05:05 | 49.51584 | 15.19121 | 122° | 42km/h | 17428m | 5.9m/s | -57.2°C | 4.8% | 0hPa | 2.6V | 00:00:00 | 01:18:18 | 00:00:00 | |
| DB0UT-7 | 2026-09-04 00:05:02 | 49.51606 | 15.19078 | 134° | 44km/h | 17411m | 5.8m/s | 0°C | 0% | 0hPa | 2.6V | 00:00:00 | 01:18:15 | 00:00:00 | |
| SONDE2-11 | 2026-09-04 00:04:59 | 49.51635 | 15.19033 | 131° | 37km/h | 17391m | 4.7m/s | -57.4°C | 1.6% | -1.0hPa | 2.6V | 00:00:00 | 00:00:00 | 00:00:00 | |
| EDDB2-11 | 2026-09-04 00:04:57 | 49.51641 | 15.19022 | 128° | 35km/h | 17385m | 5.4m/s | -57.4°C | 1.5% | -1.0hPa | 2.6V | 00:00:00 | 00:00:00 | 00:00:00 | |
| PETON7-10 | 2026-09-04 00:04:56 | 49.51646 | 15.19011 | 121° | 38km/h | 17381m | 4.1m/s | -57.4°C | 4.9% | 0hPa | 2.6V | 00:00:00 | 01:18:09 | 00:00:00 | |
| OE5MMP-10 | 2026-09-04 00:04:55 | 49.51651 | 15.18999 | 118° | 40km/h | 17377m | 4.7m/s | -57.4°C | 4.9% | 0hPa | 2.6V | 00:00:00 | 01:18:08 | 00:00:00 | |
| OE5DRO-10 | 2026-09-04 00:04:51 | 49.51665 | 15.18946 | 111° | 40km/h | 17357m | 4.7m/s | -57.3°C | 4.9% | 0hPa | 2.6V | 00:00:00 | 00:00:00 | 00:00:00 | |
| DO3MHA-11 | 2026-09-04 00:04:49 | 49.51673 | 15.18918 | 119° | 40km/h | 17347m | 5.7m/s | -57.3°C | 4.9% | 0hPa | 2.6V | 00:00:00 | 01:18:02 | 08:30:00 | |
| PG1ADW-2 | 2026-09-04 00:04:45 | 49.51697 | 15.18865 | 131° | 42km/h | 17325m | 4.7m/s | -57.2°C | 4.9% | 0hPa | 2.7V | 00:00:00 | 00:00:00 | 00:00:00 | |
| ANDY1245 | 2026-09-04 00:04:43 | 49.51711 | 15.18842 | 135° | 40km/h | 17316m | 5.6m/s | -57.2°C | 1.7% | 0hPa | 2.7V | 00:00:00 | 00:00:00 | 00:00:00 | |
| PETON7-10 | 2026-09-04 00:04:42 | 49.51730 | 15.18808 | 127° | 42km/h | 17300m | 5.4m/s | -57.1°C | 4.8% | 0hPa | 2.7V | 00:00:00 | 00:00:00 | 00:00:00 | |
| DO3MHA-11 | 2026-09-04 00:04:39 | 49.51736 | 15.18797 | 127° | 40km/h | 17295m | 5.2m/s | -57.0°C | 4.8% | 0hPa | 2.7V | 00:00:00 | 01:17:52 | 00:00:00 | |
| ANDY1245 | 2026-09-04 00:04:37 | 49.51747 | 15.18773 | 129° | 38km/h | 17284m | 4.6m/s | -57.1°C | 1.7% | 0hPa | 2.7V | 00:00:00 | 00:00:00 | 00:00:00 | |
| OE5MMP-10 | 2026-09-04 00:04:35 | 49.51760 | 15.18751 | 134° | 44km/h | 17275m | 5.0m/s | -57.0°C | 4.8% | 0hPa | 2.7V | 00:00:00 | 01:17:48 | 00:00:00 | |
| NBG1-10 | 2026-09-04 00:04:32 | 49.51782 | 15.18720 | 143° | 49km/h | 17259m | 5.9m/s | -57.0°C | 4.8% | 0hPa | 2.7V | 00:00:00 | 01:17:45 | 00:00:00 | |
| DO3MHA-11 | 2026-09-04 00:04:29 | 49.51810 | 15.18686 | 139° | 44km/h | 17243m | 5.4m/s | -56.9°C | 4.8% | 0hPa | 2.7V | 00:00:00 | 01:17:42 | 00:00:00 | |
| EDDB2-11 | 2026-09-04 00:04:27 | 49.51836 | 15.18648 | 132° | 44km/h | 17226m | 4.5m/s | -56.8°C | 1.5% | -1.0hPa | 2.7V | 00:00:00 | 00:00:00 | 00:00:00 | |
| OE5MMP-10 | 2026-09-04 00:04:26 | 49.51843 | 15.18636 | 132° | 46km/h | 17221m | 5.7m/s | -56.8°C | 4.8% | 0hPa | 2.7V | 00:00:00 | 01:17:38 | 00:00:00 | |
| S52SK | 2026-09-04 00:04:20 | 49.51874 | 15.18597 | 150° | 42km/h | 17202m | 6.0m/s | -56.7°C | 0% | 0hPa | 2.7V | 00:00:00 | 00:00:00 | 00:00:00 | |
| DO3MHA-11 | 2026-09-04 00:04:19 | 49.51894 | 15.18580 | 152° | 51km/h | 17191m | 5.1m/s | -56.6°C | 4.8% | 0hPa | 2.7V | 00:00:00 | 01:17:32 | 00:00:00 | |
| OE5MMP-10 | 2026-09-04 00:04:15 | 49.51937 | 15.18534 | 137° | 51km/h | 17171m | 6.1m/s | -56.4°C | 4.7% | 0hPa | 2.6V | 00:00:00 | 01:17:28 | 00:00:00 | |
| OE5DRO-10 | 2026-09-04 00:04:13 | 49.51956 | 15.18503 | 133° | 53km/h | 17161m | 4.3m/s | -56.4°C | 4.8% | 0hPa | 2.6V | 00:00:00 | 00:00:00 | 00:00:00 | |
| S52SK | 2026-09-04 00:04:11 | 49.51984 | 15.18464 | 146° | 46km/h | 17144m | 4.9m/s | -56.5°C | 0% | 0hPa | 2.6V | 00:00:00 | 00:00:00 | 00:00:00 | |
| DB0UT-7 | 2026-09-04 00:04:06 | 49.52037 | 15.18416 | 147° | 57km/h | 17118m | 6.6m/s | 0°C | 0% | 0hPa | 2.6V | 00:00:00 | 00:00:00 | 00:00:00 | |
| OE5MMP-10 | 2026-09-04 00:04:05 | 49.52037 | 15.18416 | 147° | 57km/h | 17118m | 6.6m/s | -56.4°C | 4.7% | 0hPa | 2.6V | 00:00:00 | 01:17:18 | 00:00:00 | |
| SONDE2-11 | 2026-09-04 00:03:57 | 49.52134 | 15.18287 | 140° | 58km/h | 17068m | 4.7m/s | -56.1°C | 1.5% | -1.0hPa | 2.6V | 00:00:00 | 00:00:00 | 00:00:00 | |
| PETON7-10 | 2026-09-04 00:03:56 | 49.52145 | 15.18272 | 140° | 57km/h | 17064m | 4.1m/s | -56.0°C | 4.7% | 0hPa | 2.6V | 00:00:00 | 00:00:00 | 00:00:00 | |
| OE5MMP-10 | 2026-09-04 00:03:55 | 49.52145 | 15.18272 | 140° | 55km/h | 17064m | 4.1m/s | -56.0°C | 4.7% | 0hPa | 2.6V | 00:00:00 | 01:17:08 | 00:00:00 | |
| OE5DRO-10 | 2026-09-04 00:03:54 | 49.52156 | 15.18258 | 139° | 57km/h | 17059m | 6.1m/s | -55.9°C | 4.7% | 0hPa | 2.6V | 00:00:00 | 00:00:00 | 00:00:00 | |
| DO3MHA-11 | 2026-09-04 00:03:49 | 49.52207 | 15.18186 | 137° | 57km/h | 17032m | 6.6m/s | -55.7°C | 4.6% | 0hPa | 2.6V | 00:00:00 | 01:17:02 | 00:00:00 | |
| OE5MMP-10 | 2026-09-04 00:03:45 | 49.52247 | 15.18130 | 140° | 58km/h | 17010m | 5.9m/s | -55.6°C | 4.6% | 0hPa | 2.6V | 00:00:00 | 01:16:58 | 00:00:00 | |
| OE5DXL-15 | 2026-09-04 00:03:42 | 49.52282 | 15.18082 | 135° | 62km/h | 16993m | 5.6m/s | -55.4°C | 4.5% | 0hPa | 2.7V | 00:00:00 | 00:00:00 | 00:00:00 | |
| PETON7-10 | 2026-09-04 00:03:40 | 49.52314 | 15.18034 | 138° | 58km/h | 16976m | 5.1m/s | -55.4°C | 4.5% | 0hPa | 2.7V | 00:00:00 | 00:00:00 | 00:00:00 | |
| OE5MMP-10 | 2026-09-04 00:03:35 | 49.52353 | 15.17977 | 138° | 60km/h | 16954m | 5.4m/s | -55.2°C | 4.4% | 0hPa | 2.7V | 00:00:00 | 01:16:48 | 00:00:00 | |
| DO3MHA-11 | 2026-09-04 00:03:29 | 49.52419 | 15.17881 | 133° | 58km/h | 16921m | 5.5m/s | -55.1°C | 4.5% | 0hPa | 2.7V | 00:00:00 | 01:16:42 | 00:00:00 | |
| SONDE2-11 | 2026-09-04 00:03:26 | 49.52459 | 15.17811 | 131° | 60km/h | 16895m | 6.2m/s | -55.1°C | 1.5% | -1.0hPa | 2.7V | 00:00:00 | 00:00:00 | 00:00:00 | |
| OE5MMP-10 | 2026-09-04 00:03:25 | 49.52459 | 15.17811 | 132° | 57km/h | 16895m | 6.1m/s | -55.0°C | 4.5% | 0hPa | 2.7V | 00:00:00 | 01:16:38 | 00:00:00 | |
| PETON7-10 | 2026-09-04 00:03:24 | 49.52469 | 15.17794 | 135° | 60km/h | 16890m | 2.7m/s | -55.0°C | 4.4% | 0hPa | 2.7V | 00:00:00 | 01:16:37 | 00:00:00 | |
| SP3BTT-10 | 2026-09-04 00:03:22 | 49.52491 | 15.17763 | 140° | 51km/h | 16880m | 7.9m/s | -55.0°C | 4.3% | 0hPa | 2.7V | 00:00:00 | 00:00:00 | 00:00:00 | |
| DO3MHA-11 | 2026-09-04 00:03:19 | 49.52523 | 15.17720 | 137° | 60km/h | 16860m | 4.6m/s | -55.0°C | 4.3% | 0hPa | 2.7V | 00:00:00 | 01:16:32 | 08:30:00 | |
| OE5DRO-10 | 2026-09-04 00:03:16 | 49.52551 | 15.17676 | 135° | 62km/h | 16841m | 7.5m/s | -55.2°C | 4.3% | 0hPa | 2.7V | 00:00:00 | 00:00:00 | 00:00:00 | |
| OE5MMP-10 | 2026-09-04 00:03:15 | 49.52562 | 15.17660 | 136° | 66km/h | 16833m | 9.1m/s | -55.2°C | 4.3% | 0hPa | 2.7V | 00:00:00 | 01:16:28 | 08:30:00 | |
| PETON7-10 | 2026-09-04 00:03:09 | 49.52629 | 15.17547 | 130° | 64km/h | 16795m | 6.2m/s | -55.4°C | 4.4% | 0hPa | 2.7V | 00:00:00 | 00:00:00 | 08:30:00 | |
| PG1ADW-2 | 2026-09-04 00:03:06 | 49.52666 | 15.17467 | 120° | 62km/h | 16769m | 5.1m/s | -55.9°C | 4.6% | 0hPa | 2.7V | 00:00:00 | 00:00:00 | 00:00:00 | |
| DO3MHA-11 | 2026-09-04 00:02:28 | 49.53093 | 15.16300 | 117° | 58km/h | 16420m | 7.6m/s | -56.5°C | 4.9% | 0hPa | 2.7V | 00:00:00 | 01:15:22 | 00:00:00 | |
| PETON7-10 | 2026-09-04 00:02:27 | 49.53107 | 15.16256 | 118° | 58km/h | 16407m | 6.2m/s | -56.5°C | 5.0% | 0hPa | 2.7V | 00:00:00 | 00:00:00 | 00:00:00 | |
| OE5DXL-15 | 2026-09-04 00:02:25 | 49.53121 | 15.16216 | 121° | 57km/h | 16396m | 5.4m/s | -56.5°C | 5.0% | 0hPa | 2.7V | 00:00:00 | 00:00:00 | 08:30:00 | |
| ANDY1245 | 2026-09-04 00:02:19 | 49.53152 | 15.16144 | 123° | 57km/h | 16373m | 3.2m/s | -56.6°C | 2.0% | 0hPa | 2.6V | 00:00:00 | 00:00:00 | 00:00:00 | |
| OE5DRO-10 | 2026-09-04 00:02:18 | 49.53159 | 15.16125 | 120° | 58km/h | 16369m | 4.2m/s | -56.6°C | 5.0% | 0hPa | 2.6V | 00:00:00 | 00:00:00 | 00:00:00 | |
| DO3MHA-11 | 2026-09-04 00:02:17 | 49.53166 | 15.16104 | 117° | 60km/h | 16363m | 7.4m/s | -56.5°C | 4.9% | 0hPa | 2.6V | 00:00:00 | 01:15:12 | 00:00:00 | |
| OE5MMP-10 | 2026-09-04 00:02:11 | 49.53192 | 15.16018 | 113° | 58km/h | 16335m | 7.0m/s | -56.4°C | 4.9% | 0hPa | 2.6V | 00:00:00 | 01:15:08 | 00:00:00 | |
| SONDE2-11 | 2026-09-04 00:02:10 | 49.53213 | 15.15956 | 121° | 60km/h | 16316m | 6.1m/s | -56.4°C | 1.7% | -1.0hPa | 2.6V | 00:00:00 | 00:00:00 | 00:00:00 | |
| PETON7-10 | 2026-09-04 00:02:09 | 49.53213 | 15.15956 | 122° | 57km/h | 16316m | 6.1m/s | -56.4°C | 4.9% | 0hPa | 2.6V | 00:00:00 | 01:15:05 | 00:00:00 | |
| EDDB2-11 | 2026-09-04 00:02:07 | 49.53229 | 15.15915 | 121° | 60km/h | 16303m | 5.8m/s | -56.4°C | 1.7% | -1.0hPa | 2.6V | 00:00:00 | 00:00:00 | 00:00:00 | |
| DO3MHA-11 | 2026-09-04 00:02:05 | 49.53237 | 15.15895 | 123° | 57km/h | 16297m | 5.8m/s | -56.3°C | 5.0% | 0hPa | 2.6V | 00:00:00 | 01:15:02 | 08:30:00 | |
| NBG1-10 | 2026-09-04 00:02:01 | 49.53251 | 15.15859 | 121° | 49km/h | 16285m | 5.9m/s | -56.3°C | 5.0% | 0hPa | 2.7V | 00:00:00 | 01:15:00 | 00:00:00 | |
| OE5MMP-10 | 2026-09-04 00:01:58 | 49.53263 | 15.15822 | 111° | 57km/h | 16272m | 4.6m/s | -56.2°C | 5.0% | 0hPa | 2.7V | 00:00:00 | 01:14:58 | 08:30:00 | |
| OE5DRO-10 | 2026-09-04 00:01:55 | 49.53283 | 15.15742 | 113° | 51km/h | 16251m | 6.6m/s | -56.1°C | 4.9% | 0hPa | 2.7V | 00:00:00 | 00:00:00 | 08:30:00 | |
| DO3MHA-11 | 2026-09-04 00:01:50 | 49.53295 | 15.15698 | 115° | 49km/h | 16239m | 5.4m/s | -56.0°C | 4.9% | 0hPa | 2.6V | 00:00:00 | 01:14:52 | 00:00:00 | |
| PETON7-10 | 2026-09-04 00:01:47 | 49.53309 | 15.15659 | 124° | 49km/h | 16231m | 2.1m/s | -55.9°C | 4.9% | 0hPa | 2.6V | 00:00:00 | 00:00:00 | 00:00:00 | |
| OE5DXL-15 | 2026-09-04 00:01:43 | 49.53324 | 15.15626 | 128° | 47km/h | 16220m | 6.9m/s | -55.9°C | 4.8% | 0hPa | 2.6V | 00:00:00 | 00:00:00 | 00:00:00 | |
| OE5MMP-10 | 2026-09-04 00:01:42 | 49.53324 | 15.15626 | 128° | 47km/h | 16220m | 6.9m/s | -55.9°C | 4.8% | 0hPa | 2.6V | 00:00:00 | 01:14:48 | 00:00:00 | |
| ANDY1245 | 2026-09-04 00:01:38 | 49.53346 | 15.15567 | 112° | 42km/h | 16194m | 5.0m/s | -55.8°C | 1.9% | 0hPa | 2.6V | 00:00:00 | 00:00:00 | 00:00:00 | |
| DO3MHA-11 | 2026-09-04 00:01:36 | 49.53353 | 15.15533 | 104° | 49km/h | 16182m | 5.7m/s | -55.7°C | 4.8% | 0hPa | 2.6V | 00:00:00 | 01:14:42 | 00:00:00 | |
| ANDY1245 | 2026-09-04 00:01:30 | 49.53365 | 15.15474 | 114° | 55km/h | 16166m | 5.7m/s | -55.9°C | 1.9% | 0hPa | 2.6V | 00:00:00 | 00:00:00 | 00:00:00 | |
| OE5MMP-10 | 2026-09-04 00:01:29 | 49.53371 | 15.15455 | 118° | 44km/h | 16161m | 3.8m/s | -55.9°C | 4.9% | 0hPa | 2.6V | 00:00:00 | 01:14:38 | 00:00:00 | |
| SONDE2-11 | 2026-09-04 00:01:26 | 49.53395 | 15.15389 | 115° | 44km/h | 16136m | 4.7m/s | -56.1°C | 1.8% | -1.0hPa | 2.6V | 00:00:00 | 00:00:00 | 00:00:00 | |
| EDDB2-11 | 2026-09-04 00:01:23 | 49.53405 | 15.15360 | 116° | 37km/h | 16123m | 6.1m/s | -56.1°C | 1.8% | -1.0hPa | 2.6V | 00:00:00 | 00:00:00 | 00:00:00 | |
| ANDY1245 | 2026-09-04 00:01:22 | 49.53400 | 15.15374 | 117° | 40km/h | 16130m | 7.4m/s | -56.1°C | 2.0% | 0hPa | 2.6V | 00:00:00 | 00:00:00 | 00:00:00 | |
| DO3MHA-11 | 2026-09-04 00:01:21 | 49.53405 | 15.15360 | 117° | 46km/h | 16123m | 6.1m/s | -56.0°C | 5.0% | 0hPa | 2.6V | 00:00:00 | 01:14:32 | 00:00:00 | |
| OE5MMP-10 | 2026-09-04 00:01:18 | 49.53423 | 15.15305 | 122° | 49km/h | 16099m | 8.1m/s | -55.9°C | 5.0% | 0hPa | 2.6V | 00:00:00 | 01:14:28 | 00:00:00 | |
| NBG1-10 | 2026-09-04 00:01:17 | 49.53429 | 15.15291 | 126° | 49km/h | 16093m | 4.6m/s | -55.9°C | 5.0% | 0hPa | 2.7V | 00:00:00 | 01:14:27 | 00:00:00 | |
| DO3MHA-11 | 2026-09-04 00:01:12 | 49.53468 | 15.15212 | 127° | 42km/h | 16064m | 4.8m/s | -55.7°C | 4.9% | 0hPa | 2.7V | 00:00:00 | 01:14:22 | 00:00:00 | |
| PETON7-10 | 2026-09-04 00:01:09 | 49.53482 | 15.15180 | 119° | 46km/h | 16052m | 5.6m/s | -55.6°C | 4.8% | 0hPa | 2.7V | 00:00:00 | 01:14:20 | 00:00:00 | |
| OE5DXL-15 | 2026-09-04 00:01:06 | 49.53490 | 15.15150 | 112° | 51km/h | 16042m | 6.2m/s | -55.5°C | 4.8% | 0hPa | 2.7V | 00:00:00 | 00:00:00 | 00:00:00 | |
| DO3MHA-11 | 2026-09-04 00:01:00 | 49.53525 | 15.15073 | 130° | 53km/h | 16006m | 6.3m/s | -55.3°C | 4.7% | 0hPa | 2.7V | 00:00:00 | 01:14:12 | 00:00:00 | |
| OE5MMP-10 | 2026-09-04 00:00:55 | 49.53555 | 15.15011 | 128° | 55km/h | 15980m | 6.9m/s | -55.3°C | 4.8% | 0hPa | 2.7V | 00:00:00 | 01:14:08 | 00:00:00 | |
| PETON7-10 | 2026-09-04 00:00:52 | 49.53581 | 15.14961 | 130° | 55km/h | 15962m | 5.3m/s | -55.2°C | 4.7% | 0hPa | 2.7V | 00:00:00 | 00:00:00 | 08:30:00 | |
| SONDE2-11 | 2026-09-04 00:00:50 | 49.53599 | 15.14927 | 129° | 55km/h | 15949m | 5.9m/s | -55.2°C | 1.7% | -1.0hPa | 2.7V | 00:00:00 | 00:00:00 | 00:00:00 | |
| EDDB2-11 | 2026-09-04 00:00:49 | 49.53616 | 15.14894 | 125° | 51km/h | 15941m | 4.3m/s | -55.1°C | 1.7% | -1.0hPa | 2.7V | 00:00:00 | 00:00:00 | 00:00:00 | |
| S52SK | 2026-09-04 00:00:47 | 49.53623 | 15.14878 | 126° | 49km/h | 15936m | 5.5m/s | -55.1°C | 0% | 0hPa | 2.7V | 00:00:00 | 00:00:00 | 00:00:00 | |
| OE5MMP-10 | 2026-09-04 00:00:46 | 49.53638 | 15.14846 | 127° | 58km/h | 15925m | 4.4m/s | -54.9°C | 4.5% | 0hPa | 2.7V | 00:00:00 | 01:13:58 | 00:00:00 | |
| OE5DRO-10 | 2026-09-04 00:00:45 | 49.53646 | 15.14829 | 127° | 60km/h | 15919m | 5.9m/s | -54.9°C | 4.5% | 0hPa | 2.6V | 00:00:00 | 00:00:00 | 00:00:00 | |
| S52SK | 2026-09-04 00:00:41 | 49.53673 | 15.14777 | 134° | 60km/h | 15901m | 6.6m/s | -55.0°C | 0% | 0hPa | 2.6V | 00:00:00 | 00:00:00 | 00:00:00 | |
| PETON7-10 | 2026-09-04 00:00:38 | 49.53714 | 15.14710 | 131° | 62km/h | 15878m | 4.7m/s | -55.2°C | 4.6% | 0hPa | 2.6V | 00:00:00 | 00:00:00 | 00:00:00 | |
| OE5MMP-10 | 2026-09-04 00:00:37 | 49.53733 | 15.14673 | 128° | 60km/h | 15866m | 7.1m/s | -55.3°C | 4.6% | 0hPa | 2.6V | 00:00:00 | 01:13:48 | 00:00:00 | |
| DO3MHA-11 | 2026-09-04 00:00:35 | 49.53789 | 15.14570 | 131° | 66km/h | 15831m | 4.7m/s | -55.5°C | 4.7% | 0hPa | 2.6V | 00:00:00 | 01:13:42 | 00:00:00 | |
| PETON7-10 | 2026-09-04 00:00:22 | 49.53859 | 15.14424 | 128° | 68km/h | 15792m | 4.9m/s | -55.6°C | 4.7% | 0hPa | 2.6V | 00:00:00 | 01:13:35 | 00:00:00 | |
| DO3MHA-11 | 2026-09-04 00:00:20 | 49.53888 | 15.14367 | 127° | 68km/h | 15775m | 6.8m/s | -55.6°C | 4.6% | 0hPa | 2.6V | 00:00:00 | 01:13:32 | 00:00:00 | |
| OE5MMP-10 | 2026-09-04 00:00:17 | 49.53923 | 15.14289 | 129° | 69km/h | 15752m | 5.9m/s | -55.8°C | 4.7% | 0hPa | 2.6V | 00:00:00 | 01:13:28 | 08:30:00 | |
| ANDY1245 | 2026-09-04 00:00:13 | 49.53934 | 15.14268 | 130° | 71km/h | 15746m | 6.9m/s | -56.0°C | 1.8% | 0hPa | 2.6V | 00:00:00 | 00:00:00 | 00:00:00 | |
| DO3MHA-11 | 2026-09-04 00:00:10 | 49.53988 | 15.14153 | 123° | 62km/h | 15717m | 5.3m/s | -56.0°C | 4.9% | 0hPa | 2.6V | 00:00:00 | 01:13:22 | 08:30:00 | |
| ANDY1245 | 2026-09-04 00:00:09 | 49.53998 | 15.14130 | 123° | 69km/h | 15711m | 6.3m/s | -56.0°C | 1.9% | 0hPa | 2.7V | 00:00:00 | 00:00:00 | 00:00:00 | |
| PETON7-10 | 2026-09-04 00:00:08 | 49.54007 | 15.14108 | 123° | 60km/h | 15706m | 3.5m/s | -55.9°C | 4.9% | 0hPa | 2.7V | 00:00:00 | 00:00:00 | 00:00:00 | |
| OE5DRO-10 | 2026-09-04 00:00:06 | 49.54016 | 15.14087 | 124° | 58km/h | 15702m | 4.6m/s | -55.9°C | 4.9% | 0hPa | 2.6V | 00:00:00 | 00:00:00 | 00:00:00 | |
| PG1ADW-2 | 2026-09-04 00:00:05 | 49.54025 | 15.14068 | 126° | 57km/h | 15697m | 5.6m/s | -55.9°C | 4.9% | 0hPa | 2.6V | 00:00:00 | 01:13:18 | 00:00:00 | |
| DO3MHA-11 | 2026-09-03 23:59:59 | 49.54077 | 15.13957 | 122° | 58km/h | 15668m | 5.2m/s | -55.8°C | 4.8% | 0hPa | 2.6V | 00:00:00 | 01:13:12 | 00:00:00 | |
| OE5MMP-10 | 2026-09-03 23:59:54 | 49.54111 | 15.13851 | 117° | 55km/h | 15644m | 4.0m/s | -55.7°C | 4.8% | 0hPa | 2.6V | 00:00:00 | 01:13:07 | 00:00:00 | |
| PETON7-10 | 2026-09-03 23:59:52 | 49.54125 | 15.13809 | 120° | 55km/h | 15636m | 4.3m/s | -55.6°C | 4.8% | 0hPa | 2.6V | 00:00:00 | 00:00:00 | 00:00:00 | |
| DO3MHA-11 | 2026-09-03 23:59:49 | 49.54148 | 15.13758 | 131° | 53km/h | 15622m | 5.4m/s | -55.5°C | 4.8% | 0hPa | 2.6V | 00:00:00 | 01:13:02 | 00:00:00 | |
| SONDE2-11 | 2026-09-03 23:59:48 | 49.54157 | 15.13743 | 132° | 53km/h | 15616m | 4.9m/s | -55.6°C | 1.7% | -1.0hPa | 2.6V | 00:00:00 | 00:00:00 | 00:00:00 | |
| EDDB2-11 | 2026-09-03 23:59:47 | 49.54176 | 15.13713 | 134° | 51km/h | 15608m | 5.2m/s | -55.5°C | 1.7% | -1.0hPa | 2.6V | 00:00:00 | 00:00:00 | 00:00:00 | |
| PG1ADW-2 | 2026-09-03 23:59:45 | 49.54185 | 15.13699 | 132° | 57km/h | 15603m | 3.9m/s | -55.4°C | 4.8% | 0hPa | 2.6V | 00:00:00 | 00:00:00 | 00:00:00 | |
| OE5MMP-10 | 2026-09-03 23:59:44 | 49.54193 | 15.13683 | 131° | 57km/h | 15599m | 4.1m/s | -55.4°C | 4.7% | 0hPa | 2.6V | 00:00:00 | 01:12:57 | 00:00:00 | |
| DO3MHA-11 | 2026-09-03 23:59:38 | 49.54241 | 15.13577 | 124° | 57km/h | 15570m | 5.8m/s | -55.3°C | 4.6% | 0hPa | 2.6V | 00:00:00 | 01:12:51 | 00:00:00 | |
| PETON7-10 | 2026-09-03 23:59:37 | 49.54249 | 15.13558 | 127° | 58km/h | 15565m | 4.8m/s | -55.3°C | 4.7% | 0hPa | 2.6V | 00:00:00 | 01:12:50 | 00:00:00 | |
| ANDY1245 | 2026-09-03 23:59:36 | 49.54249 | 15.13558 | 127° | 58km/h | 15565m | 4.8m/s | -55.3°C | 1.9% | 0hPa | 2.6V | 00:00:00 | 00:00:00 | 00:00:00 | |
| NBG1-10 | 2026-09-03 23:59:35 | 49.54267 | 15.13522 | 130° | 55km/h | 15555m | 4.9m/s | -55.3°C | 4.7% | 0hPa | 2.6V | 00:00:00 | 01:12:48 | 00:00:00 | |
| OE5MMP-10 | 2026-09-03 23:59:34 | 49.54277 | 15.13505 | 132° | 57km/h | 15551m | 4.5m/s | -55.3°C | 4.7% | 0hPa | 2.6V | 00:00:00 | 01:12:47 | 00:00:00 | |
| OE5DXL-15 | 2026-09-03 23:59:33 | 49.54287 | 15.13488 | 133° | 53km/h | 15546m | 5.3m/s | -55.3°C | 4.8% | 0hPa | 2.6V | 00:00:00 | 00:00:00 | 00:00:00 | |
| ANDY1245 | 2026-09-03 23:59:31 | 49.54297 | 15.13472 | 136° | 58km/h | 15541m | 4.3m/s | -55.4°C | 1.9% | 0hPa | 2.6V | 00:00:00 | 00:00:00 | 00:00:00 | |
| DO3MHA-11 | 2026-09-03 23:59:28 | 49.54333 | 15.13407 | 129° | 58km/h | 15521m | 5.4m/s | -55.2°C | 4.8% | 0hPa | 2.6V | 00:00:00 | 01:12:41 | 00:00:00 | |
| PG1ADW-2 | 2026-09-03 23:59:25 | 49.54360 | 15.13353 | 127° | 53km/h | 15506m | 6.5m/s | -55.1°C | 4.7% | 0hPa | 2.6V | 00:00:00 | 00:00:00 | 08:30:00 | |
| OE5MMP-10 | 2026-09-03 23:59:24 | 49.54369 | 15.13335 | 127° | 53km/h | 15501m | 3.8m/s | -55.1°C | 4.8% | 0hPa | 2.7V | 00:00:00 | 01:12:37 | 00:00:00 | |
| PETON7-10 | 2026-09-03 23:59:22 | 49.54387 | 15.13298 | 131° | 51km/h | 15491m | 4.3m/s | -55.0°C | 4.8% | 0hPa | 2.7V | 00:00:00 | 00:00:00 | 00:00:00 | |
| SP3BTT-10 | 2026-09-03 23:59:21 | 49.54397 | 15.13281 | 133° | 73km/h | 15487m | 3.3m/s | -55.0°C | 4.7% | 0hPa | 2.7V | 00:00:00 | 00:00:00 | 00:00:00 | |
| ANDY1245 | 2026-09-03 23:59:19 | 49.54407 | 15.13265 | 134° | 57km/h | 15482m | 6.5m/s | -55.0°C | 1.9% | 0hPa | 2.7V | 00:00:00 | 00:00:00 | 00:00:00 | |
| DO3MHA-11 | 2026-09-03 23:59:18 | 49.54426 | 15.13236 | 139° | 47km/h | 15466m | 7.0m/s | -55.0°C | 4.6% | 0hPa | 2.7V | 00:00:00 | 01:12:31 | 00:00:00 | |
| SONDE2-11 | 2026-09-03 23:59:17 | 49.54436 | 15.13223 | 140° | 46km/h | 15459m | 6.3m/s | -55.0°C | 1.7% | -1.0hPa | 2.7V | 00:00:00 | 00:00:00 | 00:00:00 | |
| EDDB2-11 | 2026-09-03 23:59:16 | 49.54453 | 15.13200 | 136° | 42km/h | 15449m | 4.8m/s | -55.1°C | 1.7% | -1.0hPa | 2.7V | 00:00:00 | 00:00:00 | 00:00:00 | |
| OE5MMP-10 | 2026-09-03 23:59:14 | 49.54460 | 15.13189 | 137° | 51km/h | 15443m | 8.3m/s | -55.0°C | 4.6% | 0hPa | 2.7V | 00:00:00 | 01:12:27 | 00:00:00 | |
| ANDY1245 | 2026-09-03 23:59:13 | 49.54460 | 15.13189 | 137° | 44km/h | 15443m | 8.4m/s | -55.1°C | 1.9% | 0hPa | 2.7V | 00:00:00 | 00:00:00 | 00:00:00 | |
| OE5DRO-10 | 2026-09-03 23:59:09 | 49.54501 | 15.13118 | 133° | 58km/h | 15409m | 6.0m/s | -55.0°C | 4.7% | 0hPa | 2.7V | 00:00:00 | 00:00:00 | 00:00:00 | |
| DO3MHA-11 | 2026-09-03 23:59:08 | 49.54511 | 15.13102 | 134° | 55km/h | 15403m | 6.2m/s | -55.0°C | 4.7% | 0hPa | 2.7V | 00:00:00 | 01:12:21 | 00:00:00 | |
| PETON7-10 | 2026-09-03 23:59:07 | 49.54520 | 15.13087 | 134° | 58km/h | 15396m | 6.5m/s | -54.9°C | 4.6% | 0hPa | 2.6V | 00:00:00 | 00:00:00 | 00:00:00 | |
| PG1ADW-2 | 2026-09-03 23:59:05 | 49.54539 | 15.13056 | 136° | 60km/h | 15385m | 6.7m/s | -54.9°C | 4.6% | 0hPa | 2.6V | 00:00:00 | 00:00:00 | 00:00:00 | |
| OE5MMP-10 | 2026-09-03 23:59:04 | 49.54549 | 15.13041 | 136° | 58km/h | 15379m | 4.0m/s | -55.0°C | 4.6% | 0hPa | 2.6V | 00:00:00 | 01:12:17 | 00:00:00 | |
| OE5DXL-15 | 2026-09-03 23:59:03 | 49.54559 | 15.13027 | 136° | 62km/h | 15375m | 4.9m/s | -55.1°C | 4.6% | 0hPa | 2.6V | 00:00:00 | 00:00:00 | 00:00:00 | |
| NBG1-10 | 2026-09-03 23:59:02 | 49.54568 | 15.13012 | 135° | 62km/h | 15370m | 5.2m/s | -55.3°C | 4.7% | 0hPa | 2.6V | 00:00:00 | 01:12:15 | 08:30:00 | |
| SONDE2-11 | 2026-09-03 23:58:46 | 49.54754 | 15.12717 | 129° | 60km/h | 15281m | 2.5m/s | -55.2°C | 1.9% | -1.0hPa | 2.6V | 00:00:00 | 00:00:00 | 00:00:00 | |
| EDDB2-11 | 2026-09-03 23:58:45 | 49.54763 | 15.12698 | 128° | 60km/h | 15277m | 5.0m/s | -55.2°C | 1.8% | -1.0hPa | 2.6V | 00:00:00 | 00:00:00 | 00:00:00 | |
| OE5MMP-10 | 2026-09-03 23:58:44 | 49.54763 | 15.12698 | 129° | 66km/h | 15277m | 4.9m/s | -55.1°C | 4.7% | 0hPa | 2.6V | 00:00:00 | 01:11:57 | 08:30:00 | |
| ANDY1245 | 2026-09-03 23:58:39 | 49.54803 | 15.12620 | 130° | 68km/h | 15251m | 8.5m/s | -55.2°C | 2.1% | 0hPa | 2.7V | 00:00:00 | 00:00:00 | 00:00:00 | |
| DO3MHA-11 | 2026-09-03 23:58:38 | 49.54825 | 15.12581 | 134° | 62km/h | 15238m | 6.3m/s | -55.2°C | 4.9% | 0hPa | 2.7V | 00:00:00 | 01:11:51 | 08:30:00 | |
| PETON7-10 | 2026-09-03 23:58:36 | 49.54850 | 15.12545 | 138° | 64km/h | 15227m | 7.2m/s | -55.3°C | 4.8% | 0hPa | 2.6V | 00:00:00 | 00:00:00 | 08:30:00 | |
| OE5MMP-10 | 2026-09-03 23:58:34 | 49.54873 | 15.12509 | 133° | 62km/h | 15215m | 7.1m/s | -55.4°C | 4.8% | 0hPa | 2.7V | 00:00:00 | 01:11:47 | 00:00:00 | |
| OE5DXL-15 | 2026-09-03 23:58:33 | 49.54883 | 15.12491 | 129° | 69km/h | 15208m | 5.4m/s | -55.5°C | 4.9% | 0hPa | 2.7V | 00:00:00 | 00:00:00 | 00:00:00 | |
| OE5DRO-10 | 2026-09-03 23:58:31 | 49.54901 | 15.12456 | 130° | 68km/h | 15197m | 4.1m/s | -55.6°C | 4.8% | 0hPa | 2.7V | 00:00:00 | 00:00:00 | 00:00:00 | |
| NBG1-10 | 2026-09-03 23:58:29 | 49.54920 | 15.12422 | 132° | 69km/h | 15187m | 3.1m/s | -55.6°C | 4.9% | 0hPa | 2.7V | 00:00:00 | 01:11:42 | 00:00:00 | |
| ANDY1245 | 2026-09-03 23:58:28 | 49.54920 | 15.12422 | 132° | 60km/h | 15187m | 3.1m/s | -55.7°C | 2.1% | 0hPa | 2.7V | 00:00:00 | 00:00:00 | 00:00:00 | |
| PG1ADW-2 | 2026-09-03 23:58:25 | 49.54961 | 15.12342 | 127° | 73km/h | 15163m | 7.1m/s | -55.8°C | 4.9% | 0hPa | 2.7V | 00:00:00 | 00:00:00 | 00:00:00 | |
| OE5MMP-10 | 2026-09-03 23:58:24 | 49.54971 | 15.12320 | 127° | 69km/h | 15156m | 7.2m/s | -55.8°C | 5.0% | 0hPa | 2.6V | 00:00:00 | 01:11:37 | 00:00:00 | |
| ANDY1245 | 2026-09-03 23:58:22 | 49.54982 | 15.12297 | 128° | 71km/h | 15149m | 6.5m/s | -55.9°C | 2.2% | 0hPa | 2.6V | 00:00:00 | 00:00:00 | 00:00:00 | |
| PETON7-10 | 2026-09-03 23:58:21 | 49.55004 | 15.12254 | 128° | 73km/h | 15135m | 5.2m/s | -55.9°C | 5.1% | 0hPa | 2.6V | 00:00:00 | 00:00:00 | 00:00:00 | |
| DO3MHA-11 | 2026-09-03 23:58:18 | 49.55033 | 15.12190 | 124° | 75km/h | 15119m | 3.8m/s | -56.0°C | 5.2% | 0hPa | 2.6V | 00:00:00 | 01:11:31 | 00:00:00 | |
| ANDY1245 | 2026-09-03 23:58:16 | 49.55042 | 15.12167 | 125° | 69km/h | 15114m | 6.0m/s | -56.1°C | 2.3% | 0hPa | 2.6V | 00:00:00 | 00:00:00 | 00:00:00 | |
| SONDE2-11 | 2026-09-03 23:58:15 | 49.55076 | 15.12101 | 130° | 73km/h | 15095m | 4.2m/s | -56.1°C | 2.0% | -1.0hPa | 2.6V | 00:00:00 | 00:00:00 | 00:00:00 | |
| OE5MMP-10 | 2026-09-03 23:58:14 | 49.55075 | 15.12101 | 131° | 77km/h | 15095m | 4.1m/s | -56.1°C | 5.1% | 0hPa | 2.6V | 00:00:00 | 01:11:27 | 00:00:00 | |
| EDDB2-11 | 2026-09-03 23:58:13 | 49.55088 | 15.12078 | 131° | 77km/h | 15091m | 4.2m/s | -56.1°C | 2.0% | -1.0hPa | 2.6V | 00:00:00 | 00:00:00 | 00:00:00 | |
| OE5DRO-10 | 2026-09-03 23:58:12 | 49.55101 | 15.12055 | 131° | 68km/h | 15085m | 7.9m/s | -56.1°C | 5.1% | 0hPa | 2.6V | 00:00:00 | 00:00:00 | 00:00:00 | |
| ANDY1245 | 2026-09-03 23:58:11 | 49.55101 | 15.12055 | 132° | 78km/h | 15085m | 8.0m/s | -56.1°C | 2.2% | 0hPa | 2.6V | 00:00:00 | 00:00:00 | 00:00:00 | |
| DO3MHA-11 | 2026-09-03 23:58:08 | 49.55147 | 15.11956 | 122° | 64km/h | 15063m | 4.9m/s | -56.1°C | 5.1% | 0hPa | 2.6V | 00:00:00 | 01:11:21 | 00:00:00 | |
| PETON7-10 | 2026-09-03 23:58:06 | 49.55166 | 15.11906 | 120° | 66km/h | 15054m | 5.5m/s | -56.1°C | 5.0% | 0hPa | 2.6V | 00:00:00 | 01:11:19 | 00:00:00 | |
| PG1ADW-2 | 2026-09-03 23:58:05 | 49.55176 | 15.11882 | 122° | 64km/h | 15047m | 7.3m/s | -56.0°C | 5.0% | 0hPa | 2.6V | 00:00:00 | 00:00:00 | 00:00:00 | |
| OE5MMP-10 | 2026-09-03 23:58:04 | 49.55184 | 15.11860 | 124° | 62km/h | 15040m | 7.9m/s | -56.0°C | 5.0% | 0hPa | 2.6V | 00:00:00 | 01:11:17 | 00:00:00 | |
| OE5DXL-15 | 2026-09-03 23:58:03 | 49.55193 | 15.11841 | 128° | 69km/h | 15033m | 4.7m/s | -56.0°C | 5.0% | 0hPa | 2.6V | 00:00:00 | 00:00:00 | 00:00:00 | |
| DO3MHA-11 | 2026-09-03 23:57:58 | 49.55238 | 15.11756 | 131° | 69km/h | 15007m | 8.7m/s | -56.2°C | 5.1% | 0hPa | 2.6V | 00:00:00 | 01:11:11 | 00:00:00 | |
| NBG1-10 | 2026-09-03 23:57:56 | 49.55260 | 15.11717 | 131° | 73km/h | 14991m | 8.3m/s | -56.3°C | 5.2% | 0hPa | 2.6V | 00:00:00 | 01:11:09 | 00:00:00 | |
| OE3JTB-15 | 2026-09-03 23:57:55 | 49.55272 | 15.11695 | 130° | 71km/h | 14983m | 8.0m/s | -56.3°C | 5.2% | 0hPa | 2.6V | 00:00:00 | 01:11:08 | 00:00:00 | |
| OE5MMP-10 | 2026-09-03 23:57:54 | 49.55284 | 15.11674 | 132° | 68km/h | 14977m | 3.7m/s | -56.4°C | 5.3% | 0hPa | 2.6V | 00:00:00 | 01:11:07 | 00:00:00 | |
| OE5DRO-10 | 2026-09-03 23:57:53 | 49.55297 | 15.11652 | 134° | 69km/h | 14972m | 5.9m/s | -56.3°C | 5.3% | 0hPa | 2.6V | 00:00:00 | 00:00:00 | 00:00:00 | |
| PETON7-10 | 2026-09-03 23:57:51 | 49.55324 | 15.11613 | 140° | 69km/h | 14961m | 4.6m/s | -56.4°C | 5.2% | 0hPa | 2.7V | 00:00:00 | 00:00:00 | 00:00:00 | |
| DO3MHA-11 | 2026-09-03 23:57:48 | 49.55360 | 15.11562 | 136° | 69km/h | 14947m | 3.2m/s | -56.4°C | 5.3% | 0hPa | 2.6V | 00:00:00 | 01:11:01 | 00:00:00 | |
| PG1ADW-2 | 2026-09-03 23:57:45 | 49.55395 | 15.11512 | 137° | 73km/h | 14926m | 5.0m/s | -56.3°C | 5.4% | 0hPa | 2.6V | 00:00:00 | 00:00:00 | 00:00:00 | |
| SONDE2-11 | 2026-09-03 23:57:44 | 49.55418 | 15.11472 | 128° | 71km/h | 14918m | 4.1m/s | -56.3°C | 2.1% | -1.0hPa | 2.6V | 00:00:00 | 00:00:00 | 00:00:00 | |
| EDDB2-11 | 2026-09-03 23:57:42 | 49.55429 | 15.11450 | 126° | 73km/h | 14912m | 7.4m/s | -56.3°C | 2.1% | -1.0hPa | 2.6V | 00:00:00 | 00:00:00 | 00:00:00 | |
| DO3MHA-11 | 2026-09-03 23:57:38 | 49.55474 | 15.11357 | 128° | 73km/h | 14883m | 5.6m/s | -56.4°C | 5.2% | 0hPa | 2.6V | 00:00:00 | 01:10:51 | 00:00:00 | |
| PETON7-10 | 2026-09-03 23:57:36 | 49.55497 | 15.11315 | 133° | 77km/h | 14870m | 4.8m/s | -56.5°C | 5.3% | 0hPa | 2.6V | 00:00:00 | 00:00:00 | 00:00:00 | |
| OE5MMP-10 | 2026-09-03 23:57:34 | 49.55522 | 15.11276 | 135° | 77km/h | 14859m | 5.1m/s | -56.5°C | 5.3% | 0hPa | 2.6V | 00:00:00 | 01:10:47 | 00:00:00 | |
| OE5DXL-15 | 2026-09-03 23:57:32 | 49.55547 | 15.11235 | 134° | 80km/h | 14847m | 5.0m/s | -56.5°C | 5.3% | 0hPa | 2.6V | 00:00:00 | 00:00:00 | 08:30:00 | |
| DO3MHA-11 | 2026-09-03 23:57:28 | 49.55601 | 15.11149 | 133° | 80km/h | 14826m | 4.2m/s | -56.4°C | 5.4% | 0hPa | 2.6V | 00:00:00 | 01:10:41 | 00:00:00 | |
| PG1ADW-2 | 2026-09-03 23:57:25 | 49.55643 | 15.11081 | 135° | 80km/h | 14807m | 4.6m/s | -56.3°C | 5.5% | 0hPa | 2.6V | 00:00:00 | 01:10:38 | 00:00:00 | |
| OE5MMP-10 | 2026-09-03 23:57:24 | 49.55657 | 15.11059 | 133° | 80km/h | 14801m | 6.9m/s | -56.3°C | 5.5% | 0hPa | 2.7V | 00:00:00 | 01:10:37 | 00:00:00 | |
| NBG1-10 | 2026-09-03 23:57:23 | 49.55670 | 15.11036 | 132° | 80km/h | 14795m | 4.5m/s | -56.3°C | 5.5% | 0hPa | 2.7V | 00:00:00 | 01:10:36 | 00:00:00 | |
| PETON7-10 | 2026-09-03 23:57:21 | 49.55697 | 15.10990 | 133° | 80km/h | 14785m | 5.1m/s | -56.3°C | 5.5% | 0hPa | 2.7V | 00:00:00 | 01:10:34 | 00:00:00 | |
| S52SK | 2026-09-03 23:57:18 | 49.55726 | 15.10945 | 136° | 82km/h | 14772m | 2.0m/s | -56.3°C | 0% | 0hPa | 2.7V | 00:00:00 | 00:00:00 | 00:00:00 | |
| OE5DRO-10 | 2026-09-03 23:57:15 | 49.55779 | 15.10849 | 127° | 82km/h | 14751m | 3.6m/s | -56.2°C | 5.4% | 0hPa | 2.7V | 00:00:00 | 00:00:00 | 00:00:00 | |
| OE5MMP-10 | 2026-09-03 23:57:14 | 49.55790 | 15.10824 | 125° | 80km/h | 14746m | 6.8m/s | -56.1°C | 5.3% | 0hPa | 2.7V | 00:00:00 | 01:10:27 | 08:30:00 | |
| SONDE2-11 | 2026-09-03 23:57:13 | 49.55813 | 15.10770 | 122° | 80km/h | 14736m | 5.6m/s | -56.1°C | 2.2% | -1.0hPa | 2.6V | 00:00:00 | 00:00:00 | 00:00:00 | |
| EDDB2-11 | 2026-09-03 23:57:12 | 49.55824 | 15.10744 | 123° | 78km/h | 14729m | 7.1m/s | -56.1°C | 2.2% | -1.0hPa | 2.6V | 00:00:00 | 00:00:00 | 00:00:00 | |
| S52SK | 2026-09-03 23:57:07 | 49.55858 | 15.10674 | 130° | 73km/h | 14713m | 7.0m/s | -56.1°C | 0% | 0hPa | 2.6V | 00:00:00 | 00:00:00 | 00:00:00 | |
| PETON7-10 | 2026-09-03 23:57:06 | 49.55884 | 15.10628 | 133° | 82km/h | 14702m | 5.2m/s | -56.0°C | 5.3% | 0hPa | 2.6V | 00:00:00 | 00:00:00 | 00:00:00 | |
| PG1ADW-2 | 2026-09-03 23:57:05 | 49.55899 | 15.10604 | 134° | 84km/h | 14697m | 5.6m/s | -56.1°C | 5.3% | 0hPa | 2.6V | 00:00:00 | 00:00:00 | 00:00:00 | |
| OE5MMP-10 | 2026-09-03 23:57:04 | 49.55914 | 15.10579 | 133° | 82km/h | 14691m | 4.8m/s | -56.1°C | 5.3% | 0hPa | 2.6V | 00:00:00 | 01:10:17 | 00:00:00 | |
| OE5DXL-15 | 2026-09-03 23:57:02 | 49.55942 | 15.10526 | 128° | 88km/h | 14680m | 5.6m/s | -56.2°C | 5.4% | 0hPa | 2.6V | 00:00:00 | 00:00:00 | 00:00:00 | |
| ANDY1245 | 2026-09-03 23:57:00 | 49.55956 | 15.10498 | 128° | 89km/h | 14674m | 6.7m/s | -56.3°C | 2.5% | 0hPa | 2.6V | 00:00:00 | 00:00:00 | 00:00:00 | |
| OE5DRO-10 | 2026-09-03 23:56:56 | 49.56018 | 15.10376 | 131° | 86km/h | 14647m | 7.2m/s | -56.1°C | 5.4% | 0hPa | 2.6V | 00:00:00 | 00:00:00 | 00:00:00 | |
| OE5MMP-10 | 2026-09-03 23:56:54 | 49.56044 | 15.10332 | 134° | 88km/h | 14636m | 6.6m/s | -56.1°C | 5.4% | 0hPa | 2.7V | 00:00:00 | 01:10:07 | 00:00:00 | |
| PETON7-10 | 2026-09-03 23:56:51 | 49.56088 | 15.10260 | 134° | 88km/h | 14616m | 4.7m/s | -56.2°C | 5.4% | 0hPa | 2.7V | 00:00:00 | 00:00:00 | 00:00:00 | |
| NBG1-10 | 2026-09-03 23:56:50 | 49.56104 | 15.10236 | 135° | 88km/h | 14611m | 6.6m/s | -56.3°C | 5.4% | 0hPa | 2.7V | 00:00:00 | 01:10:03 | 00:00:00 | |
| ANDY1245 | 2026-09-03 23:56:49 | 49.56103 | 15.10236 | 136° | 88km/h | 14611m | 6.6m/s | -56.3°C | 2.5% | 0hPa | 2.7V | 00:00:00 | 00:00:00 | 00:00:00 | |
| PG1ADW-2 | 2026-09-03 23:56:45 | 49.56185 | 15.10113 | 136° | 88km/h | 14579m | 5.3m/s | -56.5°C | 5.5% | 0hPa | 2.7V | 00:00:00 | 00:00:00 | 00:00:00 | |
| OE5MMP-10 | 2026-09-03 23:56:44 | 49.56202 | 15.10087 | 135° | 88km/h | 14572m | 7.1m/s | -56.6°C | 5.5% | 0hPa | 2.7V | 00:00:00 | 01:09:57 | 00:00:00 | |
| SONDE2-11 | 2026-09-03 23:56:42 | 49.56248 | 15.10011 | 132° | 86km/h | 14552m | 4.7m/s | -56.8°C | 2.4% | -1.0hPa | 2.7V | 00:00:00 | 00:00:00 | 00:00:00 | |
| EDDB2-11 | 2026-09-03 23:56:40 | 49.56263 | 15.09987 | 133° | 84km/h | 14547m | 5.0m/s | -56.8°C | 2.4% | -1.0hPa | 2.7V | 00:00:00 | 00:00:00 | 00:00:00 | |
| ANDY1245 | 2026-09-03 23:56:38 | 49.56278 | 15.09963 | 135° | 84km/h | 14541m | 7.5m/s | -56.8°C | 2.7% | 0hPa | 2.7V | 00:00:00 | 00:00:00 | 00:00:00 | |
| OE5DRO-10 | 2026-09-03 23:56:37 | 49.56306 | 15.09915 | 134° | 88km/h | 14529m | 7.5m/s | -56.7°C | 5.7% | 0hPa | 2.7V | 00:00:00 | 00:00:00 | 00:00:00 | |
| PETON7-10 | 2026-09-03 23:56:36 | 49.56322 | 15.09891 | 134° | 88km/h | 14523m | 5.0m/s | -56.7°C | 5.8% | 0hPa | 2.7V | 00:00:00 | 01:09:49 | 00:00:00 | |
| OE5MMP-10 | 2026-09-03 23:56:34 | 49.56354 | 15.09838 | 132° | 88km/h | 14512m | 6.7m/s | -56.8°C | 5.8% | 0hPa | 2.7V | 00:00:00 | 01:09:47 | 00:00:00 | |
| ANDY1245 | 2026-09-03 23:56:33 | 49.56354 | 15.09838 | 133° | 95km/h | 14512m | 6.7m/s | -56.8°C | 2.8% | 0hPa | 2.7V | 00:00:00 | 00:00:00 | 00:00:00 | |
| OE5DXL-15 | 2026-09-03 23:56:32 | 49.56385 | 15.09783 | 131° | 82km/h | 14500m | 8.8m/s | -56.8°C | 5.9% | 0hPa | 2.7V | 00:00:00 | 00:00:00 | 00:00:00 | |
| DO3MHA-11 | 2026-09-03 23:56:29 | 49.56426 | 15.09702 | 128° | 82km/h | 14483m | 5.1m/s | -56.9°C | 5.9% | 0hPa | 2.7V | 00:00:00 | 01:09:42 | 00:00:00 | |
| ANDY1245 | 2026-09-03 23:56:27 | 49.56440 | 15.09675 | 128° | 84km/h | 14477m | 7.0m/s | -57.0°C | 2.8% | 0hPa | 2.7V | 00:00:00 | 00:00:00 | 00:00:00 | |
| PG1ADW-2 | 2026-09-03 23:56:25 | 49.56475 | 15.09595 | 123° | 80km/h | 14458m | 5.8m/s | -57.1°C | 6.0% | 0hPa | 2.7V | 00:00:00 | 00:00:00 | 08:30:00 | |
| OE5MMP-10 | 2026-09-03 23:56:24 | 49.56487 | 15.09567 | 124° | 82km/h | 14451m | 7.3m/s | -57.0°C | 6.0% | 0hPa | 2.7V | 00:00:00 | 01:09:37 | 00:00:00 | |
| PETON7-10 | 2026-09-03 23:56:21 | 49.56527 | 15.09488 | 130° | 80km/h | 14431m | 5.6m/s | -56.9°C | 5.9% | 0hPa | 2.7V | 00:00:00 | 00:00:00 | 08:30:00 | |
| OE5DRO-10 | 2026-09-03 23:56:18 | 49.56568 | 15.09415 | 131° | 78km/h | 14412m | 7.7m/s | -56.8°C | 5.8% | 0hPa | 2.7V | 00:00:00 | 00:00:00 | 00:00:00 | |
| NBG1-10 | 2026-09-03 23:56:17 | 49.56580 | 15.09390 | 128° | 77km/h | 14406m | 3.7m/s | -56.7°C | 5.9% | 0hPa | 2.7V | 00:00:00 | 01:09:30 | 00:00:00 | |
| OE5MMP-10 | 2026-09-03 23:56:14 | 49.56615 | 15.09317 | 125° | 78km/h | 14391m | 5.2m/s | -56.7°C | 5.8% | 0hPa | 2.7V | 00:00:00 | 01:09:27 | 00:00:00 | |
| SONDE2-11 | 2026-09-03 23:56:11 | 49.56658 | 15.09211 | 123° | 82km/h | 14369m | 5.4m/s | -56.7°C | 2.7% | -1.0hPa | 2.6V | 00:00:00 | 00:00:00 | 00:00:00 | |
| EDDB2-11 | 2026-09-03 23:56:09 | 49.56670 | 15.09185 | 126° | 80km/h | 14365m | 3.2m/s | -56.6°C | 2.7% | -1.0hPa | 2.6V | 00:00:00 | 00:00:00 | 00:00:00 | |
| PETON7-10 | 2026-09-03 23:56:06 | 49.56706 | 15.09112 | 128° | 75km/h | 14350m | 5.3m/s | -56.5°C | 6.0% | 0hPa | 2.6V | 00:00:00 | 00:00:00 | 00:00:00 | |
| PG1ADW-2 | 2026-09-03 23:56:05 | 49.56717 | 15.09091 | 131° | 75km/h | 14345m | 4.2m/s | -56.5°C | 6.0% | 0hPa | 2.6V | 00:00:00 | 01:09:18 | 00:00:00 | |
| OE5MMP-10 | 2026-09-03 23:56:04 | 49.56729 | 15.09070 | 133° | 78km/h | 14340m | 5.2m/s | -56.5°C | 6.0% | 0hPa | 2.6V | 00:00:00 | 01:09:17 | 00:00:00 | |
| OE5DXL-15 | 2026-09-03 23:56:02 | 49.56754 | 15.09026 | 131° | 77km/h | 14329m | 7.6m/s | -56.5°C | 5.9% | 0hPa | 2.6V | 00:00:00 | 00:00:00 | 00:00:00 | |
| OE5DRO-10 | 2026-09-03 23:55:59 | 49.56790 | 15.08952 | 123° | 75km/h | 14317m | 2.6m/s | -56.5°C | 5.8% | 0hPa | 2.6V | 00:00:00 | 00:00:00 | 08:30:00 | |
| DO3MHA-11 | 2026-09-03 23:55:57 | 49.56811 | 15.08899 | 123° | 73km/h | 14305m | 8.6m/s | -56.6°C | 5.9% | 0hPa | 2.6V | 00:00:00 | 01:09:10 | 00:00:00 | |
| OE5MMP-10 | 2026-09-03 23:55:54 | 49.56846 | 15.08828 | 131° | 73km/h | 14285m | 5.0m/s | -56.9°C | 6.3% | 0hPa | 2.6V | 00:00:00 | 01:09:07 | 00:00:00 | |
| PETON7-10 | 2026-09-03 23:55:51 | 49.56882 | 15.08773 | 139° | 75km/h | 14267m | 5.9m/s | -57.0°C | 6.5% | 0hPa | 2.6V | 00:00:00 | 01:09:04 | 00:00:00 | |
| DO3MHA-11 | 2026-09-03 23:55:46 | 49.56946 | 15.08671 | 129° | 75km/h | 14240m | 4.5m/s | -57.0°C | 6.3% | 0hPa | 2.6V | 00:00:00 | 01:08:59 | 00:00:00 | |
| PG1ADW-2 | 2026-09-03 23:55:45 | 49.56959 | 15.08647 | 130° | 78km/h | 14234m | 7.1m/s | -57.0°C | 6.4% | 0hPa | 2.6V | 00:00:00 | 00:00:00 | 00:00:00 | |
| OE5MMP-10 | 2026-09-03 23:55:44 | 49.56972 | 15.08623 | 133° | 75km/h | 14228m | 6.0m/s | -57.0°C | 6.4% | 0hPa | 2.6V | 00:00:00 | 01:08:57 | 08:30:00 | |
| SONDE2-11 | 2026-09-03 23:55:40 | 49.57043 | 15.08529 | 142° | 69km/h | 14196m | 5.2m/s | -57.0°C | 3.2% | -1.0hPa | 2.7V | 00:00:00 | 00:00:00 | 00:00:00 | |
| EDDB2-11 | 2026-09-03 23:55:38 | 49.57057 | 15.08513 | 143° | 69km/h | 14190m | 6.3m/s | -57.0°C | 3.2% | -1.0hPa | 2.7V | 00:00:00 | 00:00:00 | 00:00:00 | |
| PETON7-10 | 2026-09-03 23:55:36 | 49.57087 | 15.08479 | 144° | 84km/h | 14180m | 7.9m/s | -57.0°C | 6.6% | 0hPa | 2.7V | 00:00:00 | 00:00:00 | 00:00:00 | |
| DO3MHA-11 | 2026-09-03 23:55:35 | 49.57103 | 15.08460 | 141° | 86km/h | 14173m | 5.5m/s | -56.9°C | 6.7% | 0hPa | 2.6V | 00:00:00 | 01:08:48 | 00:00:00 | |
| OE5MMP-10 | 2026-09-03 23:55:34 | 49.57120 | 15.08439 | 140° | 84km/h | 14167m | 7.2m/s | -56.9°C | 6.7% | 0hPa | 2.7V | 00:00:00 | 01:08:47 | 00:00:00 | |
| OE5DXL-15 | 2026-09-03 23:55:31 | 49.57170 | 15.08371 | 140° | 91km/h | 14147m | 7.2m/s | -56.9°C | 6.8% | 0hPa | 2.7V | 00:00:00 | 00:00:00 | 00:00:00 | |
| S52SK | 2026-09-03 23:55:29 | 49.57186 | 15.08350 | 142° | 80km/h | 14140m | 6.9m/s | -57.0°C | 0% | 0hPa | 2.7V | 00:00:00 | 00:00:00 | 00:00:00 | |
| PG1ADW-2 | 2026-09-03 23:55:25 | 49.57265 | 15.08251 | 141° | 93km/h | 14105m | 7.2m/s | -57.2°C | 6.9% | 0hPa | 2.7V | 00:00:00 | 00:00:00 | 00:00:00 | |
| OE5MMP-10 | 2026-09-03 23:55:24 | 49.57282 | 15.08229 | 140° | 91km/h | 14098m | 6.9m/s | -57.3°C | 7.0% | 0hPa | 2.7V | 00:00:00 | 01:08:37 | 00:00:00 | |
| DO3MHA-11 | 2026-09-03 23:55:22 | 49.57316 | 15.08182 | 137° | 93km/h | 14088m | 4.6m/s | -57.3°C | 6.9% | 0hPa | 2.7V | 00:00:00 | 01:08:35 | 00:00:00 | |
| PETON7-10 | 2026-09-03 23:55:21 | 49.57332 | 15.08157 | 135° | 93km/h | 14082m | 6.8m/s | -57.3°C | 6.9% | 0hPa | 2.7V | 00:00:00 | 00:00:00 | 00:00:00 | |
| SP3BTT-10 | 2026-09-03 23:55:20 | 49.57349 | 15.08131 | 134° | 119km/h | 14077m | 4.7m/s | 0°C | 0% | 0hPa | 2.7V | 00:00:00 | 00:00:00 | 08:30:00 | |
| ANDY1245 | 2026-09-03 23:55:15 | 49.57416 | 15.08030 | 141° | 91km/h | 14057m | 4.4m/s | -57.3°C | 4.0% | 0hPa | 2.7V | 00:00:00 | 00:00:00 | 00:00:00 | |
| OE5MMP-10 | 2026-09-03 23:55:14 | 49.57452 | 15.07984 | 140° | 97km/h | 14046m | 6.8m/s | -57.3°C | 7.3% | 0hPa | 2.7V | 00:00:00 | 01:08:27 | 00:00:00 | |
| DO3MHA-11 | 2026-09-03 23:55:12 | 49.57489 | 15.07937 | 141° | 95km/h | 14037m | 4.3m/s | -57.4°C | 7.4% | 0hPa | 2.7V | 00:00:00 | 01:08:25 | 00:00:00 | |
| NBG1-10 | 2026-09-03 23:55:11 | 49.57507 | 15.07914 | 142° | 108km/h | 14032m | 5.1m/s | -57.4°C | 7.4% | 0hPa | 2.7V | 00:00:00 | 01:08:24 | 00:00:00 | |
| SONDE2-11 | 2026-09-03 23:55:09 | 49.57564 | 15.07850 | 144° | 97km/h | 14017m | 6.6m/s | -57.5°C | 4.1% | -1.0hPa | 2.7V | 00:00:00 | 00:00:00 | 00:00:00 | |
| EDDB2-11 | 2026-09-03 23:55:07 | 49.57584 | 15.07827 | 142° | 100km/h | 14012m | 4.8m/s | -57.6°C | 4.1% | -1.0hPa | 2.7V | 00:00:00 | 00:00:00 | 00:00:00 | |
| PETON7-10 | 2026-09-03 23:55:06 | 49.57605 | 15.07802 | 142° | 102km/h | 14007m | 4.3m/s | -57.6°C | 7.7% | 0hPa | 2.7V | 00:00:00 | 01:08:19 | 00:00:00 | |
| PG1ADW-2 | 2026-09-03 23:55:05 | 49.57625 | 15.07777 | 141° | 106km/h | 14002m | 5.9m/s | -57.7°C | 7.8% | 0hPa | 2.7V | 00:00:00 | 00:00:00 | 00:00:00 | |
| OE5MMP-10 | 2026-09-03 23:55:04 | 49.57644 | 15.07753 | 141° | 100km/h | 13997m | 5.0m/s | -57.8°C | 7.9% | 0hPa | 2.7V | 00:00:00 | 01:08:17 | 00:00:00 | |
| OE5DRO-10 | 2026-09-03 23:55:02 | 49.57683 | 15.07704 | 142° | 108km/h | 13985m | 6.5m/s | -57.9°C | 8.1% | 0hPa | 2.7V | 00:00:00 | 00:00:00 | 00:00:00 | |
| OE5DXL-15 | 2026-09-03 23:55:01 | 49.57703 | 15.07680 | 142° | 111km/h | 13978m | 7.0m/s | -58.1°C | 8.4% | 0hPa | 2.7V | 00:00:00 | 00:00:00 | 00:00:00 | |
| OE5MMP-10 | 2026-09-03 23:54:54 | 49.57849 | 15.07514 | 145° | 111km/h | 13935m | 7.1m/s | -58.4°C | 9.1% | 0hPa | 2.7V | 00:00:00 | 01:08:07 | 00:00:00 | |
| DO3MHA-11 | 2026-09-03 23:54:52 | 49.57895 | 15.07464 | 146° | 113km/h | 13920m | 7.8m/s | -58.5°C | 9.3% | 0hPa | 2.7V | 00:00:00 | 01:08:05 | 00:00:00 | |
| PETON7-10 | 2026-09-03 23:54:51 | 49.57917 | 15.07440 | 145° | 117km/h | 13914m | 5.2m/s | -58.6°C | 9.5% | 0hPa | 2.7V | 00:00:00 | 00:00:00 | 00:00:00 | |
| PG1ADW-2 | 2026-09-03 23:54:45 | 49.58049 | 15.07281 | 141° | 115km/h | 13877m | 6.3m/s | -59.0°C | 10.4% | 0hPa | 2.7V | 00:00:00 | 01:07:58 | 00:00:00 | |
| OE5MMP-10 | 2026-09-03 23:54:44 | 49.58073 | 15.07251 | 141° | 120km/h | 13871m | 5.7m/s | -59.0°C | 10.5% | 0hPa | 2.7V | 00:00:00 | 01:07:57 | 00:00:00 | |
| OE5DRO-10 | 2026-09-03 23:54:43 | 49.58096 | 15.07221 | 140° | 113km/h | 13865m | 5.3m/s | -59.0°C | 10.6% | 0hPa | 2.6V | 00:00:00 | 00:00:00 | 00:00:00 | |
| DO3MHA-11 | 2026-09-03 23:54:42 | 49.58119 | 15.07191 | 141° | 119km/h | 13859m | 6.2m/s | -59.0°C | 10.7% | 0hPa | 2.6V | 00:00:00 | 01:07:55 | 00:00:00 | |
| NBG1-10 | 2026-09-03 23:54:38 | 49.58214 | 15.07069 | 138° | 106km/h | 13839m | 1.2m/s | -59.0°C | 11.0% | 0hPa | 2.6V | 00:00:00 | 01:07:51 | 00:00:00 | |
| SONDE2-11 | 2026-09-03 23:54:37 | 49.58236 | 15.07037 | 136° | 124km/h | 13835m | 5.9m/s | -59.1°C | 6.7% | -1.0hPa | 2.6V | 00:00:00 | 00:00:00 | 00:00:00 | |
| PETON7-10 | 2026-09-03 23:54:36 | 49.58259 | 15.07003 | 136° | 110km/h | 13828m | 7.7m/s | -59.0°C | 11.0% | 0hPa | 2.6V | 00:00:00 | 00:00:00 | 00:00:00 | |
| OE5MMP-10 | 2026-09-03 23:54:34 | 49.58301 | 15.06939 | 134° | 106km/h | 13814m | 6.8m/s | -59.1°C | 11.5% | 0hPa | 2.6V | 00:00:00 | 01:07:47 | 00:00:00 | |
| DO3MHA-11 | 2026-09-03 23:54:32 | 49.58338 | 15.06877 | 133° | 106km/h | 13804m | 5.5m/s | -59.2°C | 11.8% | 0hPa | 2.6V | 00:00:00 | 01:07:45 | 08:30:00 | |
| OE5DXL-15 | 2026-09-03 23:54:31 | 49.58356 | 15.06847 | 133° | 102km/h | 13797m | 6.9m/s | -59.2°C | 12.0% | 0hPa | 2.6V | 00:00:00 | 00:00:00 | 00:00:00 | |
| PG1ADW-2 | 2026-09-03 23:54:25 | 49.58472 | 15.06678 | 144° | 102km/h | 13764m | 6.2m/s | -59.1°C | 13.2% | 0hPa | 2.6V | 00:00:00 | 00:00:00 | 00:00:00 | |
| OE5MMP-10 | 2026-09-03 23:54:24 | 49.58493 | 15.06653 | 144° | 108km/h | 13758m | 5.5m/s | -59.1°C | 13.5% | 0hPa | 2.7V | 00:00:00 | 01:07:37 | 00:00:00 | |
| DO3MHA-11 | 2026-09-03 23:54:22 | 49.58536 | 15.06601 | 140° | 106km/h | 13751m | 3.3m/s | -59.1°C | 13.5% | 0hPa | 2.7V | 00:00:00 | 01:07:35 | 00:00:00 | |
| PETON7-10 | 2026-09-03 23:54:21 | 49.58558 | 15.06572 | 139° | 100km/h | 13746m | 7.5m/s | -59.0°C | 13.4% | 0hPa | 2.7V | 00:00:00 | 01:07:34 | 00:00:00 | |
| OE5MMP-10 | 2026-09-03 23:54:14 | 49.58689 | 15.06367 | 131° | 97km/h | 13706m | 8.1m/s | -59.0°C | 14.8% | 0hPa | 2.7V | 00:00:00 | 01:07:27 | 08:30:00 | |
| DO3MHA-11 | 2026-09-03 23:54:12 | 49.58719 | 15.06316 | 135° | 99km/h | 13693m | 8.7m/s | -59.2°C | 15.6% | 0hPa | 2.6V | 00:00:00 | 01:07:25 | 00:00:00 | |
| PETON7-10 | 2026-09-03 23:54:06 | 49.58841 | 15.06191 | 154° | 104km/h | 13643m | 9.9m/s | -60.1°C | 18.6% | 0hPa | 2.6V | 00:00:00 | 00:00:00 | 08:30:00 | |
| PG1ADW-2 | 2026-09-03 23:54:05 | 49.58865 | 15.06173 | 154° | 104km/h | 13635m | 5.3m/s | -60.2°C | 18.9% | 0hPa | 2.6V | 00:00:00 | 00:00:00 | 00:00:00 | |
| OE5MMP-10 | 2026-09-03 23:54:04 | 49.58888 | 15.06156 | 154° | 102km/h | 13629m | 5.7m/s | -60.2°C | 19.0% | 0hPa | 2.6V | 00:00:00 | 01:07:17 | 00:00:00 | |
| OE5DXL-15 | 2026-09-03 23:54:01 | 49.58954 | 15.06104 | 152° | 110km/h | 13608m | 7.4m/s | -60.2°C | 19.7% | 0hPa | 2.6V | 00:00:00 | 00:00:00 | 00:00:00 | |
| S52SK | 2026-09-03 23:53:58 | 49.58996 | 15.06067 | 151° | 100km/h | 13593m | 7.2m/s | -60.2°C | 0% | 0hPa | 2.6V | 00:00:00 | 00:00:00 | 00:00:00 | |
| OE5MMP-10 | 2026-09-03 23:53:54 | 49.59114 | 15.05952 | 147° | 104km/h | 13558m | 6.5m/s | -60.2°C | 21.1% | 0hPa | 2.6V | 00:00:00 | 01:07:07 | 00:00:00 | |
| S52SK | 2026-09-03 23:53:52 | 49.59139 | 15.05927 | 149° | 113km/h | 13552m | 6.8m/s | -60.3°C | 0% | 0hPa | 2.6V | 00:00:00 | 00:00:00 | 00:00:00 | |
| PETON7-10 | 2026-09-03 23:53:51 | 49.59186 | 15.05882 | 147° | 113km/h | 13538m | 5.1m/s | -60.2°C | 22.0% | 0hPa | 2.6V | 00:00:00 | 00:00:00 | 00:00:00 | |
| S52SK | 2026-09-03 23:53:47 | 49.59246 | 15.05819 | 148° | 97km/h | 13520m | 7.2m/s | -60.3°C | 0% | 0hPa | 2.6V | 00:00:00 | 00:00:00 | 00:00:00 | |
| OE5DRO-10 | 2026-09-03 23:53:46 | 49.59288 | 15.05775 | 144° | 113km/h | 13508m | 7.5m/s | -60.3°C | 24.0% | 0hPa | 2.6V | 00:00:00 | 00:00:00 | 00:00:00 | |
| PG1ADW-2 | 2026-09-03 23:53:45 | 49.59309 | 15.05749 | 141° | 113km/h | 13501m | 5.2m/s | -60.4°C | 24.6% | 0hPa | 2.6V | 00:00:00 | 00:00:00 | 00:00:00 | |
| OE5MMP-10 | 2026-09-03 23:53:44 | 49.59331 | 15.05721 | 140° | 117km/h | 13496m | 6.1m/s | -60.4°C | 24.7% | 0hPa | 2.6V | 00:00:00 | 01:06:57 | 00:00:00 | |
| DO3MHA-11 | 2026-09-03 23:53:41 | 49.59396 | 15.05631 | 138° | 117km/h | 13472m | 8.3m/s | -60.6°C | 25.8% | 0hPa | 2.7V | 00:00:00 | 01:06:54 | 00:00:00 | |
| SONDE2-11 | 2026-09-03 23:53:35 | 49.59527 | 15.05447 | 139° | 124km/h | 13429m | 5.0m/s | -61.2°C | 21.9% | -1.0hPa | 2.7V | 00:00:00 | 00:00:00 | 00:00:00 | |
| OE5MMP-10 | 2026-09-03 23:53:34 | 49.59551 | 15.05416 | 141° | 111km/h | 13423m | 5.9m/s | -61.2°C | 29.3% | 0hPa | 2.7V | 00:00:00 | 01:06:47 | 00:00:00 | |
| NBG1-10 | 2026-09-03 23:53:32 | 49.59596 | 15.05357 | 140° | 117km/h | 13412m | 5.9m/s | -61.3°C | 29.7% | 0hPa | 2.7V | 00:00:00 | 01:06:45 | 00:00:00 | |
| DO3MHA-11 | 2026-09-03 23:53:31 | 49.59618 | 15.05329 | 140° | 111km/h | 13405m | 8.0m/s | -61.4°C | 30.2% | 0hPa | 2.7V | 00:00:00 | 01:06:44 | 00:00:00 | |
| OE5WHR-10 | 2026-09-03 23:53:30 | 49.59638 | 15.05303 | 140° | 113km/h | 13398m | 5.1m/s | -61.4°C | 30.8% | 0hPa | 2.7V | 00:00:00 | 01:06:43 | 00:00:00 | |
| OE5DRO-10 | 2026-09-03 23:53:27 | 49.59698 | 15.05226 | 142° | 117km/h | 13383m | 3.8m/s | -61.4°C | 31.7% | 0hPa | 2.7V | 00:00:00 | 00:00:00 | 00:00:00 | |
| PG1ADW-2 | 2026-09-03 23:53:25 | 49.59743 | 15.05171 | 141° | 120km/h | 13373m | 5.9m/s | -61.4°C | 31.3% | 0hPa | 2.7V | 00:00:00 | 01:06:38 | 08:30:00 | |
| OE5MMP-10 | 2026-09-03 23:53:24 | 49.59766 | 15.05142 | 140° | 111km/h | 13368m | 5.8m/s | -61.3°C | 31.3% | 0hPa | 2.6V | 00:00:00 | 01:06:37 | 00:00:00 | |
| DO3MHA-11 | 2026-09-03 23:53:21 | 49.59831 | 15.05056 | 143° | 124km/h | 13349m | 6.0m/s | -61.4°C | 32.9% | 0hPa | 2.6V | 00:00:00 | 01:06:34 | 00:00:00 | |
| PETON7-10 | 2026-09-03 23:53:15 | 49.59969 | 15.04921 | 150° | 122km/h | 13318m | 5.0m/s | -61.5°C | 37.4% | 0hPa | 2.6V | 00:00:00 | 00:00:00 | 00:00:00 | |
| OE5MMP-10 | 2026-09-03 23:53:14 | 49.59994 | 15.04897 | 148° | 130km/h | 13314m | 3.5m/s | -61.5°C | 38.4% | 0hPa | 2.6V | 00:00:00 | 01:06:27 | 00:00:00 | |
| ANDY1245 | 2026-09-03 23:53:11 | 49.60045 | 15.04845 | 146° | 120km/h | 13306m | 6.3m/s | -61.6°C | 30.6% | 0hPa | 2.6V | 00:00:00 | 00:00:00 | 00:00:00 | |
| OE5WHR-10 | 2026-09-03 23:53:09 | 49.60126 | 15.04752 | 141° | 130km/h | 13289m | 4.8m/s | -61.4°C | 38.5% | 0hPa | 2.6V | 00:00:00 | 00:00:00 | 00:00:00 | |
| OE5DRO-10 | 2026-09-03 23:53:08 | 49.60153 | 15.04717 | 140° | 128km/h | 13285m | 3.8m/s | -61.4°C | 38.9% | 0hPa | 2.6V | 00:00:00 | 00:00:00 | 08:30:00 | |
| PG1ADW-2 | 2026-09-03 23:53:05 | 49.60229 | 15.04618 | 142° | 128km/h | 13273m | 7.2m/s | -61.4°C | 39.1% | 0hPa | 2.6V | 00:00:00 | 00:00:00 | 00:00:00 | |
| OE5MMP-10 | 2026-09-03 23:53:04 | 49.60253 | 15.04591 | 146° | 124km/h | 13266m | 7.4m/s | -61.4°C | 39.4% | 0hPa | 2.6V | 00:00:00 | 01:06:17 | 00:00:00 | |
| EDDB2-11 | 2026-09-03 23:53:03 | 49.60302 | 15.04547 | 153° | 113km/h | 13249m | 9.6m/s | -61.4°C | 31.6% | -1.0hPa | 2.6V | 00:00:00 | 00:00:00 | 00:00:00 | |
| NBG1-10 | 2026-09-03 23:52:59 | 49.60386 | 15.04485 | 153° | 146km/h | 13223m | 9.0m/s | -61.2°C | 41.8% | 0hPa | 2.6V | 00:00:00 | 01:06:12 | 00:00:00 | |
| OE3JTB-15 | 2026-09-03 23:52:58 | 49.60415 | 15.04461 | 152° | 148km/h | 13214m | 10.6m/s | -61.2°C | 42.2% | 0hPa | 2.6V | 00:00:00 | 00:00:00 | 00:00:00 | |
| PETON7-10 | 2026-09-03 23:52:57 | 49.60443 | 15.04436 | 149° | 135km/h | 13204m | 9.0m/s | -61.2°C | 42.6% | 0hPa | 2.6V | 00:00:00 | 00:00:00 | 00:00:00 | |
| OE5MMP-10 | 2026-09-03 23:52:54 | 49.60526 | 15.04348 | 145° | 133km/h | 13182m | 6.0m/s | -61.2°C | 43.8% | 0hPa | 2.6V | 00:00:00 | 01:06:07 | 00:00:00 | |
| OE5DRO-10 | 2026-09-03 23:52:49 | 49.60667 | 15.04214 | 152° | 153km/h | 13146m | 9.2m/s | -61.3°C | 44.5% | 0hPa | 2.6V | 00:00:00 | 00:00:00 | 00:00:00 | |
| OE5WHR-10 | 2026-09-03 23:52:48 | 49.60695 | 15.04190 | 151° | 161km/h | 13137m | 10.3m/s | -61.4°C | 45.1% | 0hPa | 2.6V | 00:00:00 | 00:00:00 | 00:00:00 | |
| DO3MHA-11 | 2026-09-03 23:52:47 | 49.60725 | 15.04164 | 149° | 146km/h | 13127m | 9.7m/s | -61.5°C | 45.5% | 0hPa | 2.6V | 00:00:00 | 01:06:00 | 00:00:00 | |
| PG1ADW-2 | 2026-09-03 23:52:45 | 49.60784 | 15.04106 | 148° | 157km/h | 13108m | 10.3m/s | -61.7°C | 47.2% | 0hPa | 2.6V | 00:00:00 | 00:00:00 | 00:00:00 | |
| OE5MMP-10 | 2026-09-03 23:52:44 | 49.60816 | 15.04077 | 151° | 153km/h | 13098m | 10.3m/s | -61.8°C | 48.3% | 0hPa | 2.6V | 00:00:00 | 01:05:57 | 08:30:00 | |
| PETON7-10 | 2026-09-03 23:52:42 | 49.60884 | 15.04022 | 155° | 161km/h | 13082m | 6.3m/s | -62.0°C | 49.1% | 0hPa | 2.6V | 00:00:00 | 01:05:55 | 00:00:00 | |
| DO3MHA-11 | 2026-09-03 23:52:37 | 49.61053 | 15.03894 | 153° | 166km/h | 13046m | 6.8m/s | -62.8°C | 56.5% | 0hPa | 2.6V | 00:00:00 | 01:05:50 | 08:30:00 | |
| OE5MMP-10 | 2026-09-03 23:52:34 | 49.61164 | 15.03802 | 152° | 162km/h | 13028m | 8.3m/s | -62.9°C | 55.7% | 0hPa | 2.7V | 00:00:00 | 01:05:47 | 00:00:00 | |
| SONDE2-11 | 2026-09-03 23:52:33 | 49.61203 | 15.03769 | 150° | 175km/h | 13019m | 9.2m/s | -63.0°C | 46.2% | -1.0hPa | 2.7V | 00:00:00 | 00:00:00 | 00:00:00 | |
| EDDB2-11 | 2026-09-03 23:52:32 | 49.61278 | 15.03704 | 150° | 164km/h | 13005m | 5.6m/s | -63.1°C | 46.3% | -1.0hPa | 2.7V | 00:00:00 | 00:00:00 | 00:00:00 | |
| OE5DRO-10 | 2026-09-03 23:52:30 | 49.61313 | 15.03673 | 151° | 161km/h | 12998m | 8.6m/s | -63.2°C | 56.4% | 0hPa | 2.7V | 00:00:00 | 00:00:00 | 00:00:00 | |
| OE5DXL-15 | 2026-09-03 23:52:28 | 49.61382 | 15.03615 | 153° | 157km/h | 12982m | 6.5m/s | -63.7°C | 59.8% | 0hPa | 2.7V | 00:00:00 | 00:00:00 | 00:00:00 | |
| PETON7-10 | 2026-09-03 23:52:27 | 49.61417 | 15.03587 | 152° | 151km/h | 12976m | 5.7m/s | -63.8°C | 61.7% | 0hPa | 2.7V | 00:00:00 | 00:00:00 | 00:00:00 | |
| OE5WHR-10 | 2026-09-03 23:52:26 | 49.61452 | 15.03558 | 152° | 159km/h | 12971m | 5.0m/s | -63.9°C | 62.8% | 0hPa | 2.6V | 00:00:00 | 01:05:39 | 00:00:00 | |
| PG1ADW-2 | 2026-09-03 23:52:25 | 49.61487 | 15.03527 | 151° | 159km/h | 12966m | 5.1m/s | -63.9°C | 63.0% | 0hPa | 2.6V | 00:00:00 | 00:00:00 | 00:00:00 | |
| OE5MMP-10 | 2026-09-03 23:52:24 | 49.61522 | 15.03496 | 150° | 162km/h | 12960m | 6.4m/s | -64.0°C | 62.9% | 0hPa | 2.6V | 00:00:00 | 01:05:37 | 00:00:00 | |
| S52SK | 2026-09-03 23:52:18 | 49.61699 | 15.03339 | 152° | 162km/h | 12928m | 6.1m/s | -64.0°C | 0% | 0hPa | 2.6V | 00:00:00 | 00:00:00 | 00:00:00 | |
| DO3MHA-11 | 2026-09-03 23:52:15 | 49.61834 | 15.03196 | 141° | 157km/h | 12902m | 8.2m/s | -64.2°C | 63.9% | 0hPa | 2.6V | 00:00:00 | 01:05:28 | 00:00:00 | |
| OE5MMP-10 | 2026-09-03 23:52:14 | 49.61865 | 15.03156 | 141° | 155km/h | 12893m | 9.5m/s | -64.2°C | 63.9% | 0hPa | 2.6V | 00:00:00 | 01:05:27 | 00:00:00 | |
| ANDY1245 | 2026-09-03 23:52:12 | 49.61897 | 15.03115 | 141° | 162km/h | 12884m | 8.3m/s | -64.2°C | 52.8% | 0hPa | 2.7V | 00:00:00 | 00:00:00 | 00:00:00 | |
| OE5DRO-10 | 2026-09-03 23:52:11 | 49.61961 | 15.03038 | 143° | 150km/h | 12870m | 5.9m/s | -64.2°C | 64.8% | 0hPa | 2.7V | 00:00:00 | 00:00:00 | 00:00:00 | |
| ANDY1245 | 2026-09-03 23:52:07 | 49.62057 | 15.02928 | 143° | 153km/h | 12849m | 7.1m/s | -64.2°C | 52.6% | 0hPa | 2.7V | 00:00:00 | 00:00:00 | 00:00:00 | |
| DO3MHA-11 | 2026-09-03 23:52:05 | 49.62145 | 15.02818 | 139° | 142km/h | 12827m | 8.6m/s | -64.0°C | 62.2% | 0hPa | 2.7V | 00:00:00 | 01:05:18 | 00:00:00 | |
| OE5WHR-10 | 2026-09-03 23:52:04 | 49.62173 | 15.02780 | 139° | 137km/h | 12819m | 8.4m/s | -63.9°C | 62.1% | 0hPa | 2.7V | 00:00:00 | 00:00:00 | 00:00:00 | |
| SONDE2-11 | 2026-09-03 23:52:02 | 49.62229 | 15.02704 | 138° | 148km/h | 12802m | 7.8m/s | -63.9°C | 51.1% | -1.0hPa | 2.7V | 00:00:00 | 00:00:00 | 00:00:00 | |
| EDDB2-11 | 2026-09-03 23:52:01 | 49.62289 | 15.02633 | 145° | 150km/h | 12789m | 5.0m/s | -63.8°C | 51.1% | -1.0hPa | 2.7V | 00:00:00 | 00:00:00 | 00:00:00 | |
| OE5DXL-15 | 2026-09-03 23:51:58 | 49.62353 | 15.02570 | 150° | 135km/h | 12775m | 7.8m/s | -63.7°C | 61.4% | 0hPa | 2.7V | 00:00:00 | 00:00:00 | 00:00:00 | |
| OE5MMP-10 | 2026-09-03 23:51:54 | 49.62479 | 15.02451 | 147° | 139km/h | 12750m | 6.8m/s | -63.5°C | 60.8% | 0hPa | 2.7V | 00:00:00 | 01:05:07 | 00:00:00 | |
| NBG1-10 | 2026-09-03 23:51:53 | 49.62507 | 15.02420 | 145° | 135km/h | 12743m | 6.7m/s | -63.5°C | 60.5% | 0hPa | 2.7V | 00:00:00 | 01:05:06 | 00:00:00 | |
| OE5DRO-10 | 2026-09-03 23:51:52 | 49.62535 | 15.02389 | 144° | 133km/h | 12736m | 8.3m/s | -63.5°C | 59.9% | 0hPa | 2.7V | 00:00:00 | 00:00:00 | 00:00:00 | |
| DO3MHA-11 | 2026-09-03 23:51:50 | 49.62590 | 15.02323 | 141° | 141km/h | 12721m | 6.2m/s | -63.4°C | 60.2% | 0hPa | 2.7V | 00:00:00 | 01:05:03 | 00:00:00 | |
| PG1ADW-2 | 2026-09-03 23:51:45 | 49.62732 | 15.02156 | 151° | 130km/h | 12690m | 6.1m/s | -63.4°C | 60.7% | 0hPa | 2.7V | 00:00:00 | 00:00:00 | 00:00:00 | |
| OE5MMP-10 | 2026-09-03 23:51:44 | 49.62762 | 15.02131 | 153° | 128km/h | 12683m | 8.5m/s | -63.4°C | 60.7% | 0hPa | 2.7V | 00:00:00 | 01:04:57 | 00:00:00 | |
| DO3MHA-11 | 2026-09-03 23:51:40 | 49.62874 | 15.02033 | 147° | 130km/h | 12658m | 5.9m/s | -63.4°C | 58.7% | 0hPa | 2.7V | 00:00:00 | 01:04:53 | 00:00:00 | |
| ANDY1245 | 2026-09-03 23:51:37 | 49.62925 | 15.01979 | 145° | 124km/h | 12644m | 7.3m/s | -63.5°C | 49.5% | 0hPa | 2.7V | 00:00:00 | 00:00:00 | 00:00:00 | |
| OE5MMP-10 | 2026-09-03 23:51:34 | 49.63038 | 15.01862 | 148° | 131km/h | 12619m | 6.4m/s | -63.5°C | 63.7% | 0hPa | 2.7V | 00:00:00 | 01:04:47 | 00:00:00 | |
| OE5DRO-10 | 2026-09-03 23:51:33 | 49.63068 | 15.01833 | 149° | 139km/h | 12614m | 5.3m/s | -63.5°C | 64.4% | 0hPa | 2.7V | 00:00:00 | 00:00:00 | 00:00:00 | |
| ANDY1245 | 2026-09-03 23:51:32 | 49.63068 | 15.01833 | 150° | 142km/h | 12614m | 5.3m/s | -63.5°C | 53.4% | 0hPa | 2.7V | 00:00:00 | 00:00:00 | 00:00:00 | |
| SONDE2-11 | 2026-09-03 23:51:31 | 49.63129 | 15.01776 | 148° | 135km/h | 12603m | 4.9m/s | -63.5°C | 52.8% | -1.0hPa | 2.7V | 00:00:00 | 00:00:00 | 00:00:00 | |
| OE5WHR-10 | 2026-09-03 23:51:30 | 49.63157 | 15.01749 | 149° | 137km/h | 12597m | 5.7m/s | -63.5°C | 64.3% | 0hPa | 2.7V | 00:00:00 | 00:00:00 | 00:00:00 | |
| DO3MHA-11 | 2026-09-03 23:51:28 | 49.63210 | 15.01698 | 148° | 142km/h | 12588m | 3.1m/s | -63.4°C | 63.3% | 0hPa | 2.7V | 00:00:00 | 01:04:41 | 00:00:00 | |
| NBG1-10 | 2026-09-03 23:51:20 | 49.63462 | 15.01497 | 153° | 144km/h | 12525m | 6.5m/s | -62.9°C | 58.9% | 0hPa | 2.7V | 00:00:00 | 01:04:33 | 00:00:00 | |
| DO3MHA-11 | 2026-09-03 23:51:18 | 49.63528 | 15.01442 | 151° | 141km/h | 12511m | 8.2m/s | -62.8°C | 58.3% | 0hPa | 2.7V | 00:00:00 | 01:04:31 | 00:00:00 | |
| PETON7-10 | 2026-09-03 23:51:15 | 49.63621 | 15.01366 | 154° | 141km/h | 12493m | 5.3m/s | -62.7°C | 56.4% | 0hPa | 2.7V | 00:00:00 | 01:04:28 | 00:00:00 | |
| OE5MMP-10 | 2026-09-03 23:51:14 | 49.63651 | 15.01342 | 155° | 141km/h | 12486m | 8.9m/s | -62.6°C | 56.2% | 0hPa | 2.7V | 00:00:00 | 01:04:27 | 08:30:00 | |
| DO3MHA-11 | 2026-09-03 23:51:07 | 49.63878 | 15.01190 | 159° | 141km/h | 12443m | 5.5m/s | -62.5°C | 60.6% | 0hPa | 2.7V | 00:00:00 | 01:04:20 | 00:00:00 | |
| PG1ADW-2 | 2026-09-03 23:51:05 | 49.63946 | 15.01147 | 158° | 146km/h | 12433m | 3.9m/s | -62.5°C | 60.7% | 0hPa | 2.7V | 00:00:00 | 00:00:00 | 00:00:00 | |
| OE5MMP-10 | 2026-09-03 23:51:04 | 49.63980 | 15.01125 | 156° | 141km/h | 12429m | 6.0m/s | -62.4°C | 59.5% | 0hPa | 2.7V | 00:00:00 | 01:04:17 | 00:00:00 | |
| SONDE2-11 | 2026-09-03 23:51:00 | 49.64135 | 15.01004 | 152° | 131km/h | 12408m | 3.8m/s | -62.4°C | 48.2% | -1.0hPa | 2.7V | 00:00:00 | 00:00:00 | 00:00:00 | |
| EDDB2-11 | 2026-09-03 23:50:59 | 49.64165 | 15.00980 | 153° | 135km/h | 12404m | 3.2m/s | -62.4°C | 48.3% | -1.0hPa | 2.7V | 00:00:00 | 00:00:00 | 00:00:00 | |
| OE5WHR-10 | 2026-09-03 23:50:58 | 49.64165 | 15.00980 | 154° | 150km/h | 12404m | 3.1m/s | -62.3°C | 58.9% | 0hPa | 2.7V | 00:00:00 | 01:04:11 | 00:00:00 | |
| DO3MHA-11 | 2026-09-03 23:50:57 | 49.64197 | 15.00957 | 156° | 150km/h | 12401m | 3.5m/s | -62.3°C | 58.3% | 0hPa | 2.7V | 00:00:00 | 01:04:10 | 08:30:00 | |
| OE5DRO-10 | 2026-09-03 23:50:55 | 49.64264 | 15.00911 | 157° | 150km/h | 12389m | 7.3m/s | -62.2°C | 56.2% | 0hPa | 2.7V | 00:00:00 | 00:00:00 | 00:00:00 | |
| OE5MMP-10 | 2026-09-03 23:50:54 | 49.64299 | 15.00887 | 156° | 151km/h | 12381m | 9.4m/s | -62.1°C | 56.4% | 0hPa | 2.7V | 00:00:00 | 01:04:07 | 00:00:00 | |
| SP3BTT-10 | 2026-09-03 23:50:50 | 49.64442 | 15.00794 | 159° | 150km/h | 12353m | 4.7m/s | 0°C | 0% | 0hPa | 2.7V | 00:00:00 | 00:00:00 | 00:00:00 | |
| DO3MHA-11 | 2026-09-03 23:50:47 | 49.64549 | 15.00731 | 159° | 150km/h | 12336m | 6.6m/s | -61.8°C | 59.6% | 0hPa | 2.7V | 00:00:00 | 01:04:00 | 00:00:00 | |
| PG1ADW-2 | 2026-09-03 23:50:45 | 49.64618 | 15.00689 | 159° | 150km/h | 12324m | 4.3m/s | -61.7°C | 60.4% | 0hPa | 2.7V | 00:00:00 | 01:03:58 | 00:00:00 | |
| OE5MMP-10 | 2026-09-03 23:50:44 | 49.64652 | 15.00667 | 158° | 150km/h | 12320m | 4.9m/s | -61.7°C | 60.2% | 0hPa | 2.7V | 00:00:00 | 01:03:57 | 00:00:00 | |
| DO3MHA-11 | 2026-09-03 23:50:37 | 49.64899 | 15.00517 | 159° | 150km/h | 12271m | 6.7m/s | -61.4°C | 61.4% | 0hPa | 2.6V | 00:00:00 | 01:03:50 | 00:00:00 | |
| OE5DRO-10 | 2026-09-03 23:50:36 | 49.64934 | 15.00495 | 159° | 151km/h | 12264m | 7.2m/s | -61.3°C | 61.8% | 0hPa | 2.6V | 00:00:00 | 00:00:00 | 00:00:00 | |
| OE5MMP-10 | 2026-09-03 23:50:34 | 49.65002 | 15.00453 | 159° | 153km/h | 12251m | 7.4m/s | -61.3°C | 62.3% | 0hPa | 2.6V | 00:00:00 | 01:03:47 | 00:00:00 | |
| S52SK | 2026-09-03 23:50:33 | 49.65002 | 15.00453 | 159° | 146km/h | 12251m | 7.4m/s | -61.3°C | 0% | 0hPa | 2.6V | 00:00:00 | 00:00:00 | 00:00:00 | |
| PETON7-10 | 2026-09-03 23:50:30 | 49.65143 | 15.00368 | 157° | 155km/h | 12225m | 9.7m/s | -61.0°C | 60.4% | 0hPa | 2.6V | 00:00:00 | 01:03:43 | 00:00:00 | |
| SONDE2-11 | 2026-09-03 23:50:29 | 49.65178 | 15.00343 | 154° | 150km/h | 12215m | 9.9m/s | -61.0°C | 50.6% | -1.0hPa | 2.6V | 00:00:00 | 00:00:00 | 00:00:00 | |
| EDDB2-11 | 2026-09-03 23:50:28 | 49.65248 | 15.00292 | 155° | 157km/h | 12200m | 5.8m/s | -60.9°C | 52.2% | -1.0hPa | 2.6V | 00:00:00 | 00:00:00 | 00:00:00 | |
| DO3MHA-11 | 2026-09-03 23:50:27 | 49.65248 | 15.00292 | 156° | 155km/h | 12200m | 5.7m/s | -60.8°C | 62.8% | 0hPa | 2.6V | 00:00:00 | 01:03:40 | 00:00:00 | |
| PG1ADW-2 | 2026-09-03 23:50:25 | 49.65322 | 15.00243 | 159° | 157km/h | 12189m | 5.6m/s | -60.7°C | 61.8% | 0hPa | 2.7V | 00:00:00 | 00:00:00 | 08:30:00 | |
| OE5WHR-10 | 2026-09-03 23:50:17 | 49.65616 | 15.00083 | 160° | 153km/h | 12130m | 7.2m/s | -60.2°C | 61.4% | 0hPa | 2.6V | 00:00:00 | 00:00:00 | 08:30:00 | |
| PETON7-10 | 2026-09-03 23:50:15 | 49.65692 | 15.00038 | 159° | 155km/h | 12119m | 6.0m/s | -60.1°C | 62.5% | 0hPa | 2.7V | 00:00:00 | 00:00:00 | 00:00:00 | |
| OE5MMP-10 | 2026-09-03 23:50:14 | 49.65729 | 15.00014 | 158° | 159km/h | 12113m | 6.7m/s | -60.1°C | 63.1% | 0hPa | 2.7V | 00:00:00 | 01:03:27 | 00:00:00 | |
| DO3MHA-11 | 2026-09-03 23:50:07 | 49.65992 | 14.99856 | 162° | 153km/h | 12069m | 6.5m/s | -59.7°C | 60.5% | 0hPa | 2.7V | 00:00:00 | 01:03:20 | 00:00:00 | |
| OK1ALN | 2026-09-03 23:50:05 | 49.66068 | 14.99821 | 165° | 151km/h | 12055m | 5.8m/s | -59.6°C | 51.3% | 0hPa | 2.7V | 00:00:00 | 00:00:00 | 00:00:00 | |
| OE5MMP-10 | 2026-09-03 23:50:04 | 49.66105 | 14.99804 | 163° | 153km/h | 12050m | 3.8m/s | -59.5°C | 61.1% | 0hPa | 2.7V | 00:00:00 | 01:03:17 | 00:00:00 | |
| SONDE2-11 | 2026-09-03 23:49:58 | 49.66316 | 14.99671 | 154° | 157km/h | 12012m | 7.3m/s | -59.3°C | 51.0% | -1.0hPa | 2.7V | 00:00:00 | 00:00:00 | 00:00:00 | |
| EDDB2-11 | 2026-09-03 23:49:57 | 49.66388 | 14.99621 | 157° | 159km/h | 12000m | 4.5m/s | -59.2°C | 51.0% | -1.0hPa | 2.7V | 00:00:00 | 00:00:00 | 00:00:00 | |
| OE5MMP-10 | 2026-09-03 23:49:54 | 49.66464 | 14.99577 | 161° | 151km/h | 11989m | 6.7m/s | -59.0°C | 59.0% | 0hPa | 2.7V | 00:00:00 | 01:03:07 | 00:00:00 | |
| DO3MHA-11 | 2026-09-03 23:49:46 | 49.66757 | 14.99417 | 159° | 150km/h | 11937m | 5.9m/s | -58.5°C | 59.1% | 0hPa | 2.7V | 00:00:00 | 01:02:59 | 00:00:00 | |
| PETON7-10 | 2026-09-03 23:49:45 | 49.66790 | 14.99396 | 159° | 157km/h | 11931m | 6.6m/s | 0°C | 0% | 0hPa | 2.7V | 00:00:00 | 01:02:58 | 00:00:00 | |
| OE5MMP-10 | 2026-09-03 23:49:44 | 49.66823 | 14.99376 | 159° | 155km/h | 11925m | 4.4m/s | -58.4°C | 60.3% | 0hPa | 2.7V | 00:00:00 | 01:02:57 | 08:30:00 | |
| NBG1-10 | 2026-09-03 23:49:41 | 49.66929 | 14.99314 | 161° | 153km/h | 11909m | 4.4m/s | -58.3°C | 59.4% | 0hPa | 2.7V | 00:00:00 | 01:02:54 | 00:00:00 | |
| OE5DRO-10 | 2026-09-03 23:49:39 | 49.67006 | 14.99271 | 161° | 153km/h | 11899m | 5.2m/s | -58.2°C | 58.9% | 0hPa | 2.7V | 00:00:00 | 00:00:00 | 00:00:00 | |
| DO3MHA-11 | 2026-09-03 23:49:36 | 49.67120 | 14.99206 | 158° | 155km/h | 11880m | 5.7m/s | -58.1°C | 58.5% | 0hPa | 2.7V | 00:00:00 | 01:02:49 | 00:00:00 | |
| OE5MMP-10 | 2026-09-03 23:49:34 | 49.67194 | 14.99157 | 157° | 153km/h | 11870m | 4.9m/s | -58.0°C | 57.9% | 0hPa | 2.7V | 00:00:00 | 01:02:47 | 00:00:00 | |
| OE5WHR-10 | 2026-09-03 23:49:32 | 49.67270 | 14.99107 | 158° | 151km/h | 11858m | 6.0m/s | -57.9°C | 58.1% | 0hPa | 2.7V | 00:00:00 | 00:00:00 | 00:00:00 | |
| PETON7-10 | 2026-09-03 23:49:30 | 49.67345 | 14.99059 | 158° | 151km/h | 11847m | 4.4m/s | 0°C | 0% | 0hPa | 2.7V | 00:00:00 | 00:00:00 | 00:00:00 | |
| OE5DXL-15 | 2026-09-03 23:49:28 | 49.67416 | 14.99016 | 160° | 151km/h | 11836m | 5.6m/s | 0°C | 0% | 0hPa | 2.7V | 00:00:00 | 00:00:00 | 00:00:00 | |
| SONDE2-11 | 2026-09-03 23:49:27 | 49.67485 | 14.98978 | 160° | 142km/h | 11822m | 6.7m/s | 0°C | -1.0% | -1.0hPa | 2.7V | 00:00:00 | 00:00:00 | 00:00:00 | |
| EDDB2-11 | 2026-09-03 23:49:26 | 49.67519 | 14.98960 | 161° | 142km/h | 11816m | 6.4m/s | -57.6°C | 48.8% | -1.0hPa | 2.7V | 00:00:00 | 00:00:00 | 00:00:00 | |
| PG1ADW-2 | 2026-09-03 23:49:25 | 49.67519 | 14.98960 | 162° | 150km/h | 11816m | 6.4m/s | -57.5°C | 57.9% | 0hPa | 2.7V | 00:00:00 | 01:02:38 | 00:00:00 | |
| OE5MMP-10 | 2026-09-03 23:49:24 | 49.67554 | 14.98942 | 161° | 153km/h | 11809m | 5.6m/s | -57.5°C | 58.6% | 0hPa | 2.7V | 00:00:00 | 01:02:37 | 00:00:00 | |
| OK1ALN | 2026-09-03 23:49:23 | 49.67554 | 14.98942 | 162° | 144km/h | 11809m | 5.7m/s | -57.5°C | 49.7% | 0hPa | 2.7V | 00:00:00 | 00:00:00 | 00:00:00 | |
| OE5DRO-10 | 2026-09-03 23:49:20 | 49.67695 | 14.98857 | 158° | 151km/h | 11785m | 6.1m/s | -57.3°C | 58.4% | 0hPa | 2.7V | 00:00:00 | 00:00:00 | 00:00:00 | |
| DO3MHA-11 | 2026-09-03 23:49:16 | 49.67842 | 14.98767 | 159° | 150km/h | 11758m | 6.7m/s | -57.0°C | 58.3% | 0hPa | 2.7V | 00:00:00 | 01:02:29 | 00:00:00 | |
| PETON7-10 | 2026-09-03 23:49:15 | 49.67879 | 14.98745 | 159° | 151km/h | 11751m | 7.2m/s | 0°C | 0% | 0hPa | 2.7V | 00:00:00 | 00:00:00 | 00:00:00 | |
| OE5MMP-10 | 2026-09-03 23:49:14 | 49.67915 | 14.98723 | 159° | 150km/h | 11745m | 6.3m/s | -56.9°C | 58.4% | 0hPa | 2.7V | 00:00:00 | 01:02:27 | 00:00:00 | |
| OE5WHR-10 | 2026-09-03 23:49:11 | 49.68017 | 14.98657 | 156° | 153km/h | 11725m | 7.8m/s | -56.7°C | 57.8% | 0hPa | 2.7V | 00:00:00 | 01:02:24 | 00:00:00 | |
| NBG1-10 | 2026-09-03 23:49:08 | 49.68119 | 14.98584 | 156° | 153km/h | 11704m | 6.9m/s | -56.5°C | 58.3% | 0hPa | 2.7V | 00:00:00 | 01:02:21 | 08:30:00 | |
| DO3MHA-11 | 2026-09-03 23:49:06 | 49.68189 | 14.98535 | 157° | 155km/h | 11691m | 6.6m/s | -56.4°C | 58.7% | 0hPa | 2.7V | 00:00:00 | 01:02:19 | 00:00:00 | |
| PG1ADW-2 | 2026-09-03 23:49:05 | 49.68225 | 14.98511 | 158° | 151km/h | 11685m | 5.9m/s | -56.3°C | 59.0% | 0hPa | 2.7V | 00:00:00 | 00:00:00 | 00:00:00 | |
| OE5MMP-10 | 2026-09-03 23:49:04 | 49.68261 | 14.98489 | 159° | 155km/h | 11678m | 6.9m/s | -56.3°C | 58.7% | 0hPa | 2.7V | 00:00:00 | 01:02:17 | 00:00:00 | |
| OK1ALN | 2026-09-03 23:49:02 | 49.68298 | 14.98467 | 160° | 155km/h | 11672m | 5.6m/s | -56.3°C | 50.2% | 0hPa | 2.7V | 00:00:00 | 00:00:00 | 00:00:00 | |
| EDDB2-11 | 2026-09-03 23:48:55 | 49.68623 | 14.98263 | 157° | 146km/h | 11609m | 5.8m/s | -55.7°C | 48.6% | -1.0hPa | 2.7V | 00:00:00 | 00:00:00 | 00:00:00 | |
| OE5MMP-10 | 2026-09-03 23:48:54 | 49.68623 | 14.98263 | 158° | 150km/h | 11609m | 5.8m/s | -55.7°C | 57.2% | 0hPa | 2.7V | 00:00:00 | 01:02:07 | 00:00:00 | |
| OE5WHR-10 | 2026-09-03 23:48:50 | 49.68762 | 14.98181 | 161° | 151km/h | 11583m | 4.8m/s | 0°C | 0% | 0hPa | 2.7V | 00:00:00 | 00:00:00 | 00:00:00 | |
| S52SK | 2026-09-03 23:48:49 | 49.68762 | 14.98181 | 161° | 148km/h | 11583m | 4.9m/s | -55.5°C | 0% | 0hPa | 2.7V | 00:00:00 | 00:00:00 | 00:00:00 | |
| SP3BTT-10 | 2026-09-03 23:48:48 | 49.68833 | 14.98143 | 161° | 148km/h | 11572m | 6.4m/s | 0°C | 0% | 0hPa | 2.7V | 00:00:00 | 00:00:00 | 00:00:00 | |
| DO3MHA-11 | 2026-09-03 23:48:46 | 49.68906 | 14.98103 | 160° | 157km/h | 11560m | 4.7m/s | -55.2°C | 57.5% | 0hPa | 2.7V | 00:00:00 | 01:01:59 | 00:00:00 | |
| PG1ADW-2 | 2026-09-03 23:48:45 | 49.68944 | 14.98082 | 160° | 155km/h | 11555m | 5.9m/s | -55.2°C | 57.1% | 0hPa | 2.7V | 00:00:00 | 00:00:00 | 00:00:00 | |
| OE5MMP-10 | 2026-09-03 23:48:44 | 49.68981 | 14.98061 | 160° | 155km/h | 11548m | 7.7m/s | -55.1°C | 57.1% | 0hPa | 2.7V | 00:00:00 | 01:01:57 | 00:00:00 | |
| OE5DRO-10 | 2026-09-03 23:48:42 | 49.69055 | 14.98017 | 158° | 153km/h | 11535m | 5.8m/s | -55.0°C | 57.4% | 0hPa | 2.7V | 00:00:00 | 00:00:00 | 00:00:00 | |
| DO3MHA-11 | 2026-09-03 23:48:36 | 49.69272 | 14.97873 | 159° | 153km/h | 11500m | 4.4m/s | -54.7°C | 56.9% | 0hPa | 2.7V | 00:00:00 | 01:01:49 | 00:00:00 | |
| NBG1-10 | 2026-09-03 23:48:35 | 49.69309 | 14.97852 | 160° | 153km/h | 11495m | 5.8m/s | -54.6°C | 56.3% | 0hPa | 2.7V | 00:00:00 | 01:01:48 | 00:00:00 | |
| OE5MMP-10 | 2026-09-03 23:48:34 | 49.69345 | 14.97830 | 159° | 151km/h | 11489m | 5.9m/s | -54.6°C | 56.2% | 0hPa | 2.7V | 00:00:00 | 01:01:47 | 00:00:00 | |
| OE5DXL-15 | 2026-09-03 23:48:27 | 49.69595 | 14.97665 | 156° | 148km/h | 11451m | 7.0m/s | 0°C | 0% | 0hPa | 2.7V | 00:00:00 | 00:00:00 | 08:30:00 | |
| DO3MHA-11 | 2026-09-03 23:48:26 | 49.69629 | 14.97642 | 156° | 148km/h | 11444m | 7.1m/s | -54.2°C | 52.2% | 0hPa | 2.7V | 00:00:00 | 01:01:39 | 00:00:00 | |
| PG1ADW-2 | 2026-09-03 23:48:25 | 49.69662 | 14.97618 | 157° | 153km/h | 11437m | 6.8m/s | -54.1°C | 52.0% | 0hPa | 2.7V | 00:00:00 | 00:00:00 | 00:00:00 | |
| OE5MMP-10 | 2026-09-03 23:48:24 | 49.69697 | 14.97595 | 156° | 150km/h | 11430m | 6.2m/s | -54.0°C | 51.8% | 0hPa | 2.7V | 00:00:00 | 01:01:37 | 00:00:00 | |
| OE5DRO-10 | 2026-09-03 23:48:23 | 49.69731 | 14.97572 | 157° | 155km/h | 11424m | 6.7m/s | -54.0°C | 51.8% | 0hPa | 2.7V | 00:00:00 | 00:00:00 | 00:00:00 | |
| OE5WHR-10 | 2026-09-03 23:48:22 | 49.69765 | 14.97549 | 157° | 153km/h | 11418m | 4.8m/s | 0°C | 0% | 0hPa | 2.7V | 00:00:00 | 00:00:00 | 00:00:00 | |
| DO3MHA-11 | 2026-09-03 23:48:16 | 49.69974 | 14.97411 | 158° | 159km/h | 11385m | 5.4m/s | -53.6°C | 51.0% | 0hPa | 2.7V | 00:00:00 | 01:01:29 | 00:00:00 | |
| OE5MMP-10 | 2026-09-03 23:48:14 | 49.70047 | 14.97366 | 159° | 159km/h | 11376m | 5.6m/s | -53.5°C | 50.4% | 0hPa | 2.7V | 00:00:00 | 01:01:27 | 08:30:00 | |
| DO3MHA-11 | 2026-09-03 23:48:06 | 49.70345 | 14.97175 | 158° | 150km/h | 11337m | 4.7m/s | -53.2°C | 50.0% | 0hPa | 2.7V | 00:00:00 | 01:01:19 | 00:00:00 | |
| PG1ADW-2 | 2026-09-03 23:48:05 | 49.70380 | 14.97153 | 158° | 150km/h | 11332m | 6.2m/s | -53.1°C | 49.9% | 0hPa | 2.7V | 00:00:00 | 01:01:18 | 00:00:00 | |
| OE5DRO-10 | 2026-09-03 23:48:04 | 49.70416 | 14.97130 | 158° | 150km/h | 11325m | 6.7m/s | -53.1°C | 50.1% | 0hPa | 2.7V | 00:00:00 | 00:00:00 | 00:00:00 | |
| NBG1-10 | 2026-09-03 23:48:02 | 49.70485 | 14.97083 | 157° | 151km/h | 11313m | 5.3m/s | -52.9°C | 50.8% | 0hPa | 2.7V | 00:00:00 | 01:01:15 | 00:00:00 | |
| EDDB2-11 | 2026-09-03 23:47:52 | 49.70831 | 14.96844 | 157° | 155km/h | 11251m | 6.5m/s | -52.4°C | 43.1% | -1.0hPa | 2.7V | 00:00:00 | 00:00:00 | 00:00:00 | |
| DO3MHA-11 | 2026-09-03 23:47:46 | 49.71039 | 14.96707 | 159° | 153km/h | 11215m | 7.7m/s | -52.0°C | 47.6% | 0hPa | 2.7V | 00:00:00 | 01:00:59 | 00:00:00 | |
| PG1ADW-2 | 2026-09-03 23:47:45 | 49.71074 | 14.96686 | 160° | 153km/h | 11207m | 7.5m/s | -51.9°C | 47.3% | 0hPa | 2.7V | 00:00:00 | 00:00:00 | 00:00:00 | |
| OE5MMP-10 | 2026-09-03 23:47:44 | 49.71110 | 14.96666 | 161° | 153km/h | 11200m | 6.5m/s | -51.9°C | 47.6% | 0hPa | 2.7V | 00:00:00 | 01:00:57 | 00:00:00 | |
| OE5WHR-10 | 2026-09-03 23:47:38 | 49.71329 | 14.96533 | 157° | 151km/h | 11167m | 5.8m/s | 0°C | 0% | 0hPa | 2.7V | 00:00:00 | 00:00:00 | 00:00:00 | |
| DO3MHA-11 | 2026-09-03 23:47:36 | 49.71397 | 14.96486 | 156° | 155km/h | 11156m | 5.5m/s | -51.6°C | 48.8% | 0hPa | 2.7V | 00:00:00 | 01:00:49 | 00:00:00 | |
| OE5MMP-10 | 2026-09-03 23:47:34 | 49.71466 | 14.96437 | 155° | 153km/h | 11146m | 4.5m/s | -51.5°C | 47.8% | 0hPa | 2.7V | 00:00:00 | 01:00:47 | 00:00:00 | |
| OE3JTB-15 | 2026-09-03 23:47:29 | 49.71649 | 14.96302 | 155° | 148km/h | 11121m | 4.1m/s | -51.3°C | 48.7% | 0hPa | 2.7V | 00:00:00 | 01:00:42 | 00:00:00 | |
| DO3MHA-11 | 2026-09-03 23:47:26 | 49.71750 | 14.96229 | 155° | 148km/h | 11106m | 7.4m/s | -51.1°C | 47.6% | 0hPa | 2.7V | 00:00:00 | 01:00:39 | 00:00:00 | |
| OE5MMP-10 | 2026-09-03 23:47:24 | 49.71815 | 14.96180 | 155° | 150km/h | 11092m | 6.3m/s | -51.0°C | 47.7% | 0hPa | 2.7V | 00:00:00 | 01:00:37 | 00:00:00 | |
| OE5DXL-15 | 2026-09-03 23:47:22 | 49.71880 | 14.96133 | 156° | 151km/h | 11081m | 6.3m/s | 0°C | 0% | 0hPa | 2.7V | 00:00:00 | 00:00:00 | 00:00:00 | |
| EDDB2-11 | 2026-09-03 23:47:21 | 49.71914 | 14.96111 | 157° | 148km/h | 11076m | 3.9m/s | -50.9°C | 41.2% | -1.0hPa | 2.7V | 00:00:00 | 00:00:00 | 00:00:00 | |
| OE5WHR-10 | 2026-09-03 23:47:17 | 49.72057 | 14.96022 | 157° | 153km/h | 11056m | 5.5m/s | 0°C | 0% | 0hPa | 2.7V | 00:00:00 | 00:00:00 | 00:00:00 | |
| DO3MHA-11 | 2026-09-03 23:47:16 | 49.72093 | 14.95996 | 155° | 155km/h | 11051m | 5.0m/s | -50.6°C | 47.3% | 0hPa | 2.7V | 00:00:00 | 01:00:29 | 00:00:00 | |
| OE5MMP-10 | 2026-09-03 23:47:14 | 49.72163 | 14.95940 | 153° | 153km/h | 11039m | 5.6m/s | -50.5°C | 47.9% | 0hPa | 2.7V | 00:00:00 | 01:00:27 | 00:00:00 | |
| S52SK | 2026-09-03 23:47:10 | 49.72266 | 14.95858 | 154° | 150km/h | 11023m | 6.3m/s | 0°C | 0% | 0hPa | 2.7V | 00:00:00 | 00:00:00 | 00:00:00 | |
| OE5DRO-10 | 2026-09-03 23:47:07 | 49.72409 | 14.95763 | 159° | 148km/h | 11001m | 5.8m/s | -50.2°C | 47.9% | 0hPa | 2.7V | 00:00:00 | 00:00:00 | 00:00:00 | |
| DO3MHA-11 | 2026-09-03 23:47:06 | 49.72445 | 14.95740 | 158° | 150km/h | 10996m | 5.2m/s | -50.2°C | 48.8% | 0hPa | 2.7V | 00:00:00 | 01:00:19 | 00:00:00 | |
| PG1ADW-2 | 2026-09-03 23:47:05 | 49.72481 | 14.95716 | 155° | 148km/h | 10991m | 3.2m/s | -50.1°C | 49.5% | 0hPa | 2.7V | 00:00:00 | 00:00:00 | 00:00:00 | |
| OE5MMP-10 | 2026-09-03 23:47:04 | 49.72514 | 14.95690 | 153° | 150km/h | 10987m | 5.0m/s | -50.1°C | 49.2% | 0hPa | 2.7V | 00:00:00 | 01:00:17 | 00:00:00 | |
| EDDB2-11 | 2026-09-03 23:46:50 | 49.72980 | 14.95334 | 150° | 139km/h | 10905m | 7.1m/s | -49.4°C | 39.9% | -1.0hPa | 2.7V | 00:00:00 | 00:00:00 | 00:00:00 | |
| ANDY1245 | 2026-09-03 23:46:49 | 49.72979 | 14.95334 | 152° | 139km/h | 10905m | 7.1m/s | -49.4°C | 40.2% | 0hPa | 2.7V | 00:00:00 | 00:00:00 | 00:00:00 | |
| OE5DRO-10 | 2026-09-03 23:46:48 | 49.73042 | 14.95279 | 150° | 148km/h | 10893m | 5.3m/s | -49.2°C | 45.8% | 0hPa | 2.7V | 00:00:00 | 00:00:00 | 00:00:00 | |
| DO3MHA-11 | 2026-09-03 23:46:46 | 49.73108 | 14.95222 | 153° | 148km/h | 10883m | 5.4m/s | -49.1°C | 44.8% | 0hPa | 2.7V | 00:00:00 | 00:59:59 | 00:00:00 | |
| PG1ADW-2 | 2026-09-03 23:46:45 | 49.73142 | 14.95195 | 155° | 148km/h | 10877m | 6.5m/s | -49.1°C | 44.6% | 0hPa | 2.7V | 00:00:00 | 00:59:58 | 00:00:00 | |
| OE5MMP-10 | 2026-09-03 23:46:44 | 49.73177 | 14.95170 | 156° | 146km/h | 10870m | 7.8m/s | -49.0°C | 44.4% | 0hPa | 2.7V | 00:00:00 | 00:59:57 | 08:30:00 | |
| OK1ALN | 2026-09-03 23:46:37 | 49.73376 | 14.95026 | 154° | 144km/h | 10833m | 6.6m/s | -48.7°C | 38.9% | 0hPa | 2.7V | 00:00:00 | 00:00:00 | 00:00:00 | |
| DO3MHA-11 | 2026-09-03 23:46:36 | 49.73441 | 14.94972 | 151° | 150km/h | 10823m | 5.6m/s | -48.6°C | 44.3% | 0hPa | 2.7V | 00:00:00 | 00:59:49 | 00:00:00 | |
| OE5WHR-10 | 2026-09-03 23:46:35 | 49.73473 | 14.94943 | 150° | 150km/h | 10816m | 7.4m/s | 0°C | 0% | 0hPa | 2.7V | 00:00:00 | 00:00:00 | 00:00:00 | |
| OE5MMP-10 | 2026-09-03 23:46:34 | 49.73505 | 14.94914 | 150° | 150km/h | 10809m | 6.8m/s | -48.4°C | 44.1% | 0hPa | 2.7V | 00:00:00 | 00:59:47 | 00:00:00 | |
| SP3BTT-10 | 2026-09-03 23:46:31 | 49.73606 | 14.94828 | 153° | 150km/h | 10793m | 6.1m/s | 0°C | 0% | 0hPa | 2.7V | 00:00:00 | 00:00:00 | 00:00:00 | |
| OE5DRO-10 | 2026-09-03 23:46:29 | 49.73676 | 14.94775 | 156° | 144km/h | 10781m | 4.4m/s | -48.2°C | 43.8% | 0hPa | 2.7V | 00:00:00 | 00:00:00 | 00:00:00 | |
| DO3MHA-11 | 2026-09-03 23:46:26 | 49.73776 | 14.94700 | 151° | 144km/h | 10764m | 5.7m/s | -48.0°C | 42.7% | 0hPa | 2.7V | 00:00:00 | 00:59:39 | 08:30:00 | |
| PG1ADW-2 | 2026-09-03 23:46:25 | 49.73807 | 14.94672 | 149° | 144km/h | 10758m | 6.5m/s | -47.9°C | 42.2% | 0hPa | 2.7V | 00:00:00 | 00:00:00 | 00:00:00 | |
| NBG1-10 | 2026-09-03 23:46:24 | 49.73869 | 14.94612 | 149° | 146km/h | 10746m | 6.2m/s | -47.8°C | 42.3% | 0hPa | 2.7V | 00:00:00 | 00:59:36 | 00:00:00 | |
| EDDB2-11 | 2026-09-03 23:46:19 | 49.74031 | 14.94474 | 153° | 139km/h | 10718m | 4.6m/s | -47.6°C | 36.2% | -1.0hPa | 2.7V | 00:00:00 | 00:00:00 | 00:00:00 | |
| DO3MHA-11 | 2026-09-03 23:46:16 | 49.74093 | 14.94427 | 154° | 144km/h | 10707m | 7.1m/s | -47.4°C | 41.4% | 0hPa | 2.7V | 00:00:00 | 00:59:29 | 00:00:00 | |
| OE3JTB-15 | 2026-09-03 23:46:15 | 49.74123 | 14.94403 | 152° | 146km/h | 10701m | 5.9m/s | -47.4°C | 41.4% | 0hPa | 2.7V | 00:00:00 | 00:00:00 | 00:00:00 | |
| OE5MMP-10 | 2026-09-03 23:46:14 | 49.74154 | 14.94377 | 152° | 148km/h | 10694m | 7.3m/s | -47.3°C | 41.0% | 0hPa | 2.7V | 00:00:00 | 00:59:27 | 00:00:00 | |
| OK1ALN | 2026-09-03 23:46:13 | 49.74155 | 14.94377 | 153° | 139km/h | 10694m | 7.4m/s | -47.4°C | 35.7% | 0hPa | 2.7V | 00:00:00 | 00:00:00 | 00:00:00 | |
| ANDY1245 | 2026-09-03 23:46:12 | 49.74186 | 14.94351 | 153° | 144km/h | 10687m | 6.7m/s | -47.3°C | 35.7% | 0hPa | 2.7V | 00:00:00 | 00:00:00 | 00:00:00 | |
| ANDY1245 | 2026-09-03 23:46:07 | 49.74352 | 14.94216 | 152° | 150km/h | 10656m | 6.3m/s | -47.0°C | 34.1% | 0hPa | 2.7V | 00:00:00 | 00:00:00 | 00:00:00 | |
| DO3MHA-11 | 2026-09-03 23:46:06 | 49.74418 | 14.94159 | 151° | 144km/h | 10642m | 6.6m/s | -46.8°C | 39.0% | 0hPa | 2.7V | 00:00:00 | 00:59:19 | 00:00:00 | |
| PG1ADW-2 | 2026-09-03 23:46:05 | 49.74449 | 14.94130 | 150° | 146km/h | 10636m | 5.0m/s | -46.8°C | 39.3% | 0hPa | 2.7V | 00:00:00 | 00:00:00 | 00:00:00 | |
| OE5MMP-10 | 2026-09-03 23:46:04 | 49.74481 | 14.94101 | 150° | 144km/h | 10631m | 5.8m/s | -46.7°C | 39.3% | 0hPa | 2.7V | 00:00:00 | 00:59:17 | 00:00:00 | |
| ANDY1245 | 2026-09-03 23:46:02 | 49.74514 | 14.94072 | 151° | 146km/h | 10625m | 5.5m/s | -46.7°C | 34.5% | 0hPa | 2.7V | 00:00:00 | 00:00:00 | 00:00:00 | |
| EDDB2-11 | 2026-09-03 23:45:48 | 49.75000 | 14.93654 | 150° | 146km/h | 10549m | 7.9m/s | -46.0°C | 34.5% | -1.0hPa | 2.7V | 00:00:00 | 00:00:00 | 00:00:00 | |
| OE3JTB-15 | 2026-09-03 23:45:46 | 49.75061 | 14.93599 | 151° | 148km/h | 10538m | 3.6m/s | -45.9°C | 39.9% | 0hPa | 2.7V | 00:00:00 | 00:58:59 | 00:00:00 | |
| PG1ADW-2 | 2026-09-03 23:45:45 | 49.75091 | 14.93573 | 151° | 146km/h | 10533m | 5.4m/s | -45.8°C | 39.8% | 0hPa | 2.7V | 00:00:00 | 00:00:00 | 00:00:00 | |
| OE5MMP-10 | 2026-09-03 23:45:44 | 49.75121 | 14.93548 | 152° | 146km/h | 10527m | 6.8m/s | -45.8°C | 39.7% | 0hPa | 2.7V | 00:00:00 | 00:58:57 | 00:00:00 | |
| OE5DXL-15 | 2026-09-03 23:45:37 | 49.75351 | 14.93376 | 153° | 150km/h | 10487m | 5.8m/s | 0°C | 0% | 0hPa | 2.7V | 00:00:00 | 00:00:00 | 00:00:00 | |
| DO3MHA-11 | 2026-09-03 23:45:36 | 49.75386 | 14.93346 | 151° | 150km/h | 10481m | 5.8m/s | -45.4°C | 39.3% | 0hPa | 2.7V | 00:00:00 | 00:58:49 | 00:00:00 | |
| OE5MMP-10 | 2026-09-03 23:45:34 | 49.75453 | 14.93284 | 148° | 148km/h | 10468m | 6.5m/s | -45.2°C | 39.6% | 0hPa | 2.7V | 00:00:00 | 00:58:47 | 00:00:00 | |
| OE5DRO-10 | 2026-09-03 23:45:32 | 49.75516 | 14.93223 | 148° | 148km/h | 10457m | 4.3m/s | -45.1°C | 40.1% | 0hPa | 2.7V | 00:00:00 | 00:00:00 | 00:00:00 | |
| PETON7-10 | 2026-09-03 23:45:31 | 49.75547 | 14.93192 | 149° | 148km/h | 10452m | 5.5m/s | 0°C | 0% | 0hPa | 2.7V | 00:00:00 | 00:00:00 | 00:00:00 | |
| ANDY1245 | 2026-09-03 23:45:28 | 49.75611 | 14.93133 | 151° | 148km/h | 10441m | 6.1m/s | -45.0°C | 34.4% | 0hPa | 2.7V | 00:00:00 | 00:00:00 | 00:00:00 | |
| DO3MHA-11 | 2026-09-03 23:45:26 | 49.75709 | 14.93050 | 151° | 150km/h | 10421m | 6.9m/s | -44.8°C | 38.2% | 0hPa | 2.7V | 00:00:00 | 00:58:39 | 00:00:00 | |
| OE5MMP-10 | 2026-09-03 23:45:24 | 49.75774 | 14.92992 | 150° | 150km/h | 10408m | 6.2m/s | -44.7°C | 38.1% | 0hPa | 2.7V | 00:00:00 | 00:58:37 | 00:00:00 | |
| ANDY1245 | 2026-09-03 23:45:23 | 49.75774 | 14.92992 | 151° | 151km/h | 10408m | 6.2m/s | -44.7°C | 33.4% | 0hPa | 2.7V | 00:00:00 | 00:00:00 | 00:00:00 | |
| OE3JTB-15 | 2026-09-03 23:45:17 | 49.76005 | 14.92782 | 151° | 150km/h | 10369m | 5.4m/s | -44.3°C | 38.0% | 0hPa | 2.7V | 00:00:00 | 00:00:00 | 08:30:00 | |
| DO3MHA-11 | 2026-09-03 23:45:16 | 49.76036 | 14.92754 | 151° | 148km/h | 10364m | 5.2m/s | -44.3°C | 38.1% | 0hPa | 2.7V | 00:00:00 | 00:58:29 | 00:00:00 | |
| OE5MMP-10 | 2026-09-03 23:45:14 | 49.76097 | 14.92697 | 148° | 150km/h | 10353m | 6.7m/s | -44.2°C | 38.2% | 0hPa | 2.7V | 00:00:00 | 00:58:27 | 08:30:00 | |
| OE5DRO-10 | 2026-09-03 23:45:13 | 49.76127 | 14.92666 | 146° | 151km/h | 10347m | 4.9m/s | -44.1°C | 39.0% | 0hPa | 2.7V | 00:00:00 | 00:00:00 | 00:00:00 | |
| OK1ALN | 2026-09-03 23:45:10 | 49.76189 | 14.92601 | 148° | 150km/h | 10338m | 5.3m/s | -44.1°C | 34.5% | 0hPa | 2.7V | 00:00:00 | 00:00:00 | 00:00:00 | |
| DO3MHA-11 | 2026-09-03 23:45:06 | 49.76352 | 14.92445 | 149° | 151km/h | 10311m | 4.6m/s | -43.8°C | 38.9% | 0hPa | 2.7V | 00:00:00 | 00:58:19 | 00:00:00 | |
| OE5MMP-10 | 2026-09-03 23:45:04 | 49.76418 | 14.92386 | 151° | 151km/h | 10299m | 6.7m/s | -43.6°C | 38.3% | 0hPa | 2.7V | 00:00:00 | 00:58:17 | 00:00:00 | |
| DO3MHA-11 | 2026-09-03 23:44:56 | 49.76680 | 14.92141 | 147° | 150km/h | 10244m | 6.6m/s | -43.1°C | 42.8% | 0hPa | 2.7V | 00:00:00 | 00:58:09 | 08:30:00 | |
| OE5MMP-10 | 2026-09-03 23:44:54 | 49.76747 | 14.92075 | 148° | 148km/h | 10234m | 5.4m/s | -43.1°C | 47.4% | 0hPa | 2.7V | 00:00:00 | 00:58:07 | 00:00:00 | |
| NBG1-10 | 2026-09-03 23:44:52 | 49.76812 | 14.92012 | 149° | 146km/h | 10224m | 4.8m/s | -43.0°C | 49.9% | 0hPa | 2.7V | 00:00:00 | 00:58:05 | 00:00:00 | |
| OK1ALN | 2026-09-03 23:44:49 | 49.76876 | 14.91952 | 149° | 144km/h | 10216m | 4.5m/s | -43.0°C | 47.2% | 0hPa | 2.7V | 00:00:00 | 00:00:00 | 00:00:00 | |
| OE3JTB-15 | 2026-09-03 23:44:48 | 49.76938 | 14.91893 | 149° | 146km/h | 10205m | 5.7m/s | -42.9°C | 55.8% | 0hPa | 2.7V | 00:00:00 | 00:00:00 | 00:00:00 | |
| DO3MHA-11 | 2026-09-03 23:44:46 | 49.77001 | 14.91832 | 148° | 148km/h | 10194m | 6.7m/s | -42.9°C | 60.4% | 0hPa | 2.7V | 00:00:00 | 00:57:59 | 00:00:00 | |
| PG1ADW-2 | 2026-09-03 23:44:45 | 49.77032 | 14.91801 | 148° | 146km/h | 10188m | 5.8m/s | -42.9°C | 61.6% | 0hPa | 2.7V | 00:00:00 | 00:00:00 | 00:00:00 | |
| OE5MMP-10 | 2026-09-03 23:44:44 | 49.77063 | 14.91770 | 147° | 150km/h | 10181m | 7.3m/s | -42.9°C | 61.9% | 0hPa | 2.7V | 00:00:00 | 00:57:57 | 00:00:00 | |
| ANDY1245 | 2026-09-03 23:44:40 | 49.77152 | 14.91673 | 144° | 142km/h | 10158m | 7.1m/s | 0°C | 0% | 0hPa | 2.7V | 00:00:00 | 00:00:00 | 00:00:00 | |
| DO3MHA-11 | 2026-09-03 23:44:36 | 49.77306 | 14.91499 | 144° | 146km/h | 10129m | 7.2m/s | -42.7°C | 65.9% | 0hPa | 2.7V | 00:00:00 | 00:57:49 | 00:00:00 | |
| OE5DRO-10 | 2026-09-03 23:44:35 | 49.77338 | 14.91463 | 144° | 146km/h | 10122m | 6.9m/s | -42.7°C | 67.4% | 0hPa | 2.7V | 00:00:00 | 00:00:00 | 08:30:00 | |
| OE5MMP-10 | 2026-09-03 23:44:34 | 49.77370 | 14.91428 | 146° | 144km/h | 10116m | 5.6m/s | -42.6°C | 67.9% | 0hPa | 2.7V | 00:00:00 | 00:57:47 | 00:00:00 | |
| SP3BTT-10 | 2026-09-03 23:44:31 | 49.77464 | 14.91336 | 149° | 131km/h | 10099m | 6.6m/s | 0°C | 0% | 0hPa | 2.7V | 00:00:00 | 00:00:00 | 00:00:00 | |
| OK1ALN | 2026-09-03 23:44:28 | 49.77523 | 14.91278 | 147° | 139km/h | 10084m | 7.3m/s | -42.4°C | 62.5% | 0hPa | 2.7V | 00:00:00 | 00:00:00 | 00:00:00 | |
| DO3MHA-11 | 2026-09-03 23:44:26 | 49.77610 | 14.91181 | 143° | 148km/h | 10065m | 6.7m/s | -42.2°C | 70.5% | 0hPa | 2.7V | 00:00:00 | 00:57:39 | 00:00:00 | |
| PG1ADW-2 | 2026-09-03 23:44:25 | 49.77640 | 14.91146 | 143° | 144km/h | 10059m | 5.8m/s | -42.2°C | 71.4% | 0hPa | 2.7V | 00:00:00 | 00:00:00 | 08:30:00 | |
| OE5MMP-10 | 2026-09-03 23:44:24 | 49.77669 | 14.91112 | 143° | 146km/h | 10054m | 4.4m/s | -42.1°C | 72.4% | 0hPa | 2.7V | 00:00:00 | 00:57:37 | 00:00:00 | |
| OE3JTB-15 | 2026-09-03 23:44:19 | 49.77819 | 14.90948 | 148° | 144km/h | 10024m | 6.7m/s | -42.0°C | 76.9% | 0hPa | 2.7V | 00:00:00 | 00:57:32 | 00:00:00 | |
| OE5DRO-10 | 2026-09-03 23:44:16 | 49.77915 | 14.90856 | 148° | 144km/h | 10004m | 8.0m/s | -41.8°C | 77.8% | 0hPa | 2.7V | 00:00:00 | 00:00:00 | 00:00:00 | |
| EDDB2-11 | 2026-09-03 23:44:15 | 49.77946 | 14.90825 | 145° | 146km/h | 9997m | 7.0m/s | -41.8°C | 71.3% | -1.0hPa | 2.7V | 00:00:00 | 00:00:00 | 00:00:00 | |
| OE5MMP-10 | 2026-09-03 23:44:14 | 49.77977 | 14.90792 | 146° | 142km/h | 9990m | 6.8m/s | -41.7°C | 78.1% | 0hPa | 2.7V | 00:00:00 | 00:57:27 | 00:00:00 | |
| DO3MHA-11 | 2026-09-03 23:44:13 | 49.78007 | 14.90759 | 145° | 142km/h | 9983m | 6.5m/s | -41.7°C | 78.5% | 0hPa | 2.7V | 00:00:00 | 00:57:26 | 00:00:00 | |
| OK1ALN | 2026-09-03 23:44:07 | 49.78156 | 14.90606 | 147° | 135km/h | 9952m | 5.4m/s | -41.5°C | 71.9% | 0hPa | 2.7V | 00:00:00 | 00:00:00 | 00:00:00 | |
| PG1ADW-2 | 2026-09-03 23:44:05 | 49.78242 | 14.90513 | 146° | 148km/h | 9937m | 5.4m/s | -41.3°C | 78.0% | 0hPa | 2.7V | 00:00:00 | 00:57:18 | 00:00:00 | |
| OE5MMP-10 | 2026-09-03 23:44:04 | 49.78273 | 14.90480 | 146° | 148km/h | 9932m | 5.2m/s | -41.2°C | 77.6% | 0hPa | 2.7V | 00:00:00 | 00:57:17 | 00:00:00 | |
| DO3MHA-11 | 2026-09-03 23:44:03 | 49.78304 | 14.90447 | 146° | 148km/h | 9927m | 4.9m/s | -41.2°C | 78.0% | 0hPa | 2.7V | 00:00:00 | 00:57:16 | 00:00:00 | |
| S52SK | 2026-09-03 23:44:02 | 49.78304 | 14.90447 | 146° | 151km/h | 9927m | 5.0m/s | 0°C | 0% | 0hPa | 2.7V | 00:00:00 | 00:00:00 | 00:00:00 | |
| OE5DRO-10 | 2026-09-03 23:43:57 | 49.78489 | 14.90249 | 144° | 142km/h | 9896m | 4.4m/s | -40.9°C | 78.2% | 0hPa | 2.7V | 00:00:00 | 00:00:00 | 00:00:00 | |
| OE5MMP-10 | 2026-09-03 23:43:54 | 49.78579 | 14.90152 | 147° | 150km/h | 9879m | 5.7m/s | -40.7°C | 76.8% | 0hPa | 2.7V | 00:00:00 | 00:57:07 | 00:00:00 | |
| DO3MHA-11 | 2026-09-03 23:43:53 | 49.78610 | 14.90121 | 147° | 144km/h | 9873m | 7.0m/s | -40.7°C | 76.1% | 0hPa | 2.7V | 00:00:00 | 00:57:06 | 00:00:00 | |
| S52SK | 2026-09-03 23:43:51 | 49.78641 | 14.90088 | 147° | 151km/h | 9867m | 6.4m/s | 0°C | 0% | 0hPa | 2.7V | 00:00:00 | 00:00:00 | 00:00:00 | |
| OE3JTB-15 | 2026-09-03 23:43:50 | 49.78705 | 14.90021 | 147° | 141km/h | 9855m | 6.4m/s | -40.5°C | 75.6% | 0hPa | 2.7V | 00:00:00 | 00:00:00 | 00:00:00 | |
| OK1ALN | 2026-09-03 23:43:47 | 49.78802 | 14.89927 | 151° | 144km/h | 9839m | 5.8m/s | -40.4°C | 68.5% | 0hPa | 2.7V | 00:00:00 | 00:00:00 | 00:00:00 | |
| NBG1-10 | 2026-09-03 23:43:46 | 49.78833 | 14.89899 | 151° | 137km/h | 9834m | 5.3m/s | -40.3°C | 75.0% | 0hPa | 2.7V | 00:00:00 | 00:56:59 | 08:30:00 | |
| PG1ADW-2 | 2026-09-03 23:43:45 | 49.78863 | 14.89873 | 151° | 137km/h | 9828m | 6.2m/s | -40.2°C | 75.8% | 0hPa | 2.7V | 00:00:00 | 00:00:00 | 00:00:00 | |
| OE5MMP-10 | 2026-09-03 23:43:44 | 49.78892 | 14.89847 | 149° | 135km/h | 9822m | 4.8m/s | -40.2°C | 77.1% | 0hPa | 2.7V | 00:00:00 | 00:56:57 | 08:30:00 | |
| DO3MHA-11 | 2026-09-03 23:43:43 | 49.78919 | 14.89821 | 148° | 135km/h | 9819m | 3.7m/s | -40.2°C | 77.8% | 0hPa | 2.7V | 00:00:00 | 00:56:56 | 00:00:00 | |
| OE5DRO-10 | 2026-09-03 23:43:38 | 49.79056 | 14.89664 | 140° | 139km/h | 9792m | 7.7m/s | -40.0°C | 73.3% | 0hPa | 2.7V | 00:00:00 | 00:00:00 | 00:00:00 | |
| OE5MMP-10 | 2026-09-03 23:43:34 | 49.79162 | 14.89522 | 141° | 139km/h | 9767m | 6.8m/s | -39.7°C | 73.5% | 0hPa | 2.7V | 00:00:00 | 00:56:47 | 00:00:00 | |
| DO3MHA-11 | 2026-09-03 23:43:33 | 49.79189 | 14.89488 | 142° | 139km/h | 9760m | 6.0m/s | -39.7°C | 73.9% | 0hPa | 2.7V | 00:00:00 | 00:56:46 | 00:00:00 | |
| PG1ADW-2 | 2026-09-03 23:43:25 | 49.79427 | 14.89260 | 149° | 135km/h | 9721m | 3.8m/s | -39.4°C | 76.0% | 0hPa | 2.7V | 00:00:00 | 00:00:00 | 00:00:00 | |
| OE5MMP-10 | 2026-09-03 23:43:24 | 49.79457 | 14.89229 | 147° | 135km/h | 9716m | 5.1m/s | -39.3°C | 75.6% | 0hPa | 2.7V | 00:00:00 | 00:56:37 | 00:00:00 | |
| DO3MHA-11 | 2026-09-03 23:43:23 | 49.79486 | 14.89198 | 145° | 135km/h | 9712m | 4.6m/s | -39.3°C | 75.3% | 0hPa | 2.7V | 00:00:00 | 00:56:36 | 08:30:00 | |
| OE3JTB-15 | 2026-09-03 23:43:21 | 49.79542 | 14.89134 | 145° | 133km/h | 9699m | 8.1m/s | -39.2°C | 73.5% | 0hPa | 2.7V | 00:00:00 | 00:00:00 | 00:00:00 | |
| OE5DRO-10 | 2026-09-03 23:43:19 | 49.79598 | 14.89076 | 147° | 130km/h | 9684m | 7.5m/s | -39.1°C | 72.7% | 0hPa | 2.7V | 00:00:00 | 00:00:00 | 00:00:00 | |
| OE5DXL-15 | 2026-09-03 23:43:14 | 49.79743 | 14.88935 | 147° | 131km/h | 9649m | 5.2m/s | 0°C | 0% | 0hPa | 2.7V | 00:00:00 | 00:56:27 | 00:00:00 | |
| NBG1-10 | 2026-09-03 23:43:13 | 49.79772 | 14.88905 | 147° | 133km/h | 9644m | 4.9m/s | -38.7°C | 72.2% | 0hPa | 2.7V | 00:00:00 | 00:56:26 | 00:00:00 | |
| OE5MMP-10 | 2026-09-03 23:43:10 | 49.79855 | 14.88818 | 147° | 126km/h | 9626m | 6.5m/s | -38.5°C | 71.9% | 0hPa | 2.7V | 00:00:00 | 00:56:23 | 00:00:00 | |
| OK1ALN | 2026-09-03 23:43:05 | 49.79988 | 14.88675 | 146° | 128km/h | 9591m | 5.7m/s | -38.3°C | 69.5% | 0hPa | 2.9V | 00:00:00 | 00:00:00 | 00:00:00 | |
| DO3MHA-11 | 2026-09-03 23:43:03 | 49.80040 | 14.88620 | 146° | 131km/h | 9579m | 6.2m/s | -38.2°C | 76.5% | 0hPa | 2.9V | 00:00:00 | 00:56:16 | 00:00:00 | |
| OE5DRO-10 | 2026-09-03 23:43:00 | 49.80120 | 14.88539 | 149° | 133km/h | 9559m | 7.0m/s | -38.0°C | 77.3% | 0hPa | 2.9V | 00:00:00 | 00:00:00 | 00:00:00 | |
| OE5MMP-10 | 2026-09-03 23:42:59 | 49.80148 | 14.88512 | 150° | 139km/h | 9552m | 6.6m/s | -38.0°C | 77.3% | 0hPa | 2.9V | 00:00:00 | 00:56:12 | 00:00:00 | |
| DO3MHA-11 | 2026-09-03 23:42:53 | 49.80326 | 14.88347 | 147° | 133km/h | 9520m | 3.5m/s | -37.7°C | 77.3% | 0hPa | 2.9V | 00:00:00 | 00:56:06 | 00:00:00 | |
| OE3JTB-15 | 2026-09-03 23:42:51 | 49.80387 | 14.88284 | 147° | 130km/h | 9511m | 4.8m/s | -37.6°C | 76.8% | 0hPa | 2.7V | 00:00:00 | 00:56:04 | 00:00:00 | |
| OE5MMP-10 | 2026-09-03 23:42:49 | 49.80445 | 14.88227 | 150° | 130km/h | 9497m | 7.0m/s | -37.5°C | 76.4% | 0hPa | 2.7V | 00:00:00 | 00:56:02 | 00:00:00 | |
| ANDY1245 | 2026-09-03 23:42:46 | 49.80500 | 14.88177 | 149° | 122km/h | 9481m | 8.8m/s | 0°C | 0% | 0hPa | 2.7V | 00:00:00 | 00:00:00 | 00:00:00 | |
| PG1ADW-2 | 2026-09-03 23:42:45 | 49.80551 | 14.88123 | 143° | 130km/h | 9467m | 5.4m/s | -37.2°C | 77.7% | 0hPa | 2.7V | 00:00:00 | 00:55:58 | 00:00:00 | |
| OK1ALN | 2026-09-03 23:42:44 | 49.80576 | 14.88091 | 141° | 131km/h | 9462m | 5.1m/s | -37.2°C | 71.8% | 0hPa | 2.7V | 00:00:00 | 00:00:00 | 00:00:00 | |
| DO3MHA-11 | 2026-09-03 23:42:43 | 49.80602 | 14.88058 | 141° | 131km/h | 9457m | 5.1m/s | -37.1°C | 78.4% | 0hPa | 2.7V | 00:00:00 | 00:55:56 | 00:00:00 | |
| OE5DXL-15 | 2026-09-03 23:42:42 | 49.80629 | 14.88024 | 142° | 128km/h | 9451m | 7.9m/s | 0°C | 0% | 0hPa | 2.7V | 00:00:00 | 00:00:00 | 00:00:00 | |
| OE5DRO-10 | 2026-09-03 23:42:41 | 49.80657 | 14.87992 | 146° | 130km/h | 9445m | 5.2m/s | -37.1°C | 81.0% | 0hPa | 2.7V | 00:00:00 | 00:00:00 | 00:00:00 | |
| NBG1-10 | 2026-09-03 23:42:40 | 49.80686 | 14.87962 | 148° | 128km/h | 9440m | 4.5m/s | -37.1°C | 80.6% | 0hPa | 2.9V | 00:00:00 | 00:55:53 | 00:00:00 | |
| OE5MMP-10 | 2026-09-03 23:42:39 | 49.80715 | 14.87934 | 150° | 126km/h | 9435m | 4.8m/s | -37.0°C | 80.7% | 0hPa | 2.9V | 00:00:00 | 00:55:52 | 00:00:00 | |
| ANDY1245 | 2026-09-03 23:42:34 | 49.80824 | 14.87825 | 145° | 119km/h | 9409m | 7.1m/s | 0°C | 0% | 0hPa | 2.7V | 00:00:00 | 00:00:00 | 00:00:00 | |
| DO3MHA-11 | 2026-09-03 23:42:33 | 49.80872 | 14.87770 | 144° | 130km/h | 9395m | 6.6m/s | -36.7°C | 79.4% | 0hPa | 2.7V | 00:00:00 | 00:55:46 | 00:00:00 | |
| SP3BTT-10 | 2026-09-03 23:42:30 | 49.80951 | 14.87688 | 147° | 133km/h | 9378m | 6.6m/s | 0°C | 0% | 0hPa | 2.7V | 00:00:00 | 00:00:00 | 00:00:00 | |
| OE5MMP-10 | 2026-09-03 23:42:29 | 49.80979 | 14.87660 | 148° | 133km/h | 9371m | 6.4m/s | -36.4°C | 77.4% | 0hPa | 2.7V | 00:00:00 | 00:55:42 | 00:00:00 | |
| ANDY1245 | 2026-09-03 23:42:28 | 49.80979 | 14.87660 | 149° | 133km/h | 9371m | 6.5m/s | 0°C | 0% | 0hPa | 2.7V | 00:00:00 | 00:00:00 | 00:00:00 | |
| PG1ADW-2 | 2026-09-03 23:42:25 | 49.81094 | 14.87549 | 149° | 126km/h | 9351m | 5.4m/s | -36.2°C | 75.6% | 0hPa | 2.7V | 00:00:00 | 00:00:00 | 00:00:00 | |
| DO3MHA-11 | 2026-09-03 23:42:23 | 49.81151 | 14.87493 | 147° | 130km/h | 9339m | 6.0m/s | -36.1°C | 75.5% | 0hPa | 2.9V | 00:00:00 | 00:55:36 | 00:00:00 | |
| OE5DRO-10 | 2026-09-03 23:42:22 | 49.81179 | 14.87464 | 146° | 126km/h | 9334m | 5.3m/s | -36.1°C | 75.3% | 0hPa | 2.9V | 00:00:00 | 00:00:00 | 00:00:00 | |
| OE5MMP-10 | 2026-09-03 23:42:19 | 49.81261 | 14.87373 | 144° | 126km/h | 9314m | 7.3m/s | -36.0°C | 76.6% | 0hPa | 2.9V | 00:00:00 | 00:55:32 | 00:00:00 | |
| DO3MHA-11 | 2026-09-03 23:42:13 | 49.81412 | 14.87192 | 144° | 122km/h | 9275m | 5.6m/s | -35.8°C | 82.9% | 0hPa | 2.9V | 00:00:00 | 00:55:26 | 00:00:00 | |
| EDDB2-11 | 2026-09-03 23:42:11 | 49.81464 | 14.87134 | 145° | 126km/h | 9263m | 7.1m/s | -35.8°C | 75.7% | -1.0hPa | 2.9V | 00:00:00 | 00:00:00 | 00:00:00 | |
| OE5MMP-10 | 2026-09-03 23:42:09 | 49.81517 | 14.87081 | 148° | 124km/h | 9248m | 7.1m/s | -35.6°C | 81.3% | 0hPa | 2.9V | 00:00:00 | 00:55:22 | 08:30:00 | |
| NBG1-10 | 2026-09-03 23:42:07 | 49.81566 | 14.87030 | 146° | 124km/h | 9234m | 5.5m/s | -35.4°C | 81.8% | 0hPa | 2.9V | 00:00:00 | 00:55:20 | 00:00:00 | |
| PG1ADW-2 | 2026-09-03 23:42:05 | 49.81614 | 14.86976 | 142° | 124km/h | 9221m | 5.2m/s | -35.3°C | 82.4% | 0hPa | 2.9V | 00:00:00 | 00:00:00 | 00:00:00 | |
| OE5DRO-10 | 2026-09-03 23:42:03 | 49.81663 | 14.86915 | 140° | 124km/h | 9211m | 4.7m/s | -35.2°C | 81.4% | 0hPa | 2.9V | 00:00:00 | 00:00:00 | 00:00:00 | |
| OK1ALN | 2026-09-03 23:42:01 | 49.81688 | 14.86882 | 141° | 130km/h | 9205m | 6.3m/s | -35.2°C | 75.4% | 0hPa | 2.9V | 00:00:00 | 00:00:00 | 00:00:00 | |
| OE5MMP-10 | 2026-09-03 23:41:59 | 49.81768 | 14.86783 | 143° | 120km/h | 9189m | 6.3m/s | -35.0°C | 81.5% | 0hPa | 2.9V | 00:00:00 | 00:55:12 | 00:00:00 | |
| OE3JTB-15 | 2026-09-03 23:41:53 | 49.81918 | 14.86611 | 142° | 122km/h | 9153m | 9.0m/s | -34.6°C | 76.7% | 0hPa | 2.9V | 00:00:00 | 00:00:00 | 00:00:00 | |
| OE5MMP-10 | 2026-09-03 23:41:49 | 49.82003 | 14.86492 | 139° | 124km/h | 9127m | 5.7m/s | -34.4°C | 76.8% | 0hPa | 2.9V | 00:00:00 | 00:55:02 | 00:00:00 | |
| PG1ADW-2 | 2026-09-03 23:41:45 | 49.82105 | 14.86369 | 145° | 124km/h | 9107m | 4.2m/s | -34.2°C | 77.6% | 0hPa | 2.9V | 00:00:00 | 00:00:00 | 00:00:00 | |
| OE5DRO-10 | 2026-09-03 23:41:44 | 49.82131 | 14.86339 | 144° | 124km/h | 9102m | 5.4m/s | -34.2°C | 78.2% | 0hPa | 2.9V | 00:00:00 | 00:00:00 | 08:30:00 | |
| DO3MHA-11 | 2026-09-03 23:41:43 | 49.82157 | 14.86309 | 143° | 124km/h | 9096m | 4.9m/s | -34.1°C | 79.1% | 0hPa | 2.9V | 00:00:00 | 00:54:56 | 00:00:00 | |
| OK1ALN | 2026-09-03 23:41:41 | 49.82182 | 14.86279 | 142° | 122km/h | 9092m | 3.0m/s | -34.2°C | 74.2% | 0hPa | 2.9V | 00:00:00 | 00:00:00 | 00:00:00 | |
| EDDB2-11 | 2026-09-03 23:41:40 | 49.82229 | 14.86219 | 140° | 115km/h | 9083m | 4.9m/s | -34.1°C | 72.6% | -1.0hPa | 2.9V | 00:00:00 | 00:00:00 | 00:00:00 | |
| OE5MMP-10 | 2026-09-03 23:41:39 | 49.82252 | 14.86190 | 141° | 122km/h | 9078m | 7.2m/s | -33.9°C | 77.4% | 0hPa | 2.9V | 00:00:00 | 00:54:52 | 00:00:00 | |
| ANDY1245 | 2026-09-03 23:41:38 | 49.82252 | 14.86190 | 142° | 120km/h | 9078m | 7.3m/s | 0°C | 0% | 0hPa | 2.9V | 00:00:00 | 00:00:00 | 00:00:00 | |
| NBG1-10 | 2026-09-03 23:41:34 | 49.82379 | 14.86041 | 145° | 122km/h | 9042m | 7.4m/s | -33.6°C | 74.6% | 0hPa | 2.9V | 00:00:00 | 00:54:47 | 00:00:00 | |
| DO3MHA-11 | 2026-09-03 23:41:33 | 49.82403 | 14.86015 | 145° | 122km/h | 9035m | 6.1m/s | -33.5°C | 74.2% | 0hPa | 2.9V | 00:00:00 | 00:54:46 | 00:00:00 | |
| ANDY1245 | 2026-09-03 23:41:32 | 49.82403 | 14.86015 | 146° | 115km/h | 9035m | 6.2m/s | 0°C | 0% | 0hPa | 2.9V | 00:00:00 | 00:00:00 | 00:00:00 | |
| OE5MMP-10 | 2026-09-03 23:41:29 | 49.82498 | 14.85900 | 139° | 124km/h | 9008m | 4.7m/s | -33.3°C | 74.8% | 0hPa | 2.9V | 00:00:00 | 00:54:42 | 00:00:00 | |
| PG1ADW-2 | 2026-09-03 23:41:25 | 49.82591 | 14.85764 | 137° | 122km/h | 8984m | 5.3m/s | -33.1°C | 74.5% | 0hPa | 2.9V | 00:00:00 | 00:54:38 | 08:30:00 | |
| OE3JTB-15 | 2026-09-03 23:41:24 | 49.82612 | 14.85731 | 136° | 120km/h | 8978m | 5.5m/s | -33.0°C | 75.0% | 0hPa | 2.7V | 00:00:00 | 00:54:37 | 00:00:00 | |
| DO3MHA-11 | 2026-09-03 23:41:21 | 49.82680 | 14.85635 | 139° | 122km/h | 8964m | 5.4m/s | -32.9°C | 74.2% | 0hPa | 2.7V | 00:00:00 | 00:54:34 | 00:00:00 | |
| OE5MMP-10 | 2026-09-03 23:41:19 | 49.82726 | 14.85569 | 137° | 122km/h | 8952m | 7.4m/s | -32.8°C | 72.6% | 0hPa | 2.9V | 00:00:00 | 00:54:32 | 00:00:00 | |
| DO3MHA-11 | 2026-09-03 23:41:11 | 49.82918 | 14.85332 | 145° | 120km/h | 8902m | 6.9m/s | -32.3°C | 70.9% | 0hPa | 2.9V | 00:00:00 | 00:54:24 | 00:00:00 | |
| OE5MMP-10 | 2026-09-03 23:41:09 | 49.82969 | 14.85277 | 146° | 120km/h | 8888m | 8.0m/s | -32.1°C | 70.0% | 0hPa | 2.9V | 00:00:00 | 00:54:22 | 00:00:00 | |
| OE5DRO-10 | 2026-09-03 23:41:06 | 49.83045 | 14.85197 | 146° | 122km/h | 8868m | 6.4m/s | -32.0°C | 70.5% | 0hPa | 2.9V | 00:00:00 | 00:00:00 | 00:00:00 | |
| PG1ADW-2 | 2026-09-03 23:41:05 | 49.83070 | 14.85169 | 144° | 124km/h | 8861m | 5.7m/s | -31.9°C | 70.5% | 0hPa | 2.9V | 00:00:00 | 00:00:00 | 00:00:00 | |
| DO3MHA-11 | 2026-09-03 23:41:01 | 49.83162 | 14.85047 | 137° | 122km/h | 8839m | 5.2m/s | -31.7°C | 70.4% | 0hPa | 2.9V | 00:00:00 | 00:54:14 | 00:00:00 | |
| OK1ALN | 2026-09-03 23:41:00 | 49.83163 | 14.85047 | 137° | 122km/h | 8839m | 5.3m/s | -31.8°C | 65.7% | 0hPa | 2.9V | 00:00:00 | 00:00:00 | 00:00:00 | |
| OE5MMP-10 | 2026-09-03 23:40:59 | 49.83207 | 14.84980 | 138° | 122km/h | 8829m | 4.1m/s | -31.6°C | 71.1% | 0hPa | 2.9V | 00:00:00 | 00:54:12 | 00:00:00 | |
| ANDY1245 | 2026-09-03 23:40:58 | 49.83207 | 14.84980 | 138° | 128km/h | 8829m | 4.1m/s | 0°C | 0% | 0hPa | 2.9V | 00:00:00 | 00:00:00 | 00:00:00 | |
| ANDY1245 | 2026-09-03 23:40:53 | 49.83334 | 14.84840 | 150° | 119km/h | 8799m | 7.6m/s | 0°C | 0% | 0hPa | 2.9V | 00:00:00 | 00:00:00 | 00:00:00 | |
| DO3MHA-11 | 2026-09-03 23:40:51 | 49.83409 | 14.84761 | 142° | 124km/h | 8781m | 4.4m/s | -31.2°C | 70.7% | 0hPa | 2.9V | 00:00:00 | 00:54:04 | 00:00:00 | |
| OE5MMP-10 | 2026-09-03 23:40:49 | 49.83458 | 14.84697 | 139° | 124km/h | 8768m | 6.4m/s | -31.1°C | 70.9% | 0hPa | 2.7V | 00:00:00 | 00:54:02 | 00:00:00 | |
| OE5DRO-10 | 2026-09-03 23:40:47 | 49.83507 | 14.84629 | 138° | 130km/h | 8756m | 4.3m/s | -31.1°C | 73.6% | 0hPa | 2.7V | 00:00:00 | 00:00:00 | 00:00:00 | |
| PG1ADW-2 | 2026-09-03 23:40:45 | 49.83556 | 14.84562 | 141° | 128km/h | 8744m | 7.0m/s | -31.0°C | 76.0% | 0hPa | 2.7V | 00:00:00 | 00:00:00 | 00:00:00 | |
| OK1ALN | 2026-09-03 23:40:40 | 49.83678 | 14.84429 | 147° | 119km/h | 8720m | 4.7m/s | -31.0°C | 77.5% | 0hPa | 2.7V | 00:00:00 | 00:00:00 | 00:00:00 | |
| OE5MMP-10 | 2026-09-03 23:40:39 | 49.83703 | 14.84403 | 145° | 137km/h | 8716m | 3.5m/s | -30.9°C | 85.0% | 0hPa | 2.7V | 00:00:00 | 00:53:52 | 08:30:00 | |
| EDDB2-11 | 2026-09-03 23:40:38 | 49.83729 | 14.84374 | 143° | 128km/h | 8712m | 4.6m/s | -31.0°C | 80.2% | -1.0hPa | 2.9V | 00:00:00 | 00:00:00 | 00:00:00 | |
| DO3MHA-11 | 2026-09-03 23:40:31 | 49.83930 | 14.84155 | 144° | 130km/h | 8664m | 5.6m/s | -30.6°C | 85.5% | 0hPa | 2.9V | 00:00:00 | 00:53:44 | 00:00:00 | |
| SP3BTT-10 | 2026-09-03 23:40:30 | 49.83958 | 14.84123 | 144° | 120km/h | 8657m | 7.4m/s | 0°C | 0% | 0hPa | 2.9V | 00:00:00 | 00:00:00 | 00:00:00 | |
| OE5MMP-10 | 2026-09-03 23:40:29 | 49.83985 | 14.84092 | 144° | 130km/h | 8651m | 5.5m/s | -30.5°C | 86.8% | 0hPa | 2.9V | 00:00:00 | 00:53:42 | 00:00:00 | |
| OE5DRO-10 | 2026-09-03 23:40:28 | 49.84010 | 14.84063 | 144° | 131km/h | 8645m | 5.6m/s | -30.5°C | 86.7% | 0hPa | 2.9V | 00:00:00 | 00:00:00 | 00:00:00 | |
| PG1ADW-2 | 2026-09-03 23:40:25 | 49.84085 | 14.83978 | 144° | 131km/h | 8629m | 3.9m/s | -30.4°C | 87.2% | 0hPa | 2.9V | 00:00:00 | 00:00:00 | 00:00:00 | |
| ANDY1245 | 2026-09-03 23:40:23 | 49.84111 | 14.83949 | 146° | 130km/h | 8625m | 4.2m/s | 0°C | 0% | 0hPa | 2.9V | 00:00:00 | 00:00:00 | 00:00:00 | |
| DO3MHA-11 | 2026-09-03 23:40:21 | 49.84197 | 14.83861 | 148° | 133km/h | 8609m | 5.3m/s | -30.3°C | 89.2% | 0hPa | 2.9V | 00:00:00 | 00:53:34 | 08:30:00 | |
| OE5MMP-10 | 2026-09-03 23:40:19 | 49.84257 | 14.83800 | 146° | 131km/h | 8601m | 4.7m/s | -30.3°C | 90.0% | 0hPa | 2.9V | 00:00:00 | 00:53:32 | 00:00:00 | |
| ANDY1245 | 2026-09-03 23:40:17 | 49.84286 | 14.83770 | 146° | 135km/h | 8596m | 4.8m/s | 0°C | 0% | 0hPa | 2.9V | 00:00:00 | 00:00:00 | 00:00:00 | |
| NBG1-10 | 2026-09-03 23:40:14 | 49.84391 | 14.83649 | 144° | 128km/h | 8570m | 6.9m/s | -30.0°C | 89.7% | 0hPa | 2.9V | 00:00:00 | 00:53:27 | 00:00:00 | |
| DO3MHA-11 | 2026-09-03 23:40:11 | 49.84469 | 14.83556 | 143° | 126km/h | 8551m | 5.2m/s | -30.0°C | 91.0% | 0hPa | 2.7V | 00:00:00 | 00:53:24 | 00:00:00 | |
| OE5MMP-10 | 2026-09-03 23:40:09 | 49.84523 | 14.83492 | 143° | 124km/h | 8542m | 4.6m/s | -29.9°C | 91.5% | 0hPa | 2.7V | 00:00:00 | 00:53:22 | 00:00:00 | |
| EDDB2-11 | 2026-09-03 23:40:08 | 49.84597 | 14.83397 | 137° | 120km/h | 8526m | 4.1m/s | -29.8°C | 84.5% | -1.0hPa | 2.9V | 00:00:00 | 00:00:00 | 00:00:00 | |
| PG1ADW-2 | 2026-09-03 23:40:05 | 49.84619 | 14.83366 | 139° | 128km/h | 8522m | 3.7m/s | -29.7°C | 89.7% | 0hPa | 2.9V | 00:00:00 | 00:53:18 | 00:00:00 | |
| DO3MHA-11 | 2026-09-03 23:40:01 | 49.84714 | 14.83245 | 142° | 133km/h | 8505m | 4.6m/s | -29.6°C | 90.5% | 0hPa | 2.9V | 00:00:00 | 00:53:14 | 00:00:00 | |
| OE5MMP-10 | 2026-09-03 23:39:59 | 49.84766 | 14.83182 | 143° | 131km/h | 8497m | 4.8m/s | -29.5°C | 88.7% | 0hPa | 2.9V | 00:00:00 | 00:53:12 | 00:00:00 | |
| OK1ALN | 2026-09-03 23:39:58 | 49.84766 | 14.83182 | 144° | 135km/h | 8497m | 4.8m/s | -29.6°C | 83.5% | 0hPa | 2.9V | 00:00:00 | 00:00:00 | 00:00:00 | |
| DO3MHA-11 | 2026-09-03 23:39:51 | 49.84982 | 14.82931 | 143° | 128km/h | 8455m | 8.2m/s | -29.1°C | 85.1% | 0hPa | 2.9V | 00:00:00 | 00:53:04 | 00:00:00 | |
| OE5DRO-10 | 2026-09-03 23:39:50 | 49.85006 | 14.82902 | 144° | 126km/h | 8447m | 8.1m/s | -29.1°C | 84.4% | 0hPa | 2.9V | 00:00:00 | 00:00:00 | 00:00:00 | |
| OE5MMP-10 | 2026-09-03 23:39:49 | 49.85032 | 14.82872 | 144° | 128km/h | 8440m | 7.8m/s | -29.0°C | 83.7% | 0hPa | 2.9V | 00:00:00 | 00:53:02 | 00:00:00 | |
| PG1ADW-2 | 2026-09-03 23:39:45 | 49.85134 | 14.82745 | 139° | 124km/h | 8415m | 5.9m/s | -28.8°C | 82.3% | 0hPa | 2.9V | 00:00:00 | 00:00:00 | 00:00:00 | |
| DO3MHA-11 | 2026-09-03 23:39:41 | 49.85233 | 14.82617 | 142° | 122km/h | 8394m | 6.3m/s | -28.6°C | 80.4% | 0hPa | 2.9V | 00:00:00 | 00:52:54 | 00:00:00 | |
| OE5MMP-10 | 2026-09-03 23:39:39 | 49.85283 | 14.82553 | 139° | 120km/h | 8378m | 8.3m/s | -28.5°C | 78.7% | 0hPa | 2.9V | 00:00:00 | 00:52:52 | 00:00:00 | |
| OK1ALN | 2026-09-03 23:39:38 | 49.85283 | 14.82553 | 140° | 130km/h | 8378m | 8.4m/s | -28.5°C | 74.0% | 0hPa | 2.7V | 00:00:00 | 00:00:00 | 00:00:00 | |
| EDDB2-11 | 2026-09-03 23:39:37 | 49.85381 | 14.82422 | 141° | 119km/h | 8354m | 4.3m/s | 0°C | -1.0% | -1.0hPa | 2.7V | 00:00:00 | 00:00:00 | 00:00:00 | |
| DO3MHA-11 | 2026-09-03 23:39:31 | 49.85476 | 14.82323 | 148° | 128km/h | 8336m | 4.3m/s | -28.1°C | 78.0% | 0hPa | 2.7V | 00:00:00 | 00:52:44 | 00:00:00 | |
| OE5MMP-10 | 2026-09-03 23:39:29 | 49.85526 | 14.82272 | 146° | 131km/h | 8328m | 3.8m/s | -28.0°C | 77.2% | 0hPa | 2.7V | 00:00:00 | 00:52:42 | 00:00:00 | |
| ANDY1245 | 2026-09-03 23:39:26 | 49.85579 | 14.82216 | 145° | 130km/h | 8315m | 9.0m/s | 0°C | 0% | 0hPa | 2.7V | 00:00:00 | 00:00:00 | 00:00:00 | |
| PG1ADW-2 | 2026-09-03 23:39:25 | 49.85630 | 14.82153 | 140° | 122km/h | 8301m | 6.5m/s | -27.8°C | 75.7% | 0hPa | 2.7V | 00:00:00 | 00:00:00 | 00:00:00 | |
| DO3MHA-11 | 2026-09-03 23:39:21 | 49.85735 | 14.82019 | 143° | 120km/h | 8281m | 4.8m/s | -27.7°C | 75.9% | 0hPa | 2.9V | 00:00:00 | 00:52:34 | 00:00:00 | |
| ANDY1245 | 2026-09-03 23:39:20 | 49.85735 | 14.82019 | 143° | 135km/h | 8281m | 4.8m/s | 0°C | 0% | 0hPa | 2.9V | 00:00:00 | 00:00:00 | 00:00:00 | |
| OE5MMP-10 | 2026-09-03 23:39:19 | 49.85788 | 14.81958 | 144° | 119km/h | 8272m | 4.7m/s | -27.6°C | 77.9% | 0hPa | 2.9V | 00:00:00 | 00:52:32 | 00:00:00 | |
| OK1ALN | 2026-09-03 23:39:18 | 49.85812 | 14.81930 | 144° | 115km/h | 8267m | 5.7m/s | -27.6°C | 73.9% | 0hPa | 2.9V | 00:00:00 | 00:00:00 | 00:00:00 | |
| OE5DRO-10 | 2026-09-03 23:39:12 | 49.85946 | 14.81757 | 140° | 119km/h | 8224m | 7.0m/s | -27.4°C | 81.0% | 0hPa | 2.9V | 00:00:00 | 00:00:00 | 00:00:00 | |
| DO3MHA-11 | 2026-09-03 23:39:11 | 49.85971 | 14.81725 | 141° | 119km/h | 8219m | 4.9m/s | -27.3°C | 81.4% | 0hPa | 2.9V | 00:00:00 | 00:52:24 | 00:00:00 | |
| OE5MMP-10 | 2026-09-03 23:39:09 | 49.86021 | 14.81663 | 142° | 120km/h | 8209m | 4.8m/s | -27.3°C | 84.3% | 0hPa | 2.9V | 00:00:00 | 00:52:22 | 08:30:00 | |
| NBG1-10 | 2026-09-03 23:39:08 | 49.86046 | 14.81632 | 140° | 117km/h | 8204m | 4.8m/s | -27.3°C | 85.1% | 0hPa | 2.9V | 00:00:00 | 00:52:21 | 00:00:00 | |
| PG1ADW-2 | 2026-09-03 23:39:05 | 49.86110 | 14.81537 | 136° | 115km/h | 8186m | 7.0m/s | -27.2°C | 86.2% | 0hPa | 2.9V | 00:00:00 | 00:00:00 | 00:00:00 | |
| DO3MHA-11 | 2026-09-03 23:39:01 | 49.86196 | 14.81419 | 143° | 115km/h | 8158m | 5.6m/s | -27.1°C | 90.0% | 0hPa | 2.9V | 00:00:00 | 00:52:14 | 00:00:00 | |
| OE5MMP-10 | 2026-09-03 23:38:59 | 49.86243 | 14.81362 | 143° | 113km/h | 8149m | 4.4m/s | -27.0°C | 90.2% | 0hPa | 2.9V | 00:00:00 | 00:52:12 | 00:00:00 | |
| OK1ALN | 2026-09-03 23:38:56 | 49.86292 | 14.81306 | 145° | 119km/h | 8141m | 4.7m/s | -27.0°C | 84.1% | 0hPa | 2.9V | 00:00:00 | 00:00:00 | 00:00:00 | |
| OE5DRO-10 | 2026-09-03 23:38:53 | 49.86383 | 14.81205 | 143° | 119km/h | 8119m | 5.4m/s | -26.8°C | 88.0% | 0hPa | 2.9V | 00:00:00 | 00:00:00 | 08:30:00 | |
| DO3MHA-11 | 2026-09-03 23:38:51 | 49.86426 | 14.81149 | 139° | 120km/h | 8108m | 5.1m/s | -26.7°C | 90.4% | 0hPa | 2.9V | 00:00:00 | 00:52:04 | 08:30:00 | |
| PG1ADW-2 | 2026-09-03 23:38:45 | 49.86560 | 14.80956 | 141° | 119km/h | 8065m | 6.8m/s | -26.4°C | 92.5% | 0hPa | 2.9V | 00:00:00 | 00:51:58 | 00:00:00 | |
| DO3MHA-11 | 2026-09-03 23:38:41 | 49.86658 | 14.80838 | 144° | 120km/h | 8044m | 5.4m/s | -26.3°C | 93.2% | 0hPa | 2.9V | 00:00:00 | 00:51:54 | 00:00:00 | |
| NBG1-10 | 2026-09-03 23:38:35 | 49.86805 | 14.80676 | 145° | 113km/h | 8015m | 6.1m/s | -26.2°C | 95.8% | 0hPa | 2.9V | 00:00:00 | 00:51:48 | 08:30:00 | |
| OE5DRO-10 | 2026-09-03 23:38:34 | 49.86829 | 14.80649 | 144° | 115km/h | 8008m | 7.9m/s | -26.1°C | 95.6% | 0hPa | 2.9V | 00:00:00 | 00:00:00 | 00:00:00 | |
| ANDY1245 | 2026-09-03 23:38:33 | 49.86829 | 14.80649 | 145° | 120km/h | 8008m | 8.0m/s | 0°C | 0% | 0hPa | 2.9V | 00:00:00 | 00:00:00 | 00:00:00 | |
| DO3MHA-11 | 2026-09-03 23:38:31 | 49.86903 | 14.80557 | 138° | 111km/h | 7988m | 6.9m/s | -26.1°C | 98.8% | 0hPa | 2.9V | 00:00:00 | 00:51:44 | 00:00:00 | |
| SP3BTT-10 | 2026-09-03 23:38:29 | 49.86946 | 14.80495 | 138° | 104km/h | 7975m | 7.2m/s | 0°C | 0% | 0hPa | 2.9V | 00:00:00 | 00:00:00 | 00:00:00 | |
| PG1ADW-2 | 2026-09-03 23:38:25 | 49.87028 | 14.80381 | 137° | 111km/h | 7946m | 5.2m/s | -25.8°C | 0% | 0hPa | 2.9V | 00:00:00 | 00:00:00 | 08:30:00 | |
| DO3MHA-11 | 2026-09-03 23:38:21 | 49.87106 | 14.80256 | 133° | 117km/h | 7926m | 4.0m/s | -25.8°C | 0% | 0hPa | 2.7V | 00:00:00 | 00:51:34 | 00:00:00 | |
| OE5DRO-10 | 2026-09-03 23:38:15 | 49.87234 | 14.80066 | 144° | 111km/h | 7896m | 6.4m/s | -25.6°C | 0% | 0hPa | 2.7V | 00:00:00 | 00:00:00 | 00:00:00 | |
| DO3MHA-11 | 2026-09-03 23:38:11 | 49.87330 | 14.79960 | 143° | 108km/h | 7868m | 6.3m/s | -25.4°C | 0% | 0hPa | 2.7V | 00:00:00 | 00:51:24 | 00:00:00 | |
| PG1ADW-2 | 2026-09-03 23:38:05 | 49.87445 | 14.79790 | 134° | 110km/h | 7830m | 4.0m/s | -25.1°C | 0% | 0hPa | 2.7V | 00:00:00 | 00:00:00 | 00:00:00 | |
| ANDY1245 | 2026-09-03 23:38:03 | 49.87463 | 14.79760 | 133° | 108km/h | 7825m | 4.9m/s | 0°C | 0% | 0hPa | 2.7V | 00:00:00 | 00:00:00 | 00:00:00 | |
| NBG1-10 | 2026-09-03 23:38:02 | 49.87500 | 14.79695 | 132° | 110km/h | 7816m | 4.1m/s | -25.1°C | 0% | 0hPa | 2.7V | 00:00:00 | 00:51:15 | 00:00:00 | |
| OE5MMP-10 | 2026-09-03 23:38:01 | 49.87519 | 14.79662 | 132° | 115km/h | 7811m | 5.1m/s | -25.0°C | 0% | 0hPa | 2.7V | 00:00:00 | 00:51:14 | 00:00:00 | |
| OE5DRO-10 | 2026-09-03 23:37:56 | 49.87624 | 14.79502 | 138° | 111km/h | 7787m | 7.4m/s | -24.8°C | 0% | 0hPa | 2.7V | 00:00:00 | 00:00:00 | 00:00:00 | |
| OK1ALN | 2026-09-03 23:37:55 | 49.87624 | 14.79502 | 139° | 122km/h | 7787m | 7.4m/s | -24.9°C | 97.4% | 0hPa | 2.9V | 00:00:00 | 00:00:00 | 00:00:00 | |
| OE5MMP-10 | 2026-09-03 23:37:51 | 49.87721 | 14.79343 | 130° | 104km/h | 7751m | 7.2m/s | -24.6°C | 0% | 0hPa | 2.9V | 00:00:00 | 00:51:04 | 00:00:00 | |
| OE5MMP-10 | 2026-09-03 23:37:41 | 49.87892 | 14.79014 | 132° | 106km/h | 7693m | 4.6m/s | -24.1°C | 99.9% | 0hPa | 2.9V | 00:00:00 | 00:50:54 | 00:00:00 | |
| OE5DRO-10 | 2026-09-03 23:37:37 | 49.87976 | 14.78893 | 143° | 104km/h | 7671m | 5.7m/s | -23.9°C | 98.6% | 0hPa | 2.9V | 00:00:00 | 00:00:00 | 00:00:00 | |
| OK1ALN | 2026-09-03 23:37:35 | 49.88017 | 14.78843 | 141° | 99km/h | 7661m | 5.2m/s | -23.9°C | 93.0% | 0hPa | 2.9V | 00:00:00 | 00:00:00 | 00:00:00 | |
| DO3MHA-11 | 2026-09-03 23:37:31 | 49.88089 | 14.78732 | 134° | 104km/h | 7635m | 7.6m/s | -23.5°C | 94.9% | 0hPa | 2.9V | 00:00:00 | 00:50:44 | 00:00:00 | |
| NBG1-10 | 2026-09-03 23:37:29 | 49.88127 | 14.78670 | 135° | 102km/h | 7623m | 5.9m/s | -23.4°C | 94.8% | 0hPa | 2.9V | 00:00:00 | 00:50:42 | 00:00:00 | |
| PG1ADW-2 | 2026-09-03 23:37:25 | 49.88197 | 14.78549 | 127° | 106km/h | 7599m | 5.2m/s | -23.2°C | 93.7% | 0hPa | 2.9V | 00:00:00 | 00:50:38 | 00:00:00 | |
| DO3MHA-11 | 2026-09-03 23:37:21 | 49.88262 | 14.78431 | 136° | 111km/h | 7580m | 5.8m/s | -23.1°C | 94.4% | 0hPa | 2.7V | 00:00:00 | 00:50:34 | 08:30:00 | |
| OE5DRO-10 | 2026-09-03 23:37:18 | 49.88325 | 14.78343 | 139° | 102km/h | 7558m | 8.4m/s | -22.9°C | 90.5% | 0hPa | 2.7V | 00:00:00 | 00:00:00 | 00:00:00 | |
| OK1ALN | 2026-09-03 23:37:13 | 49.88412 | 14.78221 | 139° | 106km/h | 7534m | 4.8m/s | -22.7°C | 86.5% | 0hPa | 2.7V | 00:00:00 | 00:00:00 | 00:00:00 | |
| DO3MHA-11 | 2026-09-03 23:37:11 | 49.88466 | 14.78138 | 134° | 93km/h | 7512m | 7.7m/s | -22.4°C | 88.6% | 0hPa | 2.7V | 00:00:00 | 00:50:24 | 00:00:00 | |
| PG1ADW-2 | 2026-09-03 23:37:05 | 49.88578 | 14.77982 | 138° | 104km/h | 7477m | 6.3m/s | -22.2°C | 91.2% | 0hPa | 2.7V | 00:00:00 | 00:00:00 | 00:00:00 | |
| DO3MHA-11 | 2026-09-03 23:37:00 | 49.88655 | 14.77851 | 133° | 110km/h | 7454m | 4.1m/s | -22.0°C | 90.1% | 0hPa | 2.7V | 00:00:00 | 00:50:13 | 00:00:00 | |
| OE5DRO-10 | 2026-09-03 23:36:59 | 49.88672 | 14.77823 | 135° | 106km/h | 7449m | 5.0m/s | -21.9°C | 88.3% | 0hPa | 2.7V | 00:00:00 | 00:00:00 | 00:00:00 | |
| NBG1-10 | 2026-09-03 23:36:56 | 49.88732 | 14.77730 | 135° | 104km/h | 7430m | 7.6m/s | -21.8°C | 87.4% | 0hPa | 2.9V | 00:00:00 | 00:50:09 | 00:00:00 | |
| OK1ALN | 2026-09-03 23:36:53 | 49.88773 | 14.77666 | 136° | 113km/h | 7417m | 5.6m/s | -21.8°C | 84.5% | 0hPa | 2.9V | 00:00:00 | 00:00:00 | 00:00:00 | |
| DO3MHA-11 | 2026-09-03 23:36:50 | 49.88854 | 14.77551 | 138° | 100km/h | 7393m | 7.2m/s | -21.5°C | 87.7% | 0hPa | 2.9V | 00:00:00 | 00:50:03 | 00:00:00 | |
| PG1ADW-2 | 2026-09-03 23:36:44 | 49.88968 | 14.77395 | 145° | 102km/h | 7349m | 6.2m/s | -21.2°C | 86.0% | 0hPa | 2.7V | 00:00:00 | 00:00:00 | 00:00:00 | |
| DO3MHA-11 | 2026-09-03 23:36:40 | 49.89047 | 14.77295 | 135° | 100km/h | 7329m | 6.1m/s | -21.0°C | 85.9% | 0hPa | 2.7V | 00:00:00 | 00:49:53 | 00:00:00 | |
| OE5MMP-10 | 2026-09-03 23:36:35 | 49.89140 | 14.77160 | 144° | 102km/h | 7292m | 6.7m/s | -20.6°C | 82.5% | 0hPa | 2.7V | 00:00:00 | 00:49:48 | 00:00:00 | |
| OK1ALN | 2026-09-03 23:36:32 | 49.89179 | 14.77113 | 142° | 97km/h | 7278m | 7.2m/s | -20.6°C | 78.5% | 0hPa | 2.7V | 00:00:00 | 00:00:00 | 00:00:00 | |
| DO3MHA-11 | 2026-09-03 23:36:30 | 49.89235 | 14.77036 | 135° | 106km/h | 7259m | 4.9m/s | -20.4°C | 81.7% | 0hPa | 2.7V | 00:00:00 | 00:49:43 | 00:00:00 | |
| OE5MMP-10 | 2026-09-03 23:36:25 | 49.89328 | 14.76891 | 140° | 110km/h | 7236m | 4.0m/s | -20.1°C | 82.6% | 0hPa | 2.7V | 00:00:00 | 00:49:38 | 00:00:00 | |
| PG1ADW-2 | 2026-09-03 23:36:24 | 49.89348 | 14.76865 | 140° | 106km/h | 7232m | 4.3m/s | 0°C | 0% | 0hPa | 2.7V | 00:00:00 | 00:00:00 | 00:00:00 | |
| NBG1-10 | 2026-09-03 23:36:23 | 49.89369 | 14.76838 | 141° | 102km/h | 7226m | 7.8m/s | -20.0°C | 80.8% | 0hPa | 2.7V | 00:00:00 | 00:49:36 | 00:00:00 | |
| OE5DRO-10 | 2026-09-03 23:36:21 | 49.89411 | 14.76780 | 137° | 104km/h | 7210m | 6.7m/s | 0°C | 0% | 0hPa | 2.7V | 00:00:00 | 00:00:00 | 00:00:00 | |
| DO3MHA-11 | 2026-09-03 23:36:20 | 49.89432 | 14.76748 | 135° | 102km/h | 7204m | 5.5m/s | -19.9°C | 80.7% | 0hPa | 2.7V | 00:00:00 | 00:49:33 | 00:00:00 | |
| ANDY1245 | 2026-09-03 23:36:16 | 49.89494 | 14.76654 | 137° | 111km/h | 7192m | 5.2m/s | 0°C | 0% | 0hPa | 2.9V | 00:00:00 | 00:00:00 | 00:00:00 | |
| OE5MMP-10 | 2026-09-03 23:36:15 | 49.89531 | 14.76597 | 135° | 99km/h | 7179m | 8.7m/s | -19.7°C | 80.2% | 0hPa | 2.9V | 00:00:00 | 00:49:28 | 08:30:00 | |
| OK1ALN | 2026-09-03 23:36:13 | 49.89564 | 14.76544 | 135° | 89km/h | 7163m | 7.5m/s | -19.6°C | 76.0% | 0hPa | 2.9V | 00:00:00 | 00:00:00 | 00:00:00 | |
| ANDY1245 | 2026-09-03 23:36:11 | 49.89579 | 14.76519 | 136° | 88km/h | 7156m | 7.0m/s | 0°C | 0% | 0hPa | 2.9V | 00:00:00 | 00:00:00 | 00:00:00 | |
| DO3MHA-11 | 2026-09-03 23:36:10 | 49.89613 | 14.76468 | 137° | 102km/h | 7144m | 4.9m/s | -19.4°C | 80.8% | 0hPa | 2.9V | 00:00:00 | 00:49:23 | 00:00:00 | |
| OE5MMP-10 | 2026-09-03 23:36:05 | 49.89708 | 14.76319 | 132° | 97km/h | 7116m | 5.9m/s | -19.2°C | 83.3% | 0hPa | 2.9V | 00:00:00 | 00:49:18 | 00:00:00 | |
| PG1ADW-2 | 2026-09-03 23:36:04 | 49.89725 | 14.76289 | 132° | 100km/h | 7111m | 3.9m/s | 0°C | 0% | 0hPa | 2.9V | 00:00:00 | 00:49:17 | 00:00:00 | |
| OE5DRO-10 | 2026-09-03 23:36:02 | 49.89758 | 14.76235 | 137° | 95km/h | 7101m | 6.2m/s | 0°C | 0% | 0hPa | 2.9V | 00:00:00 | 00:00:00 | 00:00:00 | |
| DO3MHA-11 | 2026-09-03 23:36:00 | 49.89794 | 14.76185 | 139° | 99km/h | 7089m | 6.5m/s | -19.1°C | 84.5% | 0hPa | 2.9V | 00:00:00 | 00:49:13 | 00:00:00 | |
| SP3BTT-10 | 2026-09-03 23:35:58 | 49.89830 | 14.76134 | 136° | 93km/h | 7074m | 7.7m/s | 0°C | 0% | 0hPa | 2.9V | 00:00:00 | 00:00:00 | 00:00:00 | |
| OE5MMP-10 | 2026-09-03 23:35:55 | 49.89880 | 14.76059 | 138° | 106km/h | 7054m | 5.6m/s | -18.9°C | 87.6% | 0hPa | 2.9V | 00:00:00 | 00:49:08 | 00:00:00 | |
| OK1ALN | 2026-09-03 23:35:51 | 49.89936 | 14.75976 | 136° | 108km/h | 7034m | 6.8m/s | -18.8°C | 85.8% | 0hPa | 2.9V | 00:00:00 | 00:00:00 | 00:00:00 | |
| NBG1-10 | 2026-09-03 23:35:50 | 49.89976 | 14.75912 | 134° | 97km/h | 7022m | 5.5m/s | -18.7°C | 90.2% | 0hPa | 2.9V | 00:00:00 | 00:49:03 | 00:00:00 | |
| PG1ADW-2 | 2026-09-03 23:35:44 | 49.90086 | 14.75749 | 140° | 95km/h | 6987m | 6.4m/s | 0°C | 0% | 0hPa | 2.9V | 00:00:00 | 00:00:00 | 00:00:00 | |
| DO3MHA-11 | 2026-09-03 23:35:40 | 49.90151 | 14.75647 | 132° | 89km/h | 6961m | 6.7m/s | -18.2°C | 90.4% | 0hPa | 2.9V | 00:00:00 | 00:48:53 | 00:00:00 | |
| OE5MMP-10 | 2026-09-03 23:35:35 | 49.90229 | 14.75514 | 134° | 84km/h | 6931m | 4.5m/s | -18.0°C | 91.5% | 0hPa | 2.9V | 00:00:00 | 00:48:48 | 00:00:00 | |
| OK1ALN | 2026-09-03 23:35:32 | 49.90275 | 14.75441 | 137° | 78km/h | 6911m | 6.5m/s | -18.0°C | 88.5% | 0hPa | 2.9V | 00:00:00 | 00:00:00 | 00:00:00 | |
| OE3JTB-15 | 2026-09-03 23:35:30 | 49.90305 | 14.75397 | 139° | 99km/h | 6902m | 4.8m/s | -17.8°C | 93.0% | 0hPa | 2.9V | 00:00:00 | 00:00:00 | 00:00:00 | |
| PG1ADW-2 | 2026-09-03 23:35:24 | 49.90417 | 14.75229 | 132° | 104km/h | 6870m | 4.7m/s | 0°C | 0% | 0hPa | 2.9V | 00:00:00 | 00:00:00 | 00:00:00 | |
| DO3MHA-11 | 2026-09-03 23:35:20 | 49.90490 | 14.75112 | 138° | 95km/h | 6847m | 7.3m/s | -17.5°C | 94.6% | 0hPa | 2.9V | 00:00:00 | 00:48:33 | 00:00:00 | |
| NBG1-10 | 2026-09-03 23:35:17 | 49.90549 | 14.75036 | 144° | 91km/h | 6825m | 5.7m/s | -17.4°C | 96.8% | 0hPa | 2.9V | 00:00:00 | 00:48:30 | 00:00:00 | |
| OK1ALN | 2026-09-03 23:35:11 | 49.90657 | 14.74895 | 133° | 89km/h | 6792m | 7.2m/s | -17.2°C | 93.6% | 0hPa | 2.9V | 00:00:00 | 00:00:00 | 00:00:00 | |
| DO3MHA-11 | 2026-09-03 23:35:10 | 49.90672 | 14.74868 | 130° | 97km/h | 6784m | 8.2m/s | -17.1°C | 97.2% | 0hPa | 2.9V | 00:00:00 | 00:48:23 | 00:00:00 | |
| OE3JTB-15 | 2026-09-03 23:35:01 | 49.90809 | 14.74602 | 136° | 91km/h | 6733m | 7.9m/s | -16.9°C | 0% | 0hPa | 2.9V | 00:00:00 | 00:48:14 | 00:00:00 | |
| DO3MHA-11 | 2026-09-03 23:35:00 | 49.90827 | 14.74575 | 137° | 86km/h | 6725m | 7.3m/s | -16.9°C | 0% | 0hPa | 2.9V | 00:00:00 | 00:48:13 | 00:00:00 | |
| DO3MHA-11 | 2026-09-03 23:34:50 | 49.90968 | 14.74316 | 134° | 91km/h | 6675m | 5.5m/s | -16.5°C | 98.8% | 0hPa | 2.9V | 00:00:00 | 00:48:03 | 00:00:00 | |
| DO3MHA-11 | 2026-09-03 23:34:40 | 49.91127 | 14.74054 | 134° | 95km/h | 6613m | 3.6m/s | -16.1°C | 0% | 0hPa | 2.9V | 00:00:00 | 00:47:53 | 00:00:00 | |
| OE3JTB-15 | 2026-09-03 23:34:32 | 49.91251 | 14.73821 | 124° | 89km/h | 6571m | 5.2m/s | -16.3°C | 0% | 0hPa | 2.9V | 00:00:00 | 00:00:00 | 00:00:00 | |
| DO3MHA-11 | 2026-09-03 23:34:30 | 49.91278 | 14.73765 | 130° | 91km/h | 6561m | 4.7m/s | -16.4°C | 0% | 0hPa | 2.9V | 00:00:00 | 00:47:43 | 00:00:00 | |
| OK1ALN | 2026-09-03 23:34:29 | 49.91278 | 14.73765 | 130° | 89km/h | 6561m | 4.7m/s | -16.5°C | 98.2% | 0hPa | 2.9V | 00:00:00 | 00:00:00 | 00:00:00 | |
| DO3MHA-11 | 2026-09-03 23:34:20 | 49.91415 | 14.73483 | 127° | 84km/h | 6505m | 4.4m/s | -15.9°C | 0% | 0hPa | 2.9V | 00:00:00 | 00:47:33 | 08:30:00 | |
| DO3MHA-11 | 2026-09-03 23:34:10 | 49.91531 | 14.73209 | 123° | 91km/h | 6454m | 4.9m/s | -15.6°C | 0% | 0hPa | 2.9V | 00:00:00 | 00:47:23 | 00:00:00 | |
| OK1ALN | 2026-09-03 23:34:09 | 49.91545 | 14.73178 | 129° | 97km/h | 6449m | 3.8m/s | -15.6°C | 99.3% | 0hPa | 2.9V | 00:00:00 | 00:00:00 | 00:00:00 | |
| OE3JTB-15 | 2026-09-03 23:34:03 | 49.91633 | 14.73012 | 123° | 93km/h | 6415m | 5.1m/s | -15.3°C | 0% | 0hPa | 2.9V | 00:00:00 | 00:00:00 | 00:00:00 | |
| DO3MHA-11 | 2026-09-03 23:34:00 | 49.91675 | 14.72927 | 133° | 91km/h | 6397m | 5.2m/s | -15.1°C | 0% | 0hPa | 2.9V | 00:00:00 | 00:47:13 | 00:00:00 | |
| DO3MHA-11 | 2026-09-03 23:33:50 | 49.91825 | 14.72659 | 120° | 100km/h | 6340m | 7.3m/s | -14.7°C | 0% | 0hPa | 2.9V | 00:00:00 | 00:47:03 | 00:00:00 | |
| OK1ALN | 2026-09-03 23:33:47 | 49.91847 | 14.72599 | 123° | 86km/h | 6327m | 5.4m/s | -14.6°C | 96.9% | 0hPa | 2.7V | 00:00:00 | 00:00:00 | 00:00:00 | |
| OE5MMP-10 | 2026-09-03 23:33:44 | 49.91895 | 14.72499 | 131° | 88km/h | 6306m | 4.8m/s | -14.4°C | 0% | 0hPa | 2.7V | 00:00:00 | 00:46:57 | 00:00:00 | |
| DO3MHA-11 | 2026-09-03 23:33:34 | 49.92058 | 14.72204 | 130° | 97km/h | 6253m | 5.2m/s | -14.0°C | 0% | 0hPa | 2.7V | 00:00:00 | 00:46:47 | 00:00:00 | |
| OE5MMP-10 | 2026-09-03 23:33:32 | 49.92083 | 14.72155 | 127° | 93km/h | 6242m | 7.1m/s | -14.0°C | 99.0% | 0hPa | 2.7V | 00:00:00 | 00:46:45 | 00:00:00 | |
| ANDY1245 | 2026-09-03 23:33:27 | 49.92130 | 14.72042 | 124° | 99km/h | 6219m | 4.9m/s | 0°C | 0% | 0hPa | 2.9V | 00:00:00 | 00:00:00 | 00:00:00 | |
| OK1ALN | 2026-09-03 23:33:26 | 49.92144 | 14.72009 | 123° | 102km/h | 6213m | 6.0m/s | -13.9°C | 94.7% | 0hPa | 2.9V | 00:00:00 | 00:00:00 | 00:00:00 | |
| DO3MHA-11 | 2026-09-03 23:33:24 | 49.92185 | 14.71906 | 122° | 91km/h | 6200m | 4.4m/s | -13.8°C | 0% | 0hPa | 2.9V | 00:00:00 | 00:46:37 | 00:00:00 | |
| OE5MMP-10 | 2026-09-03 23:33:22 | 49.92210 | 14.71842 | 124° | 91km/h | 6191m | 4.3m/s | -13.9°C | 0% | 0hPa | 2.9V | 00:00:00 | 00:46:35 | 00:00:00 | |
| ANDY1245 | 2026-09-03 23:33:21 | 49.92210 | 14.71842 | 125° | 91km/h | 6191m | 4.3m/s | 0°C | 0% | 0hPa | 2.9V | 00:00:00 | 00:00:00 | 00:00:00 | |
| NBG1-10 | 2026-09-03 23:33:19 | 49.92245 | 14.71759 | 121° | 97km/h | 6174m | 8.1m/s | 0°C | 0% | 0hPa | 2.9V | 00:00:00 | 00:46:32 | 00:00:00 | |
| ANDY1245 | 2026-09-03 23:33:15 | 49.92276 | 14.71668 | 121° | 97km/h | 6157m | 4.7m/s | 0°C | 0% | 0hPa | 2.9V | 00:00:00 | 00:00:00 | 00:00:00 | |
| DO3MHA-11 | 2026-09-03 23:33:14 | 49.92303 | 14.71603 | 124° | 100km/h | 6145m | 7.1m/s | -13.6°C | 0% | 0hPa | 2.9V | 00:00:00 | 00:46:27 | 00:00:00 | |
| OE5MMP-10 | 2026-09-03 23:33:12 | 49.92333 | 14.71540 | 130° | 102km/h | 6134m | 3.8m/s | -13.5°C | 0% | 0hPa | 2.9V | 00:00:00 | 00:46:25 | 00:00:00 | |
| OE3JTB-15 | 2026-09-03 23:33:05 | 49.92447 | 14.71326 | 123° | 97km/h | 6103m | 5.8m/s | -13.2°C | 99.9% | 0hPa | 2.9V | 00:00:00 | 00:00:00 | 00:00:00 | |
| DO3MHA-11 | 2026-09-03 23:33:04 | 49.92461 | 14.71291 | 123° | 99km/h | 6096m | 7.4m/s | -13.1°C | 99.6% | 0hPa | 2.7V | 00:00:00 | 00:46:17 | 00:00:00 | |
| OE5MMP-10 | 2026-09-03 23:33:02 | 49.92490 | 14.71220 | 123° | 95km/h | 6083m | 4.2m/s | -13.0°C | 99.4% | 0hPa | 2.7V | 00:00:00 | 00:46:15 | 08:30:00 | |
| DO3MHA-11 | 2026-09-03 23:32:54 | 49.92587 | 14.70962 | 121° | 91km/h | 6036m | 7.0m/s | -12.6°C | 97.5% | 0hPa | 2.9V | 00:00:00 | 00:46:07 | 00:00:00 | |
| OE5MMP-10 | 2026-09-03 23:32:52 | 49.92612 | 14.70898 | 122° | 93km/h | 6022m | 6.5m/s | -12.6°C | 97.8% | 0hPa | 2.9V | 00:00:00 | 00:46:05 | 00:00:00 | |
| NBG1-10 | 2026-09-03 23:32:46 | 49.92687 | 14.70721 | 120° | 95km/h | 5989m | 5.9m/s | 0°C | 0% | 0hPa | 2.9V | 00:00:00 | 00:45:59 | 00:00:00 | |
| ANDY1245 | 2026-09-03 23:32:45 | 49.92687 | 14.70721 | 121° | 86km/h | 5989m | 5.9m/s | 0°C | 0% | 0hPa | 2.9V | 00:00:00 | 00:00:00 | 00:00:00 | |
| DO3MHA-11 | 2026-09-03 23:32:44 | 49.92709 | 14.70657 | 118° | 104km/h | 5979m | 4.7m/s | -12.4°C | 0% | 0hPa | 2.9V | 00:00:00 | 00:45:57 | 08:30:00 | |
| OE5MMP-10 | 2026-09-03 23:32:42 | 49.92734 | 14.70589 | 122° | 106km/h | 5969m | 4.7m/s | -12.4°C | 0% | 0hPa | 2.9V | 00:00:00 | 00:45:55 | 00:00:00 | |
| ANDY1245 | 2026-09-03 23:32:40 | 49.92747 | 14.70556 | 126° | 100km/h | 5964m | 4.3m/s | 0°C | 0% | 0hPa | 2.9V | 00:00:00 | 00:00:00 | 00:00:00 | |
| OE3JTB-15 | 2026-09-03 23:32:36 | 49.92828 | 14.70388 | 124° | 95km/h | 5937m | 3.6m/s | -12.4°C | 0% | 0hPa | 2.9V | 00:00:00 | 00:00:00 | 00:00:00 | |
| DO3MHA-11 | 2026-09-03 23:32:34 | 49.92858 | 14.70317 | 123° | 95km/h | 5927m | 5.8m/s | 0°C | 0% | 0hPa | 2.9V | 00:00:00 | 00:45:47 | 00:00:00 | |
| OE5MMP-10 | 2026-09-03 23:32:32 | 49.92886 | 14.70249 | 124° | 91km/h | 5914m | 6.4m/s | -12.3°C | 0% | 0hPa | 2.9V | 00:00:00 | 00:45:45 | 00:00:00 | |
| DO3MHA-11 | 2026-09-03 23:32:24 | 49.93003 | 14.70026 | 131° | 93km/h | 5875m | 5.4m/s | 0°C | 0% | 0hPa | 2.9V | 00:00:00 | 00:45:37 | 00:00:00 | |
| OE5MMP-10 | 2026-09-03 23:32:22 | 49.93033 | 14.69973 | 134° | 93km/h | 5865m | 5.0m/s | -11.9°C | 0% | 0hPa | 2.9V | 00:00:00 | 00:45:35 | 00:00:00 | |
| DO3MHA-11 | 2026-09-03 23:32:14 | 49.93142 | 14.69733 | 116° | 95km/h | 5821m | 4.3m/s | 0°C | 0% | 0hPa | 2.9V | 00:00:00 | 00:45:27 | 00:00:00 | |
| OE5MMP-10 | 2026-09-03 23:32:12 | 49.93162 | 14.69672 | 120° | 99km/h | 5814m | 3.5m/s | -11.6°C | 0% | 0hPa | 2.9V | 00:00:00 | 00:45:25 | 00:00:00 | |
| ANDY1245 | 2026-09-03 23:32:10 | 49.93173 | 14.69644 | 122° | 82km/h | 5810m | 4.8m/s | 0°C | 0% | 0hPa | 2.9V | 00:00:00 | 00:00:00 | 00:00:00 | |
| OE3JTB-15 | 2026-09-03 23:32:07 | 49.93228 | 14.69522 | 128° | 99km/h | 5788m | 4.9m/s | -11.4°C | 0% | 0hPa | 2.9V | 00:00:00 | 00:45:20 | 00:00:00 | |
| OK1ALN | 2026-09-03 23:32:04 | 49.93277 | 14.69421 | 124° | 104km/h | 5771m | 3.8m/s | -11.3°C | 99.2% | 0hPa | 2.9V | 00:00:00 | 00:00:00 | 00:00:00 | |
| OE5MMP-10 | 2026-09-03 23:32:02 | 49.93303 | 14.69351 | 119° | 97km/h | 5761m | 5.8m/s | -11.2°C | 0% | 0hPa | 2.9V | 00:00:00 | 00:45:15 | 00:00:00 | |
| DO3MHA-11 | 2026-09-03 23:31:54 | 49.93421 | 14.69104 | 128° | 99km/h | 5713m | 6.5m/s | 0°C | 0% | 0hPa | 2.9V | 00:00:00 | 00:45:07 | 00:00:00 | |
| OE5MMP-10 | 2026-09-03 23:31:52 | 49.93448 | 14.69045 | 124° | 100km/h | 5699m | 7.8m/s | -10.6°C | 97.4% | 0hPa | 2.9V | 00:00:00 | 00:45:05 | 00:00:00 | |
| OE5MMP-10 | 2026-09-03 23:31:42 | 49.93600 | 14.68732 | 132° | 88km/h | 5644m | 3.4m/s | -10.4°C | 0% | 0hPa | 2.9V | 00:00:00 | 00:44:55 | 00:00:00 | |
| DO3MHA-11 | 2026-09-03 23:31:34 | 49.93717 | 14.68532 | 129° | 99km/h | 5608m | 4.2m/s | 0°C | 0% | 0hPa | 2.9V | 00:00:00 | 00:44:47 | 00:00:00 | |
| OE5MMP-10 | 2026-09-03 23:31:32 | 49.93746 | 14.68473 | 127° | 100km/h | 5598m | 5.5m/s | -10.1°C | 99.9% | 0hPa | 2.9V | 00:00:00 | 00:44:45 | 08:30:00 | |
| DO3MHA-11 | 2026-09-03 23:31:24 | 49.93868 | 14.68222 | 122° | 88km/h | 5541m | 4.6m/s | 0°C | 0% | 0hPa | 2.9V | 00:00:00 | 00:44:37 | 00:00:00 | |
| OE5MMP-10 | 2026-09-03 23:31:22 | 49.93896 | 14.68154 | 125° | 89km/h | 5530m | 4.7m/s | -9.7°C | 0% | 0hPa | 2.9V | 00:00:00 | 00:44:35 | 00:00:00 | |
| OE5MMP-10 | 2026-09-03 23:31:12 | 49.94025 | 14.67873 | 121° | 89km/h | 5474m | 6.5m/s | -9.2°C | 98.1% | 0hPa | 2.9V | 00:00:00 | 00:44:25 | 00:00:00 | |
| DO3MHA-11 | 2026-09-03 23:31:07 | 49.94093 | 14.67736 | 133° | 88km/h | 5446m | 4.1m/s | 0°C | 0% | 0hPa | 2.9V | 00:00:00 | 00:44:20 | 00:00:00 | |
| OE3JTB-15 | 2026-09-03 23:31:06 | 49.94108 | 14.67712 | 136° | 91km/h | 5442m | 4.6m/s | -8.9°C | 96.4% | 0hPa | 2.9V | 00:00:00 | 00:00:00 | 08:30:00 | |
| OK1ALN | 2026-09-03 23:31:03 | 49.94156 | 14.67635 | 131° | 95km/h | 5428m | 4.1m/s | -8.9°C | 93.5% | 0hPa | 2.9V | 00:00:00 | 00:00:00 | 00:00:00 | |
| OE5MMP-10 | 2026-09-03 23:31:02 | 49.94172 | 14.67606 | 127° | 86km/h | 5423m | 4.3m/s | -8.8°C | 96.3% | 0hPa | 2.9V | 00:00:00 | 00:44:15 | 00:00:00 | |
| OK1ALN | 2026-09-03 23:30:41 | 49.94427 | 14.67002 | 120° | 89km/h | 5309m | 4.8m/s | -8.1°C | 94.2% | 0hPa | 2.9V | 00:00:00 | 00:00:00 | 00:00:00 | |
| OE3JTB-15 | 2026-09-03 23:30:37 | 49.94479 | 14.66850 | 123° | 93km/h | 5286m | 4.3m/s | -8.0°C | 0% | 0hPa | 2.9V | 00:00:00 | 00:00:00 | 00:00:00 | |
| OK1ALN | 2026-09-03 23:30:01 | 49.94961 | 14.65801 | 121° | 82km/h | 5082m | 5.3m/s | -6.8°C | 93.8% | 0hPa | 2.9V | 00:00:00 | 00:00:00 | 00:00:00 | |
| OE3JTB-15 | 2026-09-03 23:29:49 | 49.95099 | 14.65461 | 125° | 88km/h | 5001m | 6.6m/s | -6.1°C | 92.1% | 0hPa | 2.9V | 00:00:00 | 00:43:02 | 00:00:00 | |
| OE5MMP-10 | 2026-09-03 23:29:44 | 49.95156 | 14.65335 | 117° | 89km/h | 4976m | 3.4m/s | -6.1°C | 91.7% | 0hPa | 2.9V | 00:00:00 | 00:42:57 | 00:00:00 | |
| OK1ALN | 2026-09-03 23:29:40 | 49.95195 | 14.65212 | 120° | 93km/h | 4958m | 5.7m/s | -6.0°C | 88.6% | 0hPa | 2.9V | 00:00:00 | 00:00:00 | 00:00:00 | |
| OE5MMP-10 | 2026-09-03 23:29:34 | 49.95267 | 14.65027 | 125° | 91km/h | 4923m | 7.4m/s | 0°C | 0% | 0hPa | 2.9V | 00:00:00 | 00:42:47 | 00:00:00 | |
| ANDY1245 | 2026-09-03 23:29:31 | 49.95296 | 14.64962 | 125° | 102km/h | 4910m | 4.6m/s | 0°C | 0% | 0hPa | 2.9V | 00:00:00 | 00:00:00 | 00:00:00 | |
| OE5MMP-10 | 2026-09-03 23:29:24 | 49.95383 | 14.64718 | 119° | 97km/h | 4871m | 6.9m/s | 0°C | 0% | 0hPa | 2.9V | 00:00:00 | 00:42:37 | 00:00:00 | |
| OK1ALN | 2026-09-03 23:29:20 | 49.95432 | 14.64592 | 123° | 100km/h | 4851m | 5.5m/s | -5.4°C | 92.2% | 0hPa | 2.9V | 00:00:00 | 00:00:00 | 00:00:00 | |
| OE5MMP-10 | 2026-09-03 23:29:14 | 49.95508 | 14.64390 | 118° | 89km/h | 4826m | 6.5m/s | 0°C | 0% | 0hPa | 2.9V | 00:00:00 | 00:42:27 | 00:00:00 | |
| OE5MMP-10 | 2026-09-03 23:29:04 | 49.95622 | 14.64085 | 122° | 84km/h | 4775m | 7.9m/s | 0°C | 0% | 0hPa | 2.9V | 00:00:00 | 00:42:17 | 00:00:00 | |
| OK1ALN | 2026-09-03 23:28:59 | 49.95669 | 14.63968 | 127° | 80km/h | 4751m | 4.0m/s | -5.6°C | 98.6% | 0hPa | 2.9V | 00:00:00 | 00:00:00 | 00:00:00 | |
| OE5MMP-10 | 2026-09-03 23:28:54 | 49.95747 | 14.63828 | 125° | 80km/h | 4721m | 7.9m/s | 0°C | 0% | 0hPa | 2.9V | 00:00:00 | 00:42:07 | 00:00:00 | |
| OE3JTB-15 | 2026-09-03 23:28:48 | 49.95808 | 14.63653 | 125° | 86km/h | 4687m | 5.7m/s | -6.5°C | 81.7% | 0hPa | 2.9V | 00:00:00 | 00:00:00 | 00:00:00 | |
| OK1ALN | 2026-09-03 23:28:38 | 49.95908 | 14.63379 | 122° | 91km/h | 4639m | 4.0m/s | -6.2°C | 60.5% | 0hPa | 2.9V | 00:00:00 | 00:00:00 | 00:00:00 | |
| OE3JTB-15 | 2026-09-03 23:28:19 | 49.96115 | 14.62794 | 108° | 82km/h | 4540m | 3.9m/s | -5.4°C | 61.1% | 0hPa | 2.9V | 00:00:00 | 00:00:00 | 00:00:00 | |
| OK1ALN | 2026-09-03 23:28:18 | 49.96115 | 14.62794 | 108° | 91km/h | 4540m | 3.9m/s | -5.5°C | 59.4% | 0hPa | 2.9V | 00:00:00 | 00:00:00 | 00:00:00 | |
| OK1ALN | 2026-09-03 23:27:57 | 49.96336 | 14.62212 | 123° | 71km/h | 4426m | 6.7m/s | -4.5°C | 58.1% | 0hPa | 2.9V | 00:00:00 | 00:00:00 | 00:00:00 | |
| OE3JTB-15 | 2026-09-03 23:27:49 | 49.96427 | 14.61940 | 115° | 86km/h | 4373m | 3.4m/s | -4.0°C | 63.2% | 0hPa | 2.9V | 00:00:00 | 00:41:02 | 00:00:00 | |
| OK1ALN | 2026-09-03 23:27:36 | 49.96539 | 14.61604 | 126° | 82km/h | 4306m | 5.4m/s | -3.6°C | 63.9% | 0hPa | 2.9V | 00:00:00 | 00:00:00 | 00:00:00 | |
| OE3JTB-15 | 2026-09-03 23:27:20 | 49.96752 | 14.61107 | 113° | 80km/h | 4226m | 4.7m/s | -3.0°C | 61.2% | 0hPa | 2.9V | 00:00:00 | 00:00:00 | 00:00:00 | |
| OK1ALN | 2026-09-03 23:27:16 | 49.96774 | 14.61012 | 111° | 86km/h | 4210m | 3.7m/s | -2.9°C | 58.7% | 0hPa | 0V | 00:00:00 | 00:00:00 | 00:00:00 | |
| OK1ALN | 2026-09-03 23:26:56 | 49.96991 | 14.60443 | 124° | 80km/h | 4108m | 3.9m/s | -1.9°C | 49.3% | 0hPa | 0V | 00:00:00 | 00:00:00 | 00:00:00 | |
| OE3JTB-15 | 2026-09-03 23:26:51 | 49.97046 | 14.60310 | 126° | 73km/h | 4081m | 5.2m/s | 0°C | 0% | 0hPa | 0V | 00:00:00 | 00:00:00 | 00:00:00 | |
| OK1ALN | 2026-09-03 23:26:34 | 49.97223 | 14.59866 | 129° | 73km/h | 3993m | 6.5m/s | -0.9°C | 33.6% | 0hPa | 0V | 00:00:00 | 00:00:00 | 00:00:00 | |
| OK1ALN | 2026-09-03 23:26:14 | 49.97412 | 14.59369 | 117° | 80km/h | 3886m | 3.0m/s | -0.2°C | 46.2% | 0hPa | 0V | 00:00:00 | 00:00:00 | 00:00:00 | |
| OK1ALN | 2026-09-03 23:25:53 | 49.97601 | 14.58878 | 126° | 75km/h | 3776m | 4.6m/s | 0.7°C | 36.7% | 0hPa | 0V | 00:00:00 | 00:00:00 | 00:00:00 | |
| OK1ALN | 2026-09-03 23:25:33 | 49.97827 | 14.58359 | 131° | 68km/h | 3671m | 3.3m/s | 1.9°C | 18.8% | 0hPa | 0V | 00:00:00 | 00:00:00 | 00:00:00 | |
| OK1ALN | 2026-09-03 23:25:12 | 49.98037 | 14.57864 | 119° | 88km/h | 3570m | 4.5m/s | 2.6°C | 17.3% | 0hPa | 0V | 00:00:00 | 00:00:00 | 00:00:00 | |
| OK1ALN | 2026-09-03 23:24:52 | 49.98224 | 14.57382 | 120° | 78km/h | 3474m | 4.5m/s | 2.9°C | 17.7% | 0hPa | 0V | 00:00:00 | 00:00:00 | 00:00:00 | |
| OE3JTB-15 | 2026-09-03 23:24:50 | 49.98254 | 14.57301 | 118° | 73km/h | 3459m | 7.3m/s | 0°C | 0% | 0hPa | 0V | 00:00:00 | 00:38:03 | 00:00:00 | |
| OK1ALN | 2026-09-03 23:24:32 | 49.98382 | 14.56847 | 108° | 53km/h | 3364m | 6.7m/s | 3.5°C | 10.1% | 0hPa | 0V | 00:00:00 | 00:00:00 | 00:00:00 | |
| OK1ALN | 2026-09-03 23:24:10 | 49.98507 | 14.56324 | 111° | 68km/h | 3246m | 6.0m/s | 4.1°C | 11.9% | 0hPa | 0V | 00:00:00 | 00:00:00 | 00:00:00 | |
| OK1ALN | 2026-09-03 23:23:50 | 49.98657 | 14.55822 | 131° | 66km/h | 3136m | 5.8m/s | 4.6°C | 9.6% | 0hPa | 0V | 00:00:00 | 00:00:00 | 00:00:00 | |
| OK1ALN | 2026-09-03 23:23:30 | 49.98810 | 14.55410 | 123° | 49km/h | 3036m | 5.9m/s | 5.0°C | 12.2% | 0hPa | 0V | 00:00:00 | 00:00:00 | 00:00:00 | |
| OK1ALN | 2026-09-03 23:23:10 | 49.98934 | 14.54947 | 114° | 77km/h | 2920m | 6.9m/s | 4.3°C | 23.1% | 0hPa | 0V | 00:00:00 | 00:00:00 | 00:00:00 | |
| OE3JTB-15 | 2026-09-03 23:22:51 | 49.99081 | 14.54406 | 106° | 73km/h | 2802m | 5.2m/s | 0°C | 0% | 0hPa | 0V | 00:00:00 | 00:00:00 | 00:00:00 | |
| OK1ALN | 2026-09-03 23:22:49 | 49.99086 | 14.54380 | 105° | 69km/h | 2796m | 6.1m/s | 3.1°C | 55.8% | 0hPa | 0V | 00:00:00 | 00:00:00 | 00:00:00 | |
| OK1ALN | 2026-09-03 23:22:29 | 49.99182 | 14.53798 | 107° | 68km/h | 2678m | 4.5m/s | 3.2°C | 95.3% | 0hPa | 0V | 00:00:00 | 00:00:00 | 00:00:00 | |
| OK1ALN | 2026-09-03 23:22:08 | 49.99240 | 14.53197 | 95° | 73km/h | 2565m | 7.4m/s | 4.1°C | 95.8% | 0hPa | 0V | 00:00:00 | 00:00:00 | 00:00:00 | |
| OK1ALN | 2026-09-03 23:21:47 | 49.99311 | 14.52606 | 105° | 69km/h | 2446m | 6.5m/s | 5.0°C | 94.8% | 0hPa | 0V | 00:00:00 | 00:00:00 | 00:00:00 | |
| OK1ALN | 2026-09-03 23:21:27 | 49.99395 | 14.52040 | 112° | 71km/h | 2342m | 5.7m/s | 5.6°C | 99.7% | 0hPa | 0V | 00:00:00 | 00:00:00 | 00:00:00 | |
| OK1ALN | 2026-09-03 23:21:08 | 49.99467 | 14.51469 | 100° | 73km/h | 2241m | 7.2m/s | 6.1°C | 99.6% | 0hPa | 0V | 00:00:00 | 00:00:00 | 00:00:00 | |
| OK1ALN | 2026-09-03 23:20:47 | 49.99568 | 14.50932 | 98° | 58km/h | 2137m | 5.3m/s | 0°C | 0% | 0hPa | 0V | 00:00:00 | 00:00:00 | 00:00:00 | |
| OK1ALN | 2026-09-03 23:20:26 | 49.99665 | 14.50446 | 108° | 69km/h | 2029m | 3.8m/s | 0°C | 0% | 0hPa | 0V | 00:00:00 | 00:00:00 | 00:00:00 | |
| OK1ALN | 2026-09-03 23:20:07 | 49.99747 | 14.49956 | 102° | 57km/h | 1915m | 7.4m/s | 0°C | 0% | 0hPa | 0V | 00:00:00 | 00:00:00 | 00:00:00 | |
| OK1ALN | 2026-09-03 23:19:47 | 49.99838 | 14.49541 | 115° | 60km/h | 1797m | 6.9m/s | 0°C | 0% | 0hPa | 0V | 00:00:00 | 00:00:00 | 00:00:00 | |
| OK1ALN | 2026-09-03 23:19:24 | 49.99949 | 14.49111 | 110° | 55km/h | 1674m | 5.1m/s | 0°C | 0% | 0hPa | 0V | 00:00:00 | 00:00:00 | 00:00:00 | |
| OK1ALN | 2026-09-03 23:19:04 | 50.00056 | 14.48727 | 118° | 58km/h | 1562m | 4.1m/s | 0°C | 0% | 0hPa | 0V | 00:00:00 | 00:00:00 | 00:00:00 | |
| OK1ALN | 2026-09-03 23:18:38 | 50.00216 | 14.48170 | 122° | 58km/h | 1414m | 5.0m/s | 0°C | 0% | 0hPa | 0V | 00:00:00 | 00:00:00 | 00:00:00 |